<?xml version="1.0" encoding="UTF-8" standalone="no" ?>
<gpx xmlns="http://www.topografix.com/GPX/1/1" xmlns:xsi="http://www.w3.org/2001/XMLSchema-instance" xsi:schemaLocation="http://www.topografix.com/GPX/1/1 http://www.topografix.com/GPX/1/1/gpx.xsd" version="1.1" creator="VisuGPX - https://www.visugpx.com">
  <metadata>
    <name>Foncine le Bas,Creux Maldru</name>
  </metadata>
  <trk>
    <name><![CDATA[T2022-10-18-14-55]]></name>
    <extensions>
      <line xmlns="http://www.topografix.com/GPX/gpx_style/0/2">
        <color>0000FF</color>
        <width>4</width>
      </line>
    </extensions>
    <trkseg>
      <trkpt lat="46.63736" lon="6.03049">
        <ele>789.8</ele>
        <time>2022-10-18T06:28:17Z</time>
      </trkpt>
      <trkpt lat="46.63733" lon="6.03054">
        <ele>791.1</ele>
        <time>2022-10-18T06:28:21Z</time>
      </trkpt>
      <trkpt lat="46.63728" lon="6.03055">
        <ele>790.2</ele>
        <time>2022-10-18T06:28:27Z</time>
      </trkpt>
      <trkpt lat="46.63729" lon="6.03048">
        <ele>788</ele>
        <time>2022-10-18T06:28:50Z</time>
      </trkpt>
      <trkpt lat="46.63726" lon="6.03041">
        <ele>788.1</ele>
        <time>2022-10-18T06:28:56Z</time>
      </trkpt>
      <trkpt lat="46.63721" lon="6.0304">
        <ele>788.4</ele>
        <time>2022-10-18T06:29:01Z</time>
      </trkpt>
      <trkpt lat="46.63716" lon="6.03039">
        <ele>788.5</ele>
        <time>2022-10-18T06:29:06Z</time>
      </trkpt>
      <trkpt lat="46.63711" lon="6.0304">
        <ele>788.2</ele>
        <time>2022-10-18T06:29:11Z</time>
      </trkpt>
      <trkpt lat="46.63706" lon="6.03041">
        <ele>788.1</ele>
        <time>2022-10-18T06:29:15Z</time>
      </trkpt>
      <trkpt lat="46.63701" lon="6.03044">
        <ele>788.4</ele>
        <time>2022-10-18T06:29:19Z</time>
      </trkpt>
      <trkpt lat="46.63696" lon="6.03047">
        <ele>789.1</ele>
        <time>2022-10-18T06:29:23Z</time>
      </trkpt>
      <trkpt lat="46.63691" lon="6.03047">
        <ele>791.1</ele>
        <time>2022-10-18T06:29:31Z</time>
      </trkpt>
      <trkpt lat="46.63686" lon="6.03052">
        <ele>792.3</ele>
        <time>2022-10-18T06:29:38Z</time>
      </trkpt>
      <trkpt lat="46.63686" lon="6.03059">
        <ele>792.7</ele>
        <time>2022-10-18T06:29:45Z</time>
      </trkpt>
      <trkpt lat="46.63689" lon="6.03065">
        <ele>792.8</ele>
        <time>2022-10-18T06:29:51Z</time>
      </trkpt>
      <trkpt lat="46.63693" lon="6.0307">
        <ele>793.2</ele>
        <time>2022-10-18T06:29:57Z</time>
      </trkpt>
      <trkpt lat="46.63697" lon="6.03074">
        <ele>793.6</ele>
        <time>2022-10-18T06:30:01Z</time>
      </trkpt>
      <trkpt lat="46.63702" lon="6.03077">
        <ele>793.5</ele>
        <time>2022-10-18T06:30:06Z</time>
      </trkpt>
      <trkpt lat="46.63704" lon="6.03084">
        <ele>793.6</ele>
        <time>2022-10-18T06:30:10Z</time>
      </trkpt>
      <trkpt lat="46.63706" lon="6.03091">
        <ele>793.6</ele>
        <time>2022-10-18T06:30:14Z</time>
      </trkpt>
      <trkpt lat="46.63707" lon="6.03098">
        <ele>793.4</ele>
        <time>2022-10-18T06:30:18Z</time>
      </trkpt>
      <trkpt lat="46.63707" lon="6.03105">
        <ele>792.5</ele>
        <time>2022-10-18T06:30:26Z</time>
      </trkpt>
      <trkpt lat="46.6371" lon="6.03111">
        <ele>792.7</ele>
        <time>2022-10-18T06:30:34Z</time>
      </trkpt>
      <trkpt lat="46.63714" lon="6.03116">
        <ele>792.7</ele>
        <time>2022-10-18T06:30:39Z</time>
      </trkpt>
      <trkpt lat="46.63717" lon="6.03121">
        <ele>792.5</ele>
        <time>2022-10-18T06:30:44Z</time>
      </trkpt>
      <trkpt lat="46.6372" lon="6.03127">
        <ele>791.8</ele>
        <time>2022-10-18T06:30:50Z</time>
      </trkpt>
      <trkpt lat="46.63725" lon="6.03131">
        <ele>791.1</ele>
        <time>2022-10-18T06:30:55Z</time>
      </trkpt>
      <trkpt lat="46.63727" lon="6.03138">
        <ele>790.7</ele>
        <time>2022-10-18T06:30:59Z</time>
      </trkpt>
      <trkpt lat="46.63726" lon="6.03146">
        <ele>790.4</ele>
        <time>2022-10-18T06:31:02Z</time>
      </trkpt>
      <trkpt lat="46.63725" lon="6.03153">
        <ele>790.1</ele>
        <time>2022-10-18T06:31:05Z</time>
      </trkpt>
      <trkpt lat="46.63727" lon="6.03159">
        <ele>789.8</ele>
        <time>2022-10-18T06:31:09Z</time>
      </trkpt>
      <trkpt lat="46.63727" lon="6.03166">
        <ele>789.3</ele>
        <time>2022-10-18T06:31:15Z</time>
      </trkpt>
      <trkpt lat="46.63726" lon="6.03174">
        <ele>789.2</ele>
        <time>2022-10-18T06:31:20Z</time>
      </trkpt>
      <trkpt lat="46.63726" lon="6.03181">
        <ele>789.4</ele>
        <time>2022-10-18T06:31:24Z</time>
      </trkpt>
      <trkpt lat="46.63728" lon="6.03187">
        <ele>789.7</ele>
        <time>2022-10-18T06:31:28Z</time>
      </trkpt>
      <trkpt lat="46.63728" lon="6.03194">
        <ele>790</ele>
        <time>2022-10-18T06:31:33Z</time>
      </trkpt>
      <trkpt lat="46.63729" lon="6.03201">
        <ele>790.3</ele>
        <time>2022-10-18T06:31:37Z</time>
      </trkpt>
      <trkpt lat="46.6373" lon="6.03209">
        <ele>790.5</ele>
        <time>2022-10-18T06:31:42Z</time>
      </trkpt>
      <trkpt lat="46.63732" lon="6.03215">
        <ele>790.5</ele>
        <time>2022-10-18T06:31:46Z</time>
      </trkpt>
      <trkpt lat="46.63731" lon="6.03222">
        <ele>790.5</ele>
        <time>2022-10-18T06:31:52Z</time>
      </trkpt>
      <trkpt lat="46.63729" lon="6.03229">
        <ele>789.9</ele>
        <time>2022-10-18T06:31:56Z</time>
      </trkpt>
      <trkpt lat="46.63728" lon="6.03236">
        <ele>788.9</ele>
        <time>2022-10-18T06:32:00Z</time>
      </trkpt>
      <trkpt lat="46.63728" lon="6.03243">
        <ele>788.1</ele>
        <time>2022-10-18T06:32:04Z</time>
      </trkpt>
      <trkpt lat="46.63727" lon="6.0325">
        <ele>787.3</ele>
        <time>2022-10-18T06:32:08Z</time>
      </trkpt>
      <trkpt lat="46.63727" lon="6.03257">
        <ele>786.3</ele>
        <time>2022-10-18T06:32:14Z</time>
      </trkpt>
      <trkpt lat="46.63729" lon="6.03264">
        <ele>785.3</ele>
        <time>2022-10-18T06:32:20Z</time>
      </trkpt>
      <trkpt lat="46.6373" lon="6.03272">
        <ele>784.5</ele>
        <time>2022-10-18T06:32:26Z</time>
      </trkpt>
      <trkpt lat="46.6373" lon="6.03279">
        <ele>783.7</ele>
        <time>2022-10-18T06:32:31Z</time>
      </trkpt>
      <trkpt lat="46.63731" lon="6.03286">
        <ele>783.5</ele>
        <time>2022-10-18T06:32:36Z</time>
      </trkpt>
      <trkpt lat="46.63732" lon="6.03293">
        <ele>783.3</ele>
        <time>2022-10-18T06:32:41Z</time>
      </trkpt>
      <trkpt lat="46.63732" lon="6.033">
        <ele>783.2</ele>
        <time>2022-10-18T06:32:45Z</time>
      </trkpt>
      <trkpt lat="46.63732" lon="6.03307">
        <ele>782.8</ele>
        <time>2022-10-18T06:32:50Z</time>
      </trkpt>
      <trkpt lat="46.63733" lon="6.03315">
        <ele>782.3</ele>
        <time>2022-10-18T06:32:55Z</time>
      </trkpt>
      <trkpt lat="46.63733" lon="6.03321">
        <ele>781.8</ele>
        <time>2022-10-18T06:33:00Z</time>
      </trkpt>
      <trkpt lat="46.63734" lon="6.03329">
        <ele>781.3</ele>
        <time>2022-10-18T06:33:06Z</time>
      </trkpt>
      <trkpt lat="46.63736" lon="6.03336">
        <ele>781.3</ele>
        <time>2022-10-18T06:33:11Z</time>
      </trkpt>
      <trkpt lat="46.63739" lon="6.03342">
        <ele>781.4</ele>
        <time>2022-10-18T06:33:15Z</time>
      </trkpt>
      <trkpt lat="46.6374" lon="6.03349">
        <ele>781.7</ele>
        <time>2022-10-18T06:33:20Z</time>
      </trkpt>
      <trkpt lat="46.63742" lon="6.03355">
        <ele>782.1</ele>
        <time>2022-10-18T06:33:24Z</time>
      </trkpt>
      <trkpt lat="46.63744" lon="6.03362">
        <ele>782.3</ele>
        <time>2022-10-18T06:33:29Z</time>
      </trkpt>
      <trkpt lat="46.63746" lon="6.03369">
        <ele>782.3</ele>
        <time>2022-10-18T06:33:34Z</time>
      </trkpt>
      <trkpt lat="46.63749" lon="6.03375">
        <ele>782.3</ele>
        <time>2022-10-18T06:33:39Z</time>
      </trkpt>
      <trkpt lat="46.63752" lon="6.03381">
        <ele>782.2</ele>
        <time>2022-10-18T06:33:44Z</time>
      </trkpt>
      <trkpt lat="46.63755" lon="6.03386">
        <ele>781.9</ele>
        <time>2022-10-18T06:33:49Z</time>
      </trkpt>
      <trkpt lat="46.63758" lon="6.03392">
        <ele>781.8</ele>
        <time>2022-10-18T06:33:54Z</time>
      </trkpt>
      <trkpt lat="46.63762" lon="6.03397">
        <ele>781.5</ele>
        <time>2022-10-18T06:33:59Z</time>
      </trkpt>
      <trkpt lat="46.63766" lon="6.03402">
        <ele>781.6</ele>
        <time>2022-10-18T06:34:04Z</time>
      </trkpt>
      <trkpt lat="46.63769" lon="6.03408">
        <ele>781.9</ele>
        <time>2022-10-18T06:34:11Z</time>
      </trkpt>
      <trkpt lat="46.63773" lon="6.03414">
        <ele>781.6</ele>
        <time>2022-10-18T06:34:15Z</time>
      </trkpt>
      <trkpt lat="46.63778" lon="6.03419">
        <ele>781.1</ele>
        <time>2022-10-18T06:34:19Z</time>
      </trkpt>
      <trkpt lat="46.63781" lon="6.03424">
        <ele>781.1</ele>
        <time>2022-10-18T06:34:23Z</time>
      </trkpt>
      <trkpt lat="46.63785" lon="6.03428">
        <ele>781.4</ele>
        <time>2022-10-18T06:34:27Z</time>
      </trkpt>
      <trkpt lat="46.63789" lon="6.03433">
        <ele>782</ele>
        <time>2022-10-18T06:34:32Z</time>
      </trkpt>
      <trkpt lat="46.63793" lon="6.03436">
        <ele>782.2</ele>
        <time>2022-10-18T06:34:37Z</time>
      </trkpt>
      <trkpt lat="46.63797" lon="6.0344">
        <ele>782.6</ele>
        <time>2022-10-18T06:34:44Z</time>
      </trkpt>
      <trkpt lat="46.63799" lon="6.03446">
        <ele>783.1</ele>
        <time>2022-10-18T06:34:49Z</time>
      </trkpt>
      <trkpt lat="46.638" lon="6.03455">
        <ele>783.5</ele>
        <time>2022-10-18T06:34:53Z</time>
      </trkpt>
      <trkpt lat="46.63803" lon="6.0346">
        <ele>784.3</ele>
        <time>2022-10-18T06:34:58Z</time>
      </trkpt>
      <trkpt lat="46.63805" lon="6.03466">
        <ele>785.2</ele>
        <time>2022-10-18T06:35:05Z</time>
      </trkpt>
      <trkpt lat="46.63809" lon="6.03472">
        <ele>785.4</ele>
        <time>2022-10-18T06:35:12Z</time>
      </trkpt>
      <trkpt lat="46.63812" lon="6.03478">
        <ele>785.7</ele>
        <time>2022-10-18T06:35:17Z</time>
      </trkpt>
      <trkpt lat="46.63816" lon="6.03482">
        <ele>785.7</ele>
        <time>2022-10-18T06:35:21Z</time>
      </trkpt>
      <trkpt lat="46.63819" lon="6.03487">
        <ele>785.9</ele>
        <time>2022-10-18T06:35:26Z</time>
      </trkpt>
      <trkpt lat="46.63821" lon="6.03495">
        <ele>786.6</ele>
        <time>2022-10-18T06:35:31Z</time>
      </trkpt>
      <trkpt lat="46.63822" lon="6.03502">
        <ele>787.6</ele>
        <time>2022-10-18T06:35:36Z</time>
      </trkpt>
      <trkpt lat="46.63825" lon="6.03508">
        <ele>787</ele>
        <time>2022-10-18T06:35:42Z</time>
      </trkpt>
      <trkpt lat="46.63826" lon="6.03516">
        <ele>785.6</ele>
        <time>2022-10-18T06:35:47Z</time>
      </trkpt>
      <trkpt lat="46.63828" lon="6.03522">
        <ele>785.1</ele>
        <time>2022-10-18T06:35:51Z</time>
      </trkpt>
      <trkpt lat="46.6383" lon="6.03529">
        <ele>784.9</ele>
        <time>2022-10-18T06:35:55Z</time>
      </trkpt>
      <trkpt lat="46.63832" lon="6.03537">
        <ele>784.7</ele>
        <time>2022-10-18T06:36:00Z</time>
      </trkpt>
      <trkpt lat="46.63832" lon="6.03543">
        <ele>784.5</ele>
        <time>2022-10-18T06:36:04Z</time>
      </trkpt>
      <trkpt lat="46.63832" lon="6.0355">
        <ele>784.4</ele>
        <time>2022-10-18T06:36:09Z</time>
      </trkpt>
      <trkpt lat="46.63831" lon="6.03557">
        <ele>784</ele>
        <time>2022-10-18T06:36:14Z</time>
      </trkpt>
      <trkpt lat="46.63829" lon="6.03565">
        <ele>783.7</ele>
        <time>2022-10-18T06:36:19Z</time>
      </trkpt>
      <trkpt lat="46.63827" lon="6.03572">
        <ele>783.7</ele>
        <time>2022-10-18T06:36:23Z</time>
      </trkpt>
      <trkpt lat="46.63827" lon="6.03579">
        <ele>784</ele>
        <time>2022-10-18T06:36:28Z</time>
      </trkpt>
      <trkpt lat="46.63826" lon="6.03587">
        <ele>785</ele>
        <time>2022-10-18T06:36:33Z</time>
      </trkpt>
      <trkpt lat="46.63825" lon="6.03594">
        <ele>786.2</ele>
        <time>2022-10-18T06:36:38Z</time>
      </trkpt>
      <trkpt lat="46.63823" lon="6.03601">
        <ele>787.4</ele>
        <time>2022-10-18T06:36:43Z</time>
      </trkpt>
      <trkpt lat="46.63821" lon="6.03608">
        <ele>788.3</ele>
        <time>2022-10-18T06:36:47Z</time>
      </trkpt>
      <trkpt lat="46.63818" lon="6.03615">
        <ele>789.2</ele>
        <time>2022-10-18T06:36:51Z</time>
      </trkpt>
      <trkpt lat="46.63815" lon="6.03622">
        <ele>790.3</ele>
        <time>2022-10-18T06:36:55Z</time>
      </trkpt>
      <trkpt lat="46.63814" lon="6.03629">
        <ele>792</ele>
        <time>2022-10-18T06:37:01Z</time>
      </trkpt>
      <trkpt lat="46.63814" lon="6.03635">
        <ele>793.2</ele>
        <time>2022-10-18T06:37:07Z</time>
      </trkpt>
      <trkpt lat="46.63814" lon="6.03644">
        <ele>794.1</ele>
        <time>2022-10-18T06:37:13Z</time>
      </trkpt>
      <trkpt lat="46.63812" lon="6.0365">
        <ele>794.8</ele>
        <time>2022-10-18T06:37:18Z</time>
      </trkpt>
      <trkpt lat="46.63808" lon="6.03654">
        <ele>794.4</ele>
        <time>2022-10-18T06:37:23Z</time>
      </trkpt>
      <trkpt lat="46.63804" lon="6.0366">
        <ele>793.5</ele>
        <time>2022-10-18T06:37:28Z</time>
      </trkpt>
      <trkpt lat="46.63801" lon="6.03666">
        <ele>792.7</ele>
        <time>2022-10-18T06:37:32Z</time>
      </trkpt>
      <trkpt lat="46.63798" lon="6.03671">
        <ele>791.7</ele>
        <time>2022-10-18T06:37:37Z</time>
      </trkpt>
      <trkpt lat="46.63795" lon="6.03676">
        <ele>791.1</ele>
        <time>2022-10-18T06:37:42Z</time>
      </trkpt>
      <trkpt lat="46.6379" lon="6.03679">
        <ele>790.6</ele>
        <time>2022-10-18T06:37:47Z</time>
      </trkpt>
      <trkpt lat="46.63785" lon="6.03682">
        <ele>790.5</ele>
        <time>2022-10-18T06:37:52Z</time>
      </trkpt>
      <trkpt lat="46.6378" lon="6.03684">
        <ele>790.6</ele>
        <time>2022-10-18T06:37:57Z</time>
      </trkpt>
      <trkpt lat="46.63775" lon="6.03687">
        <ele>790.8</ele>
        <time>2022-10-18T06:38:01Z</time>
      </trkpt>
      <trkpt lat="46.63771" lon="6.03691">
        <ele>791.3</ele>
        <time>2022-10-18T06:38:07Z</time>
      </trkpt>
      <trkpt lat="46.63767" lon="6.03697">
        <ele>792</ele>
        <time>2022-10-18T06:38:12Z</time>
      </trkpt>
      <trkpt lat="46.63764" lon="6.03702">
        <ele>792.6</ele>
        <time>2022-10-18T06:38:16Z</time>
      </trkpt>
      <trkpt lat="46.6376" lon="6.03707">
        <ele>792.9</ele>
        <time>2022-10-18T06:38:21Z</time>
      </trkpt>
      <trkpt lat="46.63756" lon="6.03711">
        <ele>792.8</ele>
        <time>2022-10-18T06:38:26Z</time>
      </trkpt>
      <trkpt lat="46.63752" lon="6.03716">
        <ele>792.4</ele>
        <time>2022-10-18T06:38:31Z</time>
      </trkpt>
      <trkpt lat="46.6375" lon="6.03722">
        <ele>791.7</ele>
        <time>2022-10-18T06:38:36Z</time>
      </trkpt>
      <trkpt lat="46.63746" lon="6.03727">
        <ele>791</ele>
        <time>2022-10-18T06:38:41Z</time>
      </trkpt>
      <trkpt lat="46.63744" lon="6.03733">
        <ele>790.1</ele>
        <time>2022-10-18T06:38:46Z</time>
      </trkpt>
      <trkpt lat="46.63741" lon="6.03739">
        <ele>789.4</ele>
        <time>2022-10-18T06:38:50Z</time>
      </trkpt>
      <trkpt lat="46.63738" lon="6.03745">
        <ele>788.9</ele>
        <time>2022-10-18T06:38:55Z</time>
      </trkpt>
      <trkpt lat="46.63734" lon="6.03751">
        <ele>789</ele>
        <time>2022-10-18T06:39:00Z</time>
      </trkpt>
      <trkpt lat="46.63732" lon="6.03758">
        <ele>789.7</ele>
        <time>2022-10-18T06:39:05Z</time>
      </trkpt>
      <trkpt lat="46.6373" lon="6.03765">
        <ele>790.4</ele>
        <time>2022-10-18T06:39:10Z</time>
      </trkpt>
      <trkpt lat="46.63728" lon="6.03772">
        <ele>791.2</ele>
        <time>2022-10-18T06:39:15Z</time>
      </trkpt>
      <trkpt lat="46.63725" lon="6.03778">
        <ele>792.1</ele>
        <time>2022-10-18T06:39:21Z</time>
      </trkpt>
      <trkpt lat="46.63722" lon="6.03783">
        <ele>792.6</ele>
        <time>2022-10-18T06:39:26Z</time>
      </trkpt>
      <trkpt lat="46.63719" lon="6.03789">
        <ele>793.3</ele>
        <time>2022-10-18T06:39:32Z</time>
      </trkpt>
      <trkpt lat="46.63715" lon="6.03794">
        <ele>793.5</ele>
        <time>2022-10-18T06:39:37Z</time>
      </trkpt>
      <trkpt lat="46.63711" lon="6.03799">
        <ele>793.3</ele>
        <time>2022-10-18T06:39:41Z</time>
      </trkpt>
      <trkpt lat="46.63707" lon="6.038">
        <ele>792.9</ele>
        <time>2022-10-18T06:39:45Z</time>
      </trkpt>
      <trkpt lat="46.63701" lon="6.03801">
        <ele>792.2</ele>
        <time>2022-10-18T06:39:50Z</time>
      </trkpt>
      <trkpt lat="46.63697" lon="6.03802">
        <ele>791.6</ele>
        <time>2022-10-18T06:39:56Z</time>
      </trkpt>
      <trkpt lat="46.63692" lon="6.03803">
        <ele>791.3</ele>
        <time>2022-10-18T06:40:01Z</time>
      </trkpt>
      <trkpt lat="46.63686" lon="6.03804">
        <ele>791</ele>
        <time>2022-10-18T06:40:06Z</time>
      </trkpt>
      <trkpt lat="46.63682" lon="6.03807">
        <ele>791.2</ele>
        <time>2022-10-18T06:40:11Z</time>
      </trkpt>
      <trkpt lat="46.63678" lon="6.03813">
        <ele>791.7</ele>
        <time>2022-10-18T06:40:16Z</time>
      </trkpt>
      <trkpt lat="46.63674" lon="6.03818">
        <ele>792.3</ele>
        <time>2022-10-18T06:40:20Z</time>
      </trkpt>
      <trkpt lat="46.63672" lon="6.03824">
        <ele>792.5</ele>
        <time>2022-10-18T06:40:24Z</time>
      </trkpt>
      <trkpt lat="46.63669" lon="6.03829">
        <ele>793</ele>
        <time>2022-10-18T06:40:28Z</time>
      </trkpt>
      <trkpt lat="46.63666" lon="6.03835">
        <ele>794.1</ele>
        <time>2022-10-18T06:40:33Z</time>
      </trkpt>
      <trkpt lat="46.63663" lon="6.0384">
        <ele>795</ele>
        <time>2022-10-18T06:40:38Z</time>
      </trkpt>
      <trkpt lat="46.6366" lon="6.03847">
        <ele>795.1</ele>
        <time>2022-10-18T06:40:43Z</time>
      </trkpt>
      <trkpt lat="46.63657" lon="6.03854">
        <ele>794.3</ele>
        <time>2022-10-18T06:40:48Z</time>
      </trkpt>
      <trkpt lat="46.63654" lon="6.03859">
        <ele>793.4</ele>
        <time>2022-10-18T06:40:53Z</time>
      </trkpt>
      <trkpt lat="46.63651" lon="6.03865">
        <ele>792.8</ele>
        <time>2022-10-18T06:40:58Z</time>
      </trkpt>
      <trkpt lat="46.63648" lon="6.03871">
        <ele>792.9</ele>
        <time>2022-10-18T06:41:03Z</time>
      </trkpt>
      <trkpt lat="46.63645" lon="6.03876">
        <ele>793.3</ele>
        <time>2022-10-18T06:41:07Z</time>
      </trkpt>
      <trkpt lat="46.63641" lon="6.03881">
        <ele>793.9</ele>
        <time>2022-10-18T06:41:12Z</time>
      </trkpt>
      <trkpt lat="46.63637" lon="6.03886">
        <ele>794.9</ele>
        <time>2022-10-18T06:41:17Z</time>
      </trkpt>
      <trkpt lat="46.63634" lon="6.03892">
        <ele>795.9</ele>
        <time>2022-10-18T06:41:22Z</time>
      </trkpt>
      <trkpt lat="46.63631" lon="6.03897">
        <ele>796.8</ele>
        <time>2022-10-18T06:41:27Z</time>
      </trkpt>
      <trkpt lat="46.63627" lon="6.03901">
        <ele>796.4</ele>
        <time>2022-10-18T06:41:32Z</time>
      </trkpt>
      <trkpt lat="46.63623" lon="6.03907">
        <ele>796</ele>
        <time>2022-10-18T06:41:37Z</time>
      </trkpt>
      <trkpt lat="46.6362" lon="6.03912">
        <ele>795.9</ele>
        <time>2022-10-18T06:41:42Z</time>
      </trkpt>
      <trkpt lat="46.63618" lon="6.03919">
        <ele>795.9</ele>
        <time>2022-10-18T06:41:47Z</time>
      </trkpt>
      <trkpt lat="46.63615" lon="6.03925">
        <ele>796.1</ele>
        <time>2022-10-18T06:41:51Z</time>
      </trkpt>
      <trkpt lat="46.63611" lon="6.0393">
        <ele>796.7</ele>
        <time>2022-10-18T06:41:56Z</time>
      </trkpt>
      <trkpt lat="46.63608" lon="6.03936">
        <ele>797.6</ele>
        <time>2022-10-18T06:42:01Z</time>
      </trkpt>
      <trkpt lat="46.63605" lon="6.03942">
        <ele>798.2</ele>
        <time>2022-10-18T06:42:05Z</time>
      </trkpt>
      <trkpt lat="46.63602" lon="6.03947">
        <ele>798.4</ele>
        <time>2022-10-18T06:42:10Z</time>
      </trkpt>
      <trkpt lat="46.636" lon="6.03953">
        <ele>798.2</ele>
        <time>2022-10-18T06:42:15Z</time>
      </trkpt>
      <trkpt lat="46.63598" lon="6.03959">
        <ele>797.7</ele>
        <time>2022-10-18T06:42:19Z</time>
      </trkpt>
      <trkpt lat="46.63595" lon="6.03966">
        <ele>796.5</ele>
        <time>2022-10-18T06:42:25Z</time>
      </trkpt>
      <trkpt lat="46.63591" lon="6.0397">
        <ele>795.9</ele>
        <time>2022-10-18T06:42:29Z</time>
      </trkpt>
      <trkpt lat="46.63589" lon="6.03976">
        <ele>795.7</ele>
        <time>2022-10-18T06:42:33Z</time>
      </trkpt>
      <trkpt lat="46.63587" lon="6.03982">
        <ele>795.7</ele>
        <time>2022-10-18T06:42:37Z</time>
      </trkpt>
      <trkpt lat="46.63584" lon="6.03988">
        <ele>795.8</ele>
        <time>2022-10-18T06:42:42Z</time>
      </trkpt>
      <trkpt lat="46.63581" lon="6.03995">
        <ele>796.1</ele>
        <time>2022-10-18T06:42:48Z</time>
      </trkpt>
      <trkpt lat="46.6358" lon="6.04002">
        <ele>796.3</ele>
        <time>2022-10-18T06:42:53Z</time>
      </trkpt>
      <trkpt lat="46.63576" lon="6.04008">
        <ele>796.5</ele>
        <time>2022-10-18T06:42:58Z</time>
      </trkpt>
      <trkpt lat="46.63574" lon="6.04016">
        <ele>796.6</ele>
        <time>2022-10-18T06:43:03Z</time>
      </trkpt>
      <trkpt lat="46.63571" lon="6.04022">
        <ele>796.4</ele>
        <time>2022-10-18T06:43:09Z</time>
      </trkpt>
      <trkpt lat="46.63569" lon="6.04029">
        <ele>796.4</ele>
        <time>2022-10-18T06:43:15Z</time>
      </trkpt>
      <trkpt lat="46.63568" lon="6.04036">
        <ele>797.4</ele>
        <time>2022-10-18T06:43:22Z</time>
      </trkpt>
      <trkpt lat="46.63567" lon="6.04044">
        <ele>798.3</ele>
        <time>2022-10-18T06:43:27Z</time>
      </trkpt>
      <trkpt lat="46.63567" lon="6.04051">
        <ele>799.2</ele>
        <time>2022-10-18T06:43:31Z</time>
      </trkpt>
      <trkpt lat="46.63566" lon="6.04057">
        <ele>799.8</ele>
        <time>2022-10-18T06:43:35Z</time>
      </trkpt>
      <trkpt lat="46.63564" lon="6.04065">
        <ele>800.4</ele>
        <time>2022-10-18T06:43:41Z</time>
      </trkpt>
      <trkpt lat="46.63561" lon="6.0407">
        <ele>800.5</ele>
        <time>2022-10-18T06:43:47Z</time>
      </trkpt>
      <trkpt lat="46.63556" lon="6.04073">
        <ele>800.4</ele>
        <time>2022-10-18T06:43:52Z</time>
      </trkpt>
      <trkpt lat="46.63552" lon="6.04076">
        <ele>800.4</ele>
        <time>2022-10-18T06:43:56Z</time>
      </trkpt>
      <trkpt lat="46.63548" lon="6.0408">
        <ele>800.7</ele>
        <time>2022-10-18T06:44:01Z</time>
      </trkpt>
      <trkpt lat="46.63543" lon="6.04082">
        <ele>801</ele>
        <time>2022-10-18T06:44:05Z</time>
      </trkpt>
      <trkpt lat="46.63539" lon="6.04086">
        <ele>801.1</ele>
        <time>2022-10-18T06:44:09Z</time>
      </trkpt>
      <trkpt lat="46.63535" lon="6.04091">
        <ele>801.2</ele>
        <time>2022-10-18T06:44:13Z</time>
      </trkpt>
      <trkpt lat="46.63532" lon="6.04095">
        <ele>801.1</ele>
        <time>2022-10-18T06:44:18Z</time>
      </trkpt>
      <trkpt lat="46.63527" lon="6.04099">
        <ele>801.1</ele>
        <time>2022-10-18T06:44:23Z</time>
      </trkpt>
      <trkpt lat="46.63524" lon="6.04104">
        <ele>801</ele>
        <time>2022-10-18T06:44:27Z</time>
      </trkpt>
      <trkpt lat="46.63521" lon="6.04111">
        <ele>800.8</ele>
        <time>2022-10-18T06:44:31Z</time>
      </trkpt>
      <trkpt lat="46.63519" lon="6.04117">
        <ele>800.7</ele>
        <time>2022-10-18T06:44:35Z</time>
      </trkpt>
      <trkpt lat="46.63516" lon="6.04123">
        <ele>800.7</ele>
        <time>2022-10-18T06:44:40Z</time>
      </trkpt>
      <trkpt lat="46.63514" lon="6.04129">
        <ele>801</ele>
        <time>2022-10-18T06:44:46Z</time>
      </trkpt>
      <trkpt lat="46.63511" lon="6.04135">
        <ele>801.5</ele>
        <time>2022-10-18T06:44:51Z</time>
      </trkpt>
      <trkpt lat="46.63508" lon="6.04141">
        <ele>802.3</ele>
        <time>2022-10-18T06:44:55Z</time>
      </trkpt>
      <trkpt lat="46.63508" lon="6.04149">
        <ele>803.7</ele>
        <time>2022-10-18T06:45:00Z</time>
      </trkpt>
      <trkpt lat="46.63507" lon="6.04156">
        <ele>805.3</ele>
        <time>2022-10-18T06:45:05Z</time>
      </trkpt>
      <trkpt lat="46.63504" lon="6.04162">
        <ele>806.7</ele>
        <time>2022-10-18T06:45:09Z</time>
      </trkpt>
      <trkpt lat="46.635" lon="6.04167">
        <ele>808.1</ele>
        <time>2022-10-18T06:45:15Z</time>
      </trkpt>
      <trkpt lat="46.63497" lon="6.04172">
        <ele>808.2</ele>
        <time>2022-10-18T06:45:22Z</time>
      </trkpt>
      <trkpt lat="46.63494" lon="6.04179">
        <ele>808.3</ele>
        <time>2022-10-18T06:45:27Z</time>
      </trkpt>
      <trkpt lat="46.63492" lon="6.04185">
        <ele>808.5</ele>
        <time>2022-10-18T06:45:31Z</time>
      </trkpt>
      <trkpt lat="46.63488" lon="6.0419">
        <ele>808.5</ele>
        <time>2022-10-18T06:45:36Z</time>
      </trkpt>
      <trkpt lat="46.63484" lon="6.04192">
        <ele>808.1</ele>
        <time>2022-10-18T06:45:40Z</time>
      </trkpt>
      <trkpt lat="46.63479" lon="6.04194">
        <ele>807.4</ele>
        <time>2022-10-18T06:45:44Z</time>
      </trkpt>
      <trkpt lat="46.63475" lon="6.04197">
        <ele>806.8</ele>
        <time>2022-10-18T06:45:49Z</time>
      </trkpt>
      <trkpt lat="46.6347" lon="6.04201">
        <ele>806.2</ele>
        <time>2022-10-18T06:45:54Z</time>
      </trkpt>
      <trkpt lat="46.63465" lon="6.04203">
        <ele>805.6</ele>
        <time>2022-10-18T06:45:59Z</time>
      </trkpt>
      <trkpt lat="46.63461" lon="6.04206">
        <ele>805.3</ele>
        <time>2022-10-18T06:46:03Z</time>
      </trkpt>
      <trkpt lat="46.63457" lon="6.04211">
        <ele>805.4</ele>
        <time>2022-10-18T06:46:07Z</time>
      </trkpt>
      <trkpt lat="46.63452" lon="6.04209">
        <ele>806.4</ele>
        <time>2022-10-18T06:46:13Z</time>
      </trkpt>
      <trkpt lat="46.63447" lon="6.0421">
        <ele>807.2</ele>
        <time>2022-10-18T06:46:19Z</time>
      </trkpt>
      <trkpt lat="46.63443" lon="6.04214">
        <ele>808</ele>
        <time>2022-10-18T06:46:24Z</time>
      </trkpt>
      <trkpt lat="46.6344" lon="6.04218">
        <ele>808.6</ele>
        <time>2022-10-18T06:46:27Z</time>
      </trkpt>
      <trkpt lat="46.63436" lon="6.04224">
        <ele>809.1</ele>
        <time>2022-10-18T06:46:30Z</time>
      </trkpt>
      <trkpt lat="46.63433" lon="6.0423">
        <ele>809.5</ele>
        <time>2022-10-18T06:46:33Z</time>
      </trkpt>
      <trkpt lat="46.63431" lon="6.04238">
        <ele>810.1</ele>
        <time>2022-10-18T06:46:37Z</time>
      </trkpt>
      <trkpt lat="46.6343" lon="6.04244">
        <ele>810.7</ele>
        <time>2022-10-18T06:46:42Z</time>
      </trkpt>
      <trkpt lat="46.63428" lon="6.0425">
        <ele>811.1</ele>
        <time>2022-10-18T06:46:51Z</time>
      </trkpt>
      <trkpt lat="46.63425" lon="6.04255">
        <ele>812</ele>
        <time>2022-10-18T06:46:57Z</time>
      </trkpt>
      <trkpt lat="46.63421" lon="6.04261">
        <ele>812.7</ele>
        <time>2022-10-18T06:47:03Z</time>
      </trkpt>
      <trkpt lat="46.63419" lon="6.04267">
        <ele>813.1</ele>
        <time>2022-10-18T06:47:10Z</time>
      </trkpt>
      <trkpt lat="46.63417" lon="6.04274">
        <ele>813.7</ele>
        <time>2022-10-18T06:47:16Z</time>
      </trkpt>
      <trkpt lat="46.63415" lon="6.04281">
        <ele>814.2</ele>
        <time>2022-10-18T06:47:21Z</time>
      </trkpt>
      <trkpt lat="46.63413" lon="6.04287">
        <ele>814.5</ele>
        <time>2022-10-18T06:47:26Z</time>
      </trkpt>
      <trkpt lat="46.6341" lon="6.04292">
        <ele>814.6</ele>
        <time>2022-10-18T06:47:31Z</time>
      </trkpt>
      <trkpt lat="46.63407" lon="6.04297">
        <ele>814.2</ele>
        <time>2022-10-18T06:47:36Z</time>
      </trkpt>
      <trkpt lat="46.63405" lon="6.04304">
        <ele>814.1</ele>
        <time>2022-10-18T06:47:42Z</time>
      </trkpt>
      <trkpt lat="46.63403" lon="6.0431">
        <ele>813.5</ele>
        <time>2022-10-18T06:47:49Z</time>
      </trkpt>
      <trkpt lat="46.63399" lon="6.04316">
        <ele>812.9</ele>
        <time>2022-10-18T06:47:55Z</time>
      </trkpt>
      <trkpt lat="46.63396" lon="6.04321">
        <ele>813</ele>
        <time>2022-10-18T06:47:59Z</time>
      </trkpt>
      <trkpt lat="46.63392" lon="6.04326">
        <ele>813.1</ele>
        <time>2022-10-18T06:48:03Z</time>
      </trkpt>
      <trkpt lat="46.63389" lon="6.04332">
        <ele>813.4</ele>
        <time>2022-10-18T06:48:10Z</time>
      </trkpt>
      <trkpt lat="46.63389" lon="6.04339">
        <ele>814.1</ele>
        <time>2022-10-18T06:48:17Z</time>
      </trkpt>
      <trkpt lat="46.63387" lon="6.04346">
        <ele>814.6</ele>
        <time>2022-10-18T06:48:21Z</time>
      </trkpt>
      <trkpt lat="46.63386" lon="6.04352">
        <ele>815</ele>
        <time>2022-10-18T06:48:24Z</time>
      </trkpt>
      <trkpt lat="46.63386" lon="6.04359">
        <ele>816</ele>
        <time>2022-10-18T06:48:29Z</time>
      </trkpt>
      <trkpt lat="46.63385" lon="6.04366">
        <ele>817.5</ele>
        <time>2022-10-18T06:48:35Z</time>
      </trkpt>
      <trkpt lat="46.63382" lon="6.04372">
        <ele>818.3</ele>
        <time>2022-10-18T06:48:39Z</time>
      </trkpt>
      <trkpt lat="46.6338" lon="6.04379">
        <ele>818.8</ele>
        <time>2022-10-18T06:48:44Z</time>
      </trkpt>
      <trkpt lat="46.63377" lon="6.04385">
        <ele>818.8</ele>
        <time>2022-10-18T06:48:48Z</time>
      </trkpt>
      <trkpt lat="46.63374" lon="6.0439">
        <ele>818.4</ele>
        <time>2022-10-18T06:48:52Z</time>
      </trkpt>
      <trkpt lat="46.63371" lon="6.04395">
        <ele>817.7</ele>
        <time>2022-10-18T06:48:56Z</time>
      </trkpt>
      <trkpt lat="46.63368" lon="6.044">
        <ele>817.3</ele>
        <time>2022-10-18T06:48:59Z</time>
      </trkpt>
      <trkpt lat="46.63366" lon="6.04406">
        <ele>816.7</ele>
        <time>2022-10-18T06:49:02Z</time>
      </trkpt>
      <trkpt lat="46.63364" lon="6.04413">
        <ele>816</ele>
        <time>2022-10-18T06:49:06Z</time>
      </trkpt>
      <trkpt lat="46.63362" lon="6.0442">
        <ele>815.2</ele>
        <time>2022-10-18T06:49:11Z</time>
      </trkpt>
      <trkpt lat="46.6336" lon="6.04426">
        <ele>814.9</ele>
        <time>2022-10-18T06:49:16Z</time>
      </trkpt>
      <trkpt lat="46.63356" lon="6.04431">
        <ele>815</ele>
        <time>2022-10-18T06:49:20Z</time>
      </trkpt>
      <trkpt lat="46.63352" lon="6.04436">
        <ele>815</ele>
        <time>2022-10-18T06:49:25Z</time>
      </trkpt>
      <trkpt lat="46.63349" lon="6.0444">
        <ele>814.7</ele>
        <time>2022-10-18T06:49:29Z</time>
      </trkpt>
      <trkpt lat="46.63344" lon="6.04444">
        <ele>814</ele>
        <time>2022-10-18T06:49:35Z</time>
      </trkpt>
      <trkpt lat="46.6334" lon="6.04448">
        <ele>813.6</ele>
        <time>2022-10-18T06:49:40Z</time>
      </trkpt>
      <trkpt lat="46.63336" lon="6.04452">
        <ele>813.4</ele>
        <time>2022-10-18T06:49:45Z</time>
      </trkpt>
      <trkpt lat="46.63332" lon="6.04455">
        <ele>813.3</ele>
        <time>2022-10-18T06:49:50Z</time>
      </trkpt>
      <trkpt lat="46.63327" lon="6.04459">
        <ele>813.1</ele>
        <time>2022-10-18T06:49:56Z</time>
      </trkpt>
      <trkpt lat="46.63324" lon="6.04464">
        <ele>812.8</ele>
        <time>2022-10-18T06:50:01Z</time>
      </trkpt>
      <trkpt lat="46.6332" lon="6.04468">
        <ele>812.9</ele>
        <time>2022-10-18T06:50:06Z</time>
      </trkpt>
      <trkpt lat="46.63316" lon="6.0447">
        <ele>813.6</ele>
        <time>2022-10-18T06:50:12Z</time>
      </trkpt>
      <trkpt lat="46.63313" lon="6.04475">
        <ele>814.4</ele>
        <time>2022-10-18T06:50:18Z</time>
      </trkpt>
      <trkpt lat="46.63311" lon="6.04482">
        <ele>815.4</ele>
        <time>2022-10-18T06:50:24Z</time>
      </trkpt>
      <trkpt lat="46.63311" lon="6.04489">
        <ele>816.7</ele>
        <time>2022-10-18T06:50:31Z</time>
      </trkpt>
      <trkpt lat="46.63308" lon="6.04495">
        <ele>819</ele>
        <time>2022-10-18T06:50:40Z</time>
      </trkpt>
      <trkpt lat="46.63307" lon="6.04502">
        <ele>821.9</ele>
        <time>2022-10-18T06:50:48Z</time>
      </trkpt>
      <trkpt lat="46.63304" lon="6.04508">
        <ele>824.6</ele>
        <time>2022-10-18T06:50:55Z</time>
      </trkpt>
      <trkpt lat="46.63301" lon="6.04512">
        <ele>825.4</ele>
        <time>2022-10-18T06:51:00Z</time>
      </trkpt>
      <trkpt lat="46.63299" lon="6.04519">
        <ele>826.1</ele>
        <time>2022-10-18T06:51:07Z</time>
      </trkpt>
      <trkpt lat="46.63302" lon="6.04525">
        <ele>827</ele>
        <time>2022-10-18T06:51:12Z</time>
      </trkpt>
      <trkpt lat="46.63305" lon="6.0453">
        <ele>827.6</ele>
        <time>2022-10-18T06:51:15Z</time>
      </trkpt>
      <trkpt lat="46.63309" lon="6.04534">
        <ele>828.8</ele>
        <time>2022-10-18T06:51:22Z</time>
      </trkpt>
      <trkpt lat="46.63311" lon="6.04541">
        <ele>829.3</ele>
        <time>2022-10-18T06:51:29Z</time>
      </trkpt>
      <trkpt lat="46.63309" lon="6.04547">
        <ele>830.2</ele>
        <time>2022-10-18T06:51:35Z</time>
      </trkpt>
      <trkpt lat="46.63311" lon="6.04553">
        <ele>832</ele>
        <time>2022-10-18T06:51:46Z</time>
      </trkpt>
      <trkpt lat="46.63313" lon="6.0456">
        <ele>833.5</ele>
        <time>2022-10-18T06:51:54Z</time>
      </trkpt>
      <trkpt lat="46.63314" lon="6.04566">
        <ele>835.1</ele>
        <time>2022-10-18T06:52:00Z</time>
      </trkpt>
      <trkpt lat="46.63317" lon="6.04572">
        <ele>836.4</ele>
        <time>2022-10-18T06:52:06Z</time>
      </trkpt>
      <trkpt lat="46.63319" lon="6.04579">
        <ele>837.2</ele>
        <time>2022-10-18T06:52:12Z</time>
      </trkpt>
      <trkpt lat="46.63322" lon="6.04584">
        <ele>838.6</ele>
        <time>2022-10-18T06:52:19Z</time>
      </trkpt>
      <trkpt lat="46.63327" lon="6.04587">
        <ele>840.1</ele>
        <time>2022-10-18T06:52:25Z</time>
      </trkpt>
      <trkpt lat="46.63331" lon="6.0459">
        <ele>840.9</ele>
        <time>2022-10-18T06:52:31Z</time>
      </trkpt>
      <trkpt lat="46.63336" lon="6.04593">
        <ele>841.1</ele>
        <time>2022-10-18T06:52:36Z</time>
      </trkpt>
      <trkpt lat="46.63339" lon="6.04598">
        <ele>840.9</ele>
        <time>2022-10-18T06:52:41Z</time>
      </trkpt>
      <trkpt lat="46.63342" lon="6.04604">
        <ele>841.1</ele>
        <time>2022-10-18T06:52:47Z</time>
      </trkpt>
      <trkpt lat="46.63346" lon="6.04608">
        <ele>841.5</ele>
        <time>2022-10-18T06:52:54Z</time>
      </trkpt>
      <trkpt lat="46.6335" lon="6.04612">
        <ele>842.5</ele>
        <time>2022-10-18T06:53:02Z</time>
      </trkpt>
      <trkpt lat="46.63354" lon="6.04616">
        <ele>842.7</ele>
        <time>2022-10-18T06:53:11Z</time>
      </trkpt>
      <trkpt lat="46.63358" lon="6.04619">
        <ele>842.7</ele>
        <time>2022-10-18T06:53:16Z</time>
      </trkpt>
      <trkpt lat="46.63363" lon="6.04618">
        <ele>845.4</ele>
        <time>2022-10-18T06:53:34Z</time>
      </trkpt>
      <trkpt lat="46.63367" lon="6.04615">
        <ele>847.3</ele>
        <time>2022-10-18T06:53:41Z</time>
      </trkpt>
      <trkpt lat="46.63372" lon="6.04615">
        <ele>849.2</ele>
        <time>2022-10-18T06:53:46Z</time>
      </trkpt>
      <trkpt lat="46.63377" lon="6.04614">
        <ele>852.3</ele>
        <time>2022-10-18T06:53:56Z</time>
      </trkpt>
      <trkpt lat="46.63378" lon="6.04608">
        <ele>853.6</ele>
        <time>2022-10-18T06:54:05Z</time>
      </trkpt>
      <trkpt lat="46.63383" lon="6.04605">
        <ele>853.7</ele>
        <time>2022-10-18T06:54:12Z</time>
      </trkpt>
      <trkpt lat="46.63387" lon="6.04604">
        <ele>853.8</ele>
        <time>2022-10-18T06:54:22Z</time>
      </trkpt>
      <trkpt lat="46.63391" lon="6.04607">
        <ele>853.5</ele>
        <time>2022-10-18T06:54:27Z</time>
      </trkpt>
      <trkpt lat="46.63394" lon="6.04612">
        <ele>853.2</ele>
        <time>2022-10-18T06:54:34Z</time>
      </trkpt>
      <trkpt lat="46.63397" lon="6.04617">
        <ele>853.4</ele>
        <time>2022-10-18T06:54:39Z</time>
      </trkpt>
      <trkpt lat="46.634" lon="6.04623">
        <ele>853.8</ele>
        <time>2022-10-18T06:54:45Z</time>
      </trkpt>
      <trkpt lat="46.63401" lon="6.04629">
        <ele>854.3</ele>
        <time>2022-10-18T06:54:50Z</time>
      </trkpt>
      <trkpt lat="46.63403" lon="6.04636">
        <ele>854.7</ele>
        <time>2022-10-18T06:54:55Z</time>
      </trkpt>
      <trkpt lat="46.63404" lon="6.04643">
        <ele>854.9</ele>
        <time>2022-10-18T06:55:00Z</time>
      </trkpt>
      <trkpt lat="46.63407" lon="6.04648">
        <ele>855.1</ele>
        <time>2022-10-18T06:55:04Z</time>
      </trkpt>
      <trkpt lat="46.63412" lon="6.0465">
        <ele>855.6</ele>
        <time>2022-10-18T06:55:09Z</time>
      </trkpt>
      <trkpt lat="46.63408" lon="6.04654">
        <ele>857.7</ele>
        <time>2022-10-18T06:55:16Z</time>
      </trkpt>
      <trkpt lat="46.63405" lon="6.04659">
        <ele>858.3</ele>
        <time>2022-10-18T06:55:20Z</time>
      </trkpt>
      <trkpt lat="46.63405" lon="6.04667">
        <ele>859</ele>
        <time>2022-10-18T06:55:29Z</time>
      </trkpt>
      <trkpt lat="46.63407" lon="6.04674">
        <ele>857.5</ele>
        <time>2022-10-18T06:55:38Z</time>
      </trkpt>
      <trkpt lat="46.63407" lon="6.04681">
        <ele>856.5</ele>
        <time>2022-10-18T06:55:45Z</time>
      </trkpt>
      <trkpt lat="46.63408" lon="6.04688">
        <ele>855.7</ele>
        <time>2022-10-18T06:55:51Z</time>
      </trkpt>
      <trkpt lat="46.63408" lon="6.04696">
        <ele>855.1</ele>
        <time>2022-10-18T06:55:56Z</time>
      </trkpt>
      <trkpt lat="46.63408" lon="6.04703">
        <ele>856.1</ele>
        <time>2022-10-18T06:56:01Z</time>
      </trkpt>
      <trkpt lat="46.6341" lon="6.0471">
        <ele>857.7</ele>
        <time>2022-10-18T06:56:08Z</time>
      </trkpt>
      <trkpt lat="46.63413" lon="6.04716">
        <ele>857.8</ele>
        <time>2022-10-18T06:56:13Z</time>
      </trkpt>
      <trkpt lat="46.63415" lon="6.04723">
        <ele>857.4</ele>
        <time>2022-10-18T06:56:18Z</time>
      </trkpt>
      <trkpt lat="46.63416" lon="6.0473">
        <ele>856.9</ele>
        <time>2022-10-18T06:56:25Z</time>
      </trkpt>
      <trkpt lat="46.63418" lon="6.04736">
        <ele>856.4</ele>
        <time>2022-10-18T06:56:31Z</time>
      </trkpt>
      <trkpt lat="46.63421" lon="6.04742">
        <ele>855.9</ele>
        <time>2022-10-18T06:56:35Z</time>
      </trkpt>
      <trkpt lat="46.63423" lon="6.04749">
        <ele>855</ele>
        <time>2022-10-18T06:56:40Z</time>
      </trkpt>
      <trkpt lat="46.63422" lon="6.04755">
        <ele>854.4</ele>
        <time>2022-10-18T06:56:46Z</time>
      </trkpt>
      <trkpt lat="46.63421" lon="6.04761">
        <ele>854.1</ele>
        <time>2022-10-18T06:56:51Z</time>
      </trkpt>
      <trkpt lat="46.63423" lon="6.04768">
        <ele>854.1</ele>
        <time>2022-10-18T06:56:56Z</time>
      </trkpt>
      <trkpt lat="46.63425" lon="6.04774">
        <ele>854.9</ele>
        <time>2022-10-18T06:57:04Z</time>
      </trkpt>
      <trkpt lat="46.63428" lon="6.04779">
        <ele>854.8</ele>
        <time>2022-10-18T06:57:11Z</time>
      </trkpt>
      <trkpt lat="46.63429" lon="6.04786">
        <ele>854.9</ele>
        <time>2022-10-18T06:57:17Z</time>
      </trkpt>
      <trkpt lat="46.6343" lon="6.04793">
        <ele>855.2</ele>
        <time>2022-10-18T06:57:25Z</time>
      </trkpt>
      <trkpt lat="46.63432" lon="6.048">
        <ele>855.1</ele>
        <time>2022-10-18T06:57:30Z</time>
      </trkpt>
      <trkpt lat="46.63434" lon="6.04805">
        <ele>855.2</ele>
        <time>2022-10-18T06:57:36Z</time>
      </trkpt>
      <trkpt lat="46.63436" lon="6.04812">
        <ele>855.2</ele>
        <time>2022-10-18T06:57:43Z</time>
      </trkpt>
      <trkpt lat="46.6344" lon="6.04818">
        <ele>854.9</ele>
        <time>2022-10-18T06:57:49Z</time>
      </trkpt>
      <trkpt lat="46.63442" lon="6.04825">
        <ele>854.6</ele>
        <time>2022-10-18T06:57:55Z</time>
      </trkpt>
      <trkpt lat="46.63442" lon="6.04832">
        <ele>854.1</ele>
        <time>2022-10-18T06:58:00Z</time>
      </trkpt>
      <trkpt lat="46.63443" lon="6.04839">
        <ele>853.6</ele>
        <time>2022-10-18T06:58:05Z</time>
      </trkpt>
      <trkpt lat="46.63446" lon="6.04846">
        <ele>853.3</ele>
        <time>2022-10-18T06:58:10Z</time>
      </trkpt>
      <trkpt lat="46.63447" lon="6.04852">
        <ele>853.5</ele>
        <time>2022-10-18T06:58:13Z</time>
      </trkpt>
      <trkpt lat="46.63449" lon="6.04859">
        <ele>854.1</ele>
        <time>2022-10-18T06:58:18Z</time>
      </trkpt>
      <trkpt lat="46.63451" lon="6.04865">
        <ele>854.6</ele>
        <time>2022-10-18T06:58:24Z</time>
      </trkpt>
      <trkpt lat="46.6345" lon="6.04871">
        <ele>855.6</ele>
        <time>2022-10-18T06:58:31Z</time>
      </trkpt>
      <trkpt lat="46.63449" lon="6.04879">
        <ele>856.2</ele>
        <time>2022-10-18T06:58:45Z</time>
      </trkpt>
      <trkpt lat="46.6345" lon="6.04886">
        <ele>855.2</ele>
        <time>2022-10-18T06:58:50Z</time>
      </trkpt>
      <trkpt lat="46.6345" lon="6.04893">
        <ele>854</ele>
        <time>2022-10-18T06:58:56Z</time>
      </trkpt>
      <trkpt lat="46.63452" lon="6.04899">
        <ele>853.5</ele>
        <time>2022-10-18T06:59:02Z</time>
      </trkpt>
      <trkpt lat="46.63456" lon="6.04904">
        <ele>852.6</ele>
        <time>2022-10-18T06:59:06Z</time>
      </trkpt>
      <trkpt lat="46.6346" lon="6.04909">
        <ele>851.9</ele>
        <time>2022-10-18T06:59:11Z</time>
      </trkpt>
      <trkpt lat="46.63464" lon="6.04914">
        <ele>851.5</ele>
        <time>2022-10-18T06:59:17Z</time>
      </trkpt>
      <trkpt lat="46.63465" lon="6.0492">
        <ele>850.9</ele>
        <time>2022-10-18T06:59:24Z</time>
      </trkpt>
      <trkpt lat="46.63468" lon="6.04926">
        <ele>850.8</ele>
        <time>2022-10-18T06:59:29Z</time>
      </trkpt>
      <trkpt lat="46.6347" lon="6.04932">
        <ele>850.7</ele>
        <time>2022-10-18T06:59:33Z</time>
      </trkpt>
      <trkpt lat="46.63472" lon="6.04937">
        <ele>850.1</ele>
        <time>2022-10-18T06:59:38Z</time>
      </trkpt>
      <trkpt lat="46.63477" lon="6.04944">
        <ele>849.8</ele>
        <time>2022-10-18T06:59:42Z</time>
      </trkpt>
      <trkpt lat="46.6348" lon="6.04949">
        <ele>849.7</ele>
        <time>2022-10-18T06:59:45Z</time>
      </trkpt>
      <trkpt lat="46.63481" lon="6.04956">
        <ele>849.9</ele>
        <time>2022-10-18T06:59:50Z</time>
      </trkpt>
      <trkpt lat="46.63483" lon="6.04962">
        <ele>850.2</ele>
        <time>2022-10-18T06:59:57Z</time>
      </trkpt>
      <trkpt lat="46.63484" lon="6.0497">
        <ele>850</ele>
        <time>2022-10-18T07:00:03Z</time>
      </trkpt>
      <trkpt lat="46.63485" lon="6.04976">
        <ele>850.3</ele>
        <time>2022-10-18T07:00:08Z</time>
      </trkpt>
      <trkpt lat="46.63485" lon="6.04983">
        <ele>850.5</ele>
        <time>2022-10-18T07:00:14Z</time>
      </trkpt>
      <trkpt lat="46.63486" lon="6.0499">
        <ele>850.7</ele>
        <time>2022-10-18T07:00:20Z</time>
      </trkpt>
      <trkpt lat="46.63488" lon="6.04997">
        <ele>850.7</ele>
        <time>2022-10-18T07:00:26Z</time>
      </trkpt>
      <trkpt lat="46.6349" lon="6.05004">
        <ele>850.9</ele>
        <time>2022-10-18T07:00:31Z</time>
      </trkpt>
      <trkpt lat="46.63493" lon="6.05011">
        <ele>851</ele>
        <time>2022-10-18T07:00:36Z</time>
      </trkpt>
      <trkpt lat="46.63494" lon="6.05019">
        <ele>851.3</ele>
        <time>2022-10-18T07:00:41Z</time>
      </trkpt>
      <trkpt lat="46.63498" lon="6.05025">
        <ele>851.3</ele>
        <time>2022-10-18T07:00:46Z</time>
      </trkpt>
      <trkpt lat="46.635" lon="6.05031">
        <ele>851.4</ele>
        <time>2022-10-18T07:00:50Z</time>
      </trkpt>
      <trkpt lat="46.63501" lon="6.05038">
        <ele>851.4</ele>
        <time>2022-10-18T07:00:55Z</time>
      </trkpt>
      <trkpt lat="46.63504" lon="6.05044">
        <ele>850.3</ele>
        <time>2022-10-18T07:01:02Z</time>
      </trkpt>
      <trkpt lat="46.63509" lon="6.05048">
        <ele>850</ele>
        <time>2022-10-18T07:01:07Z</time>
      </trkpt>
      <trkpt lat="46.63511" lon="6.05053">
        <ele>849.7</ele>
        <time>2022-10-18T07:01:10Z</time>
      </trkpt>
      <trkpt lat="46.63514" lon="6.0506">
        <ele>849.5</ele>
        <time>2022-10-18T07:01:15Z</time>
      </trkpt>
      <trkpt lat="46.63518" lon="6.05065">
        <ele>849.4</ele>
        <time>2022-10-18T07:01:21Z</time>
      </trkpt>
      <trkpt lat="46.63524" lon="6.05067">
        <ele>849.9</ele>
        <time>2022-10-18T07:01:25Z</time>
      </trkpt>
      <trkpt lat="46.63528" lon="6.05069">
        <ele>850.6</ele>
        <time>2022-10-18T07:01:29Z</time>
      </trkpt>
      <trkpt lat="46.63532" lon="6.05073">
        <ele>852.3</ele>
        <time>2022-10-18T07:01:36Z</time>
      </trkpt>
      <trkpt lat="46.63537" lon="6.05074">
        <ele>853.9</ele>
        <time>2022-10-18T07:01:43Z</time>
      </trkpt>
      <trkpt lat="46.6354" lon="6.0508">
        <ele>855.9</ele>
        <time>2022-10-18T07:01:50Z</time>
      </trkpt>
      <trkpt lat="46.63544" lon="6.05085">
        <ele>857</ele>
        <time>2022-10-18T07:01:55Z</time>
      </trkpt>
      <trkpt lat="46.63546" lon="6.05092">
        <ele>858.2</ele>
        <time>2022-10-18T07:02:01Z</time>
      </trkpt>
      <trkpt lat="46.63549" lon="6.05098">
        <ele>858.7</ele>
        <time>2022-10-18T07:02:06Z</time>
      </trkpt>
      <trkpt lat="46.63553" lon="6.05101">
        <ele>859.1</ele>
        <time>2022-10-18T07:02:10Z</time>
      </trkpt>
      <trkpt lat="46.63556" lon="6.05106">
        <ele>859.7</ele>
        <time>2022-10-18T07:02:16Z</time>
      </trkpt>
      <trkpt lat="46.63559" lon="6.05112">
        <ele>860</ele>
        <time>2022-10-18T07:02:24Z</time>
      </trkpt>
      <trkpt lat="46.63562" lon="6.05118">
        <ele>860.6</ele>
        <time>2022-10-18T07:02:31Z</time>
      </trkpt>
      <trkpt lat="46.63566" lon="6.05122">
        <ele>861.6</ele>
        <time>2022-10-18T07:02:37Z</time>
      </trkpt>
      <trkpt lat="46.6357" lon="6.05125">
        <ele>862.6</ele>
        <time>2022-10-18T07:02:45Z</time>
      </trkpt>
      <trkpt lat="46.63573" lon="6.05131">
        <ele>862.6</ele>
        <time>2022-10-18T07:02:52Z</time>
      </trkpt>
      <trkpt lat="46.63577" lon="6.05137">
        <ele>862.5</ele>
        <time>2022-10-18T07:02:59Z</time>
      </trkpt>
      <trkpt lat="46.6358" lon="6.05144">
        <ele>863.1</ele>
        <time>2022-10-18T07:03:04Z</time>
      </trkpt>
      <trkpt lat="46.63582" lon="6.05151">
        <ele>863.7</ele>
        <time>2022-10-18T07:03:09Z</time>
      </trkpt>
      <trkpt lat="46.63584" lon="6.05158">
        <ele>864.8</ele>
        <time>2022-10-18T07:03:14Z</time>
      </trkpt>
      <trkpt lat="46.63588" lon="6.05162">
        <ele>865.1</ele>
        <time>2022-10-18T07:03:18Z</time>
      </trkpt>
      <trkpt lat="46.63589" lon="6.05169">
        <ele>866</ele>
        <time>2022-10-18T07:03:24Z</time>
      </trkpt>
      <trkpt lat="46.63589" lon="6.05176">
        <ele>867.8</ele>
        <time>2022-10-18T07:03:32Z</time>
      </trkpt>
      <trkpt lat="46.63586" lon="6.05182">
        <ele>869.3</ele>
        <time>2022-10-18T07:03:38Z</time>
      </trkpt>
      <trkpt lat="46.63583" lon="6.05189">
        <ele>870.2</ele>
        <time>2022-10-18T07:03:42Z</time>
      </trkpt>
      <trkpt lat="46.6358" lon="6.05195">
        <ele>870.7</ele>
        <time>2022-10-18T07:03:45Z</time>
      </trkpt>
      <trkpt lat="46.63579" lon="6.05202">
        <ele>870.9</ele>
        <time>2022-10-18T07:03:50Z</time>
      </trkpt>
      <trkpt lat="46.6358" lon="6.05208">
        <ele>871.4</ele>
        <time>2022-10-18T07:03:54Z</time>
      </trkpt>
      <trkpt lat="46.63584" lon="6.05214">
        <ele>872.4</ele>
        <time>2022-10-18T07:03:58Z</time>
      </trkpt>
      <trkpt lat="46.63586" lon="6.0522">
        <ele>874.4</ele>
        <time>2022-10-18T07:04:03Z</time>
      </trkpt>
      <trkpt lat="46.63586" lon="6.05227">
        <ele>876.4</ele>
        <time>2022-10-18T07:04:08Z</time>
      </trkpt>
      <trkpt lat="46.63587" lon="6.05234">
        <ele>878.3</ele>
        <time>2022-10-18T07:04:14Z</time>
      </trkpt>
      <trkpt lat="46.63586" lon="6.05242">
        <ele>879.4</ele>
        <time>2022-10-18T07:04:20Z</time>
      </trkpt>
      <trkpt lat="46.63585" lon="6.05249">
        <ele>880.4</ele>
        <time>2022-10-18T07:04:24Z</time>
      </trkpt>
      <trkpt lat="46.63583" lon="6.05256">
        <ele>881.3</ele>
        <time>2022-10-18T07:04:28Z</time>
      </trkpt>
      <trkpt lat="46.63583" lon="6.05263">
        <ele>883</ele>
        <time>2022-10-18T07:04:34Z</time>
      </trkpt>
      <trkpt lat="46.63585" lon="6.05269">
        <ele>884.8</ele>
        <time>2022-10-18T07:04:40Z</time>
      </trkpt>
      <trkpt lat="46.63585" lon="6.05277">
        <ele>886.1</ele>
        <time>2022-10-18T07:04:46Z</time>
      </trkpt>
      <trkpt lat="46.63585" lon="6.05285">
        <ele>886.9</ele>
        <time>2022-10-18T07:04:51Z</time>
      </trkpt>
      <trkpt lat="46.63586" lon="6.05291">
        <ele>887.5</ele>
        <time>2022-10-18T07:04:56Z</time>
      </trkpt>
      <trkpt lat="46.63586" lon="6.05299">
        <ele>887.8</ele>
        <time>2022-10-18T07:05:01Z</time>
      </trkpt>
      <trkpt lat="46.63585" lon="6.05306">
        <ele>886.9</ele>
        <time>2022-10-18T07:05:07Z</time>
      </trkpt>
      <trkpt lat="46.63584" lon="6.05313">
        <ele>886.2</ele>
        <time>2022-10-18T07:05:13Z</time>
      </trkpt>
      <trkpt lat="46.63583" lon="6.0532">
        <ele>885.7</ele>
        <time>2022-10-18T07:05:16Z</time>
      </trkpt>
      <trkpt lat="46.63582" lon="6.05327">
        <ele>884.8</ele>
        <time>2022-10-18T07:05:21Z</time>
      </trkpt>
      <trkpt lat="46.63581" lon="6.05334">
        <ele>884.2</ele>
        <time>2022-10-18T07:05:26Z</time>
      </trkpt>
      <trkpt lat="46.6358" lon="6.05342">
        <ele>884.1</ele>
        <time>2022-10-18T07:05:30Z</time>
      </trkpt>
      <trkpt lat="46.63579" lon="6.05349">
        <ele>883.6</ele>
        <time>2022-10-18T07:05:35Z</time>
      </trkpt>
      <trkpt lat="46.63579" lon="6.05356">
        <ele>883.1</ele>
        <time>2022-10-18T07:05:39Z</time>
      </trkpt>
      <trkpt lat="46.63578" lon="6.05363">
        <ele>881.9</ele>
        <time>2022-10-18T07:05:45Z</time>
      </trkpt>
      <trkpt lat="46.63575" lon="6.0537">
        <ele>881.4</ele>
        <time>2022-10-18T07:05:51Z</time>
      </trkpt>
      <trkpt lat="46.63574" lon="6.05376">
        <ele>881.1</ele>
        <time>2022-10-18T07:05:57Z</time>
      </trkpt>
      <trkpt lat="46.63572" lon="6.05383">
        <ele>880.6</ele>
        <time>2022-10-18T07:06:03Z</time>
      </trkpt>
      <trkpt lat="46.6357" lon="6.0539">
        <ele>880.5</ele>
        <time>2022-10-18T07:06:09Z</time>
      </trkpt>
      <trkpt lat="46.63568" lon="6.05397">
        <ele>880.3</ele>
        <time>2022-10-18T07:06:14Z</time>
      </trkpt>
      <trkpt lat="46.63567" lon="6.05403">
        <ele>879.9</ele>
        <time>2022-10-18T07:06:18Z</time>
      </trkpt>
      <trkpt lat="46.63563" lon="6.05408">
        <ele>879</ele>
        <time>2022-10-18T07:06:24Z</time>
      </trkpt>
      <trkpt lat="46.63559" lon="6.05413">
        <ele>878.1</ele>
        <time>2022-10-18T07:06:30Z</time>
      </trkpt>
      <trkpt lat="46.63556" lon="6.05419">
        <ele>877.5</ele>
        <time>2022-10-18T07:06:35Z</time>
      </trkpt>
      <trkpt lat="46.63554" lon="6.05425">
        <ele>877</ele>
        <time>2022-10-18T07:06:39Z</time>
      </trkpt>
      <trkpt lat="46.63551" lon="6.05432">
        <ele>876.7</ele>
        <time>2022-10-18T07:06:43Z</time>
      </trkpt>
      <trkpt lat="46.63548" lon="6.05437">
        <ele>875.8</ele>
        <time>2022-10-18T07:06:50Z</time>
      </trkpt>
      <trkpt lat="46.63544" lon="6.05442">
        <ele>875.3</ele>
        <time>2022-10-18T07:06:55Z</time>
      </trkpt>
      <trkpt lat="46.6354" lon="6.05447">
        <ele>875.2</ele>
        <time>2022-10-18T07:07:00Z</time>
      </trkpt>
      <trkpt lat="46.63535" lon="6.0545">
        <ele>875.3</ele>
        <time>2022-10-18T07:07:05Z</time>
      </trkpt>
      <trkpt lat="46.63531" lon="6.05454">
        <ele>875.8</ele>
        <time>2022-10-18T07:07:10Z</time>
      </trkpt>
      <trkpt lat="46.63527" lon="6.05458">
        <ele>876.4</ele>
        <time>2022-10-18T07:07:15Z</time>
      </trkpt>
      <trkpt lat="46.63522" lon="6.05459">
        <ele>876.8</ele>
        <time>2022-10-18T07:07:20Z</time>
      </trkpt>
      <trkpt lat="46.63518" lon="6.05461">
        <ele>876.8</ele>
        <time>2022-10-18T07:07:25Z</time>
      </trkpt>
      <trkpt lat="46.63513" lon="6.05464">
        <ele>876.5</ele>
        <time>2022-10-18T07:07:30Z</time>
      </trkpt>
      <trkpt lat="46.63508" lon="6.05469">
        <ele>876.2</ele>
        <time>2022-10-18T07:07:35Z</time>
      </trkpt>
      <trkpt lat="46.63506" lon="6.05475">
        <ele>875.9</ele>
        <time>2022-10-18T07:07:39Z</time>
      </trkpt>
      <trkpt lat="46.63502" lon="6.05481">
        <ele>875.5</ele>
        <time>2022-10-18T07:07:44Z</time>
      </trkpt>
      <trkpt lat="46.635" lon="6.05487">
        <ele>875.3</ele>
        <time>2022-10-18T07:07:49Z</time>
      </trkpt>
      <trkpt lat="46.63497" lon="6.05494">
        <ele>875</ele>
        <time>2022-10-18T07:07:54Z</time>
      </trkpt>
      <trkpt lat="46.63497" lon="6.05501">
        <ele>874.7</ele>
        <time>2022-10-18T07:07:58Z</time>
      </trkpt>
      <trkpt lat="46.63498" lon="6.05508">
        <ele>874.6</ele>
        <time>2022-10-18T07:08:02Z</time>
      </trkpt>
      <trkpt lat="46.63499" lon="6.05515">
        <ele>874.4</ele>
        <time>2022-10-18T07:08:07Z</time>
      </trkpt>
      <trkpt lat="46.635" lon="6.05522">
        <ele>874.6</ele>
        <time>2022-10-18T07:08:12Z</time>
      </trkpt>
      <trkpt lat="46.635" lon="6.05529">
        <ele>874.6</ele>
        <time>2022-10-18T07:08:17Z</time>
      </trkpt>
      <trkpt lat="46.63502" lon="6.05537">
        <ele>873.4</ele>
        <time>2022-10-18T07:08:24Z</time>
      </trkpt>
      <trkpt lat="46.63504" lon="6.05544">
        <ele>872.9</ele>
        <time>2022-10-18T07:08:28Z</time>
      </trkpt>
      <trkpt lat="46.63505" lon="6.0555">
        <ele>873</ele>
        <time>2022-10-18T07:08:31Z</time>
      </trkpt>
      <trkpt lat="46.63506" lon="6.05557">
        <ele>872.9</ele>
        <time>2022-10-18T07:08:35Z</time>
      </trkpt>
      <trkpt lat="46.63503" lon="6.05564">
        <ele>872.4</ele>
        <time>2022-10-18T07:08:40Z</time>
      </trkpt>
      <trkpt lat="46.63501" lon="6.05571">
        <ele>871.6</ele>
        <time>2022-10-18T07:08:44Z</time>
      </trkpt>
      <trkpt lat="46.63499" lon="6.05577">
        <ele>871</ele>
        <time>2022-10-18T07:08:48Z</time>
      </trkpt>
      <trkpt lat="46.63499" lon="6.05585">
        <ele>870.2</ele>
        <time>2022-10-18T07:08:53Z</time>
      </trkpt>
      <trkpt lat="46.63498" lon="6.05592">
        <ele>869</ele>
        <time>2022-10-18T07:08:58Z</time>
      </trkpt>
      <trkpt lat="46.63495" lon="6.05598">
        <ele>867.8</ele>
        <time>2022-10-18T07:09:03Z</time>
      </trkpt>
      <trkpt lat="46.63494" lon="6.05605">
        <ele>866.9</ele>
        <time>2022-10-18T07:09:07Z</time>
      </trkpt>
      <trkpt lat="46.63493" lon="6.05612">
        <ele>866</ele>
        <time>2022-10-18T07:09:11Z</time>
      </trkpt>
      <trkpt lat="46.63492" lon="6.0562">
        <ele>865.4</ele>
        <time>2022-10-18T07:09:15Z</time>
      </trkpt>
      <trkpt lat="46.63491" lon="6.05627">
        <ele>864.5</ele>
        <time>2022-10-18T07:09:22Z</time>
      </trkpt>
      <trkpt lat="46.63491" lon="6.05634">
        <ele>864.1</ele>
        <time>2022-10-18T07:09:27Z</time>
      </trkpt>
      <trkpt lat="46.6349" lon="6.0564">
        <ele>864.2</ele>
        <time>2022-10-18T07:09:32Z</time>
      </trkpt>
      <trkpt lat="46.63491" lon="6.05648">
        <ele>864.1</ele>
        <time>2022-10-18T07:09:37Z</time>
      </trkpt>
      <trkpt lat="46.6349" lon="6.05655">
        <ele>864</ele>
        <time>2022-10-18T07:09:42Z</time>
      </trkpt>
      <trkpt lat="46.63491" lon="6.05661">
        <ele>864</ele>
        <time>2022-10-18T07:09:47Z</time>
      </trkpt>
      <trkpt lat="46.63491" lon="6.05668">
        <ele>863.9</ele>
        <time>2022-10-18T07:09:52Z</time>
      </trkpt>
      <trkpt lat="46.63491" lon="6.05676">
        <ele>863.6</ele>
        <time>2022-10-18T07:09:57Z</time>
      </trkpt>
      <trkpt lat="46.63492" lon="6.05683">
        <ele>863.5</ele>
        <time>2022-10-18T07:10:02Z</time>
      </trkpt>
      <trkpt lat="46.63493" lon="6.0569">
        <ele>863.2</ele>
        <time>2022-10-18T07:10:06Z</time>
      </trkpt>
      <trkpt lat="46.63495" lon="6.05697">
        <ele>861.9</ele>
        <time>2022-10-18T07:10:12Z</time>
      </trkpt>
      <trkpt lat="46.63495" lon="6.05703">
        <ele>860.9</ele>
        <time>2022-10-18T07:10:16Z</time>
      </trkpt>
      <trkpt lat="46.63495" lon="6.05711">
        <ele>860</ele>
        <time>2022-10-18T07:10:21Z</time>
      </trkpt>
      <trkpt lat="46.63496" lon="6.05718">
        <ele>859</ele>
        <time>2022-10-18T07:10:26Z</time>
      </trkpt>
      <trkpt lat="46.63498" lon="6.05725">
        <ele>858.4</ele>
        <time>2022-10-18T07:10:31Z</time>
      </trkpt>
      <trkpt lat="46.63502" lon="6.0573">
        <ele>858</ele>
        <time>2022-10-18T07:10:36Z</time>
      </trkpt>
      <trkpt lat="46.63504" lon="6.05737">
        <ele>858</ele>
        <time>2022-10-18T07:10:41Z</time>
      </trkpt>
      <trkpt lat="46.63504" lon="6.05745">
        <ele>857.6</ele>
        <time>2022-10-18T07:10:46Z</time>
      </trkpt>
      <trkpt lat="46.63506" lon="6.05751">
        <ele>857.3</ele>
        <time>2022-10-18T07:10:51Z</time>
      </trkpt>
      <trkpt lat="46.63507" lon="6.05758">
        <ele>856.8</ele>
        <time>2022-10-18T07:10:58Z</time>
      </trkpt>
      <trkpt lat="46.63509" lon="6.05764">
        <ele>856.2</ele>
        <time>2022-10-18T07:11:05Z</time>
      </trkpt>
      <trkpt lat="46.63511" lon="6.0577">
        <ele>855.2</ele>
        <time>2022-10-18T07:11:11Z</time>
      </trkpt>
      <trkpt lat="46.63511" lon="6.05777">
        <ele>854.5</ele>
        <time>2022-10-18T07:11:18Z</time>
      </trkpt>
      <trkpt lat="46.63511" lon="6.05784">
        <ele>853.7</ele>
        <time>2022-10-18T07:11:25Z</time>
      </trkpt>
      <trkpt lat="46.63513" lon="6.0579">
        <ele>851.9</ele>
        <time>2022-10-18T07:11:34Z</time>
      </trkpt>
      <trkpt lat="46.63513" lon="6.05797">
        <ele>851</ele>
        <time>2022-10-18T07:11:38Z</time>
      </trkpt>
      <trkpt lat="46.63513" lon="6.05804">
        <ele>850.4</ele>
        <time>2022-10-18T07:11:42Z</time>
      </trkpt>
      <trkpt lat="46.63514" lon="6.05811">
        <ele>849.8</ele>
        <time>2022-10-18T07:11:49Z</time>
      </trkpt>
      <trkpt lat="46.63516" lon="6.05818">
        <ele>849.4</ele>
        <time>2022-10-18T07:11:55Z</time>
      </trkpt>
      <trkpt lat="46.6352" lon="6.05823">
        <ele>849.5</ele>
        <time>2022-10-18T07:12:03Z</time>
      </trkpt>
      <trkpt lat="46.63523" lon="6.05828">
        <ele>850</ele>
        <time>2022-10-18T07:12:08Z</time>
      </trkpt>
      <trkpt lat="46.63523" lon="6.05836">
        <ele>850.3</ele>
        <time>2022-10-18T07:12:14Z</time>
      </trkpt>
      <trkpt lat="46.63525" lon="6.05842">
        <ele>850.8</ele>
        <time>2022-10-18T07:12:20Z</time>
      </trkpt>
      <trkpt lat="46.6353" lon="6.05846">
        <ele>851.4</ele>
        <time>2022-10-18T07:12:26Z</time>
      </trkpt>
      <trkpt lat="46.63533" lon="6.05852">
        <ele>851</ele>
        <time>2022-10-18T07:12:31Z</time>
      </trkpt>
      <trkpt lat="46.63536" lon="6.05858">
        <ele>850.5</ele>
        <time>2022-10-18T07:12:37Z</time>
      </trkpt>
      <trkpt lat="46.63538" lon="6.05864">
        <ele>850.5</ele>
        <time>2022-10-18T07:12:43Z</time>
      </trkpt>
      <trkpt lat="46.6354" lon="6.05871">
        <ele>850.5</ele>
        <time>2022-10-18T07:12:50Z</time>
      </trkpt>
      <trkpt lat="46.63544" lon="6.05876">
        <ele>850.9</ele>
        <time>2022-10-18T07:12:55Z</time>
      </trkpt>
      <trkpt lat="46.63547" lon="6.05881">
        <ele>851.4</ele>
        <time>2022-10-18T07:13:01Z</time>
      </trkpt>
      <trkpt lat="46.63548" lon="6.05888">
        <ele>852.4</ele>
        <time>2022-10-18T07:13:07Z</time>
      </trkpt>
      <trkpt lat="46.63551" lon="6.05893">
        <ele>853.5</ele>
        <time>2022-10-18T07:13:12Z</time>
      </trkpt>
      <trkpt lat="46.63552" lon="6.059">
        <ele>854.7</ele>
        <time>2022-10-18T07:13:17Z</time>
      </trkpt>
      <trkpt lat="46.63553" lon="6.05907">
        <ele>855.9</ele>
        <time>2022-10-18T07:13:22Z</time>
      </trkpt>
      <trkpt lat="46.63557" lon="6.05912">
        <ele>856.9</ele>
        <time>2022-10-18T07:13:27Z</time>
      </trkpt>
      <trkpt lat="46.6356" lon="6.05917">
        <ele>857.8</ele>
        <time>2022-10-18T07:13:31Z</time>
      </trkpt>
      <trkpt lat="46.63564" lon="6.05921">
        <ele>858.9</ele>
        <time>2022-10-18T07:13:35Z</time>
      </trkpt>
      <trkpt lat="46.63565" lon="6.05928">
        <ele>860.6</ele>
        <time>2022-10-18T07:13:47Z</time>
      </trkpt>
      <trkpt lat="46.63564" lon="6.05935">
        <ele>861</ele>
        <time>2022-10-18T07:13:52Z</time>
      </trkpt>
      <trkpt lat="46.63567" lon="6.05941">
        <ele>861.2</ele>
        <time>2022-10-18T07:13:57Z</time>
      </trkpt>
      <trkpt lat="46.63571" lon="6.05945">
        <ele>861.9</ele>
        <time>2022-10-18T07:14:03Z</time>
      </trkpt>
      <trkpt lat="46.63573" lon="6.05951">
        <ele>862.7</ele>
        <time>2022-10-18T07:14:10Z</time>
      </trkpt>
      <trkpt lat="46.63576" lon="6.05958">
        <ele>862.9</ele>
        <time>2022-10-18T07:14:17Z</time>
      </trkpt>
      <trkpt lat="46.63579" lon="6.05963">
        <ele>862.9</ele>
        <time>2022-10-18T07:14:27Z</time>
      </trkpt>
      <trkpt lat="46.63581" lon="6.05969">
        <ele>862.9</ele>
        <time>2022-10-18T07:14:32Z</time>
      </trkpt>
      <trkpt lat="46.63585" lon="6.05975">
        <ele>862.8</ele>
        <time>2022-10-18T07:14:37Z</time>
      </trkpt>
      <trkpt lat="46.63586" lon="6.05982">
        <ele>863.2</ele>
        <time>2022-10-18T07:14:45Z</time>
      </trkpt>
      <trkpt lat="46.63589" lon="6.05988">
        <ele>863.8</ele>
        <time>2022-10-18T07:14:54Z</time>
      </trkpt>
      <trkpt lat="46.63589" lon="6.05994">
        <ele>864.4</ele>
        <time>2022-10-18T07:15:00Z</time>
      </trkpt>
      <trkpt lat="46.6359" lon="6.06001">
        <ele>865.1</ele>
        <time>2022-10-18T07:15:07Z</time>
      </trkpt>
      <trkpt lat="46.6359" lon="6.06008">
        <ele>865.5</ele>
        <time>2022-10-18T07:15:12Z</time>
      </trkpt>
      <trkpt lat="46.63591" lon="6.06015">
        <ele>866.4</ele>
        <time>2022-10-18T07:15:17Z</time>
      </trkpt>
      <trkpt lat="46.63593" lon="6.06021">
        <ele>867.9</ele>
        <time>2022-10-18T07:15:24Z</time>
      </trkpt>
      <trkpt lat="46.63593" lon="6.06028">
        <ele>869.2</ele>
        <time>2022-10-18T07:15:30Z</time>
      </trkpt>
      <trkpt lat="46.63597" lon="6.06032">
        <ele>869.9</ele>
        <time>2022-10-18T07:15:35Z</time>
      </trkpt>
      <trkpt lat="46.63601" lon="6.06037">
        <ele>871.2</ele>
        <time>2022-10-18T07:15:40Z</time>
      </trkpt>
      <trkpt lat="46.63605" lon="6.06041">
        <ele>872.4</ele>
        <time>2022-10-18T07:15:45Z</time>
      </trkpt>
      <trkpt lat="46.63608" lon="6.06048">
        <ele>874.2</ele>
        <time>2022-10-18T07:15:52Z</time>
      </trkpt>
      <trkpt lat="46.6361" lon="6.06054">
        <ele>875.1</ele>
        <time>2022-10-18T07:15:56Z</time>
      </trkpt>
      <trkpt lat="46.63615" lon="6.06057">
        <ele>876.2</ele>
        <time>2022-10-18T07:16:01Z</time>
      </trkpt>
      <trkpt lat="46.6362" lon="6.06058">
        <ele>877.3</ele>
        <time>2022-10-18T07:16:06Z</time>
      </trkpt>
      <trkpt lat="46.63624" lon="6.0606">
        <ele>878.2</ele>
        <time>2022-10-18T07:16:11Z</time>
      </trkpt>
      <trkpt lat="46.63625" lon="6.06068">
        <ele>879.1</ele>
        <time>2022-10-18T07:16:17Z</time>
      </trkpt>
      <trkpt lat="46.63625" lon="6.06076">
        <ele>879.7</ele>
        <time>2022-10-18T07:16:23Z</time>
      </trkpt>
      <trkpt lat="46.63627" lon="6.06083">
        <ele>879.9</ele>
        <time>2022-10-18T07:16:29Z</time>
      </trkpt>
      <trkpt lat="46.6363" lon="6.06088">
        <ele>880.3</ele>
        <time>2022-10-18T07:16:35Z</time>
      </trkpt>
      <trkpt lat="46.63634" lon="6.06092">
        <ele>880.4</ele>
        <time>2022-10-18T07:16:41Z</time>
      </trkpt>
      <trkpt lat="46.63636" lon="6.06099">
        <ele>880.3</ele>
        <time>2022-10-18T07:16:47Z</time>
      </trkpt>
      <trkpt lat="46.63642" lon="6.06095">
        <ele>880.4</ele>
        <time>2022-10-18T07:17:13Z</time>
      </trkpt>
      <trkpt lat="46.63644" lon="6.06089">
        <ele>881.3</ele>
        <time>2022-10-18T07:17:18Z</time>
      </trkpt>
      <trkpt lat="46.63645" lon="6.06082">
        <ele>885.8</ele>
        <time>2022-10-18T07:17:24Z</time>
      </trkpt>
      <trkpt lat="46.63643" lon="6.06075">
        <ele>890.1</ele>
        <time>2022-10-18T07:17:30Z</time>
      </trkpt>
      <trkpt lat="46.63639" lon="6.0607">
        <ele>893.7</ele>
        <time>2022-10-18T07:17:39Z</time>
      </trkpt>
      <trkpt lat="46.63635" lon="6.06066">
        <ele>894.4</ele>
        <time>2022-10-18T07:17:46Z</time>
      </trkpt>
      <trkpt lat="46.63631" lon="6.06062">
        <ele>895.8</ele>
        <time>2022-10-18T07:17:53Z</time>
      </trkpt>
      <trkpt lat="46.63627" lon="6.06058">
        <ele>897.1</ele>
        <time>2022-10-18T07:18:00Z</time>
      </trkpt>
      <trkpt lat="46.63623" lon="6.06054">
        <ele>898.2</ele>
        <time>2022-10-18T07:18:09Z</time>
      </trkpt>
      <trkpt lat="46.63619" lon="6.0605">
        <ele>898.8</ele>
        <time>2022-10-18T07:18:15Z</time>
      </trkpt>
      <trkpt lat="46.63616" lon="6.06044">
        <ele>899.5</ele>
        <time>2022-10-18T07:18:20Z</time>
      </trkpt>
      <trkpt lat="46.63612" lon="6.0604">
        <ele>900</ele>
        <time>2022-10-18T07:18:25Z</time>
      </trkpt>
      <trkpt lat="46.63607" lon="6.06038">
        <ele>900.4</ele>
        <time>2022-10-18T07:18:29Z</time>
      </trkpt>
      <trkpt lat="46.63604" lon="6.06032">
        <ele>900.9</ele>
        <time>2022-10-18T07:18:34Z</time>
      </trkpt>
      <trkpt lat="46.63602" lon="6.06024">
        <ele>901.1</ele>
        <time>2022-10-18T07:18:39Z</time>
      </trkpt>
      <trkpt lat="46.63599" lon="6.06017">
        <ele>900.9</ele>
        <time>2022-10-18T07:18:44Z</time>
      </trkpt>
      <trkpt lat="46.63599" lon="6.06009">
        <ele>900.1</ele>
        <time>2022-10-18T07:18:48Z</time>
      </trkpt>
      <trkpt lat="46.63597" lon="6.06002">
        <ele>899.3</ele>
        <time>2022-10-18T07:18:52Z</time>
      </trkpt>
      <trkpt lat="46.63594" lon="6.05997">
        <ele>898</ele>
        <time>2022-10-18T07:19:00Z</time>
      </trkpt>
      <trkpt lat="46.63593" lon="6.05989">
        <ele>896.9</ele>
        <time>2022-10-18T07:19:06Z</time>
      </trkpt>
      <trkpt lat="46.63593" lon="6.05981">
        <ele>895.4</ele>
        <time>2022-10-18T07:19:11Z</time>
      </trkpt>
      <trkpt lat="46.63591" lon="6.05975">
        <ele>893.8</ele>
        <time>2022-10-18T07:19:16Z</time>
      </trkpt>
      <trkpt lat="46.63588" lon="6.05969">
        <ele>892.5</ele>
        <time>2022-10-18T07:19:21Z</time>
      </trkpt>
      <trkpt lat="46.63588" lon="6.05962">
        <ele>891.3</ele>
        <time>2022-10-18T07:19:27Z</time>
      </trkpt>
      <trkpt lat="46.63585" lon="6.05956">
        <ele>889.8</ele>
        <time>2022-10-18T07:19:33Z</time>
      </trkpt>
      <trkpt lat="46.63583" lon="6.05948">
        <ele>888.3</ele>
        <time>2022-10-18T07:19:38Z</time>
      </trkpt>
      <trkpt lat="46.6358" lon="6.05942">
        <ele>887.4</ele>
        <time>2022-10-18T07:19:43Z</time>
      </trkpt>
      <trkpt lat="46.63578" lon="6.05935">
        <ele>886.4</ele>
        <time>2022-10-18T07:19:48Z</time>
      </trkpt>
      <trkpt lat="46.63576" lon="6.05929">
        <ele>885.7</ele>
        <time>2022-10-18T07:19:53Z</time>
      </trkpt>
      <trkpt lat="46.63574" lon="6.05923">
        <ele>885.4</ele>
        <time>2022-10-18T07:20:00Z</time>
      </trkpt>
      <trkpt lat="46.63572" lon="6.05916">
        <ele>885.5</ele>
        <time>2022-10-18T07:20:05Z</time>
      </trkpt>
      <trkpt lat="46.63572" lon="6.05909">
        <ele>884.4</ele>
        <time>2022-10-18T07:20:11Z</time>
      </trkpt>
      <trkpt lat="46.6357" lon="6.05902">
        <ele>883.8</ele>
        <time>2022-10-18T07:20:16Z</time>
      </trkpt>
      <trkpt lat="46.63568" lon="6.05895">
        <ele>883.1</ele>
        <time>2022-10-18T07:20:21Z</time>
      </trkpt>
      <trkpt lat="46.63565" lon="6.05889">
        <ele>882.3</ele>
        <time>2022-10-18T07:20:26Z</time>
      </trkpt>
      <trkpt lat="46.63562" lon="6.05883">
        <ele>881.5</ele>
        <time>2022-10-18T07:20:31Z</time>
      </trkpt>
      <trkpt lat="46.6356" lon="6.05878">
        <ele>880.6</ele>
        <time>2022-10-18T07:20:36Z</time>
      </trkpt>
      <trkpt lat="46.63557" lon="6.05871">
        <ele>879.3</ele>
        <time>2022-10-18T07:20:44Z</time>
      </trkpt>
      <trkpt lat="46.63554" lon="6.05864">
        <ele>879.1</ele>
        <time>2022-10-18T07:20:50Z</time>
      </trkpt>
      <trkpt lat="46.63554" lon="6.05857">
        <ele>878.7</ele>
        <time>2022-10-18T07:20:57Z</time>
      </trkpt>
      <trkpt lat="46.63552" lon="6.0585">
        <ele>878.6</ele>
        <time>2022-10-18T07:21:03Z</time>
      </trkpt>
      <trkpt lat="46.63548" lon="6.05845">
        <ele>878.3</ele>
        <time>2022-10-18T07:21:07Z</time>
      </trkpt>
      <trkpt lat="46.63546" lon="6.05838">
        <ele>878.2</ele>
        <time>2022-10-18T07:21:11Z</time>
      </trkpt>
      <trkpt lat="46.63544" lon="6.05832">
        <ele>877.5</ele>
        <time>2022-10-18T07:21:16Z</time>
      </trkpt>
      <trkpt lat="46.63543" lon="6.05825">
        <ele>875.8</ele>
        <time>2022-10-18T07:21:25Z</time>
      </trkpt>
      <trkpt lat="46.63544" lon="6.05817">
        <ele>878.6</ele>
        <time>2022-10-18T07:21:49Z</time>
      </trkpt>
      <trkpt lat="46.63548" lon="6.05813">
        <ele>880.7</ele>
        <time>2022-10-18T07:21:57Z</time>
      </trkpt>
      <trkpt lat="46.63542" lon="6.0581">
        <ele>881</ele>
        <time>2022-10-18T07:22:02Z</time>
      </trkpt>
      <trkpt lat="46.63539" lon="6.05814">
        <ele>880.9</ele>
        <time>2022-10-18T07:22:06Z</time>
      </trkpt>
      <trkpt lat="46.63534" lon="6.05813">
        <ele>879.7</ele>
        <time>2022-10-18T07:22:19Z</time>
      </trkpt>
      <trkpt lat="46.6353" lon="6.0581">
        <ele>879.2</ele>
        <time>2022-10-18T07:22:26Z</time>
      </trkpt>
      <trkpt lat="46.63526" lon="6.05805">
        <ele>878.7</ele>
        <time>2022-10-18T07:22:34Z</time>
      </trkpt>
      <trkpt lat="46.63524" lon="6.05798">
        <ele>878.4</ele>
        <time>2022-10-18T07:22:41Z</time>
      </trkpt>
      <trkpt lat="46.63524" lon="6.05791">
        <ele>878.5</ele>
        <time>2022-10-18T07:22:50Z</time>
      </trkpt>
      <trkpt lat="46.63526" lon="6.05784">
        <ele>879.3</ele>
        <time>2022-10-18T07:22:56Z</time>
      </trkpt>
      <trkpt lat="46.63525" lon="6.05777">
        <ele>878.8</ele>
        <time>2022-10-18T07:23:02Z</time>
      </trkpt>
      <trkpt lat="46.63521" lon="6.05773">
        <ele>877.1</ele>
        <time>2022-10-18T07:23:08Z</time>
      </trkpt>
      <trkpt lat="46.63518" lon="6.05768">
        <ele>875.2</ele>
        <time>2022-10-18T07:23:15Z</time>
      </trkpt>
      <trkpt lat="46.63514" lon="6.05763">
        <ele>873.5</ele>
        <time>2022-10-18T07:23:22Z</time>
      </trkpt>
      <trkpt lat="46.63512" lon="6.05756">
        <ele>872.7</ele>
        <time>2022-10-18T07:23:30Z</time>
      </trkpt>
      <trkpt lat="46.6351" lon="6.05749">
        <ele>872.6</ele>
        <time>2022-10-18T07:23:36Z</time>
      </trkpt>
      <trkpt lat="46.63508" lon="6.05742">
        <ele>872.2</ele>
        <time>2022-10-18T07:23:41Z</time>
      </trkpt>
      <trkpt lat="46.63506" lon="6.05736">
        <ele>871.5</ele>
        <time>2022-10-18T07:23:48Z</time>
      </trkpt>
      <trkpt lat="46.63503" lon="6.0573">
        <ele>871</ele>
        <time>2022-10-18T07:23:55Z</time>
      </trkpt>
      <trkpt lat="46.63501" lon="6.05724">
        <ele>871</ele>
        <time>2022-10-18T07:23:59Z</time>
      </trkpt>
      <trkpt lat="46.63499" lon="6.05717">
        <ele>870.7</ele>
        <time>2022-10-18T07:24:05Z</time>
      </trkpt>
      <trkpt lat="46.63497" lon="6.05711">
        <ele>870.7</ele>
        <time>2022-10-18T07:24:12Z</time>
      </trkpt>
      <trkpt lat="46.63497" lon="6.05704">
        <ele>871.5</ele>
        <time>2022-10-18T07:24:18Z</time>
      </trkpt>
      <trkpt lat="46.63495" lon="6.05697">
        <ele>872.2</ele>
        <time>2022-10-18T07:24:24Z</time>
      </trkpt>
      <trkpt lat="46.63495" lon="6.0569">
        <ele>871.3</ele>
        <time>2022-10-18T07:24:28Z</time>
      </trkpt>
      <trkpt lat="46.63492" lon="6.05685">
        <ele>866.4</ele>
        <time>2022-10-18T07:24:40Z</time>
      </trkpt>
      <trkpt lat="46.63488" lon="6.05682">
        <ele>864.2</ele>
        <time>2022-10-18T07:24:46Z</time>
      </trkpt>
      <trkpt lat="46.63486" lon="6.05676">
        <ele>863.7</ele>
        <time>2022-10-18T07:24:59Z</time>
      </trkpt>
      <trkpt lat="46.63481" lon="6.05676">
        <ele>863.1</ele>
        <time>2022-10-18T07:25:18Z</time>
      </trkpt>
      <trkpt lat="46.63482" lon="6.05683">
        <ele>860.9</ele>
        <time>2022-10-18T07:25:32Z</time>
      </trkpt>
      <trkpt lat="46.63482" lon="6.05676">
        <ele>869.1</ele>
        <time>2022-10-18T07:28:17Z</time>
      </trkpt>
      <trkpt lat="46.63479" lon="6.05683">
        <ele>868.2</ele>
        <time>2022-10-18T07:28:56Z</time>
      </trkpt>
      <trkpt lat="46.63477" lon="6.0569">
        <ele>869.5</ele>
        <time>2022-10-18T07:29:35Z</time>
      </trkpt>
      <trkpt lat="46.63473" lon="6.05694">
        <ele>869.7</ele>
        <time>2022-10-18T07:29:46Z</time>
      </trkpt>
      <trkpt lat="46.6347" lon="6.057">
        <ele>869.7</ele>
        <time>2022-10-18T07:29:52Z</time>
      </trkpt>
      <trkpt lat="46.63465" lon="6.05702">
        <ele>869.5</ele>
        <time>2022-10-18T07:30:01Z</time>
      </trkpt>
      <trkpt lat="46.63461" lon="6.05705">
        <ele>869.7</ele>
        <time>2022-10-18T07:30:06Z</time>
      </trkpt>
      <trkpt lat="46.63457" lon="6.05708">
        <ele>870</ele>
        <time>2022-10-18T07:30:10Z</time>
      </trkpt>
      <trkpt lat="46.63452" lon="6.05711">
        <ele>870.1</ele>
        <time>2022-10-18T07:30:17Z</time>
      </trkpt>
      <trkpt lat="46.63448" lon="6.05713">
        <ele>870.4</ele>
        <time>2022-10-18T07:30:22Z</time>
      </trkpt>
      <trkpt lat="46.63443" lon="6.05716">
        <ele>870.9</ele>
        <time>2022-10-18T07:30:27Z</time>
      </trkpt>
      <trkpt lat="46.6344" lon="6.05721">
        <ele>871.8</ele>
        <time>2022-10-18T07:30:34Z</time>
      </trkpt>
      <trkpt lat="46.63436" lon="6.05726">
        <ele>872.3</ele>
        <time>2022-10-18T07:30:41Z</time>
      </trkpt>
      <trkpt lat="46.63433" lon="6.0573">
        <ele>872.4</ele>
        <time>2022-10-18T07:30:48Z</time>
      </trkpt>
      <trkpt lat="46.63428" lon="6.05726">
        <ele>872.3</ele>
        <time>2022-10-18T07:30:53Z</time>
      </trkpt>
      <trkpt lat="46.63424" lon="6.05722">
        <ele>872.1</ele>
        <time>2022-10-18T07:30:59Z</time>
      </trkpt>
      <trkpt lat="46.6342" lon="6.05719">
        <ele>871.7</ele>
        <time>2022-10-18T07:31:04Z</time>
      </trkpt>
      <trkpt lat="46.63415" lon="6.0572">
        <ele>871.1</ele>
        <time>2022-10-18T07:31:09Z</time>
      </trkpt>
      <trkpt lat="46.63411" lon="6.05724">
        <ele>870.3</ele>
        <time>2022-10-18T07:31:14Z</time>
      </trkpt>
      <trkpt lat="46.63406" lon="6.05725">
        <ele>869</ele>
        <time>2022-10-18T07:31:20Z</time>
      </trkpt>
      <trkpt lat="46.63402" lon="6.05722">
        <ele>867.9</ele>
        <time>2022-10-18T07:31:26Z</time>
      </trkpt>
      <trkpt lat="46.63398" lon="6.05718">
        <ele>867.2</ele>
        <time>2022-10-18T07:31:31Z</time>
      </trkpt>
      <trkpt lat="46.63394" lon="6.05719">
        <ele>866.6</ele>
        <time>2022-10-18T07:31:38Z</time>
      </trkpt>
      <trkpt lat="46.63389" lon="6.0572">
        <ele>865.9</ele>
        <time>2022-10-18T07:31:47Z</time>
      </trkpt>
      <trkpt lat="46.63384" lon="6.05723">
        <ele>866.2</ele>
        <time>2022-10-18T07:31:53Z</time>
      </trkpt>
      <trkpt lat="46.63381" lon="6.05727">
        <ele>866.9</ele>
        <time>2022-10-18T07:31:57Z</time>
      </trkpt>
      <trkpt lat="46.63377" lon="6.05732">
        <ele>867.5</ele>
        <time>2022-10-18T07:32:00Z</time>
      </trkpt>
      <trkpt lat="46.63373" lon="6.05737">
        <ele>868.4</ele>
        <time>2022-10-18T07:32:04Z</time>
      </trkpt>
      <trkpt lat="46.6337" lon="6.05743">
        <ele>869.4</ele>
        <time>2022-10-18T07:32:09Z</time>
      </trkpt>
      <trkpt lat="46.63366" lon="6.05748">
        <ele>869.5</ele>
        <time>2022-10-18T07:32:15Z</time>
      </trkpt>
      <trkpt lat="46.63362" lon="6.05752">
        <ele>869.2</ele>
        <time>2022-10-18T07:32:19Z</time>
      </trkpt>
      <trkpt lat="46.63357" lon="6.05756">
        <ele>868.7</ele>
        <time>2022-10-18T07:32:23Z</time>
      </trkpt>
      <trkpt lat="46.63352" lon="6.05758">
        <ele>868.5</ele>
        <time>2022-10-18T07:32:28Z</time>
      </trkpt>
      <trkpt lat="46.63349" lon="6.05763">
        <ele>868.3</ele>
        <time>2022-10-18T07:32:35Z</time>
      </trkpt>
      <trkpt lat="46.63346" lon="6.05768">
        <ele>868.4</ele>
        <time>2022-10-18T07:32:44Z</time>
      </trkpt>
      <trkpt lat="46.63341" lon="6.05772">
        <ele>868.5</ele>
        <time>2022-10-18T07:32:50Z</time>
      </trkpt>
      <trkpt lat="46.63339" lon="6.0578">
        <ele>868.8</ele>
        <time>2022-10-18T07:32:56Z</time>
      </trkpt>
      <trkpt lat="46.63338" lon="6.05786">
        <ele>868.8</ele>
        <time>2022-10-18T07:33:00Z</time>
      </trkpt>
      <trkpt lat="46.63338" lon="6.05793">
        <ele>868.9</ele>
        <time>2022-10-18T07:33:05Z</time>
      </trkpt>
      <trkpt lat="46.63338" lon="6.05801">
        <ele>869.4</ele>
        <time>2022-10-18T07:33:10Z</time>
      </trkpt>
      <trkpt lat="46.63338" lon="6.05809">
        <ele>869.9</ele>
        <time>2022-10-18T07:33:15Z</time>
      </trkpt>
      <trkpt lat="46.63339" lon="6.05815">
        <ele>870.4</ele>
        <time>2022-10-18T07:33:20Z</time>
      </trkpt>
      <trkpt lat="46.6334" lon="6.05823">
        <ele>870.6</ele>
        <time>2022-10-18T07:33:25Z</time>
      </trkpt>
      <trkpt lat="46.6334" lon="6.0583">
        <ele>870.6</ele>
        <time>2022-10-18T07:33:30Z</time>
      </trkpt>
      <trkpt lat="46.63341" lon="6.05838">
        <ele>870.6</ele>
        <time>2022-10-18T07:33:38Z</time>
      </trkpt>
      <trkpt lat="46.63342" lon="6.05845">
        <ele>871</ele>
        <time>2022-10-18T07:33:44Z</time>
      </trkpt>
      <trkpt lat="46.63344" lon="6.05851">
        <ele>871.2</ele>
        <time>2022-10-18T07:33:49Z</time>
      </trkpt>
      <trkpt lat="46.63344" lon="6.05858">
        <ele>871.3</ele>
        <time>2022-10-18T07:33:55Z</time>
      </trkpt>
      <trkpt lat="46.63345" lon="6.05864">
        <ele>871.5</ele>
        <time>2022-10-18T07:34:01Z</time>
      </trkpt>
      <trkpt lat="46.63347" lon="6.05871">
        <ele>871.5</ele>
        <time>2022-10-18T07:34:07Z</time>
      </trkpt>
      <trkpt lat="46.63349" lon="6.05877">
        <ele>871.8</ele>
        <time>2022-10-18T07:34:14Z</time>
      </trkpt>
      <trkpt lat="46.63348" lon="6.05884">
        <ele>872.5</ele>
        <time>2022-10-18T07:34:21Z</time>
      </trkpt>
      <trkpt lat="46.63344" lon="6.0589">
        <ele>873</ele>
        <time>2022-10-18T07:34:28Z</time>
      </trkpt>
      <trkpt lat="46.63344" lon="6.05897">
        <ele>872.4</ele>
        <time>2022-10-18T07:34:35Z</time>
      </trkpt>
      <trkpt lat="46.63344" lon="6.05905">
        <ele>872</ele>
        <time>2022-10-18T07:34:40Z</time>
      </trkpt>
      <trkpt lat="46.63342" lon="6.0591">
        <ele>872.6</ele>
        <time>2022-10-18T07:34:50Z</time>
      </trkpt>
      <trkpt lat="46.63339" lon="6.05916">
        <ele>871.9</ele>
        <time>2022-10-18T07:35:08Z</time>
      </trkpt>
      <trkpt lat="46.63337" lon="6.05923">
        <ele>870.7</ele>
        <time>2022-10-18T07:35:13Z</time>
      </trkpt>
      <trkpt lat="46.63338" lon="6.0593">
        <ele>869</ele>
        <time>2022-10-18T07:35:19Z</time>
      </trkpt>
      <trkpt lat="46.63337" lon="6.05937">
        <ele>868</ele>
        <time>2022-10-18T07:35:24Z</time>
      </trkpt>
      <trkpt lat="46.63333" lon="6.05942">
        <ele>867.4</ele>
        <time>2022-10-18T07:35:28Z</time>
      </trkpt>
      <trkpt lat="46.63329" lon="6.05945">
        <ele>866.1</ele>
        <time>2022-10-18T07:35:34Z</time>
      </trkpt>
      <trkpt lat="46.63326" lon="6.05951">
        <ele>864.5</ele>
        <time>2022-10-18T07:35:42Z</time>
      </trkpt>
      <trkpt lat="46.63321" lon="6.05953">
        <ele>864</ele>
        <time>2022-10-18T07:35:48Z</time>
      </trkpt>
      <trkpt lat="46.63316" lon="6.05954">
        <ele>864</ele>
        <time>2022-10-18T07:35:52Z</time>
      </trkpt>
      <trkpt lat="46.63312" lon="6.05956">
        <ele>864.8</ele>
        <time>2022-10-18T07:36:01Z</time>
      </trkpt>
      <trkpt lat="46.63307" lon="6.05957">
        <ele>865.6</ele>
        <time>2022-10-18T07:36:08Z</time>
      </trkpt>
      <trkpt lat="46.63303" lon="6.0595">
        <ele>867.9</ele>
        <time>2022-10-18T07:36:27Z</time>
      </trkpt>
      <trkpt lat="46.63301" lon="6.05944">
        <ele>868.9</ele>
        <time>2022-10-18T07:36:30Z</time>
      </trkpt>
      <trkpt lat="46.63297" lon="6.05939">
        <ele>872.4</ele>
        <time>2022-10-18T07:36:43Z</time>
      </trkpt>
      <trkpt lat="46.63295" lon="6.05933">
        <ele>874.3</ele>
        <time>2022-10-18T07:36:51Z</time>
      </trkpt>
      <trkpt lat="46.63292" lon="6.05928">
        <ele>875.7</ele>
        <time>2022-10-18T07:36:57Z</time>
      </trkpt>
      <trkpt lat="46.63287" lon="6.05924">
        <ele>876.2</ele>
        <time>2022-10-18T07:37:01Z</time>
      </trkpt>
      <trkpt lat="46.63282" lon="6.05921">
        <ele>876.8</ele>
        <time>2022-10-18T07:37:05Z</time>
      </trkpt>
      <trkpt lat="46.63281" lon="6.05915">
        <ele>878.9</ele>
        <time>2022-10-18T07:37:14Z</time>
      </trkpt>
      <trkpt lat="46.63277" lon="6.05911">
        <ele>881</ele>
        <time>2022-10-18T07:37:24Z</time>
      </trkpt>
      <trkpt lat="46.63273" lon="6.05909">
        <ele>881.9</ele>
        <time>2022-10-18T07:37:31Z</time>
      </trkpt>
      <trkpt lat="46.6327" lon="6.05904">
        <ele>883.5</ele>
        <time>2022-10-18T07:37:40Z</time>
      </trkpt>
      <trkpt lat="46.63268" lon="6.05898">
        <ele>884.4</ele>
        <time>2022-10-18T07:38:01Z</time>
      </trkpt>
      <trkpt lat="46.63265" lon="6.05892">
        <ele>884.5</ele>
        <time>2022-10-18T07:38:07Z</time>
      </trkpt>
      <trkpt lat="46.63261" lon="6.05891">
        <ele>885.3</ele>
        <time>2022-10-18T07:38:12Z</time>
      </trkpt>
      <trkpt lat="46.63256" lon="6.0589">
        <ele>884.9</ele>
        <time>2022-10-18T07:38:16Z</time>
      </trkpt>
      <trkpt lat="46.63254" lon="6.05884">
        <ele>883.6</ele>
        <time>2022-10-18T07:38:24Z</time>
      </trkpt>
      <trkpt lat="46.6325" lon="6.05878">
        <ele>883.7</ele>
        <time>2022-10-18T07:38:49Z</time>
      </trkpt>
      <trkpt lat="46.63246" lon="6.05874">
        <ele>884.6</ele>
        <time>2022-10-18T07:38:59Z</time>
      </trkpt>
      <trkpt lat="46.63242" lon="6.05869">
        <ele>884.8</ele>
        <time>2022-10-18T07:39:09Z</time>
      </trkpt>
      <trkpt lat="46.63238" lon="6.05867">
        <ele>885</ele>
        <time>2022-10-18T07:39:19Z</time>
      </trkpt>
      <trkpt lat="46.63232" lon="6.05865">
        <ele>885</ele>
        <time>2022-10-18T07:39:29Z</time>
      </trkpt>
      <trkpt lat="46.63229" lon="6.0586">
        <ele>886</ele>
        <time>2022-10-18T07:39:34Z</time>
      </trkpt>
      <trkpt lat="46.63225" lon="6.05858">
        <ele>887.7</ele>
        <time>2022-10-18T07:39:41Z</time>
      </trkpt>
      <trkpt lat="46.63221" lon="6.05854">
        <ele>889.3</ele>
        <time>2022-10-18T07:39:51Z</time>
      </trkpt>
      <trkpt lat="46.63219" lon="6.05845">
        <ele>893.9</ele>
        <time>2022-10-18T07:40:29Z</time>
      </trkpt>
      <trkpt lat="46.63218" lon="6.05838">
        <ele>897.4</ele>
        <time>2022-10-18T07:40:35Z</time>
      </trkpt>
      <trkpt lat="46.63214" lon="6.05836">
        <ele>901.9</ele>
        <time>2022-10-18T07:40:55Z</time>
      </trkpt>
      <trkpt lat="46.6321" lon="6.05832">
        <ele>903.8</ele>
        <time>2022-10-18T07:40:59Z</time>
      </trkpt>
      <trkpt lat="46.63208" lon="6.05826">
        <ele>906.9</ele>
        <time>2022-10-18T07:41:09Z</time>
      </trkpt>
      <trkpt lat="46.63204" lon="6.0582">
        <ele>909.2</ele>
        <time>2022-10-18T07:41:24Z</time>
      </trkpt>
      <trkpt lat="46.632" lon="6.05816">
        <ele>910.2</ele>
        <time>2022-10-18T07:41:27Z</time>
      </trkpt>
      <trkpt lat="46.63201" lon="6.05823">
        <ele>914.2</ele>
        <time>2022-10-18T07:42:54Z</time>
      </trkpt>
      <trkpt lat="46.632" lon="6.05816">
        <ele>919.1</ele>
        <time>2022-10-18T07:43:35Z</time>
      </trkpt>
      <trkpt lat="46.63196" lon="6.0582">
        <ele>919.5</ele>
        <time>2022-10-18T07:44:15Z</time>
      </trkpt>
      <trkpt lat="46.63194" lon="6.05813">
        <ele>917.9</ele>
        <time>2022-10-18T07:44:28Z</time>
      </trkpt>
      <trkpt lat="46.63198" lon="6.05813">
        <ele>919</ele>
        <time>2022-10-18T07:45:09Z</time>
      </trkpt>
      <trkpt lat="46.63201" lon="6.05808">
        <ele>918.2</ele>
        <time>2022-10-18T07:45:20Z</time>
      </trkpt>
      <trkpt lat="46.63197" lon="6.0581">
        <ele>919.2</ele>
        <time>2022-10-18T07:45:26Z</time>
      </trkpt>
      <trkpt lat="46.63195" lon="6.05817">
        <ele>921.5</ele>
        <time>2022-10-18T07:45:49Z</time>
      </trkpt>
      <trkpt lat="46.63191" lon="6.05813">
        <ele>924.2</ele>
        <time>2022-10-18T07:46:06Z</time>
      </trkpt>
      <trkpt lat="46.63191" lon="6.05806">
        <ele>923.3</ele>
        <time>2022-10-18T07:46:16Z</time>
      </trkpt>
      <trkpt lat="46.63187" lon="6.05802">
        <ele>922.6</ele>
        <time>2022-10-18T07:46:31Z</time>
      </trkpt>
      <trkpt lat="46.63182" lon="6.05799">
        <ele>922.1</ele>
        <time>2022-10-18T07:46:35Z</time>
      </trkpt>
      <trkpt lat="46.63178" lon="6.05799">
        <ele>923</ele>
        <time>2022-10-18T07:46:52Z</time>
      </trkpt>
      <trkpt lat="46.63173" lon="6.05797">
        <ele>924.2</ele>
        <time>2022-10-18T07:47:02Z</time>
      </trkpt>
      <trkpt lat="46.63169" lon="6.05795">
        <ele>926</ele>
        <time>2022-10-18T07:47:12Z</time>
      </trkpt>
      <trkpt lat="46.63164" lon="6.05794">
        <ele>927.9</ele>
        <time>2022-10-18T07:47:20Z</time>
      </trkpt>
      <trkpt lat="46.6316" lon="6.05794">
        <ele>929.8</ele>
        <time>2022-10-18T07:47:27Z</time>
      </trkpt>
      <trkpt lat="46.63155" lon="6.05791">
        <ele>931.2</ele>
        <time>2022-10-18T07:47:32Z</time>
      </trkpt>
      <trkpt lat="46.6315" lon="6.05791">
        <ele>933.6</ele>
        <time>2022-10-18T07:47:48Z</time>
      </trkpt>
      <trkpt lat="46.63146" lon="6.0579">
        <ele>934.9</ele>
        <time>2022-10-18T07:47:56Z</time>
      </trkpt>
      <trkpt lat="46.63141" lon="6.0579">
        <ele>936</ele>
        <time>2022-10-18T07:48:01Z</time>
      </trkpt>
      <trkpt lat="46.63137" lon="6.05793">
        <ele>937.1</ele>
        <time>2022-10-18T07:48:07Z</time>
      </trkpt>
      <trkpt lat="46.63131" lon="6.05793">
        <ele>938</ele>
        <time>2022-10-18T07:48:11Z</time>
      </trkpt>
      <trkpt lat="46.63127" lon="6.05795">
        <ele>940</ele>
        <time>2022-10-18T07:48:17Z</time>
      </trkpt>
      <trkpt lat="46.63124" lon="6.0579">
        <ele>942.3</ele>
        <time>2022-10-18T07:48:25Z</time>
      </trkpt>
      <trkpt lat="46.6312" lon="6.05787">
        <ele>943.4</ele>
        <time>2022-10-18T07:48:33Z</time>
      </trkpt>
      <trkpt lat="46.63115" lon="6.05786">
        <ele>943.6</ele>
        <time>2022-10-18T07:48:41Z</time>
      </trkpt>
      <trkpt lat="46.63111" lon="6.05789">
        <ele>943.6</ele>
        <time>2022-10-18T07:48:51Z</time>
      </trkpt>
      <trkpt lat="46.63107" lon="6.05785">
        <ele>943.9</ele>
        <time>2022-10-18T07:48:58Z</time>
      </trkpt>
      <trkpt lat="46.63102" lon="6.05785">
        <ele>944.9</ele>
        <time>2022-10-18T07:49:05Z</time>
      </trkpt>
      <trkpt lat="46.63097" lon="6.05786">
        <ele>945.7</ele>
        <time>2022-10-18T07:49:11Z</time>
      </trkpt>
      <trkpt lat="46.63092" lon="6.05786">
        <ele>947.5</ele>
        <time>2022-10-18T07:49:20Z</time>
      </trkpt>
      <trkpt lat="46.63089" lon="6.05783">
        <ele>948.8</ele>
        <time>2022-10-18T07:49:25Z</time>
      </trkpt>
      <trkpt lat="46.63084" lon="6.05781">
        <ele>951.4</ele>
        <time>2022-10-18T07:49:33Z</time>
      </trkpt>
      <trkpt lat="46.63081" lon="6.05786">
        <ele>954.8</ele>
        <time>2022-10-18T07:49:45Z</time>
      </trkpt>
      <trkpt lat="46.63075" lon="6.05787">
        <ele>956.7</ele>
        <time>2022-10-18T07:49:54Z</time>
      </trkpt>
      <trkpt lat="46.63071" lon="6.05785">
        <ele>957.7</ele>
        <time>2022-10-18T07:50:00Z</time>
      </trkpt>
      <trkpt lat="46.63067" lon="6.0579">
        <ele>958.5</ele>
        <time>2022-10-18T07:50:05Z</time>
      </trkpt>
      <trkpt lat="46.63063" lon="6.05793">
        <ele>959.5</ele>
        <time>2022-10-18T07:50:11Z</time>
      </trkpt>
      <trkpt lat="46.63058" lon="6.05791">
        <ele>960.5</ele>
        <time>2022-10-18T07:50:18Z</time>
      </trkpt>
      <trkpt lat="46.63053" lon="6.05788">
        <ele>961.8</ele>
        <time>2022-10-18T07:50:24Z</time>
      </trkpt>
      <trkpt lat="46.63048" lon="6.05783">
        <ele>963.5</ele>
        <time>2022-10-18T07:50:29Z</time>
      </trkpt>
      <trkpt lat="46.63043" lon="6.05781">
        <ele>964.5</ele>
        <time>2022-10-18T07:50:32Z</time>
      </trkpt>
      <trkpt lat="46.63039" lon="6.05778">
        <ele>966</ele>
        <time>2022-10-18T07:50:36Z</time>
      </trkpt>
      <trkpt lat="46.63034" lon="6.05778">
        <ele>967.3</ele>
        <time>2022-10-18T07:50:43Z</time>
      </trkpt>
      <trkpt lat="46.63029" lon="6.05777">
        <ele>969.2</ele>
        <time>2022-10-18T07:50:51Z</time>
      </trkpt>
      <trkpt lat="46.63025" lon="6.05779">
        <ele>971.1</ele>
        <time>2022-10-18T07:51:13Z</time>
      </trkpt>
      <trkpt lat="46.6302" lon="6.05781">
        <ele>969.9</ele>
        <time>2022-10-18T07:51:24Z</time>
      </trkpt>
      <trkpt lat="46.63017" lon="6.05786">
        <ele>968.3</ele>
        <time>2022-10-18T07:51:31Z</time>
      </trkpt>
      <trkpt lat="46.63013" lon="6.05789">
        <ele>967.7</ele>
        <time>2022-10-18T07:51:37Z</time>
      </trkpt>
      <trkpt lat="46.63008" lon="6.05792">
        <ele>967.7</ele>
        <time>2022-10-18T07:51:47Z</time>
      </trkpt>
      <trkpt lat="46.63003" lon="6.05794">
        <ele>968.3</ele>
        <time>2022-10-18T07:51:51Z</time>
      </trkpt>
      <trkpt lat="46.62998" lon="6.05795">
        <ele>969</ele>
        <time>2022-10-18T07:51:56Z</time>
      </trkpt>
      <trkpt lat="46.62995" lon="6.058">
        <ele>970.6</ele>
        <time>2022-10-18T07:52:12Z</time>
      </trkpt>
      <trkpt lat="46.62992" lon="6.05805">
        <ele>972.5</ele>
        <time>2022-10-18T07:52:21Z</time>
      </trkpt>
      <trkpt lat="46.62988" lon="6.05809">
        <ele>973.4</ele>
        <time>2022-10-18T07:52:32Z</time>
      </trkpt>
      <trkpt lat="46.62984" lon="6.05814">
        <ele>973.9</ele>
        <time>2022-10-18T07:52:36Z</time>
      </trkpt>
      <trkpt lat="46.62979" lon="6.05814">
        <ele>974.8</ele>
        <time>2022-10-18T07:52:43Z</time>
      </trkpt>
      <trkpt lat="46.62976" lon="6.05819">
        <ele>976.3</ele>
        <time>2022-10-18T07:52:52Z</time>
      </trkpt>
      <trkpt lat="46.62971" lon="6.05821">
        <ele>977.9</ele>
        <time>2022-10-18T07:52:58Z</time>
      </trkpt>
      <trkpt lat="46.62966" lon="6.05822">
        <ele>981.1</ele>
        <time>2022-10-18T07:53:08Z</time>
      </trkpt>
      <trkpt lat="46.62965" lon="6.05829">
        <ele>983.6</ele>
        <time>2022-10-18T07:53:22Z</time>
      </trkpt>
      <trkpt lat="46.62962" lon="6.05835">
        <ele>984.3</ele>
        <time>2022-10-18T07:53:27Z</time>
      </trkpt>
      <trkpt lat="46.62959" lon="6.0584">
        <ele>984.3</ele>
        <time>2022-10-18T07:53:35Z</time>
      </trkpt>
      <trkpt lat="46.62955" lon="6.05845">
        <ele>982</ele>
        <time>2022-10-18T07:53:49Z</time>
      </trkpt>
      <trkpt lat="46.6295" lon="6.05845">
        <ele>980.6</ele>
        <time>2022-10-18T07:53:55Z</time>
      </trkpt>
      <trkpt lat="46.62949" lon="6.05853">
        <ele>981.1</ele>
        <time>2022-10-18T07:54:02Z</time>
      </trkpt>
      <trkpt lat="46.62947" lon="6.05859">
        <ele>982.4</ele>
        <time>2022-10-18T07:54:09Z</time>
      </trkpt>
      <trkpt lat="46.62951" lon="6.05863">
        <ele>982.5</ele>
        <time>2022-10-18T07:54:53Z</time>
      </trkpt>
      <trkpt lat="46.62947" lon="6.05869">
        <ele>984.2</ele>
        <time>2022-10-18T07:55:26Z</time>
      </trkpt>
      <trkpt lat="46.62943" lon="6.05869">
        <ele>985.6</ele>
        <time>2022-10-18T07:55:38Z</time>
      </trkpt>
      <trkpt lat="46.62946" lon="6.05875">
        <ele>989.1</ele>
        <time>2022-10-18T07:56:05Z</time>
      </trkpt>
      <trkpt lat="46.62948" lon="6.05881">
        <ele>991.7</ele>
        <time>2022-10-18T07:56:16Z</time>
      </trkpt>
      <trkpt lat="46.62949" lon="6.05887">
        <ele>992.1</ele>
        <time>2022-10-18T07:56:24Z</time>
      </trkpt>
      <trkpt lat="46.62949" lon="6.05895">
        <ele>992.4</ele>
        <time>2022-10-18T07:56:42Z</time>
      </trkpt>
      <trkpt lat="46.6295" lon="6.05902">
        <ele>992.8</ele>
        <time>2022-10-18T07:56:46Z</time>
      </trkpt>
      <trkpt lat="46.62949" lon="6.0591">
        <ele>995</ele>
        <time>2022-10-18T07:57:07Z</time>
      </trkpt>
      <trkpt lat="46.62949" lon="6.05917">
        <ele>996.8</ele>
        <time>2022-10-18T07:57:11Z</time>
      </trkpt>
      <trkpt lat="46.6295" lon="6.05923">
        <ele>999.1</ele>
        <time>2022-10-18T07:57:27Z</time>
      </trkpt>
      <trkpt lat="46.62955" lon="6.05927">
        <ele>999.4</ele>
        <time>2022-10-18T07:57:37Z</time>
      </trkpt>
      <trkpt lat="46.62958" lon="6.05932">
        <ele>999.1</ele>
        <time>2022-10-18T07:57:46Z</time>
      </trkpt>
      <trkpt lat="46.62959" lon="6.05939">
        <ele>999.1</ele>
        <time>2022-10-18T07:58:05Z</time>
      </trkpt>
      <trkpt lat="46.62962" lon="6.05946">
        <ele>999.2</ele>
        <time>2022-10-18T07:58:16Z</time>
      </trkpt>
      <trkpt lat="46.62964" lon="6.05952">
        <ele>999</ele>
        <time>2022-10-18T07:58:24Z</time>
      </trkpt>
      <trkpt lat="46.62962" lon="6.05959">
        <ele>998.6</ele>
        <time>2022-10-18T07:58:33Z</time>
      </trkpt>
      <trkpt lat="46.62958" lon="6.05963">
        <ele>998.8</ele>
        <time>2022-10-18T07:58:47Z</time>
      </trkpt>
      <trkpt lat="46.62955" lon="6.05969">
        <ele>999.4</ele>
        <time>2022-10-18T07:58:52Z</time>
      </trkpt>
      <trkpt lat="46.62951" lon="6.05974">
        <ele>999.7</ele>
        <time>2022-10-18T07:58:58Z</time>
      </trkpt>
      <trkpt lat="46.6295" lon="6.05982">
        <ele>999.7</ele>
        <time>2022-10-18T07:59:04Z</time>
      </trkpt>
      <trkpt lat="46.62947" lon="6.05987">
        <ele>1001</ele>
        <time>2022-10-18T07:59:15Z</time>
      </trkpt>
      <trkpt lat="46.62943" lon="6.05992">
        <ele>1000.5</ele>
        <time>2022-10-18T07:59:24Z</time>
      </trkpt>
      <trkpt lat="46.62942" lon="6.05998">
        <ele>999.9</ele>
        <time>2022-10-18T07:59:28Z</time>
      </trkpt>
      <trkpt lat="46.62939" lon="6.06003">
        <ele>999.6</ele>
        <time>2022-10-18T07:59:33Z</time>
      </trkpt>
      <trkpt lat="46.62936" lon="6.06009">
        <ele>1000.2</ele>
        <time>2022-10-18T07:59:41Z</time>
      </trkpt>
      <trkpt lat="46.62935" lon="6.06016">
        <ele>1000.7</ele>
        <time>2022-10-18T07:59:48Z</time>
      </trkpt>
      <trkpt lat="46.62936" lon="6.06023">
        <ele>1001.1</ele>
        <time>2022-10-18T07:59:57Z</time>
      </trkpt>
      <trkpt lat="46.62936" lon="6.0603">
        <ele>1000.9</ele>
        <time>2022-10-18T08:00:03Z</time>
      </trkpt>
      <trkpt lat="46.62932" lon="6.06034">
        <ele>1000.3</ele>
        <time>2022-10-18T08:00:09Z</time>
      </trkpt>
      <trkpt lat="46.62928" lon="6.06038">
        <ele>999.9</ele>
        <time>2022-10-18T08:00:14Z</time>
      </trkpt>
      <trkpt lat="46.62927" lon="6.06045">
        <ele>999.6</ele>
        <time>2022-10-18T08:00:21Z</time>
      </trkpt>
      <trkpt lat="46.62926" lon="6.06051">
        <ele>999.3</ele>
        <time>2022-10-18T08:00:30Z</time>
      </trkpt>
      <trkpt lat="46.62929" lon="6.06058">
        <ele>999.6</ele>
        <time>2022-10-18T08:00:41Z</time>
      </trkpt>
      <trkpt lat="46.62931" lon="6.06065">
        <ele>1000.1</ele>
        <time>2022-10-18T08:00:46Z</time>
      </trkpt>
      <trkpt lat="46.62933" lon="6.06072">
        <ele>1000.6</ele>
        <time>2022-10-18T08:00:52Z</time>
      </trkpt>
      <trkpt lat="46.62934" lon="6.06078">
        <ele>1001.4</ele>
        <time>2022-10-18T08:00:57Z</time>
      </trkpt>
      <trkpt lat="46.62936" lon="6.06084">
        <ele>1002.3</ele>
        <time>2022-10-18T08:01:03Z</time>
      </trkpt>
      <trkpt lat="46.62938" lon="6.06091">
        <ele>1002.9</ele>
        <time>2022-10-18T08:01:09Z</time>
      </trkpt>
      <trkpt lat="46.62937" lon="6.06098">
        <ele>1003.4</ele>
        <time>2022-10-18T08:01:14Z</time>
      </trkpt>
      <trkpt lat="46.62935" lon="6.06104">
        <ele>1003.7</ele>
        <time>2022-10-18T08:01:18Z</time>
      </trkpt>
      <trkpt lat="46.62932" lon="6.06109">
        <ele>1003.7</ele>
        <time>2022-10-18T08:01:22Z</time>
      </trkpt>
      <trkpt lat="46.62929" lon="6.06115">
        <ele>1003.8</ele>
        <time>2022-10-18T08:01:26Z</time>
      </trkpt>
      <trkpt lat="46.62924" lon="6.06119">
        <ele>1003.6</ele>
        <time>2022-10-18T08:01:31Z</time>
      </trkpt>
      <trkpt lat="46.62921" lon="6.06124">
        <ele>1003.3</ele>
        <time>2022-10-18T08:01:37Z</time>
      </trkpt>
      <trkpt lat="46.62919" lon="6.06131">
        <ele>1003</ele>
        <time>2022-10-18T08:01:43Z</time>
      </trkpt>
      <trkpt lat="46.62917" lon="6.06137">
        <ele>1002.6</ele>
        <time>2022-10-18T08:01:48Z</time>
      </trkpt>
      <trkpt lat="46.62915" lon="6.06143">
        <ele>1002.5</ele>
        <time>2022-10-18T08:01:53Z</time>
      </trkpt>
      <trkpt lat="46.62915" lon="6.0615">
        <ele>1002.3</ele>
        <time>2022-10-18T08:01:57Z</time>
      </trkpt>
      <trkpt lat="46.62916" lon="6.06157">
        <ele>1001.7</ele>
        <time>2022-10-18T08:02:01Z</time>
      </trkpt>
      <trkpt lat="46.62917" lon="6.06164">
        <ele>1000.8</ele>
        <time>2022-10-18T08:02:06Z</time>
      </trkpt>
      <trkpt lat="46.62916" lon="6.06171">
        <ele>1000.1</ele>
        <time>2022-10-18T08:02:10Z</time>
      </trkpt>
      <trkpt lat="46.62916" lon="6.06178">
        <ele>999.9</ele>
        <time>2022-10-18T08:02:14Z</time>
      </trkpt>
      <trkpt lat="46.62916" lon="6.06185">
        <ele>1000.3</ele>
        <time>2022-10-18T08:02:21Z</time>
      </trkpt>
      <trkpt lat="46.62916" lon="6.06192">
        <ele>1000.9</ele>
        <time>2022-10-18T08:02:26Z</time>
      </trkpt>
      <trkpt lat="46.62916" lon="6.06199">
        <ele>1001.2</ele>
        <time>2022-10-18T08:02:30Z</time>
      </trkpt>
      <trkpt lat="46.62917" lon="6.06206">
        <ele>1001.4</ele>
        <time>2022-10-18T08:02:37Z</time>
      </trkpt>
      <trkpt lat="46.62919" lon="6.06213">
        <ele>1001.2</ele>
        <time>2022-10-18T08:02:42Z</time>
      </trkpt>
      <trkpt lat="46.62921" lon="6.0622">
        <ele>1001.2</ele>
        <time>2022-10-18T08:02:47Z</time>
      </trkpt>
      <trkpt lat="46.62923" lon="6.06226">
        <ele>1001.4</ele>
        <time>2022-10-18T08:02:52Z</time>
      </trkpt>
      <trkpt lat="46.62927" lon="6.06231">
        <ele>1001.7</ele>
        <time>2022-10-18T08:02:56Z</time>
      </trkpt>
      <trkpt lat="46.6293" lon="6.06237">
        <ele>1002</ele>
        <time>2022-10-18T08:03:01Z</time>
      </trkpt>
      <trkpt lat="46.62932" lon="6.06243">
        <ele>1001.9</ele>
        <time>2022-10-18T08:03:06Z</time>
      </trkpt>
      <trkpt lat="46.62937" lon="6.06247">
        <ele>1001.9</ele>
        <time>2022-10-18T08:03:10Z</time>
      </trkpt>
      <trkpt lat="46.6294" lon="6.06251">
        <ele>1001.9</ele>
        <time>2022-10-18T08:03:15Z</time>
      </trkpt>
      <trkpt lat="46.62945" lon="6.06254">
        <ele>1002.5</ele>
        <time>2022-10-18T08:03:20Z</time>
      </trkpt>
      <trkpt lat="46.62949" lon="6.06258">
        <ele>1003.2</ele>
        <time>2022-10-18T08:03:24Z</time>
      </trkpt>
      <trkpt lat="46.62952" lon="6.06263">
        <ele>1004.7</ele>
        <time>2022-10-18T08:03:31Z</time>
      </trkpt>
      <trkpt lat="46.62956" lon="6.06264">
        <ele>1006.7</ele>
        <time>2022-10-18T08:03:39Z</time>
      </trkpt>
      <trkpt lat="46.62956" lon="6.06271">
        <ele>1007.2</ele>
        <time>2022-10-18T08:03:45Z</time>
      </trkpt>
      <trkpt lat="46.62955" lon="6.06278">
        <ele>1006.8</ele>
        <time>2022-10-18T08:03:50Z</time>
      </trkpt>
      <trkpt lat="46.62953" lon="6.06285">
        <ele>1006.3</ele>
        <time>2022-10-18T08:03:56Z</time>
      </trkpt>
      <trkpt lat="46.62951" lon="6.06291">
        <ele>1006.2</ele>
        <time>2022-10-18T08:04:04Z</time>
      </trkpt>
      <trkpt lat="46.62948" lon="6.06297">
        <ele>1006.8</ele>
        <time>2022-10-18T08:04:10Z</time>
      </trkpt>
      <trkpt lat="46.62949" lon="6.06303">
        <ele>1007.3</ele>
        <time>2022-10-18T08:04:14Z</time>
      </trkpt>
      <trkpt lat="46.62949" lon="6.0631">
        <ele>1007.7</ele>
        <time>2022-10-18T08:04:18Z</time>
      </trkpt>
      <trkpt lat="46.62948" lon="6.06317">
        <ele>1008.1</ele>
        <time>2022-10-18T08:04:26Z</time>
      </trkpt>
      <trkpt lat="46.62945" lon="6.06322">
        <ele>1009</ele>
        <time>2022-10-18T08:04:33Z</time>
      </trkpt>
      <trkpt lat="46.62945" lon="6.0633">
        <ele>1009.5</ele>
        <time>2022-10-18T08:04:39Z</time>
      </trkpt>
      <trkpt lat="46.62946" lon="6.06338">
        <ele>1009.7</ele>
        <time>2022-10-18T08:04:45Z</time>
      </trkpt>
      <trkpt lat="46.62946" lon="6.06346">
        <ele>1010.2</ele>
        <time>2022-10-18T08:04:50Z</time>
      </trkpt>
      <trkpt lat="46.62946" lon="6.06352">
        <ele>1010.9</ele>
        <time>2022-10-18T08:04:57Z</time>
      </trkpt>
      <trkpt lat="46.62948" lon="6.0636">
        <ele>1011.7</ele>
        <time>2022-10-18T08:05:04Z</time>
      </trkpt>
      <trkpt lat="46.6295" lon="6.06366">
        <ele>1012.2</ele>
        <time>2022-10-18T08:05:09Z</time>
      </trkpt>
      <trkpt lat="46.62952" lon="6.06372">
        <ele>1012.5</ele>
        <time>2022-10-18T08:05:13Z</time>
      </trkpt>
      <trkpt lat="46.62957" lon="6.06371">
        <ele>1013.1</ele>
        <time>2022-10-18T08:05:20Z</time>
      </trkpt>
      <trkpt lat="46.62961" lon="6.06366">
        <ele>1013.1</ele>
        <time>2022-10-18T08:05:24Z</time>
      </trkpt>
      <trkpt lat="46.62965" lon="6.06365">
        <ele>1012.8</ele>
        <time>2022-10-18T08:05:31Z</time>
      </trkpt>
      <trkpt lat="46.6297" lon="6.06365">
        <ele>1012.4</ele>
        <time>2022-10-18T08:05:36Z</time>
      </trkpt>
      <trkpt lat="46.62974" lon="6.06367">
        <ele>1012</ele>
        <time>2022-10-18T08:05:41Z</time>
      </trkpt>
      <trkpt lat="46.62979" lon="6.06369">
        <ele>1011.1</ele>
        <time>2022-10-18T08:05:47Z</time>
      </trkpt>
      <trkpt lat="46.62983" lon="6.06364">
        <ele>1010.6</ele>
        <time>2022-10-18T08:05:53Z</time>
      </trkpt>
      <trkpt lat="46.62987" lon="6.06361">
        <ele>1010.8</ele>
        <time>2022-10-18T08:05:57Z</time>
      </trkpt>
      <trkpt lat="46.62992" lon="6.0636">
        <ele>1011.3</ele>
        <time>2022-10-18T08:06:02Z</time>
      </trkpt>
      <trkpt lat="46.62997" lon="6.06364">
        <ele>1012.5</ele>
        <time>2022-10-18T08:06:16Z</time>
      </trkpt>
      <trkpt lat="46.63001" lon="6.06368">
        <ele>1012.9</ele>
        <time>2022-10-18T08:06:22Z</time>
      </trkpt>
      <trkpt lat="46.63007" lon="6.06368">
        <ele>1013.5</ele>
        <time>2022-10-18T08:06:30Z</time>
      </trkpt>
      <trkpt lat="46.63014" lon="6.06368">
        <ele>1014.1</ele>
        <time>2022-10-18T08:06:44Z</time>
      </trkpt>
      <trkpt lat="46.63019" lon="6.06369">
        <ele>1014.6</ele>
        <time>2022-10-18T08:06:47Z</time>
      </trkpt>
      <trkpt lat="46.63024" lon="6.0637">
        <ele>1015.1</ele>
        <time>2022-10-18T08:06:51Z</time>
      </trkpt>
      <trkpt lat="46.6303" lon="6.06371">
        <ele>1016.2</ele>
        <time>2022-10-18T08:07:00Z</time>
      </trkpt>
      <trkpt lat="46.63034" lon="6.06372">
        <ele>1016.2</ele>
        <time>2022-10-18T08:07:05Z</time>
      </trkpt>
      <trkpt lat="46.63039" lon="6.0637">
        <ele>1016</ele>
        <time>2022-10-18T08:07:10Z</time>
      </trkpt>
      <trkpt lat="46.63044" lon="6.06371">
        <ele>1015.9</ele>
        <time>2022-10-18T08:07:15Z</time>
      </trkpt>
      <trkpt lat="46.63049" lon="6.06372">
        <ele>1015.9</ele>
        <time>2022-10-18T08:07:19Z</time>
      </trkpt>
      <trkpt lat="46.63054" lon="6.06375">
        <ele>1015.6</ele>
        <time>2022-10-18T08:07:24Z</time>
      </trkpt>
      <trkpt lat="46.63056" lon="6.06381">
        <ele>1015.4</ele>
        <time>2022-10-18T08:07:30Z</time>
      </trkpt>
      <trkpt lat="46.6306" lon="6.06387">
        <ele>1014.9</ele>
        <time>2022-10-18T08:07:36Z</time>
      </trkpt>
      <trkpt lat="46.63062" lon="6.06393">
        <ele>1014.3</ele>
        <time>2022-10-18T08:07:40Z</time>
      </trkpt>
      <trkpt lat="46.63065" lon="6.06399">
        <ele>1013.5</ele>
        <time>2022-10-18T08:07:45Z</time>
      </trkpt>
      <trkpt lat="46.63067" lon="6.06406">
        <ele>1012.9</ele>
        <time>2022-10-18T08:07:50Z</time>
      </trkpt>
      <trkpt lat="46.63067" lon="6.06414">
        <ele>1012.5</ele>
        <time>2022-10-18T08:07:56Z</time>
      </trkpt>
      <trkpt lat="46.63068" lon="6.06421">
        <ele>1011.9</ele>
        <time>2022-10-18T08:08:03Z</time>
      </trkpt>
      <trkpt lat="46.6307" lon="6.06428">
        <ele>1011.3</ele>
        <time>2022-10-18T08:08:10Z</time>
      </trkpt>
      <trkpt lat="46.63071" lon="6.06435">
        <ele>1011</ele>
        <time>2022-10-18T08:08:17Z</time>
      </trkpt>
      <trkpt lat="46.63071" lon="6.06442">
        <ele>1011</ele>
        <time>2022-10-18T08:08:22Z</time>
      </trkpt>
      <trkpt lat="46.63072" lon="6.06448">
        <ele>1011.1</ele>
        <time>2022-10-18T08:08:27Z</time>
      </trkpt>
      <trkpt lat="46.63072" lon="6.06455">
        <ele>1011.6</ele>
        <time>2022-10-18T08:08:32Z</time>
      </trkpt>
      <trkpt lat="46.6307" lon="6.06461">
        <ele>1012</ele>
        <time>2022-10-18T08:08:37Z</time>
      </trkpt>
      <trkpt lat="46.6307" lon="6.06468">
        <ele>1012.5</ele>
        <time>2022-10-18T08:08:45Z</time>
      </trkpt>
      <trkpt lat="46.63072" lon="6.06474">
        <ele>1012.7</ele>
        <time>2022-10-18T08:08:51Z</time>
      </trkpt>
      <trkpt lat="46.63073" lon="6.06481">
        <ele>1012.7</ele>
        <time>2022-10-18T08:08:57Z</time>
      </trkpt>
      <trkpt lat="46.63073" lon="6.06489">
        <ele>1013</ele>
        <time>2022-10-18T08:09:02Z</time>
      </trkpt>
      <trkpt lat="46.63074" lon="6.06496">
        <ele>1013.6</ele>
        <time>2022-10-18T08:09:08Z</time>
      </trkpt>
      <trkpt lat="46.63074" lon="6.06503">
        <ele>1014.5</ele>
        <time>2022-10-18T08:09:13Z</time>
      </trkpt>
      <trkpt lat="46.63077" lon="6.06508">
        <ele>1015.5</ele>
        <time>2022-10-18T08:09:19Z</time>
      </trkpt>
      <trkpt lat="46.6308" lon="6.06514">
        <ele>1016.4</ele>
        <time>2022-10-18T08:09:24Z</time>
      </trkpt>
      <trkpt lat="46.63083" lon="6.0652">
        <ele>1017.2</ele>
        <time>2022-10-18T08:09:29Z</time>
      </trkpt>
      <trkpt lat="46.63085" lon="6.06526">
        <ele>1018.1</ele>
        <time>2022-10-18T08:09:35Z</time>
      </trkpt>
      <trkpt lat="46.63087" lon="6.06532">
        <ele>1018.6</ele>
        <time>2022-10-18T08:09:41Z</time>
      </trkpt>
      <trkpt lat="46.63089" lon="6.06538">
        <ele>1019</ele>
        <time>2022-10-18T08:09:48Z</time>
      </trkpt>
      <trkpt lat="46.63091" lon="6.06544">
        <ele>1019.4</ele>
        <time>2022-10-18T08:09:54Z</time>
      </trkpt>
      <trkpt lat="46.63094" lon="6.0655">
        <ele>1020.2</ele>
        <time>2022-10-18T08:10:02Z</time>
      </trkpt>
      <trkpt lat="46.63094" lon="6.06557">
        <ele>1020.3</ele>
        <time>2022-10-18T08:10:07Z</time>
      </trkpt>
      <trkpt lat="46.63095" lon="6.06563">
        <ele>1020.2</ele>
        <time>2022-10-18T08:10:12Z</time>
      </trkpt>
      <trkpt lat="46.63096" lon="6.0657">
        <ele>1019.9</ele>
        <time>2022-10-18T08:10:18Z</time>
      </trkpt>
      <trkpt lat="46.63095" lon="6.06577">
        <ele>1019.7</ele>
        <time>2022-10-18T08:10:23Z</time>
      </trkpt>
      <trkpt lat="46.63094" lon="6.06584">
        <ele>1019.7</ele>
        <time>2022-10-18T08:10:29Z</time>
      </trkpt>
      <trkpt lat="46.63095" lon="6.06591">
        <ele>1019.9</ele>
        <time>2022-10-18T08:10:36Z</time>
      </trkpt>
      <trkpt lat="46.63095" lon="6.06598">
        <ele>1020.5</ele>
        <time>2022-10-18T08:10:43Z</time>
      </trkpt>
      <trkpt lat="46.63095" lon="6.06606">
        <ele>1021</ele>
        <time>2022-10-18T08:10:49Z</time>
      </trkpt>
      <trkpt lat="46.63096" lon="6.06613">
        <ele>1021.7</ele>
        <time>2022-10-18T08:10:56Z</time>
      </trkpt>
      <trkpt lat="46.63099" lon="6.06618">
        <ele>1022.3</ele>
        <time>2022-10-18T08:11:01Z</time>
      </trkpt>
      <trkpt lat="46.63101" lon="6.06624">
        <ele>1023</ele>
        <time>2022-10-18T08:11:08Z</time>
      </trkpt>
      <trkpt lat="46.63105" lon="6.06628">
        <ele>1023.8</ele>
        <time>2022-10-18T08:11:15Z</time>
      </trkpt>
      <trkpt lat="46.63111" lon="6.06628">
        <ele>1024.6</ele>
        <time>2022-10-18T08:11:21Z</time>
      </trkpt>
      <trkpt lat="46.63116" lon="6.06627">
        <ele>1025.5</ele>
        <time>2022-10-18T08:11:27Z</time>
      </trkpt>
      <trkpt lat="46.63121" lon="6.06627">
        <ele>1026.1</ele>
        <time>2022-10-18T08:11:32Z</time>
      </trkpt>
      <trkpt lat="46.63126" lon="6.0663">
        <ele>1030.6</ele>
        <time>2022-10-18T08:13:13Z</time>
      </trkpt>
      <trkpt lat="46.63131" lon="6.06628">
        <ele>1032.3</ele>
        <time>2022-10-18T08:13:16Z</time>
      </trkpt>
      <trkpt lat="46.63136" lon="6.06626">
        <ele>1034.3</ele>
        <time>2022-10-18T08:13:21Z</time>
      </trkpt>
      <trkpt lat="46.63141" lon="6.06629">
        <ele>1035.6</ele>
        <time>2022-10-18T08:13:27Z</time>
      </trkpt>
      <trkpt lat="46.63145" lon="6.06633">
        <ele>1036.4</ele>
        <time>2022-10-18T08:13:34Z</time>
      </trkpt>
      <trkpt lat="46.63148" lon="6.0664">
        <ele>1036.8</ele>
        <time>2022-10-18T08:13:41Z</time>
      </trkpt>
      <trkpt lat="46.6315" lon="6.06646">
        <ele>1037.1</ele>
        <time>2022-10-18T08:13:48Z</time>
      </trkpt>
      <trkpt lat="46.6315" lon="6.06653">
        <ele>1036.9</ele>
        <time>2022-10-18T08:13:55Z</time>
      </trkpt>
      <trkpt lat="46.63149" lon="6.0666">
        <ele>1036.9</ele>
        <time>2022-10-18T08:14:00Z</time>
      </trkpt>
      <trkpt lat="46.63148" lon="6.06668">
        <ele>1036.9</ele>
        <time>2022-10-18T08:14:06Z</time>
      </trkpt>
      <trkpt lat="46.63148" lon="6.06675">
        <ele>1036.9</ele>
        <time>2022-10-18T08:14:12Z</time>
      </trkpt>
      <trkpt lat="46.63149" lon="6.06682">
        <ele>1036.8</ele>
        <time>2022-10-18T08:14:19Z</time>
      </trkpt>
      <trkpt lat="46.63149" lon="6.06689">
        <ele>1036.8</ele>
        <time>2022-10-18T08:14:26Z</time>
      </trkpt>
      <trkpt lat="46.6315" lon="6.06696">
        <ele>1036.6</ele>
        <time>2022-10-18T08:14:36Z</time>
      </trkpt>
      <trkpt lat="46.63153" lon="6.06702">
        <ele>1036.5</ele>
        <time>2022-10-18T08:14:42Z</time>
      </trkpt>
      <trkpt lat="46.63155" lon="6.06708">
        <ele>1036.7</ele>
        <time>2022-10-18T08:14:48Z</time>
      </trkpt>
      <trkpt lat="46.63159" lon="6.06713">
        <ele>1037.6</ele>
        <time>2022-10-18T08:14:55Z</time>
      </trkpt>
      <trkpt lat="46.63164" lon="6.06714">
        <ele>1038.4</ele>
        <time>2022-10-18T08:15:02Z</time>
      </trkpt>
      <trkpt lat="46.63169" lon="6.06716">
        <ele>1039.1</ele>
        <time>2022-10-18T08:15:08Z</time>
      </trkpt>
      <trkpt lat="46.63174" lon="6.06716">
        <ele>1040.1</ele>
        <time>2022-10-18T08:15:16Z</time>
      </trkpt>
      <trkpt lat="46.63179" lon="6.06715">
        <ele>1041.3</ele>
        <time>2022-10-18T08:15:22Z</time>
      </trkpt>
      <trkpt lat="46.63183" lon="6.06719">
        <ele>1042.1</ele>
        <time>2022-10-18T08:15:30Z</time>
      </trkpt>
      <trkpt lat="46.63187" lon="6.06724">
        <ele>1042.1</ele>
        <time>2022-10-18T08:15:36Z</time>
      </trkpt>
      <trkpt lat="46.6319" lon="6.0673">
        <ele>1042</ele>
        <time>2022-10-18T08:15:41Z</time>
      </trkpt>
      <trkpt lat="46.63191" lon="6.06737">
        <ele>1041.6</ele>
        <time>2022-10-18T08:15:46Z</time>
      </trkpt>
      <trkpt lat="46.63193" lon="6.06743">
        <ele>1041</ele>
        <time>2022-10-18T08:15:53Z</time>
      </trkpt>
      <trkpt lat="46.63196" lon="6.0675">
        <ele>1040.7</ele>
        <time>2022-10-18T08:15:59Z</time>
      </trkpt>
      <trkpt lat="46.63199" lon="6.06756">
        <ele>1040.7</ele>
        <time>2022-10-18T08:16:04Z</time>
      </trkpt>
      <trkpt lat="46.63202" lon="6.06761">
        <ele>1041</ele>
        <time>2022-10-18T08:16:09Z</time>
      </trkpt>
      <trkpt lat="46.63204" lon="6.06767">
        <ele>1041.6</ele>
        <time>2022-10-18T08:16:17Z</time>
      </trkpt>
      <trkpt lat="46.632" lon="6.06769">
        <ele>1046.1</ele>
        <time>2022-10-18T08:16:31Z</time>
      </trkpt>
      <trkpt lat="46.63205" lon="6.06772">
        <ele>1047.5</ele>
        <time>2022-10-18T08:16:58Z</time>
      </trkpt>
      <trkpt lat="46.63204" lon="6.06765">
        <ele>1048.5</ele>
        <time>2022-10-18T08:17:37Z</time>
      </trkpt>
      <trkpt lat="46.63204" lon="6.06773">
        <ele>1047.9</ele>
        <time>2022-10-18T08:18:04Z</time>
      </trkpt>
      <trkpt lat="46.63208" lon="6.06778">
        <ele>1046.4</ele>
        <time>2022-10-18T08:18:12Z</time>
      </trkpt>
      <trkpt lat="46.63212" lon="6.06782">
        <ele>1046.3</ele>
        <time>2022-10-18T08:18:16Z</time>
      </trkpt>
      <trkpt lat="46.63216" lon="6.06787">
        <ele>1046.3</ele>
        <time>2022-10-18T08:18:21Z</time>
      </trkpt>
      <trkpt lat="46.63221" lon="6.0679">
        <ele>1046.2</ele>
        <time>2022-10-18T08:18:29Z</time>
      </trkpt>
      <trkpt lat="46.63225" lon="6.06791">
        <ele>1045.7</ele>
        <time>2022-10-18T08:18:34Z</time>
      </trkpt>
      <trkpt lat="46.6323" lon="6.06793">
        <ele>1045.7</ele>
        <time>2022-10-18T08:18:40Z</time>
      </trkpt>
      <trkpt lat="46.63235" lon="6.06795">
        <ele>1045.6</ele>
        <time>2022-10-18T08:18:46Z</time>
      </trkpt>
      <trkpt lat="46.6324" lon="6.06797">
        <ele>1045.6</ele>
        <time>2022-10-18T08:18:52Z</time>
      </trkpt>
      <trkpt lat="46.63244" lon="6.06798">
        <ele>1045.5</ele>
        <time>2022-10-18T08:18:59Z</time>
      </trkpt>
      <trkpt lat="46.63249" lon="6.068">
        <ele>1045.1</ele>
        <time>2022-10-18T08:19:05Z</time>
      </trkpt>
      <trkpt lat="46.63254" lon="6.068">
        <ele>1045.1</ele>
        <time>2022-10-18T08:19:09Z</time>
      </trkpt>
      <trkpt lat="46.63259" lon="6.068">
        <ele>1044.7</ele>
        <time>2022-10-18T08:19:15Z</time>
      </trkpt>
      <trkpt lat="46.63264" lon="6.06801">
        <ele>1044.1</ele>
        <time>2022-10-18T08:19:22Z</time>
      </trkpt>
      <trkpt lat="46.63269" lon="6.06799">
        <ele>1043.8</ele>
        <time>2022-10-18T08:19:28Z</time>
      </trkpt>
      <trkpt lat="46.63274" lon="6.068">
        <ele>1043.6</ele>
        <time>2022-10-18T08:19:34Z</time>
      </trkpt>
      <trkpt lat="46.63279" lon="6.06802">
        <ele>1043.5</ele>
        <time>2022-10-18T08:19:38Z</time>
      </trkpt>
      <trkpt lat="46.63284" lon="6.06806">
        <ele>1043.5</ele>
        <time>2022-10-18T08:19:42Z</time>
      </trkpt>
      <trkpt lat="46.63289" lon="6.06808">
        <ele>1043.5</ele>
        <time>2022-10-18T08:19:45Z</time>
      </trkpt>
      <trkpt lat="46.63294" lon="6.0681">
        <ele>1043.6</ele>
        <time>2022-10-18T08:19:49Z</time>
      </trkpt>
      <trkpt lat="46.63298" lon="6.06814">
        <ele>1043.6</ele>
        <time>2022-10-18T08:19:53Z</time>
      </trkpt>
      <trkpt lat="46.63302" lon="6.0682">
        <ele>1043.7</ele>
        <time>2022-10-18T08:19:57Z</time>
      </trkpt>
      <trkpt lat="46.63305" lon="6.06826">
        <ele>1043.6</ele>
        <time>2022-10-18T08:20:01Z</time>
      </trkpt>
      <trkpt lat="46.63307" lon="6.06833">
        <ele>1043.9</ele>
        <time>2022-10-18T08:20:05Z</time>
      </trkpt>
      <trkpt lat="46.63309" lon="6.06839">
        <ele>1044.7</ele>
        <time>2022-10-18T08:20:11Z</time>
      </trkpt>
      <trkpt lat="46.63309" lon="6.06846">
        <ele>1046.2</ele>
        <time>2022-10-18T08:20:20Z</time>
      </trkpt>
      <trkpt lat="46.63312" lon="6.06853">
        <ele>1046.8</ele>
        <time>2022-10-18T08:20:25Z</time>
      </trkpt>
      <trkpt lat="46.63314" lon="6.06859">
        <ele>1047.5</ele>
        <time>2022-10-18T08:20:30Z</time>
      </trkpt>
      <trkpt lat="46.63315" lon="6.06867">
        <ele>1048.2</ele>
        <time>2022-10-18T08:20:37Z</time>
      </trkpt>
      <trkpt lat="46.63315" lon="6.06874">
        <ele>1048.5</ele>
        <time>2022-10-18T08:20:41Z</time>
      </trkpt>
      <trkpt lat="46.63316" lon="6.06882">
        <ele>1048.7</ele>
        <time>2022-10-18T08:20:46Z</time>
      </trkpt>
      <trkpt lat="46.63315" lon="6.06889">
        <ele>1048.9</ele>
        <time>2022-10-18T08:20:51Z</time>
      </trkpt>
      <trkpt lat="46.63314" lon="6.06896">
        <ele>1048.7</ele>
        <time>2022-10-18T08:20:58Z</time>
      </trkpt>
      <trkpt lat="46.63314" lon="6.06904">
        <ele>1048.6</ele>
        <time>2022-10-18T08:21:03Z</time>
      </trkpt>
      <trkpt lat="46.63314" lon="6.0691">
        <ele>1048.9</ele>
        <time>2022-10-18T08:21:09Z</time>
      </trkpt>
      <trkpt lat="46.63315" lon="6.06917">
        <ele>1049.4</ele>
        <time>2022-10-18T08:21:14Z</time>
      </trkpt>
      <trkpt lat="46.63315" lon="6.06925">
        <ele>1050.1</ele>
        <time>2022-10-18T08:21:20Z</time>
      </trkpt>
      <trkpt lat="46.63315" lon="6.06932">
        <ele>1050.6</ele>
        <time>2022-10-18T08:21:25Z</time>
      </trkpt>
      <trkpt lat="46.63315" lon="6.0694">
        <ele>1051.2</ele>
        <time>2022-10-18T08:21:31Z</time>
      </trkpt>
      <trkpt lat="46.63315" lon="6.06947">
        <ele>1051.6</ele>
        <time>2022-10-18T08:21:36Z</time>
      </trkpt>
      <trkpt lat="46.63318" lon="6.06954">
        <ele>1051.9</ele>
        <time>2022-10-18T08:21:41Z</time>
      </trkpt>
      <trkpt lat="46.6332" lon="6.06961">
        <ele>1052.3</ele>
        <time>2022-10-18T08:21:46Z</time>
      </trkpt>
      <trkpt lat="46.63321" lon="6.06968">
        <ele>1052.7</ele>
        <time>2022-10-18T08:21:50Z</time>
      </trkpt>
      <trkpt lat="46.63322" lon="6.06975">
        <ele>1053</ele>
        <time>2022-10-18T08:21:54Z</time>
      </trkpt>
      <trkpt lat="46.63324" lon="6.06982">
        <ele>1053.4</ele>
        <time>2022-10-18T08:21:59Z</time>
      </trkpt>
      <trkpt lat="46.63327" lon="6.06988">
        <ele>1053.6</ele>
        <time>2022-10-18T08:22:05Z</time>
      </trkpt>
      <trkpt lat="46.6333" lon="6.06993">
        <ele>1054.1</ele>
        <time>2022-10-18T08:22:11Z</time>
      </trkpt>
      <trkpt lat="46.63334" lon="6.06998">
        <ele>1054.5</ele>
        <time>2022-10-18T08:22:17Z</time>
      </trkpt>
      <trkpt lat="46.63336" lon="6.07004">
        <ele>1055.1</ele>
        <time>2022-10-18T08:22:22Z</time>
      </trkpt>
      <trkpt lat="46.63339" lon="6.0701">
        <ele>1055.5</ele>
        <time>2022-10-18T08:22:27Z</time>
      </trkpt>
      <trkpt lat="46.63341" lon="6.07016">
        <ele>1055.8</ele>
        <time>2022-10-18T08:22:32Z</time>
      </trkpt>
      <trkpt lat="46.63344" lon="6.07022">
        <ele>1056</ele>
        <time>2022-10-18T08:22:37Z</time>
      </trkpt>
      <trkpt lat="46.63346" lon="6.07029">
        <ele>1055.9</ele>
        <time>2022-10-18T08:22:42Z</time>
      </trkpt>
      <trkpt lat="46.6335" lon="6.07034">
        <ele>1056.1</ele>
        <time>2022-10-18T08:22:47Z</time>
      </trkpt>
      <trkpt lat="46.63352" lon="6.0704">
        <ele>1056.5</ele>
        <time>2022-10-18T08:22:52Z</time>
      </trkpt>
      <trkpt lat="46.63354" lon="6.07046">
        <ele>1057.4</ele>
        <time>2022-10-18T08:22:59Z</time>
      </trkpt>
      <trkpt lat="46.63357" lon="6.07052">
        <ele>1058.1</ele>
        <time>2022-10-18T08:23:04Z</time>
      </trkpt>
      <trkpt lat="46.6336" lon="6.07057">
        <ele>1058.8</ele>
        <time>2022-10-18T08:23:09Z</time>
      </trkpt>
      <trkpt lat="46.63364" lon="6.07062">
        <ele>1059.3</ele>
        <time>2022-10-18T08:23:13Z</time>
      </trkpt>
      <trkpt lat="46.63368" lon="6.07067">
        <ele>1060.1</ele>
        <time>2022-10-18T08:23:18Z</time>
      </trkpt>
      <trkpt lat="46.63372" lon="6.0707">
        <ele>1060.4</ele>
        <time>2022-10-18T08:23:22Z</time>
      </trkpt>
      <trkpt lat="46.63376" lon="6.07074">
        <ele>1060.4</ele>
        <time>2022-10-18T08:23:26Z</time>
      </trkpt>
      <trkpt lat="46.63379" lon="6.07079">
        <ele>1060.7</ele>
        <time>2022-10-18T08:23:32Z</time>
      </trkpt>
      <trkpt lat="46.63384" lon="6.07082">
        <ele>1061.5</ele>
        <time>2022-10-18T08:23:38Z</time>
      </trkpt>
      <trkpt lat="46.63389" lon="6.07082">
        <ele>1062</ele>
        <time>2022-10-18T08:23:43Z</time>
      </trkpt>
      <trkpt lat="46.63394" lon="6.07084">
        <ele>1062.5</ele>
        <time>2022-10-18T08:23:48Z</time>
      </trkpt>
      <trkpt lat="46.63399" lon="6.07088">
        <ele>1063</ele>
        <time>2022-10-18T08:23:53Z</time>
      </trkpt>
      <trkpt lat="46.63402" lon="6.07093">
        <ele>1063</ele>
        <time>2022-10-18T08:23:57Z</time>
      </trkpt>
      <trkpt lat="46.63405" lon="6.07099">
        <ele>1063.1</ele>
        <time>2022-10-18T08:24:02Z</time>
      </trkpt>
      <trkpt lat="46.63407" lon="6.07106">
        <ele>1063.1</ele>
        <time>2022-10-18T08:24:06Z</time>
      </trkpt>
      <trkpt lat="46.63409" lon="6.07113">
        <ele>1063.3</ele>
        <time>2022-10-18T08:24:11Z</time>
      </trkpt>
      <trkpt lat="46.63409" lon="6.0712">
        <ele>1063.4</ele>
        <time>2022-10-18T08:24:16Z</time>
      </trkpt>
      <trkpt lat="46.6341" lon="6.07127">
        <ele>1063.7</ele>
        <time>2022-10-18T08:24:21Z</time>
      </trkpt>
      <trkpt lat="46.63412" lon="6.07134">
        <ele>1063.9</ele>
        <time>2022-10-18T08:24:26Z</time>
      </trkpt>
      <trkpt lat="46.63414" lon="6.0714">
        <ele>1064.1</ele>
        <time>2022-10-18T08:24:31Z</time>
      </trkpt>
      <trkpt lat="46.63417" lon="6.07146">
        <ele>1064.2</ele>
        <time>2022-10-18T08:24:37Z</time>
      </trkpt>
      <trkpt lat="46.63419" lon="6.07151">
        <ele>1064.4</ele>
        <time>2022-10-18T08:24:43Z</time>
      </trkpt>
      <trkpt lat="46.63421" lon="6.07158">
        <ele>1062.6</ele>
        <time>2022-10-18T08:25:01Z</time>
      </trkpt>
      <trkpt lat="46.63423" lon="6.07165">
        <ele>1061.5</ele>
        <time>2022-10-18T08:25:08Z</time>
      </trkpt>
      <trkpt lat="46.63426" lon="6.0717">
        <ele>1061</ele>
        <time>2022-10-18T08:25:14Z</time>
      </trkpt>
      <trkpt lat="46.63429" lon="6.07176">
        <ele>1060.8</ele>
        <time>2022-10-18T08:25:20Z</time>
      </trkpt>
      <trkpt lat="46.63432" lon="6.07182">
        <ele>1060.8</ele>
        <time>2022-10-18T08:25:26Z</time>
      </trkpt>
      <trkpt lat="46.63432" lon="6.0719">
        <ele>1061.2</ele>
        <time>2022-10-18T08:25:32Z</time>
      </trkpt>
      <trkpt lat="46.63433" lon="6.07197">
        <ele>1061.7</ele>
        <time>2022-10-18T08:25:38Z</time>
      </trkpt>
      <trkpt lat="46.63436" lon="6.07203">
        <ele>1062.4</ele>
        <time>2022-10-18T08:25:44Z</time>
      </trkpt>
      <trkpt lat="46.63436" lon="6.0721">
        <ele>1063.7</ele>
        <time>2022-10-18T08:25:50Z</time>
      </trkpt>
      <trkpt lat="46.63435" lon="6.07217">
        <ele>1065.5</ele>
        <time>2022-10-18T08:25:57Z</time>
      </trkpt>
      <trkpt lat="46.63432" lon="6.07223">
        <ele>1066.7</ele>
        <time>2022-10-18T08:26:02Z</time>
      </trkpt>
      <trkpt lat="46.63429" lon="6.0723">
        <ele>1068.5</ele>
        <time>2022-10-18T08:26:09Z</time>
      </trkpt>
      <trkpt lat="46.63426" lon="6.07236">
        <ele>1070.4</ele>
        <time>2022-10-18T08:26:16Z</time>
      </trkpt>
      <trkpt lat="46.63423" lon="6.07241">
        <ele>1071.8</ele>
        <time>2022-10-18T08:26:22Z</time>
      </trkpt>
      <trkpt lat="46.63421" lon="6.07248">
        <ele>1073.1</ele>
        <time>2022-10-18T08:26:29Z</time>
      </trkpt>
      <trkpt lat="46.63417" lon="6.07252">
        <ele>1074.2</ele>
        <time>2022-10-18T08:26:36Z</time>
      </trkpt>
      <trkpt lat="46.63413" lon="6.07256">
        <ele>1075</ele>
        <time>2022-10-18T08:26:43Z</time>
      </trkpt>
      <trkpt lat="46.63408" lon="6.07257">
        <ele>1075.7</ele>
        <time>2022-10-18T08:26:48Z</time>
      </trkpt>
      <trkpt lat="46.63404" lon="6.07261">
        <ele>1076.6</ele>
        <time>2022-10-18T08:26:54Z</time>
      </trkpt>
      <trkpt lat="46.634" lon="6.07264">
        <ele>1077.4</ele>
        <time>2022-10-18T08:27:01Z</time>
      </trkpt>
      <trkpt lat="46.63395" lon="6.07266">
        <ele>1077.6</ele>
        <time>2022-10-18T08:27:07Z</time>
      </trkpt>
      <trkpt lat="46.63391" lon="6.07269">
        <ele>1077.7</ele>
        <time>2022-10-18T08:27:15Z</time>
      </trkpt>
      <trkpt lat="46.63387" lon="6.07272">
        <ele>1078</ele>
        <time>2022-10-18T08:27:22Z</time>
      </trkpt>
      <trkpt lat="46.63384" lon="6.07277">
        <ele>1079.3</ele>
        <time>2022-10-18T08:27:29Z</time>
      </trkpt>
      <trkpt lat="46.6338" lon="6.07281">
        <ele>1080.6</ele>
        <time>2022-10-18T08:27:35Z</time>
      </trkpt>
      <trkpt lat="46.63377" lon="6.07287">
        <ele>1081.7</ele>
        <time>2022-10-18T08:27:42Z</time>
      </trkpt>
      <trkpt lat="46.63375" lon="6.07293">
        <ele>1082.7</ele>
        <time>2022-10-18T08:27:52Z</time>
      </trkpt>
      <trkpt lat="46.63376" lon="6.073">
        <ele>1083.5</ele>
        <time>2022-10-18T08:28:08Z</time>
      </trkpt>
      <trkpt lat="46.63372" lon="6.07304">
        <ele>1083.9</ele>
        <time>2022-10-18T08:28:14Z</time>
      </trkpt>
      <trkpt lat="46.6337" lon="6.07311">
        <ele>1084.2</ele>
        <time>2022-10-18T08:28:22Z</time>
      </trkpt>
      <trkpt lat="46.63367" lon="6.07318">
        <ele>1085.1</ele>
        <time>2022-10-18T08:28:38Z</time>
      </trkpt>
      <trkpt lat="46.63363" lon="6.07325">
        <ele>1085.7</ele>
        <time>2022-10-18T08:28:41Z</time>
      </trkpt>
      <trkpt lat="46.6336" lon="6.0733">
        <ele>1086.7</ele>
        <time>2022-10-18T08:28:46Z</time>
      </trkpt>
      <trkpt lat="46.63356" lon="6.07333">
        <ele>1088</ele>
        <time>2022-10-18T08:28:54Z</time>
      </trkpt>
      <trkpt lat="46.63353" lon="6.07338">
        <ele>1089.5</ele>
        <time>2022-10-18T08:29:02Z</time>
      </trkpt>
      <trkpt lat="46.63349" lon="6.07342">
        <ele>1090.8</ele>
        <time>2022-10-18T08:29:09Z</time>
      </trkpt>
      <trkpt lat="46.63347" lon="6.07349">
        <ele>1091.2</ele>
        <time>2022-10-18T08:29:48Z</time>
      </trkpt>
      <trkpt lat="46.63345" lon="6.07355">
        <ele>1090.8</ele>
        <time>2022-10-18T08:29:51Z</time>
      </trkpt>
      <trkpt lat="46.6335" lon="6.07351">
        <ele>1095.6</ele>
        <time>2022-10-18T08:30:58Z</time>
      </trkpt>
      <trkpt lat="46.63348" lon="6.07344">
        <ele>1093.6</ele>
        <time>2022-10-18T08:31:11Z</time>
      </trkpt>
      <trkpt lat="46.6335" lon="6.0735">
        <ele>1093</ele>
        <time>2022-10-18T08:31:22Z</time>
      </trkpt>
      <trkpt lat="46.63345" lon="6.07351">
        <ele>1094.5</ele>
        <time>2022-10-18T08:32:13Z</time>
      </trkpt>
      <trkpt lat="46.63342" lon="6.07346">
        <ele>1095.8</ele>
        <time>2022-10-18T08:32:18Z</time>
      </trkpt>
      <trkpt lat="46.63346" lon="6.07347">
        <ele>1097.4</ele>
        <time>2022-10-18T08:32:28Z</time>
      </trkpt>
      <trkpt lat="46.63343" lon="6.07353">
        <ele>1098.6</ele>
        <time>2022-10-18T08:33:14Z</time>
      </trkpt>
      <trkpt lat="46.63342" lon="6.0736">
        <ele>1098.6</ele>
        <time>2022-10-18T08:33:32Z</time>
      </trkpt>
      <trkpt lat="46.63337" lon="6.07363">
        <ele>1099</ele>
        <time>2022-10-18T08:33:39Z</time>
      </trkpt>
      <trkpt lat="46.63335" lon="6.07368">
        <ele>1099</ele>
        <time>2022-10-18T08:33:46Z</time>
      </trkpt>
      <trkpt lat="46.63332" lon="6.07374">
        <ele>1099.1</ele>
        <time>2022-10-18T08:33:51Z</time>
      </trkpt>
      <trkpt lat="46.63328" lon="6.07378">
        <ele>1099.4</ele>
        <time>2022-10-18T08:34:02Z</time>
      </trkpt>
      <trkpt lat="46.63324" lon="6.07375">
        <ele>1099.4</ele>
        <time>2022-10-18T08:34:22Z</time>
      </trkpt>
      <trkpt lat="46.6332" lon="6.07379">
        <ele>1099.3</ele>
        <time>2022-10-18T08:34:34Z</time>
      </trkpt>
      <trkpt lat="46.63315" lon="6.07379">
        <ele>1098.9</ele>
        <time>2022-10-18T08:34:42Z</time>
      </trkpt>
      <trkpt lat="46.6331" lon="6.07378">
        <ele>1098.5</ele>
        <time>2022-10-18T08:34:50Z</time>
      </trkpt>
      <trkpt lat="46.63306" lon="6.07375">
        <ele>1097.7</ele>
        <time>2022-10-18T08:34:58Z</time>
      </trkpt>
      <trkpt lat="46.63302" lon="6.07373">
        <ele>1097.4</ele>
        <time>2022-10-18T08:35:03Z</time>
      </trkpt>
      <trkpt lat="46.63297" lon="6.0737">
        <ele>1097.2</ele>
        <time>2022-10-18T08:35:09Z</time>
      </trkpt>
      <trkpt lat="46.63292" lon="6.07368">
        <ele>1097.5</ele>
        <time>2022-10-18T08:35:14Z</time>
      </trkpt>
      <trkpt lat="46.63287" lon="6.07367">
        <ele>1098.8</ele>
        <time>2022-10-18T08:35:25Z</time>
      </trkpt>
      <trkpt lat="46.63282" lon="6.07365">
        <ele>1099</ele>
        <time>2022-10-18T08:35:29Z</time>
      </trkpt>
      <trkpt lat="46.63277" lon="6.0736">
        <ele>1099.3</ele>
        <time>2022-10-18T08:35:33Z</time>
      </trkpt>
      <trkpt lat="46.63274" lon="6.07355">
        <ele>1100</ele>
        <time>2022-10-18T08:35:37Z</time>
      </trkpt>
      <trkpt lat="46.6327" lon="6.07351">
        <ele>1101.1</ele>
        <time>2022-10-18T08:35:43Z</time>
      </trkpt>
      <trkpt lat="46.63265" lon="6.0735">
        <ele>1102</ele>
        <time>2022-10-18T08:35:50Z</time>
      </trkpt>
      <trkpt lat="46.63261" lon="6.07348">
        <ele>1102.8</ele>
        <time>2022-10-18T08:35:56Z</time>
      </trkpt>
      <trkpt lat="46.63256" lon="6.07347">
        <ele>1104.1</ele>
        <time>2022-10-18T08:36:04Z</time>
      </trkpt>
      <trkpt lat="46.63255" lon="6.0734">
        <ele>1109.5</ele>
        <time>2022-10-18T08:37:00Z</time>
      </trkpt>
      <trkpt lat="46.63249" lon="6.07339">
        <ele>1110.7</ele>
        <time>2022-10-18T08:37:07Z</time>
      </trkpt>
      <trkpt lat="46.63246" lon="6.07333">
        <ele>1112.4</ele>
        <time>2022-10-18T08:37:15Z</time>
      </trkpt>
      <trkpt lat="46.63242" lon="6.0733">
        <ele>1113.4</ele>
        <time>2022-10-18T08:37:20Z</time>
      </trkpt>
      <trkpt lat="46.63238" lon="6.07326">
        <ele>1114</ele>
        <time>2022-10-18T08:37:24Z</time>
      </trkpt>
      <trkpt lat="46.63234" lon="6.07322">
        <ele>1114</ele>
        <time>2022-10-18T08:37:31Z</time>
      </trkpt>
      <trkpt lat="46.63229" lon="6.07321">
        <ele>1113.1</ele>
        <time>2022-10-18T08:37:43Z</time>
      </trkpt>
      <trkpt lat="46.63224" lon="6.07322">
        <ele>1112.3</ele>
        <time>2022-10-18T08:37:47Z</time>
      </trkpt>
      <trkpt lat="46.63219" lon="6.0732">
        <ele>1110.9</ele>
        <time>2022-10-18T08:37:52Z</time>
      </trkpt>
      <trkpt lat="46.63215" lon="6.07315">
        <ele>1110.1</ele>
        <time>2022-10-18T08:37:56Z</time>
      </trkpt>
      <trkpt lat="46.6321" lon="6.07311">
        <ele>1109.3</ele>
        <time>2022-10-18T08:38:00Z</time>
      </trkpt>
      <trkpt lat="46.63206" lon="6.07307">
        <ele>1108.6</ele>
        <time>2022-10-18T08:38:04Z</time>
      </trkpt>
      <trkpt lat="46.63202" lon="6.07302">
        <ele>1108.2</ele>
        <time>2022-10-18T08:38:09Z</time>
      </trkpt>
      <trkpt lat="46.63197" lon="6.07299">
        <ele>1108.4</ele>
        <time>2022-10-18T08:38:13Z</time>
      </trkpt>
      <trkpt lat="46.63192" lon="6.07299">
        <ele>1108.4</ele>
        <time>2022-10-18T08:38:22Z</time>
      </trkpt>
      <trkpt lat="46.63188" lon="6.07296">
        <ele>1107.1</ele>
        <time>2022-10-18T08:38:33Z</time>
      </trkpt>
      <trkpt lat="46.63183" lon="6.07297">
        <ele>1106.3</ele>
        <time>2022-10-18T08:38:48Z</time>
      </trkpt>
      <trkpt lat="46.63179" lon="6.07302">
        <ele>1105.9</ele>
        <time>2022-10-18T08:38:52Z</time>
      </trkpt>
      <trkpt lat="46.63177" lon="6.07309">
        <ele>1105.5</ele>
        <time>2022-10-18T08:38:56Z</time>
      </trkpt>
      <trkpt lat="46.63173" lon="6.07314">
        <ele>1105.2</ele>
        <time>2022-10-18T08:39:00Z</time>
      </trkpt>
      <trkpt lat="46.63169" lon="6.07318">
        <ele>1104.5</ele>
        <time>2022-10-18T08:39:07Z</time>
      </trkpt>
      <trkpt lat="46.63165" lon="6.07321">
        <ele>1104.4</ele>
        <time>2022-10-18T08:39:14Z</time>
      </trkpt>
      <trkpt lat="46.63161" lon="6.07327">
        <ele>1104.6</ele>
        <time>2022-10-18T08:39:19Z</time>
      </trkpt>
      <trkpt lat="46.63158" lon="6.07337">
        <ele>1105.7</ele>
        <time>2022-10-18T08:39:28Z</time>
      </trkpt>
      <trkpt lat="46.63159" lon="6.07345">
        <ele>1106.1</ele>
        <time>2022-10-18T08:39:32Z</time>
      </trkpt>
      <trkpt lat="46.63158" lon="6.07352">
        <ele>1106</ele>
        <time>2022-10-18T08:39:38Z</time>
      </trkpt>
      <trkpt lat="46.63157" lon="6.07359">
        <ele>1105.6</ele>
        <time>2022-10-18T08:39:44Z</time>
      </trkpt>
      <trkpt lat="46.63156" lon="6.07366">
        <ele>1106.6</ele>
        <time>2022-10-18T08:39:51Z</time>
      </trkpt>
      <trkpt lat="46.63152" lon="6.07369">
        <ele>1108.2</ele>
        <time>2022-10-18T08:39:58Z</time>
      </trkpt>
      <trkpt lat="46.63148" lon="6.07371">
        <ele>1109.4</ele>
        <time>2022-10-18T08:40:03Z</time>
      </trkpt>
      <trkpt lat="46.63143" lon="6.07374">
        <ele>1109.4</ele>
        <time>2022-10-18T08:40:10Z</time>
      </trkpt>
      <trkpt lat="46.63138" lon="6.07372">
        <ele>1109.2</ele>
        <time>2022-10-18T08:40:15Z</time>
      </trkpt>
      <trkpt lat="46.63133" lon="6.07372">
        <ele>1109.2</ele>
        <time>2022-10-18T08:40:21Z</time>
      </trkpt>
      <trkpt lat="46.63129" lon="6.07372">
        <ele>1109.3</ele>
        <time>2022-10-18T08:40:24Z</time>
      </trkpt>
      <trkpt lat="46.63124" lon="6.07372">
        <ele>1109.4</ele>
        <time>2022-10-18T08:40:28Z</time>
      </trkpt>
      <trkpt lat="46.63119" lon="6.07372">
        <ele>1110.1</ele>
        <time>2022-10-18T08:40:34Z</time>
      </trkpt>
      <trkpt lat="46.63114" lon="6.07374">
        <ele>1111.3</ele>
        <time>2022-10-18T08:40:41Z</time>
      </trkpt>
      <trkpt lat="46.63109" lon="6.07376">
        <ele>1112.6</ele>
        <time>2022-10-18T08:40:50Z</time>
      </trkpt>
      <trkpt lat="46.63104" lon="6.07379">
        <ele>1112.7</ele>
        <time>2022-10-18T08:40:54Z</time>
      </trkpt>
      <trkpt lat="46.63098" lon="6.0738">
        <ele>1113.1</ele>
        <time>2022-10-18T08:40:59Z</time>
      </trkpt>
      <trkpt lat="46.63093" lon="6.0738">
        <ele>1114.5</ele>
        <time>2022-10-18T08:41:06Z</time>
      </trkpt>
      <trkpt lat="46.63088" lon="6.07379">
        <ele>1116.6</ele>
        <time>2022-10-18T08:41:15Z</time>
      </trkpt>
      <trkpt lat="46.63083" lon="6.07379">
        <ele>1117.3</ele>
        <time>2022-10-18T08:41:19Z</time>
      </trkpt>
      <trkpt lat="46.63079" lon="6.07378">
        <ele>1117.5</ele>
        <time>2022-10-18T08:41:22Z</time>
      </trkpt>
      <trkpt lat="46.63074" lon="6.07377">
        <ele>1118.1</ele>
        <time>2022-10-18T08:41:25Z</time>
      </trkpt>
      <trkpt lat="46.6307" lon="6.07382">
        <ele>1119.9</ele>
        <time>2022-10-18T08:41:38Z</time>
      </trkpt>
      <trkpt lat="46.63066" lon="6.07385">
        <ele>1120.6</ele>
        <time>2022-10-18T08:41:42Z</time>
      </trkpt>
      <trkpt lat="46.63061" lon="6.07386">
        <ele>1121</ele>
        <time>2022-10-18T08:41:46Z</time>
      </trkpt>
      <trkpt lat="46.63056" lon="6.07386">
        <ele>1121.2</ele>
        <time>2022-10-18T08:41:50Z</time>
      </trkpt>
      <trkpt lat="46.63051" lon="6.0739">
        <ele>1121.7</ele>
        <time>2022-10-18T08:41:55Z</time>
      </trkpt>
      <trkpt lat="46.63049" lon="6.07396">
        <ele>1122.6</ele>
        <time>2022-10-18T08:41:59Z</time>
      </trkpt>
      <trkpt lat="46.63045" lon="6.07402">
        <ele>1125.4</ele>
        <time>2022-10-18T08:42:15Z</time>
      </trkpt>
      <trkpt lat="46.63042" lon="6.07406">
        <ele>1125.6</ele>
        <time>2022-10-18T08:42:19Z</time>
      </trkpt>
      <trkpt lat="46.63037" lon="6.0741">
        <ele>1125.8</ele>
        <time>2022-10-18T08:42:23Z</time>
      </trkpt>
      <trkpt lat="46.63033" lon="6.07413">
        <ele>1125.6</ele>
        <time>2022-10-18T08:42:26Z</time>
      </trkpt>
      <trkpt lat="46.63029" lon="6.07417">
        <ele>1125.1</ele>
        <time>2022-10-18T08:42:29Z</time>
      </trkpt>
      <trkpt lat="46.63024" lon="6.07419">
        <ele>1124.8</ele>
        <time>2022-10-18T08:42:33Z</time>
      </trkpt>
      <trkpt lat="46.63021" lon="6.07424">
        <ele>1124.7</ele>
        <time>2022-10-18T08:42:37Z</time>
      </trkpt>
      <trkpt lat="46.63021" lon="6.07432">
        <ele>1124.5</ele>
        <time>2022-10-18T08:42:42Z</time>
      </trkpt>
      <trkpt lat="46.63025" lon="6.07437">
        <ele>1124.8</ele>
        <time>2022-10-18T08:42:49Z</time>
      </trkpt>
      <trkpt lat="46.63024" lon="6.07443">
        <ele>1124.9</ele>
        <time>2022-10-18T08:42:58Z</time>
      </trkpt>
      <trkpt lat="46.63022" lon="6.07449">
        <ele>1124.9</ele>
        <time>2022-10-18T08:43:06Z</time>
      </trkpt>
      <trkpt lat="46.63022" lon="6.07456">
        <ele>1124.9</ele>
        <time>2022-10-18T08:43:13Z</time>
      </trkpt>
      <trkpt lat="46.63019" lon="6.07462">
        <ele>1125.7</ele>
        <time>2022-10-18T08:43:19Z</time>
      </trkpt>
      <trkpt lat="46.63016" lon="6.07467">
        <ele>1126.9</ele>
        <time>2022-10-18T08:43:26Z</time>
      </trkpt>
      <trkpt lat="46.63011" lon="6.0747">
        <ele>1128.2</ele>
        <time>2022-10-18T08:43:31Z</time>
      </trkpt>
      <trkpt lat="46.63007" lon="6.07474">
        <ele>1129.6</ele>
        <time>2022-10-18T08:43:37Z</time>
      </trkpt>
      <trkpt lat="46.63003" lon="6.07478">
        <ele>1130.6</ele>
        <time>2022-10-18T08:43:42Z</time>
      </trkpt>
      <trkpt lat="46.62997" lon="6.07479">
        <ele>1132.1</ele>
        <time>2022-10-18T08:43:47Z</time>
      </trkpt>
      <trkpt lat="46.62992" lon="6.07478">
        <ele>1134</ele>
        <time>2022-10-18T08:43:52Z</time>
      </trkpt>
      <trkpt lat="46.62987" lon="6.07479">
        <ele>1135.1</ele>
        <time>2022-10-18T08:43:55Z</time>
      </trkpt>
      <trkpt lat="46.62982" lon="6.0748">
        <ele>1136.2</ele>
        <time>2022-10-18T08:43:58Z</time>
      </trkpt>
      <trkpt lat="46.62979" lon="6.07487">
        <ele>1137.3</ele>
        <time>2022-10-18T08:44:04Z</time>
      </trkpt>
      <trkpt lat="46.62979" lon="6.07495">
        <ele>1137.1</ele>
        <time>2022-10-18T08:44:10Z</time>
      </trkpt>
      <trkpt lat="46.62979" lon="6.07501">
        <ele>1136.5</ele>
        <time>2022-10-18T08:44:16Z</time>
      </trkpt>
      <trkpt lat="46.6298" lon="6.07508">
        <ele>1135.4</ele>
        <time>2022-10-18T08:44:24Z</time>
      </trkpt>
      <trkpt lat="46.62982" lon="6.07515">
        <ele>1134</ele>
        <time>2022-10-18T08:44:29Z</time>
      </trkpt>
      <trkpt lat="46.62979" lon="6.07521">
        <ele>1133.5</ele>
        <time>2022-10-18T08:44:42Z</time>
      </trkpt>
      <trkpt lat="46.62981" lon="6.07528">
        <ele>1133.4</ele>
        <time>2022-10-18T08:44:46Z</time>
      </trkpt>
      <trkpt lat="46.62981" lon="6.07535">
        <ele>1132.9</ele>
        <time>2022-10-18T08:44:51Z</time>
      </trkpt>
      <trkpt lat="46.62979" lon="6.07541">
        <ele>1132.5</ele>
        <time>2022-10-18T08:44:55Z</time>
      </trkpt>
      <trkpt lat="46.62978" lon="6.07548">
        <ele>1131.9</ele>
        <time>2022-10-18T08:44:59Z</time>
      </trkpt>
      <trkpt lat="46.62975" lon="6.07554">
        <ele>1131.8</ele>
        <time>2022-10-18T08:45:04Z</time>
      </trkpt>
      <trkpt lat="46.62971" lon="6.07557">
        <ele>1132.3</ele>
        <time>2022-10-18T08:45:09Z</time>
      </trkpt>
      <trkpt lat="46.62967" lon="6.07561">
        <ele>1132.3</ele>
        <time>2022-10-18T08:45:16Z</time>
      </trkpt>
      <trkpt lat="46.62962" lon="6.07562">
        <ele>1132.2</ele>
        <time>2022-10-18T08:45:20Z</time>
      </trkpt>
      <trkpt lat="46.62957" lon="6.07562">
        <ele>1132.8</ele>
        <time>2022-10-18T08:45:24Z</time>
      </trkpt>
      <trkpt lat="46.62953" lon="6.07565">
        <ele>1133.7</ele>
        <time>2022-10-18T08:45:28Z</time>
      </trkpt>
      <trkpt lat="46.62949" lon="6.07568">
        <ele>1134.8</ele>
        <time>2022-10-18T08:45:33Z</time>
      </trkpt>
      <trkpt lat="46.62948" lon="6.07576">
        <ele>1135.6</ele>
        <time>2022-10-18T08:45:39Z</time>
      </trkpt>
      <trkpt lat="46.62947" lon="6.07583">
        <ele>1135.9</ele>
        <time>2022-10-18T08:45:43Z</time>
      </trkpt>
      <trkpt lat="46.62947" lon="6.07589">
        <ele>1136.3</ele>
        <time>2022-10-18T08:45:48Z</time>
      </trkpt>
      <trkpt lat="46.6295" lon="6.07595">
        <ele>1136.2</ele>
        <time>2022-10-18T08:45:52Z</time>
      </trkpt>
      <trkpt lat="46.62945" lon="6.07593">
        <ele>1138.1</ele>
        <time>2022-10-18T08:46:02Z</time>
      </trkpt>
      <trkpt lat="46.62948" lon="6.07599">
        <ele>1140.2</ele>
        <time>2022-10-18T08:46:13Z</time>
      </trkpt>
      <trkpt lat="46.62949" lon="6.07606">
        <ele>1140.2</ele>
        <time>2022-10-18T08:46:20Z</time>
      </trkpt>
      <trkpt lat="46.62951" lon="6.07612">
        <ele>1139.8</ele>
        <time>2022-10-18T08:46:25Z</time>
      </trkpt>
      <trkpt lat="46.62954" lon="6.07617">
        <ele>1140</ele>
        <time>2022-10-18T08:46:30Z</time>
      </trkpt>
      <trkpt lat="46.62958" lon="6.0762">
        <ele>1140.7</ele>
        <time>2022-10-18T08:46:36Z</time>
      </trkpt>
      <trkpt lat="46.62959" lon="6.07627">
        <ele>1140.5</ele>
        <time>2022-10-18T08:46:42Z</time>
      </trkpt>
      <trkpt lat="46.62954" lon="6.0763">
        <ele>1139.6</ele>
        <time>2022-10-18T08:46:49Z</time>
      </trkpt>
      <trkpt lat="46.6295" lon="6.07632">
        <ele>1137.9</ele>
        <time>2022-10-18T08:47:03Z</time>
      </trkpt>
      <trkpt lat="46.62944" lon="6.07635">
        <ele>1138.8</ele>
        <time>2022-10-18T08:47:11Z</time>
      </trkpt>
      <trkpt lat="46.62943" lon="6.07641">
        <ele>1139.1</ele>
        <time>2022-10-18T08:47:21Z</time>
      </trkpt>
      <trkpt lat="46.62947" lon="6.07641">
        <ele>1139</ele>
        <time>2022-10-18T08:47:33Z</time>
      </trkpt>
      <trkpt lat="46.62952" lon="6.07641">
        <ele>1138.6</ele>
        <time>2022-10-18T08:47:38Z</time>
      </trkpt>
      <trkpt lat="46.62956" lon="6.07637">
        <ele>1138.7</ele>
        <time>2022-10-18T08:47:45Z</time>
      </trkpt>
      <trkpt lat="46.62958" lon="6.07631">
        <ele>1140.5</ele>
        <time>2022-10-18T08:47:53Z</time>
      </trkpt>
      <trkpt lat="46.62954" lon="6.07636">
        <ele>1143.2</ele>
        <time>2022-10-18T08:48:15Z</time>
      </trkpt>
      <trkpt lat="46.62952" lon="6.07641">
        <ele>1142.6</ele>
        <time>2022-10-18T08:48:19Z</time>
      </trkpt>
      <trkpt lat="46.62948" lon="6.07647">
        <ele>1141.9</ele>
        <time>2022-10-18T08:48:23Z</time>
      </trkpt>
      <trkpt lat="46.62944" lon="6.07651">
        <ele>1141.4</ele>
        <time>2022-10-18T08:48:27Z</time>
      </trkpt>
      <trkpt lat="46.62939" lon="6.07652">
        <ele>1141.1</ele>
        <time>2022-10-18T08:48:31Z</time>
      </trkpt>
      <trkpt lat="46.62936" lon="6.07657">
        <ele>1140.7</ele>
        <time>2022-10-18T08:48:34Z</time>
      </trkpt>
      <trkpt lat="46.62932" lon="6.07662">
        <ele>1139.6</ele>
        <time>2022-10-18T08:48:39Z</time>
      </trkpt>
      <trkpt lat="46.62927" lon="6.07663">
        <ele>1139.2</ele>
        <time>2022-10-18T08:48:46Z</time>
      </trkpt>
      <trkpt lat="46.62924" lon="6.07669">
        <ele>1139</ele>
        <time>2022-10-18T08:48:52Z</time>
      </trkpt>
      <trkpt lat="46.62927" lon="6.07675">
        <ele>1139.5</ele>
        <time>2022-10-18T08:49:00Z</time>
      </trkpt>
      <trkpt lat="46.62931" lon="6.07674">
        <ele>1140.3</ele>
        <time>2022-10-18T08:49:07Z</time>
      </trkpt>
      <trkpt lat="46.6293" lon="6.07666">
        <ele>1138.4</ele>
        <time>2022-10-18T08:49:34Z</time>
      </trkpt>
      <trkpt lat="46.6293" lon="6.07658">
        <ele>1138.1</ele>
        <time>2022-10-18T08:49:38Z</time>
      </trkpt>
      <trkpt lat="46.62934" lon="6.07654">
        <ele>1141</ele>
        <time>2022-10-18T08:49:47Z</time>
      </trkpt>
      <trkpt lat="46.62929" lon="6.07658">
        <ele>1145.3</ele>
        <time>2022-10-18T08:51:24Z</time>
      </trkpt>
      <trkpt lat="46.62925" lon="6.0766">
        <ele>1145.3</ele>
        <time>2022-10-18T08:51:35Z</time>
      </trkpt>
      <trkpt lat="46.62921" lon="6.07664">
        <ele>1143.9</ele>
        <time>2022-10-18T08:54:14Z</time>
      </trkpt>
      <trkpt lat="46.62925" lon="6.07659">
        <ele>1141.9</ele>
        <time>2022-10-18T08:54:46Z</time>
      </trkpt>
      <trkpt lat="46.62929" lon="6.07656">
        <ele>1143</ele>
        <time>2022-10-18T08:55:41Z</time>
      </trkpt>
      <trkpt lat="46.62934" lon="6.07656">
        <ele>1144.9</ele>
        <time>2022-10-18T08:55:50Z</time>
      </trkpt>
      <trkpt lat="46.6293" lon="6.07662">
        <ele>1146.9</ele>
        <time>2022-10-18T08:56:19Z</time>
      </trkpt>
      <trkpt lat="46.62934" lon="6.07666">
        <ele>1147.1</ele>
        <time>2022-10-18T08:56:50Z</time>
      </trkpt>
      <trkpt lat="46.62937" lon="6.07671">
        <ele>1143.8</ele>
        <time>2022-10-18T08:56:53Z</time>
      </trkpt>
      <trkpt lat="46.62932" lon="6.07672">
        <ele>1140</ele>
        <time>2022-10-18T08:57:03Z</time>
      </trkpt>
      <trkpt lat="46.62928" lon="6.07668">
        <ele>1141.1</ele>
        <time>2022-10-18T08:57:10Z</time>
      </trkpt>
      <trkpt lat="46.62923" lon="6.07664">
        <ele>1141.8</ele>
        <time>2022-10-18T08:57:13Z</time>
      </trkpt>
      <trkpt lat="46.62918" lon="6.07661">
        <ele>1142.6</ele>
        <time>2022-10-18T08:57:18Z</time>
      </trkpt>
      <trkpt lat="46.62923" lon="6.07661">
        <ele>1146.7</ele>
        <time>2022-10-18T08:57:32Z</time>
      </trkpt>
      <trkpt lat="46.62928" lon="6.07663">
        <ele>1147.7</ele>
        <time>2022-10-18T08:57:35Z</time>
      </trkpt>
      <trkpt lat="46.62932" lon="6.07658">
        <ele>1148.3</ele>
        <time>2022-10-18T08:57:52Z</time>
      </trkpt>
      <trkpt lat="46.62937" lon="6.07661">
        <ele>1147.9</ele>
        <time>2022-10-18T08:57:56Z</time>
      </trkpt>
      <trkpt lat="46.62942" lon="6.07661">
        <ele>1147.2</ele>
        <time>2022-10-18T08:58:01Z</time>
      </trkpt>
      <trkpt lat="46.62938" lon="6.07657">
        <ele>1145.7</ele>
        <time>2022-10-18T08:58:07Z</time>
      </trkpt>
      <trkpt lat="46.62934" lon="6.07652">
        <ele>1145.2</ele>
        <time>2022-10-18T08:58:10Z</time>
      </trkpt>
      <trkpt lat="46.62932" lon="6.07646">
        <ele>1144.8</ele>
        <time>2022-10-18T08:58:13Z</time>
      </trkpt>
      <trkpt lat="46.62933" lon="6.07639">
        <ele>1144.9</ele>
        <time>2022-10-18T08:58:19Z</time>
      </trkpt>
      <trkpt lat="46.62934" lon="6.07632">
        <ele>1144.7</ele>
        <time>2022-10-18T08:58:26Z</time>
      </trkpt>
      <trkpt lat="46.62935" lon="6.07626">
        <ele>1143.8</ele>
        <time>2022-10-18T08:58:34Z</time>
      </trkpt>
      <trkpt lat="46.62939" lon="6.07631">
        <ele>1142.1</ele>
        <time>2022-10-18T08:58:44Z</time>
      </trkpt>
      <trkpt lat="46.6294" lon="6.07624">
        <ele>1142.4</ele>
        <time>2022-10-18T08:58:56Z</time>
      </trkpt>
      <trkpt lat="46.62942" lon="6.07617">
        <ele>1142</ele>
        <time>2022-10-18T08:59:01Z</time>
      </trkpt>
      <trkpt lat="46.62942" lon="6.0761">
        <ele>1142.1</ele>
        <time>2022-10-18T08:59:08Z</time>
      </trkpt>
      <trkpt lat="46.62948" lon="6.0761">
        <ele>1139.1</ele>
        <time>2022-10-18T08:59:21Z</time>
      </trkpt>
      <trkpt lat="46.62953" lon="6.07608">
        <ele>1137.2</ele>
        <time>2022-10-18T08:59:25Z</time>
      </trkpt>
      <trkpt lat="46.62951" lon="6.076">
        <ele>1136.1</ele>
        <time>2022-10-18T08:59:29Z</time>
      </trkpt>
      <trkpt lat="46.62946" lon="6.07601">
        <ele>1134.2</ele>
        <time>2022-10-18T08:59:40Z</time>
      </trkpt>
      <trkpt lat="46.62946" lon="6.07593">
        <ele>1133.7</ele>
        <time>2022-10-18T08:59:45Z</time>
      </trkpt>
      <trkpt lat="46.62945" lon="6.07585">
        <ele>1134.4</ele>
        <time>2022-10-18T08:59:48Z</time>
      </trkpt>
      <trkpt lat="46.62947" lon="6.07578">
        <ele>1134.8</ele>
        <time>2022-10-18T08:59:52Z</time>
      </trkpt>
      <trkpt lat="46.62949" lon="6.07571">
        <ele>1134.6</ele>
        <time>2022-10-18T08:59:57Z</time>
      </trkpt>
      <trkpt lat="46.6295" lon="6.07563">
        <ele>1134.3</ele>
        <time>2022-10-18T09:00:01Z</time>
      </trkpt>
      <trkpt lat="46.62952" lon="6.07556">
        <ele>1134.2</ele>
        <time>2022-10-18T09:00:07Z</time>
      </trkpt>
      <trkpt lat="46.62955" lon="6.07551">
        <ele>1133.9</ele>
        <time>2022-10-18T09:00:12Z</time>
      </trkpt>
      <trkpt lat="46.62958" lon="6.07545">
        <ele>1132.7</ele>
        <time>2022-10-18T09:00:18Z</time>
      </trkpt>
      <trkpt lat="46.62964" lon="6.07545">
        <ele>1132</ele>
        <time>2022-10-18T09:00:23Z</time>
      </trkpt>
      <trkpt lat="46.62968" lon="6.07542">
        <ele>1130.7</ele>
        <time>2022-10-18T09:00:28Z</time>
      </trkpt>
      <trkpt lat="46.62972" lon="6.07537">
        <ele>1130.1</ele>
        <time>2022-10-18T09:00:32Z</time>
      </trkpt>
      <trkpt lat="46.62975" lon="6.07531">
        <ele>1130</ele>
        <time>2022-10-18T09:00:37Z</time>
      </trkpt>
      <trkpt lat="46.62978" lon="6.07526">
        <ele>1130.7</ele>
        <time>2022-10-18T09:00:43Z</time>
      </trkpt>
      <trkpt lat="46.62978" lon="6.07519">
        <ele>1131.5</ele>
        <time>2022-10-18T09:00:50Z</time>
      </trkpt>
      <trkpt lat="46.62977" lon="6.07512">
        <ele>1131.7</ele>
        <time>2022-10-18T09:00:58Z</time>
      </trkpt>
      <trkpt lat="46.62977" lon="6.07504">
        <ele>1131.4</ele>
        <time>2022-10-18T09:01:05Z</time>
      </trkpt>
      <trkpt lat="46.62978" lon="6.07498">
        <ele>1131.6</ele>
        <time>2022-10-18T09:01:11Z</time>
      </trkpt>
      <trkpt lat="46.62981" lon="6.07492">
        <ele>1131.4</ele>
        <time>2022-10-18T09:01:16Z</time>
      </trkpt>
      <trkpt lat="46.62982" lon="6.07485">
        <ele>1131.4</ele>
        <time>2022-10-18T09:01:19Z</time>
      </trkpt>
      <trkpt lat="46.62984" lon="6.07477">
        <ele>1131.7</ele>
        <time>2022-10-18T09:01:23Z</time>
      </trkpt>
      <trkpt lat="46.62987" lon="6.07469">
        <ele>1132.1</ele>
        <time>2022-10-18T09:01:27Z</time>
      </trkpt>
      <trkpt lat="46.6299" lon="6.07464">
        <ele>1132.7</ele>
        <time>2022-10-18T09:01:31Z</time>
      </trkpt>
      <trkpt lat="46.62995" lon="6.07463">
        <ele>1134.8</ele>
        <time>2022-10-18T09:01:40Z</time>
      </trkpt>
      <trkpt lat="46.63" lon="6.07463">
        <ele>1135.4</ele>
        <time>2022-10-18T09:01:46Z</time>
      </trkpt>
      <trkpt lat="46.63006" lon="6.07462">
        <ele>1135.4</ele>
        <time>2022-10-18T09:01:51Z</time>
      </trkpt>
      <trkpt lat="46.6301" lon="6.07458">
        <ele>1135.5</ele>
        <time>2022-10-18T09:01:56Z</time>
      </trkpt>
      <trkpt lat="46.63013" lon="6.07453">
        <ele>1135.2</ele>
        <time>2022-10-18T09:02:00Z</time>
      </trkpt>
      <trkpt lat="46.63017" lon="6.07448">
        <ele>1134.2</ele>
        <time>2022-10-18T09:02:06Z</time>
      </trkpt>
      <trkpt lat="46.6302" lon="6.07442">
        <ele>1133.1</ele>
        <time>2022-10-18T09:02:11Z</time>
      </trkpt>
      <trkpt lat="46.63023" lon="6.07437">
        <ele>1132.5</ele>
        <time>2022-10-18T09:02:15Z</time>
      </trkpt>
      <trkpt lat="46.63026" lon="6.07433">
        <ele>1131.6</ele>
        <time>2022-10-18T09:02:22Z</time>
      </trkpt>
      <trkpt lat="46.63027" lon="6.07427">
        <ele>1131.1</ele>
        <time>2022-10-18T09:02:28Z</time>
      </trkpt>
      <trkpt lat="46.63025" lon="6.0742">
        <ele>1130.9</ele>
        <time>2022-10-18T09:02:32Z</time>
      </trkpt>
      <trkpt lat="46.63025" lon="6.07412">
        <ele>1131</ele>
        <time>2022-10-18T09:02:38Z</time>
      </trkpt>
      <trkpt lat="46.63026" lon="6.07404">
        <ele>1130.9</ele>
        <time>2022-10-18T09:02:43Z</time>
      </trkpt>
      <trkpt lat="46.63026" lon="6.07398">
        <ele>1130.4</ele>
        <time>2022-10-18T09:02:50Z</time>
      </trkpt>
      <trkpt lat="46.6303" lon="6.07394">
        <ele>1129.3</ele>
        <time>2022-10-18T09:02:58Z</time>
      </trkpt>
      <trkpt lat="46.63035" lon="6.07392">
        <ele>1127</ele>
        <time>2022-10-18T09:03:06Z</time>
      </trkpt>
      <trkpt lat="46.63039" lon="6.07389">
        <ele>1125.4</ele>
        <time>2022-10-18T09:03:13Z</time>
      </trkpt>
      <trkpt lat="46.63044" lon="6.07385">
        <ele>1124.4</ele>
        <time>2022-10-18T09:03:19Z</time>
      </trkpt>
      <trkpt lat="46.63048" lon="6.07384">
        <ele>1124.1</ele>
        <time>2022-10-18T09:03:22Z</time>
      </trkpt>
      <trkpt lat="46.63053" lon="6.07384">
        <ele>1123.9</ele>
        <time>2022-10-18T09:03:26Z</time>
      </trkpt>
      <trkpt lat="46.63058" lon="6.07381">
        <ele>1123.7</ele>
        <time>2022-10-18T09:03:31Z</time>
      </trkpt>
      <trkpt lat="46.63063" lon="6.07378">
        <ele>1123.8</ele>
        <time>2022-10-18T09:03:35Z</time>
      </trkpt>
      <trkpt lat="46.63068" lon="6.07376">
        <ele>1123.2</ele>
        <time>2022-10-18T09:03:40Z</time>
      </trkpt>
      <trkpt lat="46.63072" lon="6.07374">
        <ele>1121.6</ele>
        <time>2022-10-18T09:03:45Z</time>
      </trkpt>
      <trkpt lat="46.63078" lon="6.07374">
        <ele>1119.5</ele>
        <time>2022-10-18T09:03:53Z</time>
      </trkpt>
      <trkpt lat="46.63083" lon="6.07374">
        <ele>1118.4</ele>
        <time>2022-10-18T09:03:59Z</time>
      </trkpt>
      <trkpt lat="46.63088" lon="6.07373">
        <ele>1118.4</ele>
        <time>2022-10-18T09:04:06Z</time>
      </trkpt>
      <trkpt lat="46.63093" lon="6.07373">
        <ele>1118.5</ele>
        <time>2022-10-18T09:04:10Z</time>
      </trkpt>
      <trkpt lat="46.63098" lon="6.07372">
        <ele>1118.2</ele>
        <time>2022-10-18T09:04:16Z</time>
      </trkpt>
      <trkpt lat="46.63103" lon="6.07372">
        <ele>1117.9</ele>
        <time>2022-10-18T09:04:23Z</time>
      </trkpt>
      <trkpt lat="46.63108" lon="6.07371">
        <ele>1117.3</ele>
        <time>2022-10-18T09:04:29Z</time>
      </trkpt>
      <trkpt lat="46.63114" lon="6.0737">
        <ele>1117.4</ele>
        <time>2022-10-18T09:04:33Z</time>
      </trkpt>
      <trkpt lat="46.63119" lon="6.07368">
        <ele>1118.1</ele>
        <time>2022-10-18T09:04:37Z</time>
      </trkpt>
      <trkpt lat="46.63123" lon="6.07366">
        <ele>1119.7</ele>
        <time>2022-10-18T09:04:45Z</time>
      </trkpt>
      <trkpt lat="46.63128" lon="6.07364">
        <ele>1120</ele>
        <time>2022-10-18T09:04:52Z</time>
      </trkpt>
      <trkpt lat="46.63132" lon="6.07363">
        <ele>1119.7</ele>
        <time>2022-10-18T09:04:57Z</time>
      </trkpt>
      <trkpt lat="46.63137" lon="6.07364">
        <ele>1118.8</ele>
        <time>2022-10-18T09:05:03Z</time>
      </trkpt>
      <trkpt lat="46.63142" lon="6.07363">
        <ele>1117.2</ele>
        <time>2022-10-18T09:05:10Z</time>
      </trkpt>
      <trkpt lat="46.63146" lon="6.07361">
        <ele>1116.7</ele>
        <time>2022-10-18T09:05:17Z</time>
      </trkpt>
      <trkpt lat="46.6315" lon="6.07357">
        <ele>1116.3</ele>
        <time>2022-10-18T09:05:22Z</time>
      </trkpt>
      <trkpt lat="46.63155" lon="6.07353">
        <ele>1116.1</ele>
        <time>2022-10-18T09:05:26Z</time>
      </trkpt>
      <trkpt lat="46.63156" lon="6.07346">
        <ele>1115.7</ele>
        <time>2022-10-18T09:05:31Z</time>
      </trkpt>
      <trkpt lat="46.63156" lon="6.07339">
        <ele>1115.2</ele>
        <time>2022-10-18T09:05:35Z</time>
      </trkpt>
      <trkpt lat="46.63157" lon="6.07332">
        <ele>1114.7</ele>
        <time>2022-10-18T09:05:40Z</time>
      </trkpt>
      <trkpt lat="46.63158" lon="6.07325">
        <ele>1114.6</ele>
        <time>2022-10-18T09:05:45Z</time>
      </trkpt>
      <trkpt lat="46.63162" lon="6.07319">
        <ele>1114.2</ele>
        <time>2022-10-18T09:05:51Z</time>
      </trkpt>
      <trkpt lat="46.63163" lon="6.07312">
        <ele>1114.7</ele>
        <time>2022-10-18T09:05:57Z</time>
      </trkpt>
      <trkpt lat="46.63166" lon="6.07306">
        <ele>1115.5</ele>
        <time>2022-10-18T09:06:03Z</time>
      </trkpt>
      <trkpt lat="46.63169" lon="6.07301">
        <ele>1115.2</ele>
        <time>2022-10-18T09:06:08Z</time>
      </trkpt>
      <trkpt lat="46.63173" lon="6.07296">
        <ele>1113.7</ele>
        <time>2022-10-18T09:06:14Z</time>
      </trkpt>
      <trkpt lat="46.63176" lon="6.07291">
        <ele>1112.1</ele>
        <time>2022-10-18T09:06:21Z</time>
      </trkpt>
      <trkpt lat="46.63181" lon="6.0729">
        <ele>1110.8</ele>
        <time>2022-10-18T09:06:28Z</time>
      </trkpt>
      <trkpt lat="46.63187" lon="6.07289">
        <ele>1109.6</ele>
        <time>2022-10-18T09:06:35Z</time>
      </trkpt>
      <trkpt lat="46.63191" lon="6.07289">
        <ele>1109.1</ele>
        <time>2022-10-18T09:06:39Z</time>
      </trkpt>
      <trkpt lat="46.63197" lon="6.0729">
        <ele>1109.4</ele>
        <time>2022-10-18T09:06:43Z</time>
      </trkpt>
      <trkpt lat="46.63201" lon="6.07292">
        <ele>1110.1</ele>
        <time>2022-10-18T09:06:47Z</time>
      </trkpt>
      <trkpt lat="46.63206" lon="6.07294">
        <ele>1111</ele>
        <time>2022-10-18T09:06:52Z</time>
      </trkpt>
      <trkpt lat="46.6321" lon="6.07299">
        <ele>1111.3</ele>
        <time>2022-10-18T09:06:57Z</time>
      </trkpt>
      <trkpt lat="46.63215" lon="6.07303">
        <ele>1111.5</ele>
        <time>2022-10-18T09:07:02Z</time>
      </trkpt>
      <trkpt lat="46.6322" lon="6.07311">
        <ele>1111.3</ele>
        <time>2022-10-18T09:07:15Z</time>
      </trkpt>
      <trkpt lat="46.63224" lon="6.07315">
        <ele>1110.7</ele>
        <time>2022-10-18T09:07:19Z</time>
      </trkpt>
      <trkpt lat="46.63231" lon="6.07316">
        <ele>1109.8</ele>
        <time>2022-10-18T09:07:28Z</time>
      </trkpt>
      <trkpt lat="46.63237" lon="6.07317">
        <ele>1109.2</ele>
        <time>2022-10-18T09:07:31Z</time>
      </trkpt>
      <trkpt lat="46.63242" lon="6.0732">
        <ele>1108.7</ele>
        <time>2022-10-18T09:07:35Z</time>
      </trkpt>
      <trkpt lat="46.63245" lon="6.07326">
        <ele>1108.2</ele>
        <time>2022-10-18T09:07:40Z</time>
      </trkpt>
      <trkpt lat="46.6325" lon="6.07328">
        <ele>1108.1</ele>
        <time>2022-10-18T09:07:45Z</time>
      </trkpt>
      <trkpt lat="46.63254" lon="6.07332">
        <ele>1108</ele>
        <time>2022-10-18T09:07:51Z</time>
      </trkpt>
      <trkpt lat="46.63257" lon="6.07337">
        <ele>1108.2</ele>
        <time>2022-10-18T09:07:58Z</time>
      </trkpt>
      <trkpt lat="46.63261" lon="6.07342">
        <ele>1107.1</ele>
        <time>2022-10-18T09:08:07Z</time>
      </trkpt>
      <trkpt lat="46.63265" lon="6.07344">
        <ele>1107.2</ele>
        <time>2022-10-18T09:08:13Z</time>
      </trkpt>
      <trkpt lat="46.6327" lon="6.07348">
        <ele>1108.3</ele>
        <time>2022-10-18T09:08:20Z</time>
      </trkpt>
      <trkpt lat="46.63275" lon="6.07349">
        <ele>1109.5</ele>
        <time>2022-10-18T09:08:25Z</time>
      </trkpt>
      <trkpt lat="46.63279" lon="6.07351">
        <ele>1110.8</ele>
        <time>2022-10-18T09:08:31Z</time>
      </trkpt>
      <trkpt lat="46.63284" lon="6.07354">
        <ele>1110.9</ele>
        <time>2022-10-18T09:08:35Z</time>
      </trkpt>
      <trkpt lat="46.63289" lon="6.07357">
        <ele>1110.9</ele>
        <time>2022-10-18T09:08:39Z</time>
      </trkpt>
      <trkpt lat="46.63294" lon="6.07358">
        <ele>1110.8</ele>
        <time>2022-10-18T09:08:43Z</time>
      </trkpt>
      <trkpt lat="46.63298" lon="6.07361">
        <ele>1109.9</ele>
        <time>2022-10-18T09:08:51Z</time>
      </trkpt>
      <trkpt lat="46.63303" lon="6.07362">
        <ele>1110.3</ele>
        <time>2022-10-18T09:09:00Z</time>
      </trkpt>
      <trkpt lat="46.63307" lon="6.07364">
        <ele>1110.4</ele>
        <time>2022-10-18T09:09:05Z</time>
      </trkpt>
      <trkpt lat="46.63312" lon="6.07365">
        <ele>1110.8</ele>
        <time>2022-10-18T09:09:11Z</time>
      </trkpt>
      <trkpt lat="46.63316" lon="6.07367">
        <ele>1110.5</ele>
        <time>2022-10-18T09:09:19Z</time>
      </trkpt>
      <trkpt lat="46.6332" lon="6.0737">
        <ele>1109.2</ele>
        <time>2022-10-18T09:09:25Z</time>
      </trkpt>
      <trkpt lat="46.63325" lon="6.07373">
        <ele>1108.3</ele>
        <time>2022-10-18T09:09:30Z</time>
      </trkpt>
      <trkpt lat="46.63329" lon="6.07375">
        <ele>1107.4</ele>
        <time>2022-10-18T09:09:37Z</time>
      </trkpt>
      <trkpt lat="46.63333" lon="6.07371">
        <ele>1106.4</ele>
        <time>2022-10-18T09:09:44Z</time>
      </trkpt>
      <trkpt lat="46.63337" lon="6.07366">
        <ele>1104.5</ele>
        <time>2022-10-18T09:09:50Z</time>
      </trkpt>
      <trkpt lat="46.63338" lon="6.07359">
        <ele>1103.2</ele>
        <time>2022-10-18T09:09:56Z</time>
      </trkpt>
      <trkpt lat="46.63339" lon="6.07352">
        <ele>1102.7</ele>
        <time>2022-10-18T09:10:02Z</time>
      </trkpt>
      <trkpt lat="46.63341" lon="6.07345">
        <ele>1102.4</ele>
        <time>2022-10-18T09:10:09Z</time>
      </trkpt>
      <trkpt lat="46.63344" lon="6.0734">
        <ele>1102</ele>
        <time>2022-10-18T09:10:15Z</time>
      </trkpt>
      <trkpt lat="46.63348" lon="6.07336">
        <ele>1101.4</ele>
        <time>2022-10-18T09:10:20Z</time>
      </trkpt>
      <trkpt lat="46.63352" lon="6.07333">
        <ele>1100.3</ele>
        <time>2022-10-18T09:10:26Z</time>
      </trkpt>
      <trkpt lat="46.63355" lon="6.07327">
        <ele>1098.3</ele>
        <time>2022-10-18T09:10:34Z</time>
      </trkpt>
      <trkpt lat="46.63359" lon="6.07323">
        <ele>1096.4</ele>
        <time>2022-10-18T09:10:40Z</time>
      </trkpt>
      <trkpt lat="46.63362" lon="6.07318">
        <ele>1094.5</ele>
        <time>2022-10-18T09:10:47Z</time>
      </trkpt>
      <trkpt lat="46.63364" lon="6.07312">
        <ele>1093.3</ele>
        <time>2022-10-18T09:10:52Z</time>
      </trkpt>
      <trkpt lat="46.63368" lon="6.07307">
        <ele>1092.4</ele>
        <time>2022-10-18T09:10:57Z</time>
      </trkpt>
      <trkpt lat="46.63371" lon="6.07302">
        <ele>1091.8</ele>
        <time>2022-10-18T09:11:03Z</time>
      </trkpt>
      <trkpt lat="46.63373" lon="6.07293">
        <ele>1091.6</ele>
        <time>2022-10-18T09:11:15Z</time>
      </trkpt>
      <trkpt lat="46.63375" lon="6.07287">
        <ele>1090.7</ele>
        <time>2022-10-18T09:11:21Z</time>
      </trkpt>
      <trkpt lat="46.63378" lon="6.07282">
        <ele>1089.5</ele>
        <time>2022-10-18T09:11:26Z</time>
      </trkpt>
      <trkpt lat="46.6338" lon="6.07275">
        <ele>1088.8</ele>
        <time>2022-10-18T09:11:31Z</time>
      </trkpt>
      <trkpt lat="46.63383" lon="6.0727">
        <ele>1087.2</ele>
        <time>2022-10-18T09:11:40Z</time>
      </trkpt>
      <trkpt lat="46.63387" lon="6.07262">
        <ele>1085.1</ele>
        <time>2022-10-18T09:11:55Z</time>
      </trkpt>
      <trkpt lat="46.63391" lon="6.07258">
        <ele>1085.3</ele>
        <time>2022-10-18T09:11:59Z</time>
      </trkpt>
      <trkpt lat="46.63396" lon="6.07257">
        <ele>1086.2</ele>
        <time>2022-10-18T09:12:05Z</time>
      </trkpt>
      <trkpt lat="46.634" lon="6.07253">
        <ele>1086.9</ele>
        <time>2022-10-18T09:12:11Z</time>
      </trkpt>
      <trkpt lat="46.63405" lon="6.07251">
        <ele>1087.7</ele>
        <time>2022-10-18T09:12:17Z</time>
      </trkpt>
      <trkpt lat="46.6341" lon="6.07249">
        <ele>1088</ele>
        <time>2022-10-18T09:12:21Z</time>
      </trkpt>
      <trkpt lat="46.63415" lon="6.07247">
        <ele>1087.9</ele>
        <time>2022-10-18T09:12:26Z</time>
      </trkpt>
      <trkpt lat="46.63418" lon="6.07243">
        <ele>1087.2</ele>
        <time>2022-10-18T09:12:31Z</time>
      </trkpt>
      <trkpt lat="46.63422" lon="6.07236">
        <ele>1086.2</ele>
        <time>2022-10-18T09:12:37Z</time>
      </trkpt>
      <trkpt lat="46.63423" lon="6.0723">
        <ele>1085.8</ele>
        <time>2022-10-18T09:12:43Z</time>
      </trkpt>
      <trkpt lat="46.63426" lon="6.07224">
        <ele>1084.9</ele>
        <time>2022-10-18T09:12:52Z</time>
      </trkpt>
      <trkpt lat="46.63428" lon="6.07218">
        <ele>1083.3</ele>
        <time>2022-10-18T09:12:59Z</time>
      </trkpt>
      <trkpt lat="46.6343" lon="6.07212">
        <ele>1082.4</ele>
        <time>2022-10-18T09:13:04Z</time>
      </trkpt>
      <trkpt lat="46.63431" lon="6.07205">
        <ele>1082.1</ele>
        <time>2022-10-18T09:13:08Z</time>
      </trkpt>
      <trkpt lat="46.63432" lon="6.07198">
        <ele>1081.6</ele>
        <time>2022-10-18T09:13:12Z</time>
      </trkpt>
      <trkpt lat="46.63434" lon="6.07191">
        <ele>1081.4</ele>
        <time>2022-10-18T09:13:18Z</time>
      </trkpt>
      <trkpt lat="46.63435" lon="6.07185">
        <ele>1078.7</ele>
        <time>2022-10-18T09:13:30Z</time>
      </trkpt>
      <trkpt lat="46.63434" lon="6.07178">
        <ele>1076.9</ele>
        <time>2022-10-18T09:13:35Z</time>
      </trkpt>
      <trkpt lat="46.63434" lon="6.0717">
        <ele>1075.2</ele>
        <time>2022-10-18T09:13:39Z</time>
      </trkpt>
      <trkpt lat="46.63433" lon="6.07163">
        <ele>1073.3</ele>
        <time>2022-10-18T09:13:43Z</time>
      </trkpt>
      <trkpt lat="46.63435" lon="6.07157">
        <ele>1071.4</ele>
        <time>2022-10-18T09:13:49Z</time>
      </trkpt>
      <trkpt lat="46.63439" lon="6.07154">
        <ele>1070.3</ele>
        <time>2022-10-18T09:14:02Z</time>
      </trkpt>
      <trkpt lat="46.63441" lon="6.07159">
        <ele>1068.2</ele>
        <time>2022-10-18T09:14:54Z</time>
      </trkpt>
      <trkpt lat="46.63446" lon="6.07159">
        <ele>1067.3</ele>
        <time>2022-10-18T09:15:02Z</time>
      </trkpt>
      <trkpt lat="46.63451" lon="6.07158">
        <ele>1067.1</ele>
        <time>2022-10-18T09:15:07Z</time>
      </trkpt>
      <trkpt lat="46.63456" lon="6.07157">
        <ele>1068.1</ele>
        <time>2022-10-18T09:15:13Z</time>
      </trkpt>
      <trkpt lat="46.63461" lon="6.07154">
        <ele>1068.8</ele>
        <time>2022-10-18T09:15:20Z</time>
      </trkpt>
      <trkpt lat="46.63466" lon="6.07152">
        <ele>1068.5</ele>
        <time>2022-10-18T09:15:25Z</time>
      </trkpt>
      <trkpt lat="46.6347" lon="6.07151">
        <ele>1067.4</ele>
        <time>2022-10-18T09:15:30Z</time>
      </trkpt>
      <trkpt lat="46.63475" lon="6.07151">
        <ele>1065.8</ele>
        <time>2022-10-18T09:15:35Z</time>
      </trkpt>
      <trkpt lat="46.6348" lon="6.07149">
        <ele>1064.4</ele>
        <time>2022-10-18T09:15:41Z</time>
      </trkpt>
      <trkpt lat="46.63485" lon="6.0715">
        <ele>1064.1</ele>
        <time>2022-10-18T09:15:47Z</time>
      </trkpt>
      <trkpt lat="46.6349" lon="6.07151">
        <ele>1063.6</ele>
        <time>2022-10-18T09:15:55Z</time>
      </trkpt>
      <trkpt lat="46.63496" lon="6.0715">
        <ele>1063.9</ele>
        <time>2022-10-18T09:16:00Z</time>
      </trkpt>
      <trkpt lat="46.635" lon="6.07149">
        <ele>1064.3</ele>
        <time>2022-10-18T09:16:04Z</time>
      </trkpt>
      <trkpt lat="46.63505" lon="6.07147">
        <ele>1065.3</ele>
        <time>2022-10-18T09:16:11Z</time>
      </trkpt>
      <trkpt lat="46.6351" lon="6.07146">
        <ele>1065.3</ele>
        <time>2022-10-18T09:16:17Z</time>
      </trkpt>
      <trkpt lat="46.63515" lon="6.07145">
        <ele>1065.1</ele>
        <time>2022-10-18T09:16:22Z</time>
      </trkpt>
      <trkpt lat="46.6352" lon="6.07146">
        <ele>1065.1</ele>
        <time>2022-10-18T09:16:26Z</time>
      </trkpt>
      <trkpt lat="46.63524" lon="6.07146">
        <ele>1065.4</ele>
        <time>2022-10-18T09:16:30Z</time>
      </trkpt>
      <trkpt lat="46.63529" lon="6.07145">
        <ele>1066</ele>
        <time>2022-10-18T09:16:35Z</time>
      </trkpt>
      <trkpt lat="46.63534" lon="6.07147">
        <ele>1066.6</ele>
        <time>2022-10-18T09:16:40Z</time>
      </trkpt>
      <trkpt lat="46.63538" lon="6.0715">
        <ele>1066.9</ele>
        <time>2022-10-18T09:16:44Z</time>
      </trkpt>
      <trkpt lat="46.63541" lon="6.07156">
        <ele>1067</ele>
        <time>2022-10-18T09:16:49Z</time>
      </trkpt>
      <trkpt lat="46.63543" lon="6.07163">
        <ele>1067</ele>
        <time>2022-10-18T09:16:54Z</time>
      </trkpt>
      <trkpt lat="46.63547" lon="6.07169">
        <ele>1067</ele>
        <time>2022-10-18T09:16:58Z</time>
      </trkpt>
      <trkpt lat="46.6355" lon="6.07175">
        <ele>1067</ele>
        <time>2022-10-18T09:17:02Z</time>
      </trkpt>
      <trkpt lat="46.63553" lon="6.07181">
        <ele>1067.1</ele>
        <time>2022-10-18T09:17:07Z</time>
      </trkpt>
      <trkpt lat="46.63556" lon="6.07186">
        <ele>1066.6</ele>
        <time>2022-10-18T09:17:12Z</time>
      </trkpt>
      <trkpt lat="46.6356" lon="6.07191">
        <ele>1066</ele>
        <time>2022-10-18T09:17:17Z</time>
      </trkpt>
      <trkpt lat="46.63563" lon="6.07196">
        <ele>1065.3</ele>
        <time>2022-10-18T09:17:23Z</time>
      </trkpt>
      <trkpt lat="46.63568" lon="6.07199">
        <ele>1064.5</ele>
        <time>2022-10-18T09:17:28Z</time>
      </trkpt>
      <trkpt lat="46.63572" lon="6.07202">
        <ele>1064.1</ele>
        <time>2022-10-18T09:17:35Z</time>
      </trkpt>
      <trkpt lat="46.63577" lon="6.072">
        <ele>1064.6</ele>
        <time>2022-10-18T09:17:40Z</time>
      </trkpt>
      <trkpt lat="46.63582" lon="6.072">
        <ele>1065</ele>
        <time>2022-10-18T09:17:44Z</time>
      </trkpt>
      <trkpt lat="46.63586" lon="6.072">
        <ele>1065.1</ele>
        <time>2022-10-18T09:17:48Z</time>
      </trkpt>
      <trkpt lat="46.63592" lon="6.07199">
        <ele>1064.9</ele>
        <time>2022-10-18T09:17:53Z</time>
      </trkpt>
      <trkpt lat="46.63596" lon="6.072">
        <ele>1064.5</ele>
        <time>2022-10-18T09:17:59Z</time>
      </trkpt>
      <trkpt lat="46.63601" lon="6.07195">
        <ele>1063.8</ele>
        <time>2022-10-18T09:18:04Z</time>
      </trkpt>
      <trkpt lat="46.63606" lon="6.07197">
        <ele>1063</ele>
        <time>2022-10-18T09:18:09Z</time>
      </trkpt>
      <trkpt lat="46.6361" lon="6.07201">
        <ele>1062.6</ele>
        <time>2022-10-18T09:18:12Z</time>
      </trkpt>
      <trkpt lat="46.63615" lon="6.072">
        <ele>1061.3</ele>
        <time>2022-10-18T09:18:20Z</time>
      </trkpt>
      <trkpt lat="46.63618" lon="6.07194">
        <ele>1060.2</ele>
        <time>2022-10-18T09:18:25Z</time>
      </trkpt>
      <trkpt lat="46.63619" lon="6.07184">
        <ele>1059.8</ele>
        <time>2022-10-18T09:18:28Z</time>
      </trkpt>
      <trkpt lat="46.63622" lon="6.07174">
        <ele>1059.4</ele>
        <time>2022-10-18T09:18:31Z</time>
      </trkpt>
      <trkpt lat="46.63623" lon="6.07167">
        <ele>1058.9</ele>
        <time>2022-10-18T09:18:34Z</time>
      </trkpt>
      <trkpt lat="46.63625" lon="6.07158">
        <ele>1057.9</ele>
        <time>2022-10-18T09:18:38Z</time>
      </trkpt>
      <trkpt lat="46.63626" lon="6.07152">
        <ele>1057</ele>
        <time>2022-10-18T09:18:42Z</time>
      </trkpt>
      <trkpt lat="46.63629" lon="6.07146">
        <ele>1056.3</ele>
        <time>2022-10-18T09:18:47Z</time>
      </trkpt>
      <trkpt lat="46.63631" lon="6.0714">
        <ele>1055.6</ele>
        <time>2022-10-18T09:18:53Z</time>
      </trkpt>
      <trkpt lat="46.63633" lon="6.07132">
        <ele>1055</ele>
        <time>2022-10-18T09:18:58Z</time>
      </trkpt>
      <trkpt lat="46.63637" lon="6.07127">
        <ele>1054.8</ele>
        <time>2022-10-18T09:19:03Z</time>
      </trkpt>
      <trkpt lat="46.63641" lon="6.0713">
        <ele>1054.7</ele>
        <time>2022-10-18T09:19:16Z</time>
      </trkpt>
      <trkpt lat="46.63644" lon="6.07136">
        <ele>1054.8</ele>
        <time>2022-10-18T09:19:19Z</time>
      </trkpt>
      <trkpt lat="46.63645" lon="6.07142">
        <ele>1055.5</ele>
        <time>2022-10-18T09:19:24Z</time>
      </trkpt>
      <trkpt lat="46.63645" lon="6.07149">
        <ele>1057.2</ele>
        <time>2022-10-18T09:19:30Z</time>
      </trkpt>
      <trkpt lat="46.63647" lon="6.07155">
        <ele>1058.6</ele>
        <time>2022-10-18T09:19:35Z</time>
      </trkpt>
      <trkpt lat="46.63651" lon="6.07158">
        <ele>1060.8</ele>
        <time>2022-10-18T09:19:46Z</time>
      </trkpt>
      <trkpt lat="46.63655" lon="6.07161">
        <ele>1060.9</ele>
        <time>2022-10-18T09:19:51Z</time>
      </trkpt>
      <trkpt lat="46.6366" lon="6.07162">
        <ele>1061</ele>
        <time>2022-10-18T09:19:56Z</time>
      </trkpt>
      <trkpt lat="46.63665" lon="6.07162">
        <ele>1060.9</ele>
        <time>2022-10-18T09:20:01Z</time>
      </trkpt>
      <trkpt lat="46.6367" lon="6.07159">
        <ele>1060.8</ele>
        <time>2022-10-18T09:20:08Z</time>
      </trkpt>
      <trkpt lat="46.63674" lon="6.07156">
        <ele>1060.5</ele>
        <time>2022-10-18T09:20:13Z</time>
      </trkpt>
      <trkpt lat="46.63678" lon="6.07152">
        <ele>1060.3</ele>
        <time>2022-10-18T09:20:19Z</time>
      </trkpt>
      <trkpt lat="46.63682" lon="6.07147">
        <ele>1060.4</ele>
        <time>2022-10-18T09:20:24Z</time>
      </trkpt>
      <trkpt lat="46.63687" lon="6.07143">
        <ele>1060.2</ele>
        <time>2022-10-18T09:20:29Z</time>
      </trkpt>
      <trkpt lat="46.63691" lon="6.07141">
        <ele>1060</ele>
        <time>2022-10-18T09:20:33Z</time>
      </trkpt>
      <trkpt lat="46.63695" lon="6.07144">
        <ele>1059.7</ele>
        <time>2022-10-18T09:20:37Z</time>
      </trkpt>
      <trkpt lat="46.637" lon="6.07146">
        <ele>1059</ele>
        <time>2022-10-18T09:20:43Z</time>
      </trkpt>
      <trkpt lat="46.63705" lon="6.07148">
        <ele>1058.5</ele>
        <time>2022-10-18T09:20:48Z</time>
      </trkpt>
      <trkpt lat="46.63708" lon="6.07153">
        <ele>1058.2</ele>
        <time>2022-10-18T09:20:52Z</time>
      </trkpt>
      <trkpt lat="46.63712" lon="6.07158">
        <ele>1057.9</ele>
        <time>2022-10-18T09:20:57Z</time>
      </trkpt>
      <trkpt lat="46.63714" lon="6.07164">
        <ele>1057.4</ele>
        <time>2022-10-18T09:21:06Z</time>
      </trkpt>
      <trkpt lat="46.63715" lon="6.07172">
        <ele>1056.8</ele>
        <time>2022-10-18T09:21:11Z</time>
      </trkpt>
      <trkpt lat="46.63714" lon="6.07178">
        <ele>1056.5</ele>
        <time>2022-10-18T09:21:15Z</time>
      </trkpt>
      <trkpt lat="46.63714" lon="6.07186">
        <ele>1056.5</ele>
        <time>2022-10-18T09:21:20Z</time>
      </trkpt>
      <trkpt lat="46.63711" lon="6.07192">
        <ele>1056.5</ele>
        <time>2022-10-18T09:21:24Z</time>
      </trkpt>
      <trkpt lat="46.63708" lon="6.07197">
        <ele>1056.6</ele>
        <time>2022-10-18T09:21:28Z</time>
      </trkpt>
      <trkpt lat="46.63705" lon="6.07203">
        <ele>1056.8</ele>
        <time>2022-10-18T09:21:32Z</time>
      </trkpt>
      <trkpt lat="46.63703" lon="6.07209">
        <ele>1057.5</ele>
        <time>2022-10-18T09:21:38Z</time>
      </trkpt>
      <trkpt lat="46.63701" lon="6.07221">
        <ele>1059.4</ele>
        <time>2022-10-18T09:22:03Z</time>
      </trkpt>
      <trkpt lat="46.637" lon="6.0723">
        <ele>1059.1</ele>
        <time>2022-10-18T09:22:06Z</time>
      </trkpt>
      <trkpt lat="46.637" lon="6.07237">
        <ele>1059.2</ele>
        <time>2022-10-18T09:22:12Z</time>
      </trkpt>
      <trkpt lat="46.63699" lon="6.07244">
        <ele>1059.8</ele>
        <time>2022-10-18T09:22:17Z</time>
      </trkpt>
      <trkpt lat="46.63697" lon="6.0725">
        <ele>1060.5</ele>
        <time>2022-10-18T09:22:22Z</time>
      </trkpt>
      <trkpt lat="46.63695" lon="6.07257">
        <ele>1060.9</ele>
        <time>2022-10-18T09:22:30Z</time>
      </trkpt>
      <trkpt lat="46.63692" lon="6.07261">
        <ele>1061.1</ele>
        <time>2022-10-18T09:22:36Z</time>
      </trkpt>
      <trkpt lat="46.63691" lon="6.07268">
        <ele>1062.1</ele>
        <time>2022-10-18T09:22:45Z</time>
      </trkpt>
      <trkpt lat="46.63687" lon="6.07274">
        <ele>1063.2</ele>
        <time>2022-10-18T09:22:52Z</time>
      </trkpt>
      <trkpt lat="46.63684" lon="6.07279">
        <ele>1063.5</ele>
        <time>2022-10-18T09:22:57Z</time>
      </trkpt>
      <trkpt lat="46.63684" lon="6.07286">
        <ele>1064.3</ele>
        <time>2022-10-18T09:23:04Z</time>
      </trkpt>
      <trkpt lat="46.6368" lon="6.07291">
        <ele>1066.2</ele>
        <time>2022-10-18T09:23:13Z</time>
      </trkpt>
      <trkpt lat="46.63676" lon="6.07296">
        <ele>1067</ele>
        <time>2022-10-18T09:23:20Z</time>
      </trkpt>
      <trkpt lat="46.63674" lon="6.07302">
        <ele>1067.2</ele>
        <time>2022-10-18T09:23:28Z</time>
      </trkpt>
      <trkpt lat="46.63674" lon="6.07309">
        <ele>1066.9</ele>
        <time>2022-10-18T09:23:35Z</time>
      </trkpt>
      <trkpt lat="46.63674" lon="6.07315">
        <ele>1066.3</ele>
        <time>2022-10-18T09:23:41Z</time>
      </trkpt>
      <trkpt lat="46.63674" lon="6.07323">
        <ele>1065.8</ele>
        <time>2022-10-18T09:23:47Z</time>
      </trkpt>
      <trkpt lat="46.63674" lon="6.0733">
        <ele>1065.8</ele>
        <time>2022-10-18T09:23:52Z</time>
      </trkpt>
      <trkpt lat="46.6367" lon="6.07338">
        <ele>1069.3</ele>
        <time>2022-10-18T09:24:08Z</time>
      </trkpt>
      <trkpt lat="46.63666" lon="6.07342">
        <ele>1070.6</ele>
        <time>2022-10-18T09:24:12Z</time>
      </trkpt>
      <trkpt lat="46.63665" lon="6.07349">
        <ele>1071.9</ele>
        <time>2022-10-18T09:24:19Z</time>
      </trkpt>
      <trkpt lat="46.63663" lon="6.07355">
        <ele>1072.4</ele>
        <time>2022-10-18T09:24:24Z</time>
      </trkpt>
      <trkpt lat="46.63659" lon="6.07359">
        <ele>1073.1</ele>
        <time>2022-10-18T09:24:31Z</time>
      </trkpt>
      <trkpt lat="46.63654" lon="6.07361">
        <ele>1073.2</ele>
        <time>2022-10-18T09:24:35Z</time>
      </trkpt>
      <trkpt lat="46.6365" lon="6.07364">
        <ele>1073.3</ele>
        <time>2022-10-18T09:24:39Z</time>
      </trkpt>
      <trkpt lat="46.63646" lon="6.07368">
        <ele>1073.3</ele>
        <time>2022-10-18T09:24:44Z</time>
      </trkpt>
      <trkpt lat="46.63646" lon="6.07375">
        <ele>1073.4</ele>
        <time>2022-10-18T09:24:51Z</time>
      </trkpt>
      <trkpt lat="46.63643" lon="6.07381">
        <ele>1073.6</ele>
        <time>2022-10-18T09:24:57Z</time>
      </trkpt>
      <trkpt lat="46.63641" lon="6.07387">
        <ele>1073.3</ele>
        <time>2022-10-18T09:25:02Z</time>
      </trkpt>
      <trkpt lat="46.6364" lon="6.07394">
        <ele>1073</ele>
        <time>2022-10-18T09:25:07Z</time>
      </trkpt>
      <trkpt lat="46.63639" lon="6.07402">
        <ele>1072.7</ele>
        <time>2022-10-18T09:25:12Z</time>
      </trkpt>
      <trkpt lat="46.6364" lon="6.07409">
        <ele>1072.4</ele>
        <time>2022-10-18T09:25:20Z</time>
      </trkpt>
      <trkpt lat="46.63639" lon="6.07415">
        <ele>1071.8</ele>
        <time>2022-10-18T09:25:26Z</time>
      </trkpt>
      <trkpt lat="46.63637" lon="6.07422">
        <ele>1071.1</ele>
        <time>2022-10-18T09:25:34Z</time>
      </trkpt>
      <trkpt lat="46.63634" lon="6.07429">
        <ele>1070.8</ele>
        <time>2022-10-18T09:25:39Z</time>
      </trkpt>
      <trkpt lat="46.63634" lon="6.07436">
        <ele>1071</ele>
        <time>2022-10-18T09:25:43Z</time>
      </trkpt>
      <trkpt lat="46.63634" lon="6.07442">
        <ele>1071.8</ele>
        <time>2022-10-18T09:25:48Z</time>
      </trkpt>
      <trkpt lat="46.63633" lon="6.0745">
        <ele>1072.3</ele>
        <time>2022-10-18T09:25:54Z</time>
      </trkpt>
      <trkpt lat="46.63635" lon="6.07456">
        <ele>1072.4</ele>
        <time>2022-10-18T09:25:58Z</time>
      </trkpt>
      <trkpt lat="46.63638" lon="6.07462">
        <ele>1072</ele>
        <time>2022-10-18T09:26:04Z</time>
      </trkpt>
      <trkpt lat="46.63641" lon="6.07466">
        <ele>1071.6</ele>
        <time>2022-10-18T09:26:09Z</time>
      </trkpt>
      <trkpt lat="46.63642" lon="6.07473">
        <ele>1071</ele>
        <time>2022-10-18T09:26:17Z</time>
      </trkpt>
      <trkpt lat="46.63643" lon="6.0748">
        <ele>1070.5</ele>
        <time>2022-10-18T09:26:24Z</time>
      </trkpt>
      <trkpt lat="46.63647" lon="6.07485">
        <ele>1070.8</ele>
        <time>2022-10-18T09:26:30Z</time>
      </trkpt>
      <trkpt lat="46.63652" lon="6.07488">
        <ele>1071.4</ele>
        <time>2022-10-18T09:26:35Z</time>
      </trkpt>
      <trkpt lat="46.63656" lon="6.07492">
        <ele>1071.8</ele>
        <time>2022-10-18T09:26:43Z</time>
      </trkpt>
      <trkpt lat="46.63659" lon="6.07498">
        <ele>1070.8</ele>
        <time>2022-10-18T09:26:54Z</time>
      </trkpt>
      <trkpt lat="46.63661" lon="6.07504">
        <ele>1069.7</ele>
        <time>2022-10-18T09:27:02Z</time>
      </trkpt>
      <trkpt lat="46.63664" lon="6.07509">
        <ele>1068.9</ele>
        <time>2022-10-18T09:27:07Z</time>
      </trkpt>
      <trkpt lat="46.63667" lon="6.07515">
        <ele>1068</ele>
        <time>2022-10-18T09:27:14Z</time>
      </trkpt>
      <trkpt lat="46.63668" lon="6.07522">
        <ele>1067.6</ele>
        <time>2022-10-18T09:27:19Z</time>
      </trkpt>
      <trkpt lat="46.63669" lon="6.0753">
        <ele>1066.3</ele>
        <time>2022-10-18T09:27:25Z</time>
      </trkpt>
      <trkpt lat="46.63669" lon="6.07536">
        <ele>1065.2</ele>
        <time>2022-10-18T09:27:30Z</time>
      </trkpt>
      <trkpt lat="46.6367" lon="6.07543">
        <ele>1064.4</ele>
        <time>2022-10-18T09:27:35Z</time>
      </trkpt>
      <trkpt lat="46.63672" lon="6.0755">
        <ele>1063.6</ele>
        <time>2022-10-18T09:27:39Z</time>
      </trkpt>
      <trkpt lat="46.63674" lon="6.07556">
        <ele>1062.8</ele>
        <time>2022-10-18T09:27:44Z</time>
      </trkpt>
      <trkpt lat="46.63676" lon="6.07562">
        <ele>1065.1</ele>
        <time>2022-10-18T09:28:02Z</time>
      </trkpt>
      <trkpt lat="46.63681" lon="6.07565">
        <ele>1066.1</ele>
        <time>2022-10-18T09:28:08Z</time>
      </trkpt>
      <trkpt lat="46.63686" lon="6.07564">
        <ele>1066.4</ele>
        <time>2022-10-18T09:28:12Z</time>
      </trkpt>
      <trkpt lat="46.63691" lon="6.07564">
        <ele>1066.7</ele>
        <time>2022-10-18T09:28:17Z</time>
      </trkpt>
      <trkpt lat="46.63697" lon="6.07568">
        <ele>1066.6</ele>
        <time>2022-10-18T09:28:40Z</time>
      </trkpt>
      <trkpt lat="46.63702" lon="6.07568">
        <ele>1065.3</ele>
        <time>2022-10-18T09:28:44Z</time>
      </trkpt>
      <trkpt lat="46.63707" lon="6.07569">
        <ele>1062.8</ele>
        <time>2022-10-18T09:28:50Z</time>
      </trkpt>
      <trkpt lat="46.63712" lon="6.0757">
        <ele>1060</ele>
        <time>2022-10-18T09:28:57Z</time>
      </trkpt>
      <trkpt lat="46.63717" lon="6.07572">
        <ele>1058.5</ele>
        <time>2022-10-18T09:29:01Z</time>
      </trkpt>
      <trkpt lat="46.63721" lon="6.07575">
        <ele>1057.2</ele>
        <time>2022-10-18T09:29:05Z</time>
      </trkpt>
      <trkpt lat="46.63724" lon="6.0758">
        <ele>1055.4</ele>
        <time>2022-10-18T09:29:12Z</time>
      </trkpt>
      <trkpt lat="46.63728" lon="6.07584">
        <ele>1054.1</ele>
        <time>2022-10-18T09:29:19Z</time>
      </trkpt>
      <trkpt lat="46.63731" lon="6.0759">
        <ele>1052.7</ele>
        <time>2022-10-18T09:29:26Z</time>
      </trkpt>
      <trkpt lat="46.63733" lon="6.07596">
        <ele>1052.2</ele>
        <time>2022-10-18T09:29:30Z</time>
      </trkpt>
      <trkpt lat="46.63738" lon="6.07599">
        <ele>1051.1</ele>
        <time>2022-10-18T09:29:37Z</time>
      </trkpt>
      <trkpt lat="46.63742" lon="6.07604">
        <ele>1049.8</ele>
        <time>2022-10-18T09:29:48Z</time>
      </trkpt>
      <trkpt lat="46.63744" lon="6.07612">
        <ele>1048.8</ele>
        <time>2022-10-18T09:29:52Z</time>
      </trkpt>
      <trkpt lat="46.63747" lon="6.07617">
        <ele>1045.8</ele>
        <time>2022-10-18T09:29:58Z</time>
      </trkpt>
      <trkpt lat="46.63751" lon="6.0762">
        <ele>1044.1</ele>
        <time>2022-10-18T09:30:04Z</time>
      </trkpt>
      <trkpt lat="46.63753" lon="6.07628">
        <ele>1043.6</ele>
        <time>2022-10-18T09:30:08Z</time>
      </trkpt>
      <trkpt lat="46.63755" lon="6.07634">
        <ele>1042.9</ele>
        <time>2022-10-18T09:30:13Z</time>
      </trkpt>
      <trkpt lat="46.6376" lon="6.07639">
        <ele>1043.2</ele>
        <time>2022-10-18T09:30:17Z</time>
      </trkpt>
      <trkpt lat="46.63765" lon="6.07643">
        <ele>1044.2</ele>
        <time>2022-10-18T09:30:21Z</time>
      </trkpt>
      <trkpt lat="46.6377" lon="6.07646">
        <ele>1046</ele>
        <time>2022-10-18T09:30:26Z</time>
      </trkpt>
      <trkpt lat="46.63774" lon="6.07649">
        <ele>1047.5</ele>
        <time>2022-10-18T09:30:32Z</time>
      </trkpt>
      <trkpt lat="46.63779" lon="6.07651">
        <ele>1048.2</ele>
        <time>2022-10-18T09:30:39Z</time>
      </trkpt>
      <trkpt lat="46.63784" lon="6.07651">
        <ele>1050.6</ele>
        <time>2022-10-18T09:30:48Z</time>
      </trkpt>
      <trkpt lat="46.63788" lon="6.07649">
        <ele>1051.4</ele>
        <time>2022-10-18T09:30:51Z</time>
      </trkpt>
      <trkpt lat="46.63794" lon="6.07647">
        <ele>1051.8</ele>
        <time>2022-10-18T09:30:54Z</time>
      </trkpt>
      <trkpt lat="46.63799" lon="6.07645">
        <ele>1052</ele>
        <time>2022-10-18T09:30:57Z</time>
      </trkpt>
      <trkpt lat="46.63804" lon="6.07643">
        <ele>1051.5</ele>
        <time>2022-10-18T09:31:00Z</time>
      </trkpt>
      <trkpt lat="46.63809" lon="6.07641">
        <ele>1050.8</ele>
        <time>2022-10-18T09:31:04Z</time>
      </trkpt>
      <trkpt lat="46.63813" lon="6.07639">
        <ele>1050</ele>
        <time>2022-10-18T09:31:08Z</time>
      </trkpt>
      <trkpt lat="46.63818" lon="6.07635">
        <ele>1047.8</ele>
        <time>2022-10-18T09:31:15Z</time>
      </trkpt>
      <trkpt lat="46.63822" lon="6.07631">
        <ele>1046.5</ele>
        <time>2022-10-18T09:31:20Z</time>
      </trkpt>
      <trkpt lat="46.63825" lon="6.07626">
        <ele>1045.9</ele>
        <time>2022-10-18T09:31:25Z</time>
      </trkpt>
      <trkpt lat="46.6383" lon="6.07625">
        <ele>1046.2</ele>
        <time>2022-10-18T09:31:33Z</time>
      </trkpt>
      <trkpt lat="46.63834" lon="6.07628">
        <ele>1046.9</ele>
        <time>2022-10-18T09:31:37Z</time>
      </trkpt>
      <trkpt lat="46.63839" lon="6.07631">
        <ele>1047.5</ele>
        <time>2022-10-18T09:31:41Z</time>
      </trkpt>
      <trkpt lat="46.63843" lon="6.07634">
        <ele>1048.1</ele>
        <time>2022-10-18T09:31:46Z</time>
      </trkpt>
      <trkpt lat="46.63846" lon="6.07641">
        <ele>1049</ele>
        <time>2022-10-18T09:31:54Z</time>
      </trkpt>
      <trkpt lat="46.63847" lon="6.07647">
        <ele>1049.1</ele>
        <time>2022-10-18T09:32:02Z</time>
      </trkpt>
      <trkpt lat="46.63849" lon="6.07654">
        <ele>1048.9</ele>
        <time>2022-10-18T09:32:07Z</time>
      </trkpt>
      <trkpt lat="46.63852" lon="6.0766">
        <ele>1048.9</ele>
        <time>2022-10-18T09:32:11Z</time>
      </trkpt>
      <trkpt lat="46.63855" lon="6.07666">
        <ele>1049</ele>
        <time>2022-10-18T09:32:17Z</time>
      </trkpt>
      <trkpt lat="46.63858" lon="6.07672">
        <ele>1048.8</ele>
        <time>2022-10-18T09:32:21Z</time>
      </trkpt>
      <trkpt lat="46.6386" lon="6.07678">
        <ele>1048.4</ele>
        <time>2022-10-18T09:32:25Z</time>
      </trkpt>
      <trkpt lat="46.63862" lon="6.07684">
        <ele>1048.4</ele>
        <time>2022-10-18T09:32:30Z</time>
      </trkpt>
      <trkpt lat="46.63865" lon="6.07689">
        <ele>1048.5</ele>
        <time>2022-10-18T09:32:34Z</time>
      </trkpt>
      <trkpt lat="46.63869" lon="6.07693">
        <ele>1048.3</ele>
        <time>2022-10-18T09:32:39Z</time>
      </trkpt>
      <trkpt lat="46.63871" lon="6.07699">
        <ele>1048</ele>
        <time>2022-10-18T09:32:45Z</time>
      </trkpt>
      <trkpt lat="46.63874" lon="6.07706">
        <ele>1047.8</ele>
        <time>2022-10-18T09:32:49Z</time>
      </trkpt>
      <trkpt lat="46.63877" lon="6.07711">
        <ele>1047.4</ele>
        <time>2022-10-18T09:32:53Z</time>
      </trkpt>
      <trkpt lat="46.63878" lon="6.07718">
        <ele>1047</ele>
        <time>2022-10-18T09:33:00Z</time>
      </trkpt>
      <trkpt lat="46.63879" lon="6.07725">
        <ele>1047.4</ele>
        <time>2022-10-18T09:33:06Z</time>
      </trkpt>
      <trkpt lat="46.63881" lon="6.07732">
        <ele>1048.2</ele>
        <time>2022-10-18T09:33:11Z</time>
      </trkpt>
      <trkpt lat="46.63884" lon="6.07738">
        <ele>1048.6</ele>
        <time>2022-10-18T09:33:15Z</time>
      </trkpt>
      <trkpt lat="46.63887" lon="6.07743">
        <ele>1049.4</ele>
        <time>2022-10-18T09:33:20Z</time>
      </trkpt>
      <trkpt lat="46.63892" lon="6.07749">
        <ele>1049.8</ele>
        <time>2022-10-18T09:33:24Z</time>
      </trkpt>
      <trkpt lat="46.63895" lon="6.07754">
        <ele>1050.1</ele>
        <time>2022-10-18T09:33:28Z</time>
      </trkpt>
      <trkpt lat="46.63898" lon="6.07759">
        <ele>1050.8</ele>
        <time>2022-10-18T09:33:33Z</time>
      </trkpt>
      <trkpt lat="46.63901" lon="6.07765">
        <ele>1052</ele>
        <time>2022-10-18T09:33:37Z</time>
      </trkpt>
      <trkpt lat="46.639" lon="6.07773">
        <ele>1053.6</ele>
        <time>2022-10-18T09:33:44Z</time>
      </trkpt>
      <trkpt lat="46.63902" lon="6.07779">
        <ele>1054.5</ele>
        <time>2022-10-18T09:33:49Z</time>
      </trkpt>
      <trkpt lat="46.63904" lon="6.07785">
        <ele>1054.6</ele>
        <time>2022-10-18T09:33:53Z</time>
      </trkpt>
      <trkpt lat="46.63906" lon="6.07792">
        <ele>1054.6</ele>
        <time>2022-10-18T09:33:57Z</time>
      </trkpt>
      <trkpt lat="46.63907" lon="6.07799">
        <ele>1054.2</ele>
        <time>2022-10-18T09:34:04Z</time>
      </trkpt>
      <trkpt lat="46.63911" lon="6.07804">
        <ele>1053.8</ele>
        <time>2022-10-18T09:34:10Z</time>
      </trkpt>
      <trkpt lat="46.63913" lon="6.0781">
        <ele>1053.1</ele>
        <time>2022-10-18T09:34:15Z</time>
      </trkpt>
      <trkpt lat="46.63914" lon="6.07817">
        <ele>1052.3</ele>
        <time>2022-10-18T09:34:19Z</time>
      </trkpt>
      <trkpt lat="46.63917" lon="6.07823">
        <ele>1051.3</ele>
        <time>2022-10-18T09:34:25Z</time>
      </trkpt>
      <trkpt lat="46.63921" lon="6.07827">
        <ele>1051.6</ele>
        <time>2022-10-18T09:34:31Z</time>
      </trkpt>
      <trkpt lat="46.6392" lon="6.07834">
        <ele>1052.5</ele>
        <time>2022-10-18T09:34:40Z</time>
      </trkpt>
      <trkpt lat="46.63919" lon="6.0784">
        <ele>1052.9</ele>
        <time>2022-10-18T09:34:45Z</time>
      </trkpt>
      <trkpt lat="46.6392" lon="6.07847">
        <ele>1053.3</ele>
        <time>2022-10-18T09:34:50Z</time>
      </trkpt>
      <trkpt lat="46.63924" lon="6.07852">
        <ele>1054.3</ele>
        <time>2022-10-18T09:34:57Z</time>
      </trkpt>
      <trkpt lat="46.63926" lon="6.07859">
        <ele>1055.2</ele>
        <time>2022-10-18T09:35:02Z</time>
      </trkpt>
      <trkpt lat="46.6393" lon="6.07863">
        <ele>1056</ele>
        <time>2022-10-18T09:35:06Z</time>
      </trkpt>
      <trkpt lat="46.63933" lon="6.07869">
        <ele>1057.2</ele>
        <time>2022-10-18T09:35:11Z</time>
      </trkpt>
      <trkpt lat="46.63935" lon="6.07875">
        <ele>1058.2</ele>
        <time>2022-10-18T09:35:15Z</time>
      </trkpt>
      <trkpt lat="46.63935" lon="6.07882">
        <ele>1059.1</ele>
        <time>2022-10-18T09:35:19Z</time>
      </trkpt>
      <trkpt lat="46.63932" lon="6.07889">
        <ele>1059.8</ele>
        <time>2022-10-18T09:35:24Z</time>
      </trkpt>
      <trkpt lat="46.63928" lon="6.07892">
        <ele>1061.6</ele>
        <time>2022-10-18T09:35:33Z</time>
      </trkpt>
      <trkpt lat="46.63924" lon="6.0789">
        <ele>1067.4</ele>
        <time>2022-10-18T09:35:54Z</time>
      </trkpt>
      <trkpt lat="46.63917" lon="6.07888">
        <ele>1068.6</ele>
        <time>2022-10-18T09:35:58Z</time>
      </trkpt>
      <trkpt lat="46.6391" lon="6.07888">
        <ele>1069</ele>
        <time>2022-10-18T09:36:01Z</time>
      </trkpt>
      <trkpt lat="46.63905" lon="6.07889">
        <ele>1069.4</ele>
        <time>2022-10-18T09:36:04Z</time>
      </trkpt>
      <trkpt lat="46.63909" lon="6.07885">
        <ele>1070.2</ele>
        <time>2022-10-18T09:36:12Z</time>
      </trkpt>
      <trkpt lat="46.63916" lon="6.07883">
        <ele>1070.8</ele>
        <time>2022-10-18T09:36:15Z</time>
      </trkpt>
      <trkpt lat="46.63924" lon="6.07882">
        <ele>1071.5</ele>
        <time>2022-10-18T09:36:18Z</time>
      </trkpt>
      <trkpt lat="46.63929" lon="6.07883">
        <ele>1072.2</ele>
        <time>2022-10-18T09:36:22Z</time>
      </trkpt>
      <trkpt lat="46.63924" lon="6.07882">
        <ele>1070</ele>
        <time>2022-10-18T09:36:46Z</time>
      </trkpt>
      <trkpt lat="46.63929" lon="6.07879">
        <ele>1065.8</ele>
        <time>2022-10-18T09:37:54Z</time>
      </trkpt>
      <trkpt lat="46.63933" lon="6.07877">
        <ele>1064.7</ele>
        <time>2022-10-18T09:37:58Z</time>
      </trkpt>
      <trkpt lat="46.63938" lon="6.07879">
        <ele>1063.4</ele>
        <time>2022-10-18T09:38:02Z</time>
      </trkpt>
      <trkpt lat="46.63939" lon="6.07887">
        <ele>1062.2</ele>
        <time>2022-10-18T09:38:07Z</time>
      </trkpt>
      <trkpt lat="46.63938" lon="6.07893">
        <ele>1062.3</ele>
        <time>2022-10-18T09:38:11Z</time>
      </trkpt>
      <trkpt lat="46.63937" lon="6.079">
        <ele>1062.7</ele>
        <time>2022-10-18T09:38:15Z</time>
      </trkpt>
      <trkpt lat="46.63935" lon="6.07908">
        <ele>1062.5</ele>
        <time>2022-10-18T09:38:19Z</time>
      </trkpt>
      <trkpt lat="46.63938" lon="6.07914">
        <ele>1061.1</ele>
        <time>2022-10-18T09:38:25Z</time>
      </trkpt>
      <trkpt lat="46.63938" lon="6.07921">
        <ele>1059.8</ele>
        <time>2022-10-18T09:38:32Z</time>
      </trkpt>
      <trkpt lat="46.63937" lon="6.07929">
        <ele>1059.2</ele>
        <time>2022-10-18T09:38:37Z</time>
      </trkpt>
      <trkpt lat="46.63936" lon="6.07935">
        <ele>1059.6</ele>
        <time>2022-10-18T09:38:42Z</time>
      </trkpt>
      <trkpt lat="46.63936" lon="6.07942">
        <ele>1060.3</ele>
        <time>2022-10-18T09:38:46Z</time>
      </trkpt>
      <trkpt lat="46.63936" lon="6.07949">
        <ele>1061.1</ele>
        <time>2022-10-18T09:38:53Z</time>
      </trkpt>
      <trkpt lat="46.63936" lon="6.07956">
        <ele>1062.8</ele>
        <time>2022-10-18T09:39:02Z</time>
      </trkpt>
      <trkpt lat="46.63935" lon="6.07963">
        <ele>1063.9</ele>
        <time>2022-10-18T09:39:08Z</time>
      </trkpt>
      <trkpt lat="46.63938" lon="6.07968">
        <ele>1065.4</ele>
        <time>2022-10-18T09:39:15Z</time>
      </trkpt>
      <trkpt lat="46.63939" lon="6.07976">
        <ele>1066.4</ele>
        <time>2022-10-18T09:39:22Z</time>
      </trkpt>
      <trkpt lat="46.63944" lon="6.0798">
        <ele>1067.3</ele>
        <time>2022-10-18T09:39:27Z</time>
      </trkpt>
      <trkpt lat="46.63946" lon="6.07985">
        <ele>1069.6</ele>
        <time>2022-10-18T09:39:37Z</time>
      </trkpt>
      <trkpt lat="46.6395" lon="6.0799">
        <ele>1070.7</ele>
        <time>2022-10-18T09:39:43Z</time>
      </trkpt>
      <trkpt lat="46.63953" lon="6.07995">
        <ele>1071.1</ele>
        <time>2022-10-18T09:39:47Z</time>
      </trkpt>
      <trkpt lat="46.63957" lon="6.08">
        <ele>1070.9</ele>
        <time>2022-10-18T09:39:51Z</time>
      </trkpt>
      <trkpt lat="46.63961" lon="6.08004">
        <ele>1070.7</ele>
        <time>2022-10-18T09:39:55Z</time>
      </trkpt>
      <trkpt lat="46.63962" lon="6.08011">
        <ele>1071</ele>
        <time>2022-10-18T09:40:02Z</time>
      </trkpt>
      <trkpt lat="46.63961" lon="6.08019">
        <ele>1071.1</ele>
        <time>2022-10-18T09:40:10Z</time>
      </trkpt>
      <trkpt lat="46.63966" lon="6.08021">
        <ele>1071.3</ele>
        <time>2022-10-18T09:40:16Z</time>
      </trkpt>
      <trkpt lat="46.63969" lon="6.08017">
        <ele>1071.6</ele>
        <time>2022-10-18T09:40:21Z</time>
      </trkpt>
      <trkpt lat="46.63972" lon="6.08011">
        <ele>1071.6</ele>
        <time>2022-10-18T09:40:26Z</time>
      </trkpt>
      <trkpt lat="46.63973" lon="6.08003">
        <ele>1071.6</ele>
        <time>2022-10-18T09:40:31Z</time>
      </trkpt>
      <trkpt lat="46.63973" lon="6.07996">
        <ele>1071.8</ele>
        <time>2022-10-18T09:40:36Z</time>
      </trkpt>
      <trkpt lat="46.63975" lon="6.0799">
        <ele>1072</ele>
        <time>2022-10-18T09:40:41Z</time>
      </trkpt>
      <trkpt lat="46.63977" lon="6.07983">
        <ele>1072.3</ele>
        <time>2022-10-18T09:40:46Z</time>
      </trkpt>
      <trkpt lat="46.63979" lon="6.07977">
        <ele>1072.8</ele>
        <time>2022-10-18T09:40:52Z</time>
      </trkpt>
      <trkpt lat="46.63983" lon="6.07973">
        <ele>1072.9</ele>
        <time>2022-10-18T09:41:01Z</time>
      </trkpt>
      <trkpt lat="46.63985" lon="6.07966">
        <ele>1072.4</ele>
        <time>2022-10-18T09:41:06Z</time>
      </trkpt>
      <trkpt lat="46.63987" lon="6.07959">
        <ele>1071.9</ele>
        <time>2022-10-18T09:41:11Z</time>
      </trkpt>
      <trkpt lat="46.6399" lon="6.07953">
        <ele>1071.2</ele>
        <time>2022-10-18T09:41:16Z</time>
      </trkpt>
      <trkpt lat="46.63993" lon="6.07948">
        <ele>1070.7</ele>
        <time>2022-10-18T09:41:20Z</time>
      </trkpt>
      <trkpt lat="46.63997" lon="6.07944">
        <ele>1070.3</ele>
        <time>2022-10-18T09:41:24Z</time>
      </trkpt>
      <trkpt lat="46.64" lon="6.07939">
        <ele>1070.5</ele>
        <time>2022-10-18T09:41:29Z</time>
      </trkpt>
      <trkpt lat="46.64005" lon="6.07935">
        <ele>1071</ele>
        <time>2022-10-18T09:41:38Z</time>
      </trkpt>
      <trkpt lat="46.64009" lon="6.07932">
        <ele>1071.8</ele>
        <time>2022-10-18T09:41:44Z</time>
      </trkpt>
      <trkpt lat="46.64014" lon="6.07929">
        <ele>1071.9</ele>
        <time>2022-10-18T09:41:53Z</time>
      </trkpt>
      <trkpt lat="46.64018" lon="6.07927">
        <ele>1071.8</ele>
        <time>2022-10-18T09:41:58Z</time>
      </trkpt>
      <trkpt lat="46.64024" lon="6.07927">
        <ele>1071.6</ele>
        <time>2022-10-18T09:42:03Z</time>
      </trkpt>
      <trkpt lat="46.64028" lon="6.07925">
        <ele>1071</ele>
        <time>2022-10-18T09:42:08Z</time>
      </trkpt>
      <trkpt lat="46.64033" lon="6.0792">
        <ele>1070.4</ele>
        <time>2022-10-18T09:42:13Z</time>
      </trkpt>
      <trkpt lat="46.64036" lon="6.07916">
        <ele>1069.8</ele>
        <time>2022-10-18T09:42:17Z</time>
      </trkpt>
      <trkpt lat="46.6404" lon="6.07912">
        <ele>1069.2</ele>
        <time>2022-10-18T09:42:23Z</time>
      </trkpt>
      <trkpt lat="46.64036" lon="6.07907">
        <ele>1067.9</ele>
        <time>2022-10-18T09:42:31Z</time>
      </trkpt>
      <trkpt lat="46.64032" lon="6.07904">
        <ele>1067.1</ele>
        <time>2022-10-18T09:42:36Z</time>
      </trkpt>
      <trkpt lat="46.64029" lon="6.07898">
        <ele>1066.2</ele>
        <time>2022-10-18T09:42:41Z</time>
      </trkpt>
      <trkpt lat="46.64027" lon="6.07892">
        <ele>1065.7</ele>
        <time>2022-10-18T09:42:48Z</time>
      </trkpt>
      <trkpt lat="46.64025" lon="6.07885">
        <ele>1064.9</ele>
        <time>2022-10-18T09:42:56Z</time>
      </trkpt>
      <trkpt lat="46.64022" lon="6.07879">
        <ele>1062.5</ele>
        <time>2022-10-18T09:43:03Z</time>
      </trkpt>
      <trkpt lat="46.64019" lon="6.07874">
        <ele>1060.6</ele>
        <time>2022-10-18T09:43:08Z</time>
      </trkpt>
      <trkpt lat="46.64017" lon="6.07867">
        <ele>1060.2</ele>
        <time>2022-10-18T09:43:13Z</time>
      </trkpt>
      <trkpt lat="46.64018" lon="6.0786">
        <ele>1060.6</ele>
        <time>2022-10-18T09:43:19Z</time>
      </trkpt>
      <trkpt lat="46.64019" lon="6.07853">
        <ele>1061.3</ele>
        <time>2022-10-18T09:43:22Z</time>
      </trkpt>
      <trkpt lat="46.64019" lon="6.07846">
        <ele>1062.1</ele>
        <time>2022-10-18T09:43:25Z</time>
      </trkpt>
      <trkpt lat="46.6402" lon="6.07838">
        <ele>1063.2</ele>
        <time>2022-10-18T09:43:29Z</time>
      </trkpt>
      <trkpt lat="46.64019" lon="6.07831">
        <ele>1064.3</ele>
        <time>2022-10-18T09:43:33Z</time>
      </trkpt>
      <trkpt lat="46.64021" lon="6.07824">
        <ele>1065.8</ele>
        <time>2022-10-18T09:43:39Z</time>
      </trkpt>
      <trkpt lat="46.64021" lon="6.07816">
        <ele>1067</ele>
        <time>2022-10-18T09:43:46Z</time>
      </trkpt>
      <trkpt lat="46.64021" lon="6.07809">
        <ele>1067.4</ele>
        <time>2022-10-18T09:43:51Z</time>
      </trkpt>
      <trkpt lat="46.64021" lon="6.07802">
        <ele>1067.6</ele>
        <time>2022-10-18T09:43:55Z</time>
      </trkpt>
      <trkpt lat="46.64019" lon="6.07795">
        <ele>1067.2</ele>
        <time>2022-10-18T09:43:59Z</time>
      </trkpt>
      <trkpt lat="46.64016" lon="6.0779">
        <ele>1066.6</ele>
        <time>2022-10-18T09:44:03Z</time>
      </trkpt>
      <trkpt lat="46.64012" lon="6.07785">
        <ele>1065.2</ele>
        <time>2022-10-18T09:44:09Z</time>
      </trkpt>
      <trkpt lat="46.64008" lon="6.07781">
        <ele>1064.2</ele>
        <time>2022-10-18T09:44:16Z</time>
      </trkpt>
      <trkpt lat="46.64004" lon="6.07779">
        <ele>1063.9</ele>
        <time>2022-10-18T09:44:21Z</time>
      </trkpt>
      <trkpt lat="46.64003" lon="6.07771">
        <ele>1063</ele>
        <time>2022-10-18T09:44:32Z</time>
      </trkpt>
      <trkpt lat="46.64001" lon="6.07765">
        <ele>1063.7</ele>
        <time>2022-10-18T09:44:39Z</time>
      </trkpt>
      <trkpt lat="46.63998" lon="6.07759">
        <ele>1064.7</ele>
        <time>2022-10-18T09:44:44Z</time>
      </trkpt>
      <trkpt lat="46.63996" lon="6.07752">
        <ele>1065.4</ele>
        <time>2022-10-18T09:44:48Z</time>
      </trkpt>
      <trkpt lat="46.63995" lon="6.07745">
        <ele>1065.3</ele>
        <time>2022-10-18T09:44:52Z</time>
      </trkpt>
      <trkpt lat="46.63993" lon="6.07738">
        <ele>1065.3</ele>
        <time>2022-10-18T09:44:55Z</time>
      </trkpt>
      <trkpt lat="46.6399" lon="6.07731">
        <ele>1065.3</ele>
        <time>2022-10-18T09:44:59Z</time>
      </trkpt>
      <trkpt lat="46.6399" lon="6.07724">
        <ele>1065.2</ele>
        <time>2022-10-18T09:45:05Z</time>
      </trkpt>
      <trkpt lat="46.63992" lon="6.07718">
        <ele>1065</ele>
        <time>2022-10-18T09:45:10Z</time>
      </trkpt>
      <trkpt lat="46.6399" lon="6.07712">
        <ele>1065.1</ele>
        <time>2022-10-18T09:45:15Z</time>
      </trkpt>
      <trkpt lat="46.63985" lon="6.07707">
        <ele>1064.9</ele>
        <time>2022-10-18T09:45:20Z</time>
      </trkpt>
      <trkpt lat="46.63983" lon="6.077">
        <ele>1064.9</ele>
        <time>2022-10-18T09:45:26Z</time>
      </trkpt>
      <trkpt lat="46.63981" lon="6.07694">
        <ele>1064.7</ele>
        <time>2022-10-18T09:45:30Z</time>
      </trkpt>
      <trkpt lat="46.63978" lon="6.07688">
        <ele>1063.9</ele>
        <time>2022-10-18T09:45:36Z</time>
      </trkpt>
      <trkpt lat="46.63977" lon="6.07681">
        <ele>1063.6</ele>
        <time>2022-10-18T09:45:40Z</time>
      </trkpt>
      <trkpt lat="46.63974" lon="6.07675">
        <ele>1063.5</ele>
        <time>2022-10-18T09:45:43Z</time>
      </trkpt>
      <trkpt lat="46.63972" lon="6.07668">
        <ele>1063.4</ele>
        <time>2022-10-18T09:45:46Z</time>
      </trkpt>
      <trkpt lat="46.63972" lon="6.07661">
        <ele>1063</ele>
        <time>2022-10-18T09:45:49Z</time>
      </trkpt>
      <trkpt lat="46.63975" lon="6.07655">
        <ele>1062.4</ele>
        <time>2022-10-18T09:45:53Z</time>
      </trkpt>
      <trkpt lat="46.63977" lon="6.07648">
        <ele>1061.6</ele>
        <time>2022-10-18T09:45:58Z</time>
      </trkpt>
      <trkpt lat="46.63976" lon="6.07641">
        <ele>1060.9</ele>
        <time>2022-10-18T09:46:03Z</time>
      </trkpt>
      <trkpt lat="46.63976" lon="6.07633">
        <ele>1059.6</ele>
        <time>2022-10-18T09:46:11Z</time>
      </trkpt>
      <trkpt lat="46.63976" lon="6.07626">
        <ele>1058.8</ele>
        <time>2022-10-18T09:46:16Z</time>
      </trkpt>
      <trkpt lat="46.63977" lon="6.07619">
        <ele>1057.9</ele>
        <time>2022-10-18T09:46:21Z</time>
      </trkpt>
      <trkpt lat="46.63979" lon="6.07612">
        <ele>1056.8</ele>
        <time>2022-10-18T09:46:26Z</time>
      </trkpt>
      <trkpt lat="46.63979" lon="6.07604">
        <ele>1055.1</ele>
        <time>2022-10-18T09:46:31Z</time>
      </trkpt>
      <trkpt lat="46.6398" lon="6.07598">
        <ele>1053.1</ele>
        <time>2022-10-18T09:46:36Z</time>
      </trkpt>
      <trkpt lat="46.63983" lon="6.07591">
        <ele>1051.1</ele>
        <time>2022-10-18T09:46:41Z</time>
      </trkpt>
      <trkpt lat="46.63985" lon="6.07585">
        <ele>1049.9</ele>
        <time>2022-10-18T09:46:45Z</time>
      </trkpt>
      <trkpt lat="46.63987" lon="6.07578">
        <ele>1048.8</ele>
        <time>2022-10-18T09:46:50Z</time>
      </trkpt>
      <trkpt lat="46.63991" lon="6.07573">
        <ele>1048.2</ele>
        <time>2022-10-18T09:46:55Z</time>
      </trkpt>
      <trkpt lat="46.63994" lon="6.07567">
        <ele>1048.3</ele>
        <time>2022-10-18T09:46:59Z</time>
      </trkpt>
      <trkpt lat="46.63998" lon="6.07564">
        <ele>1048.6</ele>
        <time>2022-10-18T09:47:04Z</time>
      </trkpt>
      <trkpt lat="46.64003" lon="6.07563">
        <ele>1048.4</ele>
        <time>2022-10-18T09:47:11Z</time>
      </trkpt>
      <trkpt lat="46.64009" lon="6.07564">
        <ele>1047.6</ele>
        <time>2022-10-18T09:47:16Z</time>
      </trkpt>
      <trkpt lat="46.64013" lon="6.07567">
        <ele>1046.9</ele>
        <time>2022-10-18T09:47:19Z</time>
      </trkpt>
      <trkpt lat="46.64017" lon="6.07572">
        <ele>1046</ele>
        <time>2022-10-18T09:47:23Z</time>
      </trkpt>
      <trkpt lat="46.64021" lon="6.07576">
        <ele>1044.8</ele>
        <time>2022-10-18T09:47:28Z</time>
      </trkpt>
      <trkpt lat="46.64025" lon="6.07579">
        <ele>1043.8</ele>
        <time>2022-10-18T09:47:33Z</time>
      </trkpt>
      <trkpt lat="46.64029" lon="6.07583">
        <ele>1043</ele>
        <time>2022-10-18T09:47:38Z</time>
      </trkpt>
      <trkpt lat="46.64033" lon="6.07588">
        <ele>1042.8</ele>
        <time>2022-10-18T09:47:42Z</time>
      </trkpt>
      <trkpt lat="46.64037" lon="6.07593">
        <ele>1041.9</ele>
        <time>2022-10-18T09:47:47Z</time>
      </trkpt>
      <trkpt lat="46.6404" lon="6.07599">
        <ele>1040.1</ele>
        <time>2022-10-18T09:47:55Z</time>
      </trkpt>
      <trkpt lat="46.64044" lon="6.07604">
        <ele>1039.4</ele>
        <time>2022-10-18T09:47:59Z</time>
      </trkpt>
      <trkpt lat="46.64049" lon="6.07607">
        <ele>1039.2</ele>
        <time>2022-10-18T09:48:03Z</time>
      </trkpt>
      <trkpt lat="46.64054" lon="6.07611">
        <ele>1039.8</ele>
        <time>2022-10-18T09:48:08Z</time>
      </trkpt>
      <trkpt lat="46.64056" lon="6.07617">
        <ele>1040.3</ele>
        <time>2022-10-18T09:48:14Z</time>
      </trkpt>
      <trkpt lat="46.6406" lon="6.07621">
        <ele>1040</ele>
        <time>2022-10-18T09:48:20Z</time>
      </trkpt>
      <trkpt lat="46.64065" lon="6.07627">
        <ele>1040.1</ele>
        <time>2022-10-18T09:48:25Z</time>
      </trkpt>
      <trkpt lat="46.64069" lon="6.0763">
        <ele>1040.3</ele>
        <time>2022-10-18T09:48:29Z</time>
      </trkpt>
      <trkpt lat="46.64073" lon="6.07634">
        <ele>1040.8</ele>
        <time>2022-10-18T09:48:34Z</time>
      </trkpt>
      <trkpt lat="46.64077" lon="6.07638">
        <ele>1041</ele>
        <time>2022-10-18T09:48:39Z</time>
      </trkpt>
      <trkpt lat="46.64082" lon="6.0764">
        <ele>1041.2</ele>
        <time>2022-10-18T09:48:43Z</time>
      </trkpt>
      <trkpt lat="46.64087" lon="6.07641">
        <ele>1041.4</ele>
        <time>2022-10-18T09:48:47Z</time>
      </trkpt>
      <trkpt lat="46.64091" lon="6.07643">
        <ele>1041.6</ele>
        <time>2022-10-18T09:48:51Z</time>
      </trkpt>
      <trkpt lat="46.64096" lon="6.07645">
        <ele>1041.8</ele>
        <time>2022-10-18T09:48:55Z</time>
      </trkpt>
      <trkpt lat="46.64101" lon="6.07646">
        <ele>1042.2</ele>
        <time>2022-10-18T09:48:59Z</time>
      </trkpt>
      <trkpt lat="46.64106" lon="6.07647">
        <ele>1042.7</ele>
        <time>2022-10-18T09:49:07Z</time>
      </trkpt>
      <trkpt lat="46.64111" lon="6.07647">
        <ele>1043.8</ele>
        <time>2022-10-18T09:49:12Z</time>
      </trkpt>
      <trkpt lat="46.64115" lon="6.07651">
        <ele>1044.5</ele>
        <time>2022-10-18T09:49:16Z</time>
      </trkpt>
      <trkpt lat="46.64119" lon="6.07655">
        <ele>1045.3</ele>
        <time>2022-10-18T09:49:21Z</time>
      </trkpt>
      <trkpt lat="46.64123" lon="6.07659">
        <ele>1045.5</ele>
        <time>2022-10-18T09:49:25Z</time>
      </trkpt>
      <trkpt lat="46.64126" lon="6.07664">
        <ele>1044.9</ele>
        <time>2022-10-18T09:49:30Z</time>
      </trkpt>
      <trkpt lat="46.64126" lon="6.07671">
        <ele>1043.9</ele>
        <time>2022-10-18T09:49:35Z</time>
      </trkpt>
      <trkpt lat="46.6413" lon="6.07677">
        <ele>1043</ele>
        <time>2022-10-18T09:49:42Z</time>
      </trkpt>
      <trkpt lat="46.64133" lon="6.07683">
        <ele>1042.6</ele>
        <time>2022-10-18T09:49:46Z</time>
      </trkpt>
      <trkpt lat="46.64136" lon="6.07689">
        <ele>1042.5</ele>
        <time>2022-10-18T09:49:50Z</time>
      </trkpt>
      <trkpt lat="46.6414" lon="6.07693">
        <ele>1042.2</ele>
        <time>2022-10-18T09:49:54Z</time>
      </trkpt>
      <trkpt lat="46.64144" lon="6.07698">
        <ele>1041.8</ele>
        <time>2022-10-18T09:49:59Z</time>
      </trkpt>
      <trkpt lat="46.64144" lon="6.07704">
        <ele>1040</ele>
        <time>2022-10-18T09:50:06Z</time>
      </trkpt>
      <trkpt lat="46.64143" lon="6.07711">
        <ele>1038.5</ele>
        <time>2022-10-18T09:50:11Z</time>
      </trkpt>
      <trkpt lat="46.64141" lon="6.07718">
        <ele>1037.1</ele>
        <time>2022-10-18T09:50:16Z</time>
      </trkpt>
      <trkpt lat="46.6414" lon="6.07725">
        <ele>1035.9</ele>
        <time>2022-10-18T09:50:21Z</time>
      </trkpt>
      <trkpt lat="46.64142" lon="6.07731">
        <ele>1035.3</ele>
        <time>2022-10-18T09:50:26Z</time>
      </trkpt>
      <trkpt lat="46.64146" lon="6.07737">
        <ele>1034.9</ele>
        <time>2022-10-18T09:50:30Z</time>
      </trkpt>
      <trkpt lat="46.6415" lon="6.0774">
        <ele>1034.7</ele>
        <time>2022-10-18T09:50:34Z</time>
      </trkpt>
      <trkpt lat="46.64153" lon="6.07746">
        <ele>1034.5</ele>
        <time>2022-10-18T09:50:41Z</time>
      </trkpt>
      <trkpt lat="46.64157" lon="6.07751">
        <ele>1034.7</ele>
        <time>2022-10-18T09:50:46Z</time>
      </trkpt>
      <trkpt lat="46.64159" lon="6.07757">
        <ele>1034.6</ele>
        <time>2022-10-18T09:50:51Z</time>
      </trkpt>
      <trkpt lat="46.64165" lon="6.07762">
        <ele>1035</ele>
        <time>2022-10-18T09:50:55Z</time>
      </trkpt>
      <trkpt lat="46.64169" lon="6.07766">
        <ele>1035.5</ele>
        <time>2022-10-18T09:50:59Z</time>
      </trkpt>
      <trkpt lat="46.64173" lon="6.0777">
        <ele>1035.8</ele>
        <time>2022-10-18T09:51:04Z</time>
      </trkpt>
      <trkpt lat="46.64178" lon="6.07774">
        <ele>1036.3</ele>
        <time>2022-10-18T09:51:09Z</time>
      </trkpt>
      <trkpt lat="46.64182" lon="6.07777">
        <ele>1037.5</ele>
        <time>2022-10-18T09:51:14Z</time>
      </trkpt>
      <trkpt lat="46.64187" lon="6.0778">
        <ele>1038.7</ele>
        <time>2022-10-18T09:51:21Z</time>
      </trkpt>
      <trkpt lat="46.64182" lon="6.0778">
        <ele>1038</ele>
        <time>2022-10-18T09:51:33Z</time>
      </trkpt>
      <trkpt lat="46.64177" lon="6.07781">
        <ele>1037.5</ele>
        <time>2022-10-18T09:51:37Z</time>
      </trkpt>
      <trkpt lat="46.64173" lon="6.07785">
        <ele>1037</ele>
        <time>2022-10-18T09:51:42Z</time>
      </trkpt>
      <trkpt lat="46.64168" lon="6.07786">
        <ele>1036.4</ele>
        <time>2022-10-18T09:51:48Z</time>
      </trkpt>
      <trkpt lat="46.64173" lon="6.07782">
        <ele>1036.2</ele>
        <time>2022-10-18T09:51:58Z</time>
      </trkpt>
      <trkpt lat="46.64172" lon="6.07774">
        <ele>1035.7</ele>
        <time>2022-10-18T09:52:03Z</time>
      </trkpt>
      <trkpt lat="46.64168" lon="6.07777">
        <ele>1033.9</ele>
        <time>2022-10-18T09:52:15Z</time>
      </trkpt>
      <trkpt lat="46.64165" lon="6.07783">
        <ele>1033.8</ele>
        <time>2022-10-18T09:52:20Z</time>
      </trkpt>
      <trkpt lat="46.6417" lon="6.07779">
        <ele>1034.6</ele>
        <time>2022-10-18T09:52:24Z</time>
      </trkpt>
      <trkpt lat="46.64175" lon="6.07774">
        <ele>1035.7</ele>
        <time>2022-10-18T09:52:27Z</time>
      </trkpt>
      <trkpt lat="46.64177" lon="6.07768">
        <ele>1037.2</ele>
        <time>2022-10-18T09:52:33Z</time>
      </trkpt>
      <trkpt lat="46.64182" lon="6.07771">
        <ele>1037.4</ele>
        <time>2022-10-18T09:52:42Z</time>
      </trkpt>
      <trkpt lat="46.64186" lon="6.07774">
        <ele>1037.6</ele>
        <time>2022-10-18T09:52:50Z</time>
      </trkpt>
      <trkpt lat="46.64189" lon="6.07778">
        <ele>1038.1</ele>
        <time>2022-10-18T09:52:54Z</time>
      </trkpt>
      <trkpt lat="46.64193" lon="6.07783">
        <ele>1038.7</ele>
        <time>2022-10-18T09:52:58Z</time>
      </trkpt>
      <trkpt lat="46.64196" lon="6.07788">
        <ele>1039.1</ele>
        <time>2022-10-18T09:53:05Z</time>
      </trkpt>
      <trkpt lat="46.64198" lon="6.07794">
        <ele>1039</ele>
        <time>2022-10-18T09:53:14Z</time>
      </trkpt>
      <trkpt lat="46.64202" lon="6.07797">
        <ele>1039.3</ele>
        <time>2022-10-18T09:53:18Z</time>
      </trkpt>
      <trkpt lat="46.64206" lon="6.07801">
        <ele>1040</ele>
        <time>2022-10-18T09:53:24Z</time>
      </trkpt>
      <trkpt lat="46.64209" lon="6.07807">
        <ele>1040.6</ele>
        <time>2022-10-18T09:53:31Z</time>
      </trkpt>
      <trkpt lat="46.64211" lon="6.07815">
        <ele>1041.2</ele>
        <time>2022-10-18T09:53:36Z</time>
      </trkpt>
      <trkpt lat="46.64213" lon="6.07822">
        <ele>1041.5</ele>
        <time>2022-10-18T09:53:40Z</time>
      </trkpt>
      <trkpt lat="46.64215" lon="6.07829">
        <ele>1041.8</ele>
        <time>2022-10-18T09:53:46Z</time>
      </trkpt>
      <trkpt lat="46.64218" lon="6.07834">
        <ele>1042.1</ele>
        <time>2022-10-18T09:53:53Z</time>
      </trkpt>
      <trkpt lat="46.64218" lon="6.07842">
        <ele>1042.4</ele>
        <time>2022-10-18T09:53:58Z</time>
      </trkpt>
      <trkpt lat="46.64217" lon="6.07849">
        <ele>1042.6</ele>
        <time>2022-10-18T09:54:02Z</time>
      </trkpt>
      <trkpt lat="46.64215" lon="6.07856">
        <ele>1042.7</ele>
        <time>2022-10-18T09:54:09Z</time>
      </trkpt>
      <trkpt lat="46.64215" lon="6.07864">
        <ele>1042</ele>
        <time>2022-10-18T09:54:15Z</time>
      </trkpt>
      <trkpt lat="46.64215" lon="6.07871">
        <ele>1041.4</ele>
        <time>2022-10-18T09:54:20Z</time>
      </trkpt>
      <trkpt lat="46.64216" lon="6.07878">
        <ele>1040.5</ele>
        <time>2022-10-18T09:54:25Z</time>
      </trkpt>
      <trkpt lat="46.64216" lon="6.07885">
        <ele>1040</ele>
        <time>2022-10-18T09:54:30Z</time>
      </trkpt>
      <trkpt lat="46.64217" lon="6.07892">
        <ele>1040.1</ele>
        <time>2022-10-18T09:54:34Z</time>
      </trkpt>
      <trkpt lat="46.6422" lon="6.07898">
        <ele>1040.8</ele>
        <time>2022-10-18T09:54:39Z</time>
      </trkpt>
      <trkpt lat="46.6422" lon="6.07905">
        <ele>1041.7</ele>
        <time>2022-10-18T09:54:45Z</time>
      </trkpt>
      <trkpt lat="46.64221" lon="6.07912">
        <ele>1042.1</ele>
        <time>2022-10-18T09:54:49Z</time>
      </trkpt>
      <trkpt lat="46.64223" lon="6.07918">
        <ele>1043</ele>
        <time>2022-10-18T09:54:56Z</time>
      </trkpt>
      <trkpt lat="46.64219" lon="6.07922">
        <ele>1043.5</ele>
        <time>2022-10-18T09:55:02Z</time>
      </trkpt>
      <trkpt lat="46.64215" lon="6.07919">
        <ele>1046.9</ele>
        <time>2022-10-18T09:55:24Z</time>
      </trkpt>
      <trkpt lat="46.64213" lon="6.07925">
        <ele>1047.9</ele>
        <time>2022-10-18T09:55:29Z</time>
      </trkpt>
      <trkpt lat="46.64212" lon="6.07932">
        <ele>1048.8</ele>
        <time>2022-10-18T09:55:48Z</time>
      </trkpt>
      <trkpt lat="46.64207" lon="6.07933">
        <ele>1048.5</ele>
        <time>2022-10-18T09:55:52Z</time>
      </trkpt>
      <trkpt lat="46.64203" lon="6.07933">
        <ele>1049.1</ele>
        <time>2022-10-18T09:56:06Z</time>
      </trkpt>
      <trkpt lat="46.64207" lon="6.0793">
        <ele>1049.6</ele>
        <time>2022-10-18T09:56:12Z</time>
      </trkpt>
      <trkpt lat="46.64212" lon="6.07931">
        <ele>1049.7</ele>
        <time>2022-10-18T09:56:17Z</time>
      </trkpt>
      <trkpt lat="46.64216" lon="6.07933">
        <ele>1051.4</ele>
        <time>2022-10-18T09:56:35Z</time>
      </trkpt>
      <trkpt lat="46.64218" lon="6.07925">
        <ele>1055.8</ele>
        <time>2022-10-18T09:59:19Z</time>
      </trkpt>
      <trkpt lat="46.64222" lon="6.07922">
        <ele>1058.8</ele>
        <time>2022-10-18T09:59:25Z</time>
      </trkpt>
      <trkpt lat="46.64217" lon="6.07926">
        <ele>1059.1</ele>
        <time>2022-10-18T09:59:49Z</time>
      </trkpt>
      <trkpt lat="46.64222" lon="6.07928">
        <ele>1052.8</ele>
        <time>2022-10-18T10:02:50Z</time>
      </trkpt>
      <trkpt lat="46.64225" lon="6.07923">
        <ele>1053.7</ele>
        <time>2022-10-18T10:05:09Z</time>
      </trkpt>
      <trkpt lat="46.64222" lon="6.07928">
        <ele>1054.6</ele>
        <time>2022-10-18T10:05:49Z</time>
      </trkpt>
      <trkpt lat="46.64217" lon="6.07931">
        <ele>1053.6</ele>
        <time>2022-10-18T10:05:53Z</time>
      </trkpt>
      <trkpt lat="46.64222" lon="6.0793">
        <ele>1054</ele>
        <time>2022-10-18T10:06:52Z</time>
      </trkpt>
      <trkpt lat="46.64217" lon="6.07927">
        <ele>1057.3</ele>
        <time>2022-10-18T10:07:15Z</time>
      </trkpt>
      <trkpt lat="46.64219" lon="6.07919">
        <ele>1058.7</ele>
        <time>2022-10-18T10:10:00Z</time>
      </trkpt>
      <trkpt lat="46.64216" lon="6.07926">
        <ele>1059.9</ele>
        <time>2022-10-18T10:10:32Z</time>
      </trkpt>
      <trkpt lat="46.6422" lon="6.07922">
        <ele>1058.5</ele>
        <time>2022-10-18T10:13:30Z</time>
      </trkpt>
      <trkpt lat="46.64216" lon="6.07927">
        <ele>1056.4</ele>
        <time>2022-10-18T10:14:36Z</time>
      </trkpt>
      <trkpt lat="46.64221" lon="6.07925">
        <ele>1055.6</ele>
        <time>2022-10-18T10:14:59Z</time>
      </trkpt>
      <trkpt lat="46.64223" lon="6.07919">
        <ele>1050.2</ele>
        <time>2022-10-18T10:21:58Z</time>
      </trkpt>
      <trkpt lat="46.64218" lon="6.07919">
        <ele>1049.1</ele>
        <time>2022-10-18T10:22:51Z</time>
      </trkpt>
      <trkpt lat="46.64222" lon="6.07923">
        <ele>1051.4</ele>
        <time>2022-10-18T10:23:12Z</time>
      </trkpt>
      <trkpt lat="46.64226" lon="6.07924">
        <ele>1052.9</ele>
        <time>2022-10-18T10:23:19Z</time>
      </trkpt>
      <trkpt lat="46.64222" lon="6.07918">
        <ele>1055.5</ele>
        <time>2022-10-18T10:24:24Z</time>
      </trkpt>
      <trkpt lat="46.64219" lon="6.07925">
        <ele>1057.9</ele>
        <time>2022-10-18T10:25:07Z</time>
      </trkpt>
      <trkpt lat="46.64216" lon="6.0792">
        <ele>1059</ele>
        <time>2022-10-18T10:25:59Z</time>
      </trkpt>
      <trkpt lat="46.64212" lon="6.07924">
        <ele>1058.7</ele>
        <time>2022-10-18T10:26:45Z</time>
      </trkpt>
      <trkpt lat="46.64217" lon="6.07926">
        <ele>1058.2</ele>
        <time>2022-10-18T10:27:57Z</time>
      </trkpt>
      <trkpt lat="46.6422" lon="6.07917">
        <ele>1061</ele>
        <time>2022-10-18T10:28:56Z</time>
      </trkpt>
      <trkpt lat="46.64219" lon="6.0791">
        <ele>1059.8</ele>
        <time>2022-10-18T10:29:03Z</time>
      </trkpt>
      <trkpt lat="46.64222" lon="6.07915">
        <ele>1060.7</ele>
        <time>2022-10-18T10:29:25Z</time>
      </trkpt>
      <trkpt lat="46.64226" lon="6.0792">
        <ele>1061</ele>
        <time>2022-10-18T10:29:30Z</time>
      </trkpt>
      <trkpt lat="46.64228" lon="6.07926">
        <ele>1060.5</ele>
        <time>2022-10-18T10:29:44Z</time>
      </trkpt>
      <trkpt lat="46.64222" lon="6.07927">
        <ele>1056.3</ele>
        <time>2022-10-18T10:30:14Z</time>
      </trkpt>
      <trkpt lat="46.64218" lon="6.07929">
        <ele>1054.6</ele>
        <time>2022-10-18T10:30:18Z</time>
      </trkpt>
      <trkpt lat="46.64218" lon="6.07937">
        <ele>1052.4</ele>
        <time>2022-10-18T10:30:25Z</time>
      </trkpt>
      <trkpt lat="46.64221" lon="6.0794">
        <ele>1051.6</ele>
        <time>2022-10-18T10:30:32Z</time>
      </trkpt>
      <trkpt lat="46.64227" lon="6.07943">
        <ele>1051</ele>
        <time>2022-10-18T10:30:39Z</time>
      </trkpt>
      <trkpt lat="46.64231" lon="6.07948">
        <ele>1050.4</ele>
        <time>2022-10-18T10:30:43Z</time>
      </trkpt>
      <trkpt lat="46.64233" lon="6.07954">
        <ele>1049.2</ele>
        <time>2022-10-18T10:30:48Z</time>
      </trkpt>
      <trkpt lat="46.64236" lon="6.07959">
        <ele>1048.2</ele>
        <time>2022-10-18T10:30:54Z</time>
      </trkpt>
      <trkpt lat="46.64237" lon="6.07965">
        <ele>1047.8</ele>
        <time>2022-10-18T10:31:00Z</time>
      </trkpt>
      <trkpt lat="46.64241" lon="6.0797">
        <ele>1048.9</ele>
        <time>2022-10-18T10:31:11Z</time>
      </trkpt>
      <trkpt lat="46.64244" lon="6.07974">
        <ele>1050.3</ele>
        <time>2022-10-18T10:31:18Z</time>
      </trkpt>
      <trkpt lat="46.64245" lon="6.07981">
        <ele>1051.3</ele>
        <time>2022-10-18T10:31:25Z</time>
      </trkpt>
      <trkpt lat="46.64247" lon="6.07987">
        <ele>1051.6</ele>
        <time>2022-10-18T10:31:32Z</time>
      </trkpt>
      <trkpt lat="46.6425" lon="6.07993">
        <ele>1052</ele>
        <time>2022-10-18T10:31:37Z</time>
      </trkpt>
      <trkpt lat="46.64253" lon="6.08">
        <ele>1052.1</ele>
        <time>2022-10-18T10:31:42Z</time>
      </trkpt>
      <trkpt lat="46.64254" lon="6.08006">
        <ele>1053.5</ele>
        <time>2022-10-18T10:31:52Z</time>
      </trkpt>
      <trkpt lat="46.64255" lon="6.08014">
        <ele>1054.9</ele>
        <time>2022-10-18T10:31:57Z</time>
      </trkpt>
      <trkpt lat="46.64259" lon="6.08019">
        <ele>1057.7</ele>
        <time>2022-10-18T10:32:06Z</time>
      </trkpt>
      <trkpt lat="46.64263" lon="6.08024">
        <ele>1058.2</ele>
        <time>2022-10-18T10:32:10Z</time>
      </trkpt>
      <trkpt lat="46.64266" lon="6.08027">
        <ele>1059</ele>
        <time>2022-10-18T10:32:14Z</time>
      </trkpt>
      <trkpt lat="46.6427" lon="6.08032">
        <ele>1060.2</ele>
        <time>2022-10-18T10:32:20Z</time>
      </trkpt>
      <trkpt lat="46.64273" lon="6.08036">
        <ele>1061.1</ele>
        <time>2022-10-18T10:32:26Z</time>
      </trkpt>
      <trkpt lat="46.64276" lon="6.08042">
        <ele>1062.3</ele>
        <time>2022-10-18T10:32:33Z</time>
      </trkpt>
      <trkpt lat="46.64278" lon="6.08047">
        <ele>1062.9</ele>
        <time>2022-10-18T10:32:41Z</time>
      </trkpt>
      <trkpt lat="46.64281" lon="6.08054">
        <ele>1063.1</ele>
        <time>2022-10-18T10:32:47Z</time>
      </trkpt>
      <trkpt lat="46.64282" lon="6.0806">
        <ele>1062.6</ele>
        <time>2022-10-18T10:32:54Z</time>
      </trkpt>
      <trkpt lat="46.64286" lon="6.08066">
        <ele>1063.3</ele>
        <time>2022-10-18T10:33:01Z</time>
      </trkpt>
      <trkpt lat="46.64289" lon="6.08072">
        <ele>1065.4</ele>
        <time>2022-10-18T10:33:10Z</time>
      </trkpt>
      <trkpt lat="46.6429" lon="6.08079">
        <ele>1067.9</ele>
        <time>2022-10-18T10:33:19Z</time>
      </trkpt>
      <trkpt lat="46.64289" lon="6.08086">
        <ele>1071.2</ele>
        <time>2022-10-18T10:33:33Z</time>
      </trkpt>
      <trkpt lat="46.64285" lon="6.0809">
        <ele>1070.3</ele>
        <time>2022-10-18T10:33:37Z</time>
      </trkpt>
      <trkpt lat="46.64288" lon="6.08096">
        <ele>1067</ele>
        <time>2022-10-18T10:33:48Z</time>
      </trkpt>
      <trkpt lat="46.64292" lon="6.08101">
        <ele>1065.7</ele>
        <time>2022-10-18T10:33:54Z</time>
      </trkpt>
      <trkpt lat="46.64296" lon="6.08105">
        <ele>1064.9</ele>
        <time>2022-10-18T10:34:06Z</time>
      </trkpt>
      <trkpt lat="46.64301" lon="6.08106">
        <ele>1066.1</ele>
        <time>2022-10-18T10:34:17Z</time>
      </trkpt>
      <trkpt lat="46.64306" lon="6.08109">
        <ele>1067.1</ele>
        <time>2022-10-18T10:34:20Z</time>
      </trkpt>
      <trkpt lat="46.64311" lon="6.08113">
        <ele>1068.4</ele>
        <time>2022-10-18T10:34:24Z</time>
      </trkpt>
      <trkpt lat="46.64314" lon="6.08118">
        <ele>1070</ele>
        <time>2022-10-18T10:34:29Z</time>
      </trkpt>
      <trkpt lat="46.64316" lon="6.08125">
        <ele>1071.8</ele>
        <time>2022-10-18T10:34:35Z</time>
      </trkpt>
      <trkpt lat="46.64319" lon="6.08131">
        <ele>1073.6</ele>
        <time>2022-10-18T10:34:42Z</time>
      </trkpt>
      <trkpt lat="46.6432" lon="6.08139">
        <ele>1074.6</ele>
        <time>2022-10-18T10:34:47Z</time>
      </trkpt>
      <trkpt lat="46.64322" lon="6.08145">
        <ele>1076</ele>
        <time>2022-10-18T10:34:55Z</time>
      </trkpt>
      <trkpt lat="46.64322" lon="6.08152">
        <ele>1076.9</ele>
        <time>2022-10-18T10:35:00Z</time>
      </trkpt>
      <trkpt lat="46.64322" lon="6.08158">
        <ele>1078.3</ele>
        <time>2022-10-18T10:35:06Z</time>
      </trkpt>
      <trkpt lat="46.64325" lon="6.08164">
        <ele>1080.3</ele>
        <time>2022-10-18T10:35:18Z</time>
      </trkpt>
      <trkpt lat="46.64329" lon="6.08167">
        <ele>1080.3</ele>
        <time>2022-10-18T10:35:24Z</time>
      </trkpt>
      <trkpt lat="46.64334" lon="6.08167">
        <ele>1079.6</ele>
        <time>2022-10-18T10:35:31Z</time>
      </trkpt>
      <trkpt lat="46.64336" lon="6.08173">
        <ele>1077.8</ele>
        <time>2022-10-18T10:35:49Z</time>
      </trkpt>
      <trkpt lat="46.64339" lon="6.08178">
        <ele>1075.4</ele>
        <time>2022-10-18T10:35:56Z</time>
      </trkpt>
      <trkpt lat="46.64343" lon="6.08183">
        <ele>1073.6</ele>
        <time>2022-10-18T10:36:02Z</time>
      </trkpt>
      <trkpt lat="46.64348" lon="6.08186">
        <ele>1072</ele>
        <time>2022-10-18T10:36:08Z</time>
      </trkpt>
      <trkpt lat="46.6435" lon="6.08193">
        <ele>1071</ele>
        <time>2022-10-18T10:36:14Z</time>
      </trkpt>
      <trkpt lat="46.64352" lon="6.082">
        <ele>1070.7</ele>
        <time>2022-10-18T10:36:19Z</time>
      </trkpt>
      <trkpt lat="46.64355" lon="6.08206">
        <ele>1070.9</ele>
        <time>2022-10-18T10:36:25Z</time>
      </trkpt>
      <trkpt lat="46.64358" lon="6.08212">
        <ele>1072.3</ele>
        <time>2022-10-18T10:36:34Z</time>
      </trkpt>
      <trkpt lat="46.64361" lon="6.08217">
        <ele>1072.7</ele>
        <time>2022-10-18T10:36:41Z</time>
      </trkpt>
      <trkpt lat="46.64365" lon="6.08221">
        <ele>1072.9</ele>
        <time>2022-10-18T10:36:46Z</time>
      </trkpt>
      <trkpt lat="46.6437" lon="6.08223">
        <ele>1073.4</ele>
        <time>2022-10-18T10:36:50Z</time>
      </trkpt>
      <trkpt lat="46.64376" lon="6.08224">
        <ele>1074</ele>
        <time>2022-10-18T10:36:54Z</time>
      </trkpt>
      <trkpt lat="46.6438" lon="6.08226">
        <ele>1074.7</ele>
        <time>2022-10-18T10:36:58Z</time>
      </trkpt>
      <trkpt lat="46.64384" lon="6.08228">
        <ele>1075.6</ele>
        <time>2022-10-18T10:37:05Z</time>
      </trkpt>
      <trkpt lat="46.64391" lon="6.08228">
        <ele>1076</ele>
        <time>2022-10-18T10:37:16Z</time>
      </trkpt>
      <trkpt lat="46.64396" lon="6.08229">
        <ele>1075.9</ele>
        <time>2022-10-18T10:37:20Z</time>
      </trkpt>
      <trkpt lat="46.64399" lon="6.08233">
        <ele>1075.6</ele>
        <time>2022-10-18T10:37:26Z</time>
      </trkpt>
      <trkpt lat="46.64404" lon="6.08229">
        <ele>1069.6</ele>
        <time>2022-10-18T10:37:44Z</time>
      </trkpt>
      <trkpt lat="46.64409" lon="6.08229">
        <ele>1068</ele>
        <time>2022-10-18T10:37:50Z</time>
      </trkpt>
      <trkpt lat="46.64413" lon="6.08228">
        <ele>1066.5</ele>
        <time>2022-10-18T10:37:58Z</time>
      </trkpt>
      <trkpt lat="46.64416" lon="6.08223">
        <ele>1066.2</ele>
        <time>2022-10-18T10:38:05Z</time>
      </trkpt>
      <trkpt lat="46.64421" lon="6.08222">
        <ele>1065.7</ele>
        <time>2022-10-18T10:38:14Z</time>
      </trkpt>
      <trkpt lat="46.64427" lon="6.08221">
        <ele>1065.4</ele>
        <time>2022-10-18T10:38:20Z</time>
      </trkpt>
      <trkpt lat="46.64431" lon="6.08222">
        <ele>1064.7</ele>
        <time>2022-10-18T10:38:25Z</time>
      </trkpt>
      <trkpt lat="46.64437" lon="6.08224">
        <ele>1064.6</ele>
        <time>2022-10-18T10:38:30Z</time>
      </trkpt>
      <trkpt lat="46.64441" lon="6.08228">
        <ele>1065.1</ele>
        <time>2022-10-18T10:38:35Z</time>
      </trkpt>
      <trkpt lat="46.64446" lon="6.0823">
        <ele>1065.5</ele>
        <time>2022-10-18T10:38:40Z</time>
      </trkpt>
      <trkpt lat="46.6445" lon="6.0823">
        <ele>1065.1</ele>
        <time>2022-10-18T10:38:46Z</time>
      </trkpt>
      <trkpt lat="46.64454" lon="6.08235">
        <ele>1064.2</ele>
        <time>2022-10-18T10:38:56Z</time>
      </trkpt>
      <trkpt lat="46.64458" lon="6.08238">
        <ele>1063.3</ele>
        <time>2022-10-18T10:39:03Z</time>
      </trkpt>
      <trkpt lat="46.64462" lon="6.08242">
        <ele>1061.8</ele>
        <time>2022-10-18T10:39:10Z</time>
      </trkpt>
      <trkpt lat="46.64466" lon="6.08244">
        <ele>1060.2</ele>
        <time>2022-10-18T10:39:15Z</time>
      </trkpt>
      <trkpt lat="46.64471" lon="6.08242">
        <ele>1059.2</ele>
        <time>2022-10-18T10:39:19Z</time>
      </trkpt>
      <trkpt lat="46.64475" lon="6.08245">
        <ele>1055.8</ele>
        <time>2022-10-18T10:39:30Z</time>
      </trkpt>
      <trkpt lat="46.6448" lon="6.08248">
        <ele>1054.4</ele>
        <time>2022-10-18T10:39:38Z</time>
      </trkpt>
      <trkpt lat="46.64484" lon="6.08249">
        <ele>1054</ele>
        <time>2022-10-18T10:39:43Z</time>
      </trkpt>
      <trkpt lat="46.64489" lon="6.0825">
        <ele>1053.7</ele>
        <time>2022-10-18T10:39:47Z</time>
      </trkpt>
      <trkpt lat="46.64495" lon="6.08252">
        <ele>1053.1</ele>
        <time>2022-10-18T10:40:20Z</time>
      </trkpt>
      <trkpt lat="46.645" lon="6.08255">
        <ele>1052.6</ele>
        <time>2022-10-18T10:40:24Z</time>
      </trkpt>
      <trkpt lat="46.64503" lon="6.0826">
        <ele>1052.4</ele>
        <time>2022-10-18T10:40:29Z</time>
      </trkpt>
      <trkpt lat="46.64508" lon="6.08259">
        <ele>1051</ele>
        <time>2022-10-18T10:40:38Z</time>
      </trkpt>
      <trkpt lat="46.64513" lon="6.08262">
        <ele>1051.3</ele>
        <time>2022-10-18T10:40:44Z</time>
      </trkpt>
      <trkpt lat="46.64518" lon="6.08263">
        <ele>1051.1</ele>
        <time>2022-10-18T10:40:49Z</time>
      </trkpt>
      <trkpt lat="46.64522" lon="6.08267">
        <ele>1050.5</ele>
        <time>2022-10-18T10:40:55Z</time>
      </trkpt>
      <trkpt lat="46.64527" lon="6.08268">
        <ele>1049</ele>
        <time>2022-10-18T10:41:00Z</time>
      </trkpt>
      <trkpt lat="46.64531" lon="6.08267">
        <ele>1047.5</ele>
        <time>2022-10-18T10:41:07Z</time>
      </trkpt>
      <trkpt lat="46.64536" lon="6.0827">
        <ele>1046.1</ele>
        <time>2022-10-18T10:41:19Z</time>
      </trkpt>
      <trkpt lat="46.64539" lon="6.08276">
        <ele>1045.2</ele>
        <time>2022-10-18T10:41:24Z</time>
      </trkpt>
      <trkpt lat="46.64542" lon="6.08281">
        <ele>1043.6</ele>
        <time>2022-10-18T10:41:30Z</time>
      </trkpt>
      <trkpt lat="46.64547" lon="6.08284">
        <ele>1042</ele>
        <time>2022-10-18T10:41:37Z</time>
      </trkpt>
      <trkpt lat="46.64551" lon="6.08288">
        <ele>1041</ele>
        <time>2022-10-18T10:41:43Z</time>
      </trkpt>
      <trkpt lat="46.64556" lon="6.08291">
        <ele>1039.5</ele>
        <time>2022-10-18T10:41:49Z</time>
      </trkpt>
      <trkpt lat="46.64561" lon="6.08292">
        <ele>1038.4</ele>
        <time>2022-10-18T10:41:54Z</time>
      </trkpt>
      <trkpt lat="46.64566" lon="6.08293">
        <ele>1037.6</ele>
        <time>2022-10-18T10:41:59Z</time>
      </trkpt>
      <trkpt lat="46.64571" lon="6.08296">
        <ele>1036.7</ele>
        <time>2022-10-18T10:42:05Z</time>
      </trkpt>
      <trkpt lat="46.64574" lon="6.08301">
        <ele>1035.3</ele>
        <time>2022-10-18T10:42:13Z</time>
      </trkpt>
      <trkpt lat="46.64579" lon="6.08302">
        <ele>1033.8</ele>
        <time>2022-10-18T10:42:19Z</time>
      </trkpt>
      <trkpt lat="46.64584" lon="6.08303">
        <ele>1032.6</ele>
        <time>2022-10-18T10:42:24Z</time>
      </trkpt>
      <trkpt lat="46.6459" lon="6.083">
        <ele>1032.6</ele>
        <time>2022-10-18T10:42:28Z</time>
      </trkpt>
      <trkpt lat="46.64591" lon="6.08293">
        <ele>1032.8</ele>
        <time>2022-10-18T10:42:35Z</time>
      </trkpt>
      <trkpt lat="46.64591" lon="6.08286">
        <ele>1032.3</ele>
        <time>2022-10-18T10:42:41Z</time>
      </trkpt>
      <trkpt lat="46.64591" lon="6.08279">
        <ele>1031.7</ele>
        <time>2022-10-18T10:42:46Z</time>
      </trkpt>
      <trkpt lat="46.64596" lon="6.08278">
        <ele>1031.8</ele>
        <time>2022-10-18T10:43:00Z</time>
      </trkpt>
      <trkpt lat="46.646" lon="6.08282">
        <ele>1032.2</ele>
        <time>2022-10-18T10:43:08Z</time>
      </trkpt>
      <trkpt lat="46.64603" lon="6.08288">
        <ele>1030</ele>
        <time>2022-10-18T10:43:22Z</time>
      </trkpt>
      <trkpt lat="46.64606" lon="6.08294">
        <ele>1028.3</ele>
        <time>2022-10-18T10:43:30Z</time>
      </trkpt>
      <trkpt lat="46.64607" lon="6.083">
        <ele>1027.4</ele>
        <time>2022-10-18T10:43:35Z</time>
      </trkpt>
      <trkpt lat="46.64611" lon="6.08305">
        <ele>1026.3</ele>
        <time>2022-10-18T10:43:40Z</time>
      </trkpt>
      <trkpt lat="46.64615" lon="6.08309">
        <ele>1025.6</ele>
        <time>2022-10-18T10:43:45Z</time>
      </trkpt>
      <trkpt lat="46.6462" lon="6.08311">
        <ele>1025.1</ele>
        <time>2022-10-18T10:43:49Z</time>
      </trkpt>
      <trkpt lat="46.64624" lon="6.08314">
        <ele>1024.9</ele>
        <time>2022-10-18T10:43:53Z</time>
      </trkpt>
      <trkpt lat="46.64629" lon="6.08316">
        <ele>1026.3</ele>
        <time>2022-10-18T10:43:58Z</time>
      </trkpt>
      <trkpt lat="46.64634" lon="6.08317">
        <ele>1027.7</ele>
        <time>2022-10-18T10:44:02Z</time>
      </trkpt>
      <trkpt lat="46.64638" lon="6.08319">
        <ele>1029.1</ele>
        <time>2022-10-18T10:44:07Z</time>
      </trkpt>
      <trkpt lat="46.64643" lon="6.0832">
        <ele>1030</ele>
        <time>2022-10-18T10:44:15Z</time>
      </trkpt>
      <trkpt lat="46.64646" lon="6.08325">
        <ele>1031</ele>
        <time>2022-10-18T10:46:33Z</time>
      </trkpt>
      <trkpt lat="46.6465" lon="6.08329">
        <ele>1031.2</ele>
        <time>2022-10-18T10:46:39Z</time>
      </trkpt>
      <trkpt lat="46.64654" lon="6.08334">
        <ele>1030.8</ele>
        <time>2022-10-18T10:46:44Z</time>
      </trkpt>
      <trkpt lat="46.64657" lon="6.0834">
        <ele>1030.4</ele>
        <time>2022-10-18T10:46:49Z</time>
      </trkpt>
      <trkpt lat="46.6466" lon="6.08345">
        <ele>1029.9</ele>
        <time>2022-10-18T10:46:54Z</time>
      </trkpt>
      <trkpt lat="46.64664" lon="6.08351">
        <ele>1029.5</ele>
        <time>2022-10-18T10:46:59Z</time>
      </trkpt>
      <trkpt lat="46.64668" lon="6.08355">
        <ele>1029.5</ele>
        <time>2022-10-18T10:47:04Z</time>
      </trkpt>
      <trkpt lat="46.64671" lon="6.0836">
        <ele>1028.9</ele>
        <time>2022-10-18T10:47:08Z</time>
      </trkpt>
      <trkpt lat="46.64675" lon="6.08365">
        <ele>1027.8</ele>
        <time>2022-10-18T10:47:13Z</time>
      </trkpt>
      <trkpt lat="46.64678" lon="6.08371">
        <ele>1026.5</ele>
        <time>2022-10-18T10:47:18Z</time>
      </trkpt>
      <trkpt lat="46.64682" lon="6.08377">
        <ele>1025.6</ele>
        <time>2022-10-18T10:47:23Z</time>
      </trkpt>
      <trkpt lat="46.64685" lon="6.08383">
        <ele>1025.4</ele>
        <time>2022-10-18T10:47:27Z</time>
      </trkpt>
      <trkpt lat="46.64687" lon="6.08389">
        <ele>1025.3</ele>
        <time>2022-10-18T10:47:31Z</time>
      </trkpt>
      <trkpt lat="46.64691" lon="6.08394">
        <ele>1025.4</ele>
        <time>2022-10-18T10:47:35Z</time>
      </trkpt>
      <trkpt lat="46.64695" lon="6.084">
        <ele>1025</ele>
        <time>2022-10-18T10:47:39Z</time>
      </trkpt>
      <trkpt lat="46.64699" lon="6.08406">
        <ele>1024.6</ele>
        <time>2022-10-18T10:47:44Z</time>
      </trkpt>
      <trkpt lat="46.64703" lon="6.08409">
        <ele>1024.4</ele>
        <time>2022-10-18T10:47:48Z</time>
      </trkpt>
      <trkpt lat="46.64707" lon="6.08414">
        <ele>1024.6</ele>
        <time>2022-10-18T10:47:52Z</time>
      </trkpt>
      <trkpt lat="46.64711" lon="6.08416">
        <ele>1025.4</ele>
        <time>2022-10-18T10:47:58Z</time>
      </trkpt>
      <trkpt lat="46.64716" lon="6.08418">
        <ele>1026.1</ele>
        <time>2022-10-18T10:48:02Z</time>
      </trkpt>
      <trkpt lat="46.64722" lon="6.08421">
        <ele>1026.1</ele>
        <time>2022-10-18T10:48:05Z</time>
      </trkpt>
      <trkpt lat="46.64727" lon="6.08425">
        <ele>1025.8</ele>
        <time>2022-10-18T10:48:09Z</time>
      </trkpt>
      <trkpt lat="46.64732" lon="6.08429">
        <ele>1025.3</ele>
        <time>2022-10-18T10:48:13Z</time>
      </trkpt>
      <trkpt lat="46.64736" lon="6.08431">
        <ele>1025</ele>
        <time>2022-10-18T10:48:16Z</time>
      </trkpt>
      <trkpt lat="46.64741" lon="6.08434">
        <ele>1024.9</ele>
        <time>2022-10-18T10:48:20Z</time>
      </trkpt>
      <trkpt lat="46.64744" lon="6.08438">
        <ele>1024.8</ele>
        <time>2022-10-18T10:48:24Z</time>
      </trkpt>
      <trkpt lat="46.64749" lon="6.08442">
        <ele>1024.5</ele>
        <time>2022-10-18T10:48:28Z</time>
      </trkpt>
      <trkpt lat="46.64753" lon="6.08446">
        <ele>1024.1</ele>
        <time>2022-10-18T10:48:32Z</time>
      </trkpt>
      <trkpt lat="46.64757" lon="6.08449">
        <ele>1023.9</ele>
        <time>2022-10-18T10:48:36Z</time>
      </trkpt>
      <trkpt lat="46.64761" lon="6.08454">
        <ele>1023.4</ele>
        <time>2022-10-18T10:48:41Z</time>
      </trkpt>
      <trkpt lat="46.64763" lon="6.0846">
        <ele>1022.6</ele>
        <time>2022-10-18T10:48:45Z</time>
      </trkpt>
      <trkpt lat="46.64766" lon="6.08465">
        <ele>1021.7</ele>
        <time>2022-10-18T10:48:49Z</time>
      </trkpt>
      <trkpt lat="46.6477" lon="6.08469">
        <ele>1020.7</ele>
        <time>2022-10-18T10:48:54Z</time>
      </trkpt>
      <trkpt lat="46.64774" lon="6.08474">
        <ele>1020.9</ele>
        <time>2022-10-18T10:48:58Z</time>
      </trkpt>
      <trkpt lat="46.64779" lon="6.08477">
        <ele>1021.2</ele>
        <time>2022-10-18T10:49:03Z</time>
      </trkpt>
      <trkpt lat="46.64782" lon="6.08483">
        <ele>1021.1</ele>
        <time>2022-10-18T10:49:07Z</time>
      </trkpt>
      <trkpt lat="46.64786" lon="6.08489">
        <ele>1021.2</ele>
        <time>2022-10-18T10:49:11Z</time>
      </trkpt>
      <trkpt lat="46.6479" lon="6.08492">
        <ele>1021.1</ele>
        <time>2022-10-18T10:49:16Z</time>
      </trkpt>
      <trkpt lat="46.64794" lon="6.08497">
        <ele>1020</ele>
        <time>2022-10-18T10:49:21Z</time>
      </trkpt>
      <trkpt lat="46.64797" lon="6.08503">
        <ele>1019.4</ele>
        <time>2022-10-18T10:49:26Z</time>
      </trkpt>
      <trkpt lat="46.648" lon="6.0851">
        <ele>1019.4</ele>
        <time>2022-10-18T10:49:30Z</time>
      </trkpt>
      <trkpt lat="46.64804" lon="6.08514">
        <ele>1019.7</ele>
        <time>2022-10-18T10:49:34Z</time>
      </trkpt>
      <trkpt lat="46.64808" lon="6.08518">
        <ele>1020.4</ele>
        <time>2022-10-18T10:49:39Z</time>
      </trkpt>
      <trkpt lat="46.64811" lon="6.08524">
        <ele>1020.4</ele>
        <time>2022-10-18T10:49:43Z</time>
      </trkpt>
      <trkpt lat="46.64814" lon="6.08529">
        <ele>1020.5</ele>
        <time>2022-10-18T10:49:47Z</time>
      </trkpt>
      <trkpt lat="46.64818" lon="6.08532">
        <ele>1020.1</ele>
        <time>2022-10-18T10:49:51Z</time>
      </trkpt>
      <trkpt lat="46.64823" lon="6.08536">
        <ele>1020</ele>
        <time>2022-10-18T10:49:55Z</time>
      </trkpt>
      <trkpt lat="46.64827" lon="6.08538">
        <ele>1019.7</ele>
        <time>2022-10-18T10:49:59Z</time>
      </trkpt>
      <trkpt lat="46.64832" lon="6.08539">
        <ele>1019.3</ele>
        <time>2022-10-18T10:50:04Z</time>
      </trkpt>
      <trkpt lat="46.64836" lon="6.08543">
        <ele>1018.3</ele>
        <time>2022-10-18T10:50:11Z</time>
      </trkpt>
      <trkpt lat="46.64841" lon="6.08547">
        <ele>1017.9</ele>
        <time>2022-10-18T10:50:17Z</time>
      </trkpt>
      <trkpt lat="46.64846" lon="6.08547">
        <ele>1017.9</ele>
        <time>2022-10-18T10:50:22Z</time>
      </trkpt>
      <trkpt lat="46.64851" lon="6.0855">
        <ele>1018.2</ele>
        <time>2022-10-18T10:50:26Z</time>
      </trkpt>
      <trkpt lat="46.64855" lon="6.08554">
        <ele>1018.4</ele>
        <time>2022-10-18T10:50:31Z</time>
      </trkpt>
      <trkpt lat="46.64859" lon="6.08559">
        <ele>1018</ele>
        <time>2022-10-18T10:50:38Z</time>
      </trkpt>
      <trkpt lat="46.64864" lon="6.08562">
        <ele>1017.4</ele>
        <time>2022-10-18T10:50:42Z</time>
      </trkpt>
      <trkpt lat="46.6487" lon="6.08564">
        <ele>1016.8</ele>
        <time>2022-10-18T10:50:46Z</time>
      </trkpt>
      <trkpt lat="46.64874" lon="6.08566">
        <ele>1015.7</ele>
        <time>2022-10-18T10:50:52Z</time>
      </trkpt>
      <trkpt lat="46.64879" lon="6.08567">
        <ele>1013.9</ele>
        <time>2022-10-18T10:51:08Z</time>
      </trkpt>
      <trkpt lat="46.64884" lon="6.08566">
        <ele>1014.5</ele>
        <time>2022-10-18T10:51:13Z</time>
      </trkpt>
      <trkpt lat="46.64889" lon="6.08565">
        <ele>1014.7</ele>
        <time>2022-10-18T10:51:17Z</time>
      </trkpt>
      <trkpt lat="46.64893" lon="6.08561">
        <ele>1014.8</ele>
        <time>2022-10-18T10:51:22Z</time>
      </trkpt>
      <trkpt lat="46.64896" lon="6.08556">
        <ele>1015</ele>
        <time>2022-10-18T10:51:27Z</time>
      </trkpt>
      <trkpt lat="46.64899" lon="6.08551">
        <ele>1015</ele>
        <time>2022-10-18T10:51:32Z</time>
      </trkpt>
      <trkpt lat="46.64902" lon="6.08546">
        <ele>1014.9</ele>
        <time>2022-10-18T10:51:36Z</time>
      </trkpt>
      <trkpt lat="46.64906" lon="6.08542">
        <ele>1014.6</ele>
        <time>2022-10-18T10:51:40Z</time>
      </trkpt>
      <trkpt lat="46.6491" lon="6.08538">
        <ele>1014.1</ele>
        <time>2022-10-18T10:51:44Z</time>
      </trkpt>
      <trkpt lat="46.64913" lon="6.08533">
        <ele>1013.7</ele>
        <time>2022-10-18T10:51:50Z</time>
      </trkpt>
      <trkpt lat="46.64917" lon="6.08528">
        <ele>1014</ele>
        <time>2022-10-18T10:51:55Z</time>
      </trkpt>
      <trkpt lat="46.64921" lon="6.08522">
        <ele>1014.8</ele>
        <time>2022-10-18T10:52:00Z</time>
      </trkpt>
      <trkpt lat="46.64924" lon="6.08517">
        <ele>1015.2</ele>
        <time>2022-10-18T10:52:05Z</time>
      </trkpt>
      <trkpt lat="46.64928" lon="6.08514">
        <ele>1015.3</ele>
        <time>2022-10-18T10:52:10Z</time>
      </trkpt>
      <trkpt lat="46.64933" lon="6.08511">
        <ele>1015.4</ele>
        <time>2022-10-18T10:52:16Z</time>
      </trkpt>
      <trkpt lat="46.64938" lon="6.08509">
        <ele>1015.6</ele>
        <time>2022-10-18T10:52:22Z</time>
      </trkpt>
      <trkpt lat="46.64943" lon="6.08507">
        <ele>1016.1</ele>
        <time>2022-10-18T10:52:29Z</time>
      </trkpt>
      <trkpt lat="46.64947" lon="6.08507">
        <ele>1016.9</ele>
        <time>2022-10-18T10:52:36Z</time>
      </trkpt>
      <trkpt lat="46.64953" lon="6.08507">
        <ele>1017.7</ele>
        <time>2022-10-18T10:52:41Z</time>
      </trkpt>
      <trkpt lat="46.64957" lon="6.08505">
        <ele>1018.5</ele>
        <time>2022-10-18T10:52:46Z</time>
      </trkpt>
      <trkpt lat="46.64962" lon="6.08504">
        <ele>1019.2</ele>
        <time>2022-10-18T10:52:52Z</time>
      </trkpt>
      <trkpt lat="46.64966" lon="6.08502">
        <ele>1020</ele>
        <time>2022-10-18T10:53:01Z</time>
      </trkpt>
      <trkpt lat="46.64964" lon="6.08495">
        <ele>1019.7</ele>
        <time>2022-10-18T10:53:14Z</time>
      </trkpt>
      <trkpt lat="46.6496" lon="6.08491">
        <ele>1019.3</ele>
        <time>2022-10-18T10:53:19Z</time>
      </trkpt>
      <trkpt lat="46.64956" lon="6.08486">
        <ele>1019.1</ele>
        <time>2022-10-18T10:53:25Z</time>
      </trkpt>
      <trkpt lat="46.64951" lon="6.08485">
        <ele>1018.6</ele>
        <time>2022-10-18T10:53:31Z</time>
      </trkpt>
      <trkpt lat="46.64949" lon="6.08478">
        <ele>1017.2</ele>
        <time>2022-10-18T10:53:46Z</time>
      </trkpt>
      <trkpt lat="46.64947" lon="6.08471">
        <ele>1017.5</ele>
        <time>2022-10-18T10:53:51Z</time>
      </trkpt>
      <trkpt lat="46.64946" lon="6.08463">
        <ele>1017.4</ele>
        <time>2022-10-18T10:53:56Z</time>
      </trkpt>
      <trkpt lat="46.64944" lon="6.08456">
        <ele>1017.1</ele>
        <time>2022-10-18T10:54:01Z</time>
      </trkpt>
      <trkpt lat="46.64942" lon="6.0845">
        <ele>1016.4</ele>
        <time>2022-10-18T10:54:06Z</time>
      </trkpt>
      <trkpt lat="46.64939" lon="6.08444">
        <ele>1015.4</ele>
        <time>2022-10-18T10:54:12Z</time>
      </trkpt>
      <trkpt lat="46.64936" lon="6.08438">
        <ele>1014.4</ele>
        <time>2022-10-18T10:54:17Z</time>
      </trkpt>
      <trkpt lat="46.64932" lon="6.08432">
        <ele>1014</ele>
        <time>2022-10-18T10:54:22Z</time>
      </trkpt>
      <trkpt lat="46.64929" lon="6.08427">
        <ele>1014</ele>
        <time>2022-10-18T10:54:27Z</time>
      </trkpt>
      <trkpt lat="46.64925" lon="6.08423">
        <ele>1014.5</ele>
        <time>2022-10-18T10:54:32Z</time>
      </trkpt>
      <trkpt lat="46.64921" lon="6.08418">
        <ele>1014.9</ele>
        <time>2022-10-18T10:54:36Z</time>
      </trkpt>
      <trkpt lat="46.64918" lon="6.08414">
        <ele>1015</ele>
        <time>2022-10-18T10:54:40Z</time>
      </trkpt>
      <trkpt lat="46.64914" lon="6.08409">
        <ele>1014.4</ele>
        <time>2022-10-18T10:54:45Z</time>
      </trkpt>
      <trkpt lat="46.64911" lon="6.08403">
        <ele>1014.3</ele>
        <time>2022-10-18T10:54:51Z</time>
      </trkpt>
      <trkpt lat="46.64908" lon="6.08398">
        <ele>1014.1</ele>
        <time>2022-10-18T10:54:55Z</time>
      </trkpt>
      <trkpt lat="46.64904" lon="6.08393">
        <ele>1014.2</ele>
        <time>2022-10-18T10:55:00Z</time>
      </trkpt>
      <trkpt lat="46.649" lon="6.08388">
        <ele>1014.4</ele>
        <time>2022-10-18T10:55:05Z</time>
      </trkpt>
      <trkpt lat="46.64896" lon="6.08383">
        <ele>1014.4</ele>
        <time>2022-10-18T10:55:10Z</time>
      </trkpt>
      <trkpt lat="46.64892" lon="6.08379">
        <ele>1014.4</ele>
        <time>2022-10-18T10:55:16Z</time>
      </trkpt>
      <trkpt lat="46.64888" lon="6.08373">
        <ele>1014.6</ele>
        <time>2022-10-18T10:55:22Z</time>
      </trkpt>
      <trkpt lat="46.64885" lon="6.08368">
        <ele>1014.7</ele>
        <time>2022-10-18T10:55:26Z</time>
      </trkpt>
      <trkpt lat="46.64882" lon="6.08363">
        <ele>1014.6</ele>
        <time>2022-10-18T10:55:31Z</time>
      </trkpt>
      <trkpt lat="46.64879" lon="6.08357">
        <ele>1014.9</ele>
        <time>2022-10-18T10:55:36Z</time>
      </trkpt>
      <trkpt lat="46.64877" lon="6.0835">
        <ele>1014.8</ele>
        <time>2022-10-18T10:55:41Z</time>
      </trkpt>
      <trkpt lat="46.64876" lon="6.08343">
        <ele>1013.9</ele>
        <time>2022-10-18T10:55:47Z</time>
      </trkpt>
      <trkpt lat="46.64874" lon="6.08336">
        <ele>1012.3</ele>
        <time>2022-10-18T10:55:53Z</time>
      </trkpt>
      <trkpt lat="46.64874" lon="6.08328">
        <ele>1011.4</ele>
        <time>2022-10-18T10:55:58Z</time>
      </trkpt>
      <trkpt lat="46.64874" lon="6.0832">
        <ele>1011.3</ele>
        <time>2022-10-18T10:56:02Z</time>
      </trkpt>
      <trkpt lat="46.64874" lon="6.08312">
        <ele>1011.5</ele>
        <time>2022-10-18T10:56:07Z</time>
      </trkpt>
      <trkpt lat="46.64873" lon="6.08305">
        <ele>1011.5</ele>
        <time>2022-10-18T10:56:12Z</time>
      </trkpt>
      <trkpt lat="46.64872" lon="6.08298">
        <ele>1011.8</ele>
        <time>2022-10-18T10:56:17Z</time>
      </trkpt>
      <trkpt lat="46.64871" lon="6.0829">
        <ele>1012.4</ele>
        <time>2022-10-18T10:56:23Z</time>
      </trkpt>
      <trkpt lat="46.6487" lon="6.08283">
        <ele>1012.6</ele>
        <time>2022-10-18T10:56:28Z</time>
      </trkpt>
      <trkpt lat="46.64869" lon="6.08275">
        <ele>1012.5</ele>
        <time>2022-10-18T10:56:33Z</time>
      </trkpt>
      <trkpt lat="46.64869" lon="6.08268">
        <ele>1012.3</ele>
        <time>2022-10-18T10:56:38Z</time>
      </trkpt>
      <trkpt lat="46.6487" lon="6.08261">
        <ele>1011.7</ele>
        <time>2022-10-18T10:56:43Z</time>
      </trkpt>
      <trkpt lat="46.64871" lon="6.08254">
        <ele>1010.7</ele>
        <time>2022-10-18T10:56:48Z</time>
      </trkpt>
      <trkpt lat="46.64871" lon="6.08247">
        <ele>1009.3</ele>
        <time>2022-10-18T10:56:53Z</time>
      </trkpt>
      <trkpt lat="46.6487" lon="6.08239">
        <ele>1008</ele>
        <time>2022-10-18T10:56:58Z</time>
      </trkpt>
      <trkpt lat="46.64869" lon="6.08231">
        <ele>1007.4</ele>
        <time>2022-10-18T10:57:03Z</time>
      </trkpt>
      <trkpt lat="46.64867" lon="6.08225">
        <ele>1007.3</ele>
        <time>2022-10-18T10:57:08Z</time>
      </trkpt>
      <trkpt lat="46.64866" lon="6.08219">
        <ele>1007.5</ele>
        <time>2022-10-18T10:57:12Z</time>
      </trkpt>
      <trkpt lat="46.64866" lon="6.08212">
        <ele>1007.9</ele>
        <time>2022-10-18T10:57:17Z</time>
      </trkpt>
      <trkpt lat="46.64866" lon="6.08205">
        <ele>1008.4</ele>
        <time>2022-10-18T10:57:22Z</time>
      </trkpt>
      <trkpt lat="46.64869" lon="6.082">
        <ele>1008.8</ele>
        <time>2022-10-18T10:57:29Z</time>
      </trkpt>
      <trkpt lat="46.64873" lon="6.08196">
        <ele>1009.3</ele>
        <time>2022-10-18T10:57:35Z</time>
      </trkpt>
      <trkpt lat="46.64877" lon="6.08193">
        <ele>1011</ele>
        <time>2022-10-18T10:57:46Z</time>
      </trkpt>
      <trkpt lat="46.64881" lon="6.08189">
        <ele>1012.3</ele>
        <time>2022-10-18T10:57:56Z</time>
      </trkpt>
      <trkpt lat="46.64885" lon="6.08186">
        <ele>1013.4</ele>
        <time>2022-10-18T10:58:05Z</time>
      </trkpt>
      <trkpt lat="46.6489" lon="6.08185">
        <ele>1013.2</ele>
        <time>2022-10-18T10:58:10Z</time>
      </trkpt>
      <trkpt lat="46.64896" lon="6.08186">
        <ele>1012.9</ele>
        <time>2022-10-18T10:58:14Z</time>
      </trkpt>
      <trkpt lat="46.649" lon="6.08184">
        <ele>1012.1</ele>
        <time>2022-10-18T10:58:18Z</time>
      </trkpt>
      <trkpt lat="46.64904" lon="6.08179">
        <ele>1010.7</ele>
        <time>2022-10-18T10:58:23Z</time>
      </trkpt>
      <trkpt lat="46.64907" lon="6.08175">
        <ele>1009.8</ele>
        <time>2022-10-18T10:58:27Z</time>
      </trkpt>
      <trkpt lat="46.64911" lon="6.0817">
        <ele>1009</ele>
        <time>2022-10-18T10:58:32Z</time>
      </trkpt>
      <trkpt lat="46.64914" lon="6.08164">
        <ele>1008.4</ele>
        <time>2022-10-18T10:58:38Z</time>
      </trkpt>
      <trkpt lat="46.64918" lon="6.08161">
        <ele>1007.9</ele>
        <time>2022-10-18T10:58:44Z</time>
      </trkpt>
      <trkpt lat="46.64922" lon="6.08157">
        <ele>1007.6</ele>
        <time>2022-10-18T10:58:49Z</time>
      </trkpt>
      <trkpt lat="46.64925" lon="6.08151">
        <ele>1007.9</ele>
        <time>2022-10-18T10:58:57Z</time>
      </trkpt>
      <trkpt lat="46.64928" lon="6.08146">
        <ele>1007.6</ele>
        <time>2022-10-18T10:59:02Z</time>
      </trkpt>
      <trkpt lat="46.64932" lon="6.08141">
        <ele>1006.9</ele>
        <time>2022-10-18T10:59:08Z</time>
      </trkpt>
      <trkpt lat="46.64936" lon="6.08138">
        <ele>1005.9</ele>
        <time>2022-10-18T10:59:14Z</time>
      </trkpt>
      <trkpt lat="46.6494" lon="6.08134">
        <ele>1005</ele>
        <time>2022-10-18T10:59:19Z</time>
      </trkpt>
      <trkpt lat="46.64944" lon="6.08129">
        <ele>1004</ele>
        <time>2022-10-18T10:59:24Z</time>
      </trkpt>
      <trkpt lat="46.64947" lon="6.08125">
        <ele>1003.1</ele>
        <time>2022-10-18T10:59:29Z</time>
      </trkpt>
      <trkpt lat="46.64951" lon="6.08119">
        <ele>1002.2</ele>
        <time>2022-10-18T10:59:34Z</time>
      </trkpt>
      <trkpt lat="46.64954" lon="6.08113">
        <ele>1001.7</ele>
        <time>2022-10-18T10:59:40Z</time>
      </trkpt>
      <trkpt lat="46.64958" lon="6.08108">
        <ele>1000.8</ele>
        <time>2022-10-18T10:59:45Z</time>
      </trkpt>
      <trkpt lat="46.64961" lon="6.08104">
        <ele>999.9</ele>
        <time>2022-10-18T10:59:51Z</time>
      </trkpt>
      <trkpt lat="46.64965" lon="6.081">
        <ele>998.9</ele>
        <time>2022-10-18T10:59:56Z</time>
      </trkpt>
      <trkpt lat="46.64969" lon="6.08097">
        <ele>997.9</ele>
        <time>2022-10-18T11:00:01Z</time>
      </trkpt>
      <trkpt lat="46.64973" lon="6.08092">
        <ele>996.9</ele>
        <time>2022-10-18T11:00:06Z</time>
      </trkpt>
      <trkpt lat="46.64976" lon="6.08085">
        <ele>995.9</ele>
        <time>2022-10-18T11:00:11Z</time>
      </trkpt>
      <trkpt lat="46.64979" lon="6.0808">
        <ele>994.7</ele>
        <time>2022-10-18T11:00:16Z</time>
      </trkpt>
      <trkpt lat="46.64983" lon="6.08077">
        <ele>994.1</ele>
        <time>2022-10-18T11:00:22Z</time>
      </trkpt>
      <trkpt lat="46.64987" lon="6.08071">
        <ele>993.8</ele>
        <time>2022-10-18T11:00:28Z</time>
      </trkpt>
      <trkpt lat="46.64991" lon="6.08068">
        <ele>993.6</ele>
        <time>2022-10-18T11:00:32Z</time>
      </trkpt>
      <trkpt lat="46.64994" lon="6.08062">
        <ele>993.4</ele>
        <time>2022-10-18T11:00:37Z</time>
      </trkpt>
      <trkpt lat="46.64998" lon="6.08057">
        <ele>993.5</ele>
        <time>2022-10-18T11:00:42Z</time>
      </trkpt>
      <trkpt lat="46.65002" lon="6.08053">
        <ele>993.3</ele>
        <time>2022-10-18T11:00:47Z</time>
      </trkpt>
      <trkpt lat="46.65006" lon="6.08048">
        <ele>993</ele>
        <time>2022-10-18T11:00:52Z</time>
      </trkpt>
      <trkpt lat="46.6501" lon="6.08044">
        <ele>992.6</ele>
        <time>2022-10-18T11:00:57Z</time>
      </trkpt>
      <trkpt lat="46.65014" lon="6.0804">
        <ele>992.1</ele>
        <time>2022-10-18T11:01:02Z</time>
      </trkpt>
      <trkpt lat="46.65017" lon="6.08035">
        <ele>992.1</ele>
        <time>2022-10-18T11:01:06Z</time>
      </trkpt>
      <trkpt lat="46.65021" lon="6.08029">
        <ele>992.6</ele>
        <time>2022-10-18T11:01:11Z</time>
      </trkpt>
      <trkpt lat="46.65026" lon="6.08025">
        <ele>993.1</ele>
        <time>2022-10-18T11:01:17Z</time>
      </trkpt>
      <trkpt lat="46.65028" lon="6.08019">
        <ele>993.3</ele>
        <time>2022-10-18T11:01:22Z</time>
      </trkpt>
      <trkpt lat="46.65031" lon="6.08014">
        <ele>993.4</ele>
        <time>2022-10-18T11:01:27Z</time>
      </trkpt>
      <trkpt lat="46.65035" lon="6.08009">
        <ele>992.9</ele>
        <time>2022-10-18T11:01:33Z</time>
      </trkpt>
      <trkpt lat="46.6504" lon="6.08007">
        <ele>993.3</ele>
        <time>2022-10-18T11:01:39Z</time>
      </trkpt>
      <trkpt lat="46.65044" lon="6.08002">
        <ele>994.3</ele>
        <time>2022-10-18T11:01:46Z</time>
      </trkpt>
      <trkpt lat="46.65048" lon="6.07998">
        <ele>994.7</ele>
        <time>2022-10-18T11:01:53Z</time>
      </trkpt>
      <trkpt lat="46.65053" lon="6.07994">
        <ele>994.6</ele>
        <time>2022-10-18T11:01:59Z</time>
      </trkpt>
      <trkpt lat="46.65057" lon="6.07989">
        <ele>994.9</ele>
        <time>2022-10-18T11:02:06Z</time>
      </trkpt>
      <trkpt lat="46.65061" lon="6.07985">
        <ele>995.2</ele>
        <time>2022-10-18T11:02:12Z</time>
      </trkpt>
      <trkpt lat="46.65064" lon="6.07979">
        <ele>995.1</ele>
        <time>2022-10-18T11:02:18Z</time>
      </trkpt>
      <trkpt lat="46.65069" lon="6.07975">
        <ele>994.5</ele>
        <time>2022-10-18T11:02:24Z</time>
      </trkpt>
      <trkpt lat="46.65072" lon="6.0797">
        <ele>994</ele>
        <time>2022-10-18T11:02:31Z</time>
      </trkpt>
      <trkpt lat="46.65076" lon="6.07965">
        <ele>993.6</ele>
        <time>2022-10-18T11:02:36Z</time>
      </trkpt>
      <trkpt lat="46.6508" lon="6.0796">
        <ele>992.9</ele>
        <time>2022-10-18T11:02:43Z</time>
      </trkpt>
      <trkpt lat="46.65084" lon="6.07956">
        <ele>992.4</ele>
        <time>2022-10-18T11:02:48Z</time>
      </trkpt>
      <trkpt lat="46.65089" lon="6.07952">
        <ele>992</ele>
        <time>2022-10-18T11:02:53Z</time>
      </trkpt>
      <trkpt lat="46.65092" lon="6.07948">
        <ele>991.4</ele>
        <time>2022-10-18T11:02:59Z</time>
      </trkpt>
      <trkpt lat="46.65096" lon="6.07945">
        <ele>990.4</ele>
        <time>2022-10-18T11:03:06Z</time>
      </trkpt>
      <trkpt lat="46.65099" lon="6.0794">
        <ele>989.6</ele>
        <time>2022-10-18T11:03:11Z</time>
      </trkpt>
      <trkpt lat="46.65104" lon="6.07937">
        <ele>989</ele>
        <time>2022-10-18T11:03:15Z</time>
      </trkpt>
      <trkpt lat="46.65108" lon="6.07933">
        <ele>988.3</ele>
        <time>2022-10-18T11:03:19Z</time>
      </trkpt>
      <trkpt lat="46.65112" lon="6.07929">
        <ele>987</ele>
        <time>2022-10-18T11:03:25Z</time>
      </trkpt>
      <trkpt lat="46.65115" lon="6.07923">
        <ele>986</ele>
        <time>2022-10-18T11:03:31Z</time>
      </trkpt>
      <trkpt lat="46.65118" lon="6.07918">
        <ele>985.2</ele>
        <time>2022-10-18T11:03:35Z</time>
      </trkpt>
      <trkpt lat="46.65122" lon="6.07913">
        <ele>983.8</ele>
        <time>2022-10-18T11:03:41Z</time>
      </trkpt>
      <trkpt lat="46.65126" lon="6.07909">
        <ele>982.7</ele>
        <time>2022-10-18T11:03:48Z</time>
      </trkpt>
      <trkpt lat="46.65129" lon="6.07904">
        <ele>982.3</ele>
        <time>2022-10-18T11:03:56Z</time>
      </trkpt>
      <trkpt lat="46.65132" lon="6.07898">
        <ele>982.3</ele>
        <time>2022-10-18T11:04:02Z</time>
      </trkpt>
      <trkpt lat="46.65136" lon="6.07893">
        <ele>982.1</ele>
        <time>2022-10-18T11:04:07Z</time>
      </trkpt>
      <trkpt lat="46.65138" lon="6.07887">
        <ele>981.6</ele>
        <time>2022-10-18T11:04:13Z</time>
      </trkpt>
      <trkpt lat="46.6514" lon="6.07882">
        <ele>981.7</ele>
        <time>2022-10-18T11:04:18Z</time>
      </trkpt>
      <trkpt lat="46.65144" lon="6.07876">
        <ele>982</ele>
        <time>2022-10-18T11:04:23Z</time>
      </trkpt>
      <trkpt lat="46.65147" lon="6.07871">
        <ele>982.2</ele>
        <time>2022-10-18T11:04:29Z</time>
      </trkpt>
      <trkpt lat="46.6515" lon="6.07866">
        <ele>981.8</ele>
        <time>2022-10-18T11:04:35Z</time>
      </trkpt>
      <trkpt lat="46.65153" lon="6.0786">
        <ele>980.4</ele>
        <time>2022-10-18T11:04:41Z</time>
      </trkpt>
      <trkpt lat="46.65156" lon="6.07854">
        <ele>979.4</ele>
        <time>2022-10-18T11:04:46Z</time>
      </trkpt>
      <trkpt lat="46.65157" lon="6.07847">
        <ele>978.4</ele>
        <time>2022-10-18T11:04:52Z</time>
      </trkpt>
      <trkpt lat="46.65158" lon="6.0784">
        <ele>978.1</ele>
        <time>2022-10-18T11:04:57Z</time>
      </trkpt>
      <trkpt lat="46.65159" lon="6.07833">
        <ele>978.2</ele>
        <time>2022-10-18T11:05:03Z</time>
      </trkpt>
      <trkpt lat="46.65158" lon="6.07826">
        <ele>977.7</ele>
        <time>2022-10-18T11:05:09Z</time>
      </trkpt>
      <trkpt lat="46.65158" lon="6.07818">
        <ele>976.8</ele>
        <time>2022-10-18T11:05:15Z</time>
      </trkpt>
      <trkpt lat="46.65157" lon="6.07811">
        <ele>975.5</ele>
        <time>2022-10-18T11:05:21Z</time>
      </trkpt>
      <trkpt lat="46.65157" lon="6.07804">
        <ele>974.2</ele>
        <time>2022-10-18T11:05:27Z</time>
      </trkpt>
      <trkpt lat="46.65157" lon="6.07797">
        <ele>973.2</ele>
        <time>2022-10-18T11:05:35Z</time>
      </trkpt>
      <trkpt lat="46.65158" lon="6.07791">
        <ele>972.2</ele>
        <time>2022-10-18T11:05:43Z</time>
      </trkpt>
      <trkpt lat="46.6516" lon="6.07784">
        <ele>971.6</ele>
        <time>2022-10-18T11:05:48Z</time>
      </trkpt>
      <trkpt lat="46.65164" lon="6.07778">
        <ele>970.8</ele>
        <time>2022-10-18T11:05:53Z</time>
      </trkpt>
      <trkpt lat="46.65168" lon="6.07773">
        <ele>970.1</ele>
        <time>2022-10-18T11:05:58Z</time>
      </trkpt>
      <trkpt lat="46.65171" lon="6.07769">
        <ele>969</ele>
        <time>2022-10-18T11:06:04Z</time>
      </trkpt>
      <trkpt lat="46.65176" lon="6.07766">
        <ele>967.3</ele>
        <time>2022-10-18T11:06:11Z</time>
      </trkpt>
      <trkpt lat="46.65181" lon="6.07763">
        <ele>966.1</ele>
        <time>2022-10-18T11:06:16Z</time>
      </trkpt>
      <trkpt lat="46.65184" lon="6.07759">
        <ele>965.5</ele>
        <time>2022-10-18T11:06:21Z</time>
      </trkpt>
      <trkpt lat="46.65188" lon="6.07754">
        <ele>964.6</ele>
        <time>2022-10-18T11:06:28Z</time>
      </trkpt>
      <trkpt lat="46.65192" lon="6.0775">
        <ele>963.2</ele>
        <time>2022-10-18T11:06:35Z</time>
      </trkpt>
      <trkpt lat="46.65197" lon="6.07747">
        <ele>961.9</ele>
        <time>2022-10-18T11:06:40Z</time>
      </trkpt>
      <trkpt lat="46.65201" lon="6.07743">
        <ele>961.1</ele>
        <time>2022-10-18T11:06:47Z</time>
      </trkpt>
      <trkpt lat="46.65205" lon="6.07738">
        <ele>960.3</ele>
        <time>2022-10-18T11:06:54Z</time>
      </trkpt>
      <trkpt lat="46.65209" lon="6.07735">
        <ele>959.6</ele>
        <time>2022-10-18T11:07:00Z</time>
      </trkpt>
      <trkpt lat="46.65213" lon="6.07733">
        <ele>958.9</ele>
        <time>2022-10-18T11:07:05Z</time>
      </trkpt>
      <trkpt lat="46.65218" lon="6.0773">
        <ele>957.5</ele>
        <time>2022-10-18T11:07:11Z</time>
      </trkpt>
      <trkpt lat="46.65222" lon="6.07727">
        <ele>956.4</ele>
        <time>2022-10-18T11:07:17Z</time>
      </trkpt>
      <trkpt lat="46.65227" lon="6.07723">
        <ele>955.4</ele>
        <time>2022-10-18T11:07:23Z</time>
      </trkpt>
      <trkpt lat="46.65231" lon="6.07718">
        <ele>954.9</ele>
        <time>2022-10-18T11:07:29Z</time>
      </trkpt>
      <trkpt lat="46.65235" lon="6.07714">
        <ele>954.8</ele>
        <time>2022-10-18T11:07:35Z</time>
      </trkpt>
      <trkpt lat="46.6524" lon="6.0771">
        <ele>954.8</ele>
        <time>2022-10-18T11:07:41Z</time>
      </trkpt>
      <trkpt lat="46.65244" lon="6.07706">
        <ele>954.5</ele>
        <time>2022-10-18T11:07:47Z</time>
      </trkpt>
      <trkpt lat="46.65248" lon="6.07703">
        <ele>953.7</ele>
        <time>2022-10-18T11:07:52Z</time>
      </trkpt>
      <trkpt lat="46.65252" lon="6.07699">
        <ele>952.6</ele>
        <time>2022-10-18T11:07:58Z</time>
      </trkpt>
      <trkpt lat="46.65254" lon="6.07692">
        <ele>951.5</ele>
        <time>2022-10-18T11:08:06Z</time>
      </trkpt>
      <trkpt lat="46.65256" lon="6.07686">
        <ele>950.8</ele>
        <time>2022-10-18T11:08:11Z</time>
      </trkpt>
      <trkpt lat="46.65257" lon="6.07678">
        <ele>949.9</ele>
        <time>2022-10-18T11:08:16Z</time>
      </trkpt>
      <trkpt lat="46.65257" lon="6.07671">
        <ele>949.1</ele>
        <time>2022-10-18T11:08:21Z</time>
      </trkpt>
      <trkpt lat="46.65257" lon="6.07665">
        <ele>947.6</ele>
        <time>2022-10-18T11:08:31Z</time>
      </trkpt>
      <trkpt lat="46.65257" lon="6.07656">
        <ele>946.5</ele>
        <time>2022-10-18T11:08:39Z</time>
      </trkpt>
      <trkpt lat="46.65259" lon="6.0765">
        <ele>946.1</ele>
        <time>2022-10-18T11:08:44Z</time>
      </trkpt>
      <trkpt lat="46.65265" lon="6.07653">
        <ele>945</ele>
        <time>2022-10-18T11:09:03Z</time>
      </trkpt>
      <trkpt lat="46.65271" lon="6.0765">
        <ele>944.4</ele>
        <time>2022-10-18T11:09:08Z</time>
      </trkpt>
      <trkpt lat="46.65274" lon="6.07646">
        <ele>943.9</ele>
        <time>2022-10-18T11:09:12Z</time>
      </trkpt>
      <trkpt lat="46.65277" lon="6.0764">
        <ele>943.5</ele>
        <time>2022-10-18T11:09:19Z</time>
      </trkpt>
      <trkpt lat="46.6528" lon="6.07634">
        <ele>943.8</ele>
        <time>2022-10-18T11:09:24Z</time>
      </trkpt>
      <trkpt lat="46.65284" lon="6.07629">
        <ele>943.7</ele>
        <time>2022-10-18T11:09:29Z</time>
      </trkpt>
      <trkpt lat="46.65288" lon="6.07625">
        <ele>943.5</ele>
        <time>2022-10-18T11:09:34Z</time>
      </trkpt>
      <trkpt lat="46.65293" lon="6.07621">
        <ele>943.7</ele>
        <time>2022-10-18T11:09:39Z</time>
      </trkpt>
      <trkpt lat="46.65297" lon="6.07617">
        <ele>943.7</ele>
        <time>2022-10-18T11:09:46Z</time>
      </trkpt>
      <trkpt lat="46.65301" lon="6.07612">
        <ele>943.1</ele>
        <time>2022-10-18T11:09:52Z</time>
      </trkpt>
      <trkpt lat="46.65304" lon="6.07607">
        <ele>942.6</ele>
        <time>2022-10-18T11:09:57Z</time>
      </trkpt>
      <trkpt lat="46.65308" lon="6.07601">
        <ele>942</ele>
        <time>2022-10-18T11:10:02Z</time>
      </trkpt>
      <trkpt lat="46.65311" lon="6.07596">
        <ele>941.7</ele>
        <time>2022-10-18T11:10:06Z</time>
      </trkpt>
      <trkpt lat="46.65315" lon="6.07591">
        <ele>941.4</ele>
        <time>2022-10-18T11:10:14Z</time>
      </trkpt>
      <trkpt lat="46.65317" lon="6.07585">
        <ele>942.1</ele>
        <time>2022-10-18T11:10:25Z</time>
      </trkpt>
      <trkpt lat="46.65322" lon="6.07582">
        <ele>942</ele>
        <time>2022-10-18T11:10:32Z</time>
      </trkpt>
      <trkpt lat="46.65325" lon="6.07576">
        <ele>941.7</ele>
        <time>2022-10-18T11:10:41Z</time>
      </trkpt>
      <trkpt lat="46.65329" lon="6.07572">
        <ele>941.5</ele>
        <time>2022-10-18T11:10:48Z</time>
      </trkpt>
      <trkpt lat="46.65332" lon="6.07567">
        <ele>941.2</ele>
        <time>2022-10-18T11:10:55Z</time>
      </trkpt>
      <trkpt lat="46.65336" lon="6.07562">
        <ele>940.7</ele>
        <time>2022-10-18T11:11:01Z</time>
      </trkpt>
      <trkpt lat="46.6534" lon="6.07558">
        <ele>940.2</ele>
        <time>2022-10-18T11:11:05Z</time>
      </trkpt>
      <trkpt lat="46.65345" lon="6.07553">
        <ele>939.7</ele>
        <time>2022-10-18T11:11:09Z</time>
      </trkpt>
      <trkpt lat="46.65348" lon="6.07549">
        <ele>939.6</ele>
        <time>2022-10-18T11:11:12Z</time>
      </trkpt>
      <trkpt lat="46.65353" lon="6.07545">
        <ele>939.7</ele>
        <time>2022-10-18T11:11:17Z</time>
      </trkpt>
      <trkpt lat="46.65357" lon="6.07541">
        <ele>939.6</ele>
        <time>2022-10-18T11:11:22Z</time>
      </trkpt>
      <trkpt lat="46.65361" lon="6.07536">
        <ele>939.3</ele>
        <time>2022-10-18T11:11:27Z</time>
      </trkpt>
      <trkpt lat="46.65365" lon="6.07532">
        <ele>939</ele>
        <time>2022-10-18T11:11:33Z</time>
      </trkpt>
      <trkpt lat="46.65369" lon="6.07527">
        <ele>938.8</ele>
        <time>2022-10-18T11:11:38Z</time>
      </trkpt>
      <trkpt lat="46.65373" lon="6.07524">
        <ele>938.4</ele>
        <time>2022-10-18T11:11:43Z</time>
      </trkpt>
      <trkpt lat="46.65377" lon="6.07519">
        <ele>938.1</ele>
        <time>2022-10-18T11:11:48Z</time>
      </trkpt>
      <trkpt lat="46.65381" lon="6.07514">
        <ele>937.9</ele>
        <time>2022-10-18T11:11:53Z</time>
      </trkpt>
      <trkpt lat="46.65385" lon="6.07509">
        <ele>937.7</ele>
        <time>2022-10-18T11:11:59Z</time>
      </trkpt>
      <trkpt lat="46.6539" lon="6.07506">
        <ele>938.5</ele>
        <time>2022-10-18T11:12:06Z</time>
      </trkpt>
      <trkpt lat="46.65394" lon="6.07504">
        <ele>939.4</ele>
        <time>2022-10-18T11:12:12Z</time>
      </trkpt>
      <trkpt lat="46.65399" lon="6.07502">
        <ele>940.2</ele>
        <time>2022-10-18T11:12:17Z</time>
      </trkpt>
      <trkpt lat="46.65404" lon="6.07501">
        <ele>940.8</ele>
        <time>2022-10-18T11:12:21Z</time>
      </trkpt>
      <trkpt lat="46.6541" lon="6.075">
        <ele>942</ele>
        <time>2022-10-18T11:12:26Z</time>
      </trkpt>
      <trkpt lat="46.65415" lon="6.075">
        <ele>943</ele>
        <time>2022-10-18T11:12:30Z</time>
      </trkpt>
      <trkpt lat="46.65418" lon="6.07495">
        <ele>944.6</ele>
        <time>2022-10-18T11:12:35Z</time>
      </trkpt>
      <trkpt lat="46.6542" lon="6.07489">
        <ele>946.3</ele>
        <time>2022-10-18T11:12:42Z</time>
      </trkpt>
      <trkpt lat="46.65421" lon="6.07481">
        <ele>948</ele>
        <time>2022-10-18T11:12:49Z</time>
      </trkpt>
      <trkpt lat="46.65422" lon="6.07475">
        <ele>948.5</ele>
        <time>2022-10-18T11:12:57Z</time>
      </trkpt>
      <trkpt lat="46.6542" lon="6.07467">
        <ele>948.1</ele>
        <time>2022-10-18T11:13:03Z</time>
      </trkpt>
      <trkpt lat="46.65419" lon="6.07461">
        <ele>947.7</ele>
        <time>2022-10-18T11:13:07Z</time>
      </trkpt>
      <trkpt lat="46.65416" lon="6.07455">
        <ele>947</ele>
        <time>2022-10-18T11:13:12Z</time>
      </trkpt>
      <trkpt lat="46.65413" lon="6.07448">
        <ele>946.7</ele>
        <time>2022-10-18T11:13:16Z</time>
      </trkpt>
      <trkpt lat="46.6541" lon="6.07442">
        <ele>946.4</ele>
        <time>2022-10-18T11:13:20Z</time>
      </trkpt>
      <trkpt lat="46.65407" lon="6.07436">
        <ele>946.1</ele>
        <time>2022-10-18T11:13:25Z</time>
      </trkpt>
      <trkpt lat="46.65404" lon="6.07431">
        <ele>945.9</ele>
        <time>2022-10-18T11:13:30Z</time>
      </trkpt>
      <trkpt lat="46.65401" lon="6.07424">
        <ele>945.9</ele>
        <time>2022-10-18T11:13:36Z</time>
      </trkpt>
      <trkpt lat="46.65399" lon="6.07418">
        <ele>945.6</ele>
        <time>2022-10-18T11:13:41Z</time>
      </trkpt>
      <trkpt lat="46.65396" lon="6.07412">
        <ele>944.8</ele>
        <time>2022-10-18T11:13:46Z</time>
      </trkpt>
      <trkpt lat="46.65393" lon="6.07407">
        <ele>943.6</ele>
        <time>2022-10-18T11:13:53Z</time>
      </trkpt>
      <trkpt lat="46.65389" lon="6.07401">
        <ele>943.1</ele>
        <time>2022-10-18T11:13:58Z</time>
      </trkpt>
      <trkpt lat="46.65386" lon="6.07395">
        <ele>942.9</ele>
        <time>2022-10-18T11:14:03Z</time>
      </trkpt>
      <trkpt lat="46.65383" lon="6.0739">
        <ele>942.7</ele>
        <time>2022-10-18T11:14:07Z</time>
      </trkpt>
      <trkpt lat="46.6538" lon="6.07385">
        <ele>942.6</ele>
        <time>2022-10-18T11:14:12Z</time>
      </trkpt>
      <trkpt lat="46.65376" lon="6.07381">
        <ele>942.8</ele>
        <time>2022-10-18T11:14:18Z</time>
      </trkpt>
      <trkpt lat="46.65372" lon="6.07376">
        <ele>943.2</ele>
        <time>2022-10-18T11:14:25Z</time>
      </trkpt>
      <trkpt lat="46.65368" lon="6.07372">
        <ele>943.2</ele>
        <time>2022-10-18T11:14:31Z</time>
      </trkpt>
      <trkpt lat="46.65363" lon="6.0737">
        <ele>943</ele>
        <time>2022-10-18T11:14:36Z</time>
      </trkpt>
      <trkpt lat="46.65358" lon="6.07367">
        <ele>942.4</ele>
        <time>2022-10-18T11:14:41Z</time>
      </trkpt>
      <trkpt lat="46.65353" lon="6.07364">
        <ele>941.9</ele>
        <time>2022-10-18T11:14:44Z</time>
      </trkpt>
      <trkpt lat="46.65349" lon="6.0736">
        <ele>940.9</ele>
        <time>2022-10-18T11:14:48Z</time>
      </trkpt>
      <trkpt lat="46.65345" lon="6.07357">
        <ele>939.8</ele>
        <time>2022-10-18T11:14:53Z</time>
      </trkpt>
      <trkpt lat="46.65344" lon="6.0735">
        <ele>940.2</ele>
        <time>2022-10-18T11:15:38Z</time>
      </trkpt>
      <trkpt lat="46.6534" lon="6.07344">
        <ele>940.1</ele>
        <time>2022-10-18T11:15:42Z</time>
      </trkpt>
      <trkpt lat="46.65335" lon="6.0734">
        <ele>939.8</ele>
        <time>2022-10-18T11:15:46Z</time>
      </trkpt>
      <trkpt lat="46.65332" lon="6.07335">
        <ele>939.3</ele>
        <time>2022-10-18T11:15:50Z</time>
      </trkpt>
      <trkpt lat="46.65328" lon="6.07329">
        <ele>938.9</ele>
        <time>2022-10-18T11:15:54Z</time>
      </trkpt>
      <trkpt lat="46.65324" lon="6.07324">
        <ele>938.5</ele>
        <time>2022-10-18T11:15:58Z</time>
      </trkpt>
      <trkpt lat="46.65322" lon="6.07318">
        <ele>937.9</ele>
        <time>2022-10-18T11:16:02Z</time>
      </trkpt>
      <trkpt lat="46.6532" lon="6.07311">
        <ele>937.3</ele>
        <time>2022-10-18T11:16:06Z</time>
      </trkpt>
      <trkpt lat="46.65318" lon="6.07304">
        <ele>936.5</ele>
        <time>2022-10-18T11:16:10Z</time>
      </trkpt>
      <trkpt lat="46.65315" lon="6.07297">
        <ele>935.8</ele>
        <time>2022-10-18T11:16:14Z</time>
      </trkpt>
      <trkpt lat="46.65311" lon="6.07292">
        <ele>935.2</ele>
        <time>2022-10-18T11:16:18Z</time>
      </trkpt>
      <trkpt lat="46.65307" lon="6.07289">
        <ele>934.5</ele>
        <time>2022-10-18T11:16:23Z</time>
      </trkpt>
      <trkpt lat="46.65307" lon="6.07282">
        <ele>933.6</ele>
        <time>2022-10-18T11:16:31Z</time>
      </trkpt>
      <trkpt lat="46.65306" lon="6.07274">
        <ele>935.6</ele>
        <time>2022-10-18T11:16:56Z</time>
      </trkpt>
      <trkpt lat="46.65303" lon="6.07269">
        <ele>936.1</ele>
        <time>2022-10-18T11:17:00Z</time>
      </trkpt>
      <trkpt lat="46.653" lon="6.07263">
        <ele>936.4</ele>
        <time>2022-10-18T11:17:04Z</time>
      </trkpt>
      <trkpt lat="46.65297" lon="6.07257">
        <ele>936.2</ele>
        <time>2022-10-18T11:17:09Z</time>
      </trkpt>
      <trkpt lat="46.65295" lon="6.0725">
        <ele>935.8</ele>
        <time>2022-10-18T11:17:14Z</time>
      </trkpt>
      <trkpt lat="46.65293" lon="6.07244">
        <ele>934.9</ele>
        <time>2022-10-18T11:17:22Z</time>
      </trkpt>
      <trkpt lat="46.65291" lon="6.07237">
        <ele>933.6</ele>
        <time>2022-10-18T11:17:28Z</time>
      </trkpt>
      <trkpt lat="46.6529" lon="6.0723">
        <ele>932.9</ele>
        <time>2022-10-18T11:17:32Z</time>
      </trkpt>
      <trkpt lat="46.6529" lon="6.07223">
        <ele>932.2</ele>
        <time>2022-10-18T11:17:37Z</time>
      </trkpt>
      <trkpt lat="46.65289" lon="6.07216">
        <ele>931.6</ele>
        <time>2022-10-18T11:17:41Z</time>
      </trkpt>
      <trkpt lat="46.65286" lon="6.07209">
        <ele>930.9</ele>
        <time>2022-10-18T11:17:45Z</time>
      </trkpt>
      <trkpt lat="46.65285" lon="6.07202">
        <ele>930.3</ele>
        <time>2022-10-18T11:17:49Z</time>
      </trkpt>
      <trkpt lat="46.65284" lon="6.07194">
        <ele>929.8</ele>
        <time>2022-10-18T11:17:53Z</time>
      </trkpt>
      <trkpt lat="46.65283" lon="6.07187">
        <ele>929.4</ele>
        <time>2022-10-18T11:17:59Z</time>
      </trkpt>
      <trkpt lat="46.65283" lon="6.0718">
        <ele>929</ele>
        <time>2022-10-18T11:18:06Z</time>
      </trkpt>
      <trkpt lat="46.65283" lon="6.07173">
        <ele>928.3</ele>
        <time>2022-10-18T11:18:11Z</time>
      </trkpt>
      <trkpt lat="46.65281" lon="6.07167">
        <ele>927.5</ele>
        <time>2022-10-18T11:18:16Z</time>
      </trkpt>
      <trkpt lat="46.6528" lon="6.07159">
        <ele>926.5</ele>
        <time>2022-10-18T11:18:21Z</time>
      </trkpt>
      <trkpt lat="46.65279" lon="6.07152">
        <ele>925.7</ele>
        <time>2022-10-18T11:18:25Z</time>
      </trkpt>
      <trkpt lat="46.65279" lon="6.07145">
        <ele>925.2</ele>
        <time>2022-10-18T11:18:31Z</time>
      </trkpt>
      <trkpt lat="46.65279" lon="6.07138">
        <ele>925</ele>
        <time>2022-10-18T11:18:36Z</time>
      </trkpt>
      <trkpt lat="46.65279" lon="6.07131">
        <ele>924</ele>
        <time>2022-10-18T11:18:42Z</time>
      </trkpt>
      <trkpt lat="46.65278" lon="6.07123">
        <ele>923.3</ele>
        <time>2022-10-18T11:18:47Z</time>
      </trkpt>
      <trkpt lat="46.65278" lon="6.07115">
        <ele>922.5</ele>
        <time>2022-10-18T11:18:52Z</time>
      </trkpt>
      <trkpt lat="46.6528" lon="6.07109">
        <ele>921.8</ele>
        <time>2022-10-18T11:18:56Z</time>
      </trkpt>
      <trkpt lat="46.65283" lon="6.07103">
        <ele>920.5</ele>
        <time>2022-10-18T11:19:00Z</time>
      </trkpt>
      <trkpt lat="46.65284" lon="6.07096">
        <ele>919.3</ele>
        <time>2022-10-18T11:19:05Z</time>
      </trkpt>
      <trkpt lat="46.65285" lon="6.0709">
        <ele>918.3</ele>
        <time>2022-10-18T11:19:11Z</time>
      </trkpt>
      <trkpt lat="46.65285" lon="6.07082">
        <ele>917.2</ele>
        <time>2022-10-18T11:19:16Z</time>
      </trkpt>
      <trkpt lat="46.65287" lon="6.07075">
        <ele>916.6</ele>
        <time>2022-10-18T11:19:21Z</time>
      </trkpt>
      <trkpt lat="46.65289" lon="6.07068">
        <ele>916.6</ele>
        <time>2022-10-18T11:19:26Z</time>
      </trkpt>
      <trkpt lat="46.65291" lon="6.07061">
        <ele>916.9</ele>
        <time>2022-10-18T11:19:32Z</time>
      </trkpt>
      <trkpt lat="46.65294" lon="6.07056">
        <ele>916.3</ele>
        <time>2022-10-18T11:19:39Z</time>
      </trkpt>
      <trkpt lat="46.65297" lon="6.07049">
        <ele>915.9</ele>
        <time>2022-10-18T11:19:44Z</time>
      </trkpt>
      <trkpt lat="46.653" lon="6.07043">
        <ele>915.3</ele>
        <time>2022-10-18T11:19:51Z</time>
      </trkpt>
      <trkpt lat="46.65302" lon="6.07037">
        <ele>914.8</ele>
        <time>2022-10-18T11:19:57Z</time>
      </trkpt>
      <trkpt lat="46.65304" lon="6.07031">
        <ele>913.4</ele>
        <time>2022-10-18T11:20:03Z</time>
      </trkpt>
      <trkpt lat="46.65306" lon="6.07025">
        <ele>911.5</ele>
        <time>2022-10-18T11:20:08Z</time>
      </trkpt>
      <trkpt lat="46.65309" lon="6.07018">
        <ele>909</ele>
        <time>2022-10-18T11:20:14Z</time>
      </trkpt>
      <trkpt lat="46.65311" lon="6.07012">
        <ele>907.1</ele>
        <time>2022-10-18T11:20:19Z</time>
      </trkpt>
      <trkpt lat="46.65313" lon="6.07006">
        <ele>906.3</ele>
        <time>2022-10-18T11:20:23Z</time>
      </trkpt>
      <trkpt lat="46.65316" lon="6.07">
        <ele>905.5</ele>
        <time>2022-10-18T11:20:27Z</time>
      </trkpt>
      <trkpt lat="46.6532" lon="6.06996">
        <ele>904.4</ele>
        <time>2022-10-18T11:20:31Z</time>
      </trkpt>
      <trkpt lat="46.65323" lon="6.06991">
        <ele>902.7</ele>
        <time>2022-10-18T11:20:38Z</time>
      </trkpt>
      <trkpt lat="46.65327" lon="6.06985">
        <ele>901.8</ele>
        <time>2022-10-18T11:20:44Z</time>
      </trkpt>
      <trkpt lat="46.6533" lon="6.06981">
        <ele>900.9</ele>
        <time>2022-10-18T11:20:49Z</time>
      </trkpt>
      <trkpt lat="46.65333" lon="6.06976">
        <ele>900.7</ele>
        <time>2022-10-18T11:20:54Z</time>
      </trkpt>
      <trkpt lat="46.65336" lon="6.0697">
        <ele>900.7</ele>
        <time>2022-10-18T11:21:01Z</time>
      </trkpt>
      <trkpt lat="46.65338" lon="6.06964">
        <ele>899</ele>
        <time>2022-10-18T11:21:13Z</time>
      </trkpt>
      <trkpt lat="46.65333" lon="6.06962">
        <ele>897.1</ele>
        <time>2022-10-18T11:21:24Z</time>
      </trkpt>
      <trkpt lat="46.65329" lon="6.06959">
        <ele>896.2</ele>
        <time>2022-10-18T11:21:30Z</time>
      </trkpt>
      <trkpt lat="46.65325" lon="6.06954">
        <ele>895.5</ele>
        <time>2022-10-18T11:21:37Z</time>
      </trkpt>
      <trkpt lat="46.65321" lon="6.0695">
        <ele>895</ele>
        <time>2022-10-18T11:21:44Z</time>
      </trkpt>
      <trkpt lat="46.65318" lon="6.06946">
        <ele>894.5</ele>
        <time>2022-10-18T11:21:50Z</time>
      </trkpt>
      <trkpt lat="46.65315" lon="6.0694">
        <ele>894.6</ele>
        <time>2022-10-18T11:21:56Z</time>
      </trkpt>
      <trkpt lat="46.65312" lon="6.06934">
        <ele>894.3</ele>
        <time>2022-10-18T11:22:03Z</time>
      </trkpt>
      <trkpt lat="46.65311" lon="6.06927">
        <ele>894.4</ele>
        <time>2022-10-18T11:22:07Z</time>
      </trkpt>
      <trkpt lat="46.6531" lon="6.06919">
        <ele>894.3</ele>
        <time>2022-10-18T11:22:11Z</time>
      </trkpt>
      <trkpt lat="46.65309" lon="6.06912">
        <ele>893.7</ele>
        <time>2022-10-18T11:22:16Z</time>
      </trkpt>
      <trkpt lat="46.65309" lon="6.06905">
        <ele>893.6</ele>
        <time>2022-10-18T11:22:20Z</time>
      </trkpt>
      <trkpt lat="46.6531" lon="6.06897">
        <ele>893.5</ele>
        <time>2022-10-18T11:22:25Z</time>
      </trkpt>
      <trkpt lat="46.65309" lon="6.0689">
        <ele>893.3</ele>
        <time>2022-10-18T11:22:29Z</time>
      </trkpt>
      <trkpt lat="46.65309" lon="6.06883">
        <ele>893.3</ele>
        <time>2022-10-18T11:22:34Z</time>
      </trkpt>
      <trkpt lat="46.65308" lon="6.06876">
        <ele>893.1</ele>
        <time>2022-10-18T11:22:40Z</time>
      </trkpt>
      <trkpt lat="46.65307" lon="6.06869">
        <ele>891.4</ele>
        <time>2022-10-18T11:22:48Z</time>
      </trkpt>
      <trkpt lat="46.65305" lon="6.06861">
        <ele>889</ele>
        <time>2022-10-18T11:22:57Z</time>
      </trkpt>
      <trkpt lat="46.65303" lon="6.06854">
        <ele>888.4</ele>
        <time>2022-10-18T11:23:01Z</time>
      </trkpt>
      <trkpt lat="46.65302" lon="6.06847">
        <ele>887.8</ele>
        <time>2022-10-18T11:23:05Z</time>
      </trkpt>
      <trkpt lat="46.65302" lon="6.0684">
        <ele>887</ele>
        <time>2022-10-18T11:23:09Z</time>
      </trkpt>
      <trkpt lat="46.65304" lon="6.06833">
        <ele>887</ele>
        <time>2022-10-18T11:23:13Z</time>
      </trkpt>
      <trkpt lat="46.65305" lon="6.06826">
        <ele>887.6</ele>
        <time>2022-10-18T11:23:19Z</time>
      </trkpt>
      <trkpt lat="46.65301" lon="6.06822">
        <ele>886.3</ele>
        <time>2022-10-18T11:23:25Z</time>
      </trkpt>
      <trkpt lat="46.65299" lon="6.06816">
        <ele>884.3</ele>
        <time>2022-10-18T11:23:30Z</time>
      </trkpt>
      <trkpt lat="46.65298" lon="6.0681">
        <ele>881.8</ele>
        <time>2022-10-18T11:23:36Z</time>
      </trkpt>
      <trkpt lat="46.65297" lon="6.06802">
        <ele>880.5</ele>
        <time>2022-10-18T11:23:41Z</time>
      </trkpt>
      <trkpt lat="46.65297" lon="6.06794">
        <ele>880.1</ele>
        <time>2022-10-18T11:23:46Z</time>
      </trkpt>
      <trkpt lat="46.65296" lon="6.06787">
        <ele>879.5</ele>
        <time>2022-10-18T11:23:52Z</time>
      </trkpt>
      <trkpt lat="46.65296" lon="6.06779">
        <ele>878.7</ele>
        <time>2022-10-18T11:23:57Z</time>
      </trkpt>
      <trkpt lat="46.65297" lon="6.06773">
        <ele>878.1</ele>
        <time>2022-10-18T11:24:01Z</time>
      </trkpt>
      <trkpt lat="46.65298" lon="6.06765">
        <ele>876.9</ele>
        <time>2022-10-18T11:24:06Z</time>
      </trkpt>
      <trkpt lat="46.65299" lon="6.06759">
        <ele>876.3</ele>
        <time>2022-10-18T11:24:10Z</time>
      </trkpt>
      <trkpt lat="46.653" lon="6.06752">
        <ele>875.5</ele>
        <time>2022-10-18T11:24:15Z</time>
      </trkpt>
      <trkpt lat="46.65301" lon="6.06746">
        <ele>874.5</ele>
        <time>2022-10-18T11:24:20Z</time>
      </trkpt>
      <trkpt lat="46.65303" lon="6.06739">
        <ele>873.5</ele>
        <time>2022-10-18T11:24:26Z</time>
      </trkpt>
      <trkpt lat="46.65303" lon="6.06732">
        <ele>872.9</ele>
        <time>2022-10-18T11:24:32Z</time>
      </trkpt>
      <trkpt lat="46.65303" lon="6.06724">
        <ele>872.7</ele>
        <time>2022-10-18T11:24:36Z</time>
      </trkpt>
      <trkpt lat="46.65304" lon="6.06717">
        <ele>873.1</ele>
        <time>2022-10-18T11:24:40Z</time>
      </trkpt>
      <trkpt lat="46.65306" lon="6.06711">
        <ele>873.5</ele>
        <time>2022-10-18T11:24:45Z</time>
      </trkpt>
      <trkpt lat="46.65309" lon="6.06705">
        <ele>874</ele>
        <time>2022-10-18T11:24:50Z</time>
      </trkpt>
      <trkpt lat="46.6531" lon="6.06697">
        <ele>873.8</ele>
        <time>2022-10-18T11:24:56Z</time>
      </trkpt>
      <trkpt lat="46.65311" lon="6.0669">
        <ele>873.5</ele>
        <time>2022-10-18T11:25:01Z</time>
      </trkpt>
      <trkpt lat="46.65313" lon="6.06682">
        <ele>873</ele>
        <time>2022-10-18T11:25:07Z</time>
      </trkpt>
      <trkpt lat="46.65314" lon="6.06675">
        <ele>873</ele>
        <time>2022-10-18T11:25:11Z</time>
      </trkpt>
      <trkpt lat="46.65316" lon="6.06668">
        <ele>873.1</ele>
        <time>2022-10-18T11:25:15Z</time>
      </trkpt>
      <trkpt lat="46.65318" lon="6.06662">
        <ele>872.6</ele>
        <time>2022-10-18T11:25:20Z</time>
      </trkpt>
      <trkpt lat="46.65321" lon="6.06655">
        <ele>872.4</ele>
        <time>2022-10-18T11:25:26Z</time>
      </trkpt>
      <trkpt lat="46.65325" lon="6.06651">
        <ele>872.5</ele>
        <time>2022-10-18T11:25:32Z</time>
      </trkpt>
      <trkpt lat="46.65329" lon="6.06648">
        <ele>872.2</ele>
        <time>2022-10-18T11:25:38Z</time>
      </trkpt>
      <trkpt lat="46.65333" lon="6.06642">
        <ele>871.5</ele>
        <time>2022-10-18T11:25:44Z</time>
      </trkpt>
      <trkpt lat="46.65335" lon="6.06636">
        <ele>870.6</ele>
        <time>2022-10-18T11:25:49Z</time>
      </trkpt>
      <trkpt lat="46.65336" lon="6.0663">
        <ele>869.5</ele>
        <time>2022-10-18T11:25:54Z</time>
      </trkpt>
      <trkpt lat="46.65336" lon="6.06622">
        <ele>868.5</ele>
        <time>2022-10-18T11:26:00Z</time>
      </trkpt>
      <trkpt lat="46.65338" lon="6.06615">
        <ele>867.6</ele>
        <time>2022-10-18T11:26:05Z</time>
      </trkpt>
      <trkpt lat="46.65339" lon="6.06609">
        <ele>865.9</ele>
        <time>2022-10-18T11:26:11Z</time>
      </trkpt>
      <trkpt lat="46.65341" lon="6.06602">
        <ele>864.5</ele>
        <time>2022-10-18T11:26:16Z</time>
      </trkpt>
      <trkpt lat="46.65343" lon="6.06595">
        <ele>864.1</ele>
        <time>2022-10-18T11:26:20Z</time>
      </trkpt>
      <trkpt lat="46.65346" lon="6.06589">
        <ele>864.1</ele>
        <time>2022-10-18T11:26:24Z</time>
      </trkpt>
      <trkpt lat="46.6535" lon="6.06584">
        <ele>864.1</ele>
        <time>2022-10-18T11:26:28Z</time>
      </trkpt>
      <trkpt lat="46.65353" lon="6.06579">
        <ele>864.1</ele>
        <time>2022-10-18T11:26:32Z</time>
      </trkpt>
      <trkpt lat="46.65357" lon="6.06575">
        <ele>863.9</ele>
        <time>2022-10-18T11:26:36Z</time>
      </trkpt>
      <trkpt lat="46.65359" lon="6.06567">
        <ele>862</ele>
        <time>2022-10-18T11:27:00Z</time>
      </trkpt>
      <trkpt lat="46.6536" lon="6.0656">
        <ele>863.9</ele>
        <time>2022-10-18T11:27:32Z</time>
      </trkpt>
      <trkpt lat="46.65363" lon="6.06553">
        <ele>864.3</ele>
        <time>2022-10-18T11:27:37Z</time>
      </trkpt>
      <trkpt lat="46.65364" lon="6.06545">
        <ele>864.2</ele>
        <time>2022-10-18T11:27:41Z</time>
      </trkpt>
      <trkpt lat="46.65365" lon="6.06538">
        <ele>864.2</ele>
        <time>2022-10-18T11:27:44Z</time>
      </trkpt>
      <trkpt lat="46.65368" lon="6.06533">
        <ele>863.9</ele>
        <time>2022-10-18T11:27:48Z</time>
      </trkpt>
      <trkpt lat="46.6537" lon="6.06526">
        <ele>863.4</ele>
        <time>2022-10-18T11:27:53Z</time>
      </trkpt>
      <trkpt lat="46.65368" lon="6.06519">
        <ele>863.2</ele>
        <time>2022-10-18T11:27:57Z</time>
      </trkpt>
      <trkpt lat="46.65366" lon="6.06511">
        <ele>862.6</ele>
        <time>2022-10-18T11:28:02Z</time>
      </trkpt>
      <trkpt lat="46.65365" lon="6.06505">
        <ele>862</ele>
        <time>2022-10-18T11:28:06Z</time>
      </trkpt>
      <trkpt lat="46.65363" lon="6.06498">
        <ele>861.2</ele>
        <time>2022-10-18T11:28:10Z</time>
      </trkpt>
      <trkpt lat="46.65362" lon="6.0649">
        <ele>860.9</ele>
        <time>2022-10-18T11:28:14Z</time>
      </trkpt>
      <trkpt lat="46.65362" lon="6.06483">
        <ele>860.6</ele>
        <time>2022-10-18T11:28:18Z</time>
      </trkpt>
      <trkpt lat="46.65362" lon="6.06476">
        <ele>860.3</ele>
        <time>2022-10-18T11:28:22Z</time>
      </trkpt>
      <trkpt lat="46.65361" lon="6.06468">
        <ele>860.2</ele>
        <time>2022-10-18T11:28:27Z</time>
      </trkpt>
      <trkpt lat="46.6536" lon="6.06461">
        <ele>860.2</ele>
        <time>2022-10-18T11:28:31Z</time>
      </trkpt>
      <trkpt lat="46.6536" lon="6.06453">
        <ele>860.2</ele>
        <time>2022-10-18T11:28:36Z</time>
      </trkpt>
      <trkpt lat="46.6536" lon="6.06445">
        <ele>860.7</ele>
        <time>2022-10-18T11:28:41Z</time>
      </trkpt>
      <trkpt lat="46.65359" lon="6.06439">
        <ele>860.8</ele>
        <time>2022-10-18T11:28:46Z</time>
      </trkpt>
      <trkpt lat="46.65356" lon="6.06434">
        <ele>859.5</ele>
        <time>2022-10-18T11:28:56Z</time>
      </trkpt>
      <trkpt lat="46.65353" lon="6.06428">
        <ele>858.7</ele>
        <time>2022-10-18T11:29:03Z</time>
      </trkpt>
      <trkpt lat="46.65352" lon="6.0642">
        <ele>858.7</ele>
        <time>2022-10-18T11:29:08Z</time>
      </trkpt>
      <trkpt lat="46.65352" lon="6.06413">
        <ele>859</ele>
        <time>2022-10-18T11:29:13Z</time>
      </trkpt>
      <trkpt lat="46.65353" lon="6.06406">
        <ele>859.5</ele>
        <time>2022-10-18T11:29:18Z</time>
      </trkpt>
      <trkpt lat="46.65352" lon="6.06399">
        <ele>859.8</ele>
        <time>2022-10-18T11:29:25Z</time>
      </trkpt>
      <trkpt lat="46.6535" lon="6.06393">
        <ele>860.7</ele>
        <time>2022-10-18T11:29:32Z</time>
      </trkpt>
      <trkpt lat="46.65347" lon="6.06386">
        <ele>861.6</ele>
        <time>2022-10-18T11:29:38Z</time>
      </trkpt>
      <trkpt lat="46.65346" lon="6.06379">
        <ele>862.7</ele>
        <time>2022-10-18T11:29:43Z</time>
      </trkpt>
      <trkpt lat="46.65344" lon="6.06373">
        <ele>863.9</ele>
        <time>2022-10-18T11:29:47Z</time>
      </trkpt>
      <trkpt lat="46.65341" lon="6.06367">
        <ele>865</ele>
        <time>2022-10-18T11:29:52Z</time>
      </trkpt>
      <trkpt lat="46.65338" lon="6.06361">
        <ele>865.8</ele>
        <time>2022-10-18T11:29:56Z</time>
      </trkpt>
      <trkpt lat="46.65335" lon="6.06354">
        <ele>867.1</ele>
        <time>2022-10-18T11:30:00Z</time>
      </trkpt>
      <trkpt lat="46.65334" lon="6.06348">
        <ele>868.1</ele>
        <time>2022-10-18T11:30:05Z</time>
      </trkpt>
      <trkpt lat="46.65332" lon="6.06342">
        <ele>868.7</ele>
        <time>2022-10-18T11:30:11Z</time>
      </trkpt>
      <trkpt lat="46.65331" lon="6.06335">
        <ele>869.1</ele>
        <time>2022-10-18T11:30:17Z</time>
      </trkpt>
      <trkpt lat="46.65332" lon="6.06327">
        <ele>869.1</ele>
        <time>2022-10-18T11:30:22Z</time>
      </trkpt>
      <trkpt lat="46.65332" lon="6.06321">
        <ele>868.6</ele>
        <time>2022-10-18T11:30:28Z</time>
      </trkpt>
      <trkpt lat="46.65335" lon="6.06314">
        <ele>868</ele>
        <time>2022-10-18T11:30:34Z</time>
      </trkpt>
      <trkpt lat="46.65338" lon="6.06307">
        <ele>868.5</ele>
        <time>2022-10-18T11:30:41Z</time>
      </trkpt>
      <trkpt lat="46.6534" lon="6.06301">
        <ele>868.8</ele>
        <time>2022-10-18T11:30:45Z</time>
      </trkpt>
      <trkpt lat="46.65343" lon="6.06295">
        <ele>869.1</ele>
        <time>2022-10-18T11:30:49Z</time>
      </trkpt>
      <trkpt lat="46.65345" lon="6.06289">
        <ele>869.2</ele>
        <time>2022-10-18T11:30:53Z</time>
      </trkpt>
      <trkpt lat="46.65347" lon="6.06283">
        <ele>869.3</ele>
        <time>2022-10-18T11:30:56Z</time>
      </trkpt>
      <trkpt lat="46.6535" lon="6.06277">
        <ele>869.5</ele>
        <time>2022-10-18T11:31:01Z</time>
      </trkpt>
      <trkpt lat="46.65354" lon="6.06274">
        <ele>869.3</ele>
        <time>2022-10-18T11:31:07Z</time>
      </trkpt>
      <trkpt lat="46.65358" lon="6.0627">
        <ele>868.6</ele>
        <time>2022-10-18T11:31:13Z</time>
      </trkpt>
      <trkpt lat="46.65363" lon="6.06272">
        <ele>867.4</ele>
        <time>2022-10-18T11:31:19Z</time>
      </trkpt>
      <trkpt lat="46.65367" lon="6.06277">
        <ele>866.7</ele>
        <time>2022-10-18T11:31:24Z</time>
      </trkpt>
      <trkpt lat="46.65371" lon="6.06281">
        <ele>866.3</ele>
        <time>2022-10-18T11:31:29Z</time>
      </trkpt>
      <trkpt lat="46.65375" lon="6.06285">
        <ele>866.9</ele>
        <time>2022-10-18T11:31:34Z</time>
      </trkpt>
      <trkpt lat="46.6538" lon="6.06289">
        <ele>867.5</ele>
        <time>2022-10-18T11:31:40Z</time>
      </trkpt>
      <trkpt lat="46.65385" lon="6.06287">
        <ele>867.6</ele>
        <time>2022-10-18T11:31:47Z</time>
      </trkpt>
      <trkpt lat="46.6539" lon="6.06285">
        <ele>867.7</ele>
        <time>2022-10-18T11:31:51Z</time>
      </trkpt>
      <trkpt lat="46.65395" lon="6.06285">
        <ele>868.6</ele>
        <time>2022-10-18T11:31:56Z</time>
      </trkpt>
      <trkpt lat="46.654" lon="6.06289">
        <ele>868.9</ele>
        <time>2022-10-18T11:32:01Z</time>
      </trkpt>
      <trkpt lat="46.65404" lon="6.06291">
        <ele>868.8</ele>
        <time>2022-10-18T11:32:05Z</time>
      </trkpt>
      <trkpt lat="46.65409" lon="6.0629">
        <ele>868.9</ele>
        <time>2022-10-18T11:32:10Z</time>
      </trkpt>
      <trkpt lat="46.65413" lon="6.06285">
        <ele>870</ele>
        <time>2022-10-18T11:32:16Z</time>
      </trkpt>
      <trkpt lat="46.65416" lon="6.0628">
        <ele>871.1</ele>
        <time>2022-10-18T11:32:21Z</time>
      </trkpt>
      <trkpt lat="46.65419" lon="6.06275">
        <ele>871.9</ele>
        <time>2022-10-18T11:32:25Z</time>
      </trkpt>
      <trkpt lat="46.65421" lon="6.06269">
        <ele>873.1</ele>
        <time>2022-10-18T11:32:30Z</time>
      </trkpt>
      <trkpt lat="46.65424" lon="6.06263">
        <ele>874.5</ele>
        <time>2022-10-18T11:32:35Z</time>
      </trkpt>
      <trkpt lat="46.65427" lon="6.06256">
        <ele>875.5</ele>
        <time>2022-10-18T11:32:40Z</time>
      </trkpt>
      <trkpt lat="46.6543" lon="6.0625">
        <ele>876</ele>
        <time>2022-10-18T11:32:45Z</time>
      </trkpt>
      <trkpt lat="46.65433" lon="6.06245">
        <ele>876.8</ele>
        <time>2022-10-18T11:32:50Z</time>
      </trkpt>
      <trkpt lat="46.65437" lon="6.06239">
        <ele>878.1</ele>
        <time>2022-10-18T11:32:56Z</time>
      </trkpt>
      <trkpt lat="46.65439" lon="6.06234">
        <ele>878.9</ele>
        <time>2022-10-18T11:33:01Z</time>
      </trkpt>
      <trkpt lat="46.65444" lon="6.06231">
        <ele>879.3</ele>
        <time>2022-10-18T11:33:05Z</time>
      </trkpt>
      <trkpt lat="46.65448" lon="6.06228">
        <ele>879.5</ele>
        <time>2022-10-18T11:33:10Z</time>
      </trkpt>
      <trkpt lat="46.65453" lon="6.06225">
        <ele>879.6</ele>
        <time>2022-10-18T11:33:15Z</time>
      </trkpt>
      <trkpt lat="46.65457" lon="6.06222">
        <ele>879.5</ele>
        <time>2022-10-18T11:33:19Z</time>
      </trkpt>
      <trkpt lat="46.65462" lon="6.06219">
        <ele>878.6</ele>
        <time>2022-10-18T11:33:25Z</time>
      </trkpt>
      <trkpt lat="46.65467" lon="6.06216">
        <ele>878.1</ele>
        <time>2022-10-18T11:33:29Z</time>
      </trkpt>
      <trkpt lat="46.65472" lon="6.06213">
        <ele>877.4</ele>
        <time>2022-10-18T11:33:34Z</time>
      </trkpt>
      <trkpt lat="46.65476" lon="6.06208">
        <ele>876.5</ele>
        <time>2022-10-18T11:33:39Z</time>
      </trkpt>
      <trkpt lat="46.6548" lon="6.06204">
        <ele>876.5</ele>
        <time>2022-10-18T11:33:45Z</time>
      </trkpt>
      <trkpt lat="46.65484" lon="6.062">
        <ele>877.3</ele>
        <time>2022-10-18T11:33:52Z</time>
      </trkpt>
      <trkpt lat="46.65488" lon="6.06196">
        <ele>877.7</ele>
        <time>2022-10-18T11:34:00Z</time>
      </trkpt>
      <trkpt lat="46.65492" lon="6.06192">
        <ele>877.7</ele>
        <time>2022-10-18T11:34:06Z</time>
      </trkpt>
      <trkpt lat="46.65496" lon="6.06189">
        <ele>877.9</ele>
        <time>2022-10-18T11:34:11Z</time>
      </trkpt>
      <trkpt lat="46.655" lon="6.06185">
        <ele>878.2</ele>
        <time>2022-10-18T11:34:17Z</time>
      </trkpt>
      <trkpt lat="46.65505" lon="6.06182">
        <ele>878</ele>
        <time>2022-10-18T11:34:22Z</time>
      </trkpt>
      <trkpt lat="46.6551" lon="6.06179">
        <ele>877.5</ele>
        <time>2022-10-18T11:34:27Z</time>
      </trkpt>
      <trkpt lat="46.65514" lon="6.06173">
        <ele>876.6</ele>
        <time>2022-10-18T11:34:33Z</time>
      </trkpt>
      <trkpt lat="46.65517" lon="6.06167">
        <ele>876.8</ele>
        <time>2022-10-18T11:34:38Z</time>
      </trkpt>
      <trkpt lat="46.65519" lon="6.06161">
        <ele>877.5</ele>
        <time>2022-10-18T11:34:42Z</time>
      </trkpt>
      <trkpt lat="46.65523" lon="6.06156">
        <ele>878.5</ele>
        <time>2022-10-18T11:34:46Z</time>
      </trkpt>
      <trkpt lat="46.65528" lon="6.06153">
        <ele>879.9</ele>
        <time>2022-10-18T11:34:51Z</time>
      </trkpt>
      <trkpt lat="46.65532" lon="6.0615">
        <ele>880.9</ele>
        <time>2022-10-18T11:34:55Z</time>
      </trkpt>
      <trkpt lat="46.65537" lon="6.06146">
        <ele>881.7</ele>
        <time>2022-10-18T11:35:00Z</time>
      </trkpt>
      <trkpt lat="46.6554" lon="6.0614">
        <ele>882.4</ele>
        <time>2022-10-18T11:35:05Z</time>
      </trkpt>
      <trkpt lat="46.65543" lon="6.06134">
        <ele>882.5</ele>
        <time>2022-10-18T11:35:10Z</time>
      </trkpt>
      <trkpt lat="46.65545" lon="6.06128">
        <ele>882.2</ele>
        <time>2022-10-18T11:35:16Z</time>
      </trkpt>
      <trkpt lat="46.65546" lon="6.06121">
        <ele>883</ele>
        <time>2022-10-18T11:35:27Z</time>
      </trkpt>
      <trkpt lat="46.65545" lon="6.06114">
        <ele>882.3</ele>
        <time>2022-10-18T11:36:14Z</time>
      </trkpt>
      <trkpt lat="46.65544" lon="6.06107">
        <ele>880.1</ele>
        <time>2022-10-18T11:36:20Z</time>
      </trkpt>
      <trkpt lat="46.65542" lon="6.061">
        <ele>879.2</ele>
        <time>2022-10-18T11:36:25Z</time>
      </trkpt>
      <trkpt lat="46.65541" lon="6.06094">
        <ele>879</ele>
        <time>2022-10-18T11:36:29Z</time>
      </trkpt>
      <trkpt lat="46.65541" lon="6.06087">
        <ele>878.5</ele>
        <time>2022-10-18T11:36:34Z</time>
      </trkpt>
      <trkpt lat="46.6554" lon="6.0608">
        <ele>878.2</ele>
        <time>2022-10-18T11:36:39Z</time>
      </trkpt>
      <trkpt lat="46.65539" lon="6.06073">
        <ele>878.5</ele>
        <time>2022-10-18T11:36:44Z</time>
      </trkpt>
      <trkpt lat="46.65537" lon="6.06067">
        <ele>878.7</ele>
        <time>2022-10-18T11:36:50Z</time>
      </trkpt>
      <trkpt lat="46.65535" lon="6.06061">
        <ele>878.7</ele>
        <time>2022-10-18T11:36:55Z</time>
      </trkpt>
      <trkpt lat="46.65534" lon="6.06054">
        <ele>878.7</ele>
        <time>2022-10-18T11:37:00Z</time>
      </trkpt>
      <trkpt lat="46.65532" lon="6.06046">
        <ele>879.1</ele>
        <time>2022-10-18T11:37:05Z</time>
      </trkpt>
      <trkpt lat="46.6553" lon="6.06039">
        <ele>880</ele>
        <time>2022-10-18T11:37:10Z</time>
      </trkpt>
      <trkpt lat="46.65528" lon="6.06032">
        <ele>880.8</ele>
        <time>2022-10-18T11:37:15Z</time>
      </trkpt>
      <trkpt lat="46.65526" lon="6.06025">
        <ele>881.3</ele>
        <time>2022-10-18T11:37:20Z</time>
      </trkpt>
      <trkpt lat="46.65524" lon="6.06019">
        <ele>881.7</ele>
        <time>2022-10-18T11:37:25Z</time>
      </trkpt>
      <trkpt lat="46.65522" lon="6.06012">
        <ele>882.7</ele>
        <time>2022-10-18T11:37:31Z</time>
      </trkpt>
      <trkpt lat="46.65519" lon="6.06005">
        <ele>883.5</ele>
        <time>2022-10-18T11:37:36Z</time>
      </trkpt>
      <trkpt lat="46.65516" lon="6.05999">
        <ele>884.9</ele>
        <time>2022-10-18T11:37:41Z</time>
      </trkpt>
      <trkpt lat="46.65514" lon="6.05992">
        <ele>885</ele>
        <time>2022-10-18T11:37:46Z</time>
      </trkpt>
      <trkpt lat="46.65511" lon="6.05985">
        <ele>885.2</ele>
        <time>2022-10-18T11:37:52Z</time>
      </trkpt>
      <trkpt lat="46.65508" lon="6.05979">
        <ele>884.5</ele>
        <time>2022-10-18T11:37:58Z</time>
      </trkpt>
      <trkpt lat="46.65505" lon="6.05974">
        <ele>884.5</ele>
        <time>2022-10-18T11:38:05Z</time>
      </trkpt>
      <trkpt lat="46.65502" lon="6.05968">
        <ele>884</ele>
        <time>2022-10-18T11:38:11Z</time>
      </trkpt>
      <trkpt lat="46.65499" lon="6.05962">
        <ele>884.6</ele>
        <time>2022-10-18T11:38:16Z</time>
      </trkpt>
      <trkpt lat="46.65498" lon="6.05956">
        <ele>884.8</ele>
        <time>2022-10-18T11:38:22Z</time>
      </trkpt>
      <trkpt lat="46.65495" lon="6.05949">
        <ele>884.4</ele>
        <time>2022-10-18T11:38:27Z</time>
      </trkpt>
      <trkpt lat="46.65492" lon="6.05943">
        <ele>883.6</ele>
        <time>2022-10-18T11:38:32Z</time>
      </trkpt>
      <trkpt lat="46.65489" lon="6.05937">
        <ele>883.9</ele>
        <time>2022-10-18T11:38:37Z</time>
      </trkpt>
      <trkpt lat="46.65486" lon="6.05931">
        <ele>884.3</ele>
        <time>2022-10-18T11:38:42Z</time>
      </trkpt>
      <trkpt lat="46.65484" lon="6.05924">
        <ele>884.4</ele>
        <time>2022-10-18T11:38:47Z</time>
      </trkpt>
      <trkpt lat="46.65481" lon="6.0592">
        <ele>883.8</ele>
        <time>2022-10-18T11:38:53Z</time>
      </trkpt>
      <trkpt lat="46.65475" lon="6.0592">
        <ele>884.4</ele>
        <time>2022-10-18T11:38:58Z</time>
      </trkpt>
      <trkpt lat="46.65471" lon="6.05922">
        <ele>885.2</ele>
        <time>2022-10-18T11:39:02Z</time>
      </trkpt>
      <trkpt lat="46.65466" lon="6.05925">
        <ele>886.4</ele>
        <time>2022-10-18T11:39:07Z</time>
      </trkpt>
      <trkpt lat="46.65461" lon="6.05926">
        <ele>887.8</ele>
        <time>2022-10-18T11:39:13Z</time>
      </trkpt>
      <trkpt lat="46.65456" lon="6.05926">
        <ele>888.2</ele>
        <time>2022-10-18T11:39:22Z</time>
      </trkpt>
      <trkpt lat="46.65451" lon="6.05926">
        <ele>887.3</ele>
        <time>2022-10-18T11:39:29Z</time>
      </trkpt>
      <trkpt lat="46.65447" lon="6.05923">
        <ele>886.5</ele>
        <time>2022-10-18T11:39:34Z</time>
      </trkpt>
      <trkpt lat="46.65442" lon="6.05919">
        <ele>885.6</ele>
        <time>2022-10-18T11:39:40Z</time>
      </trkpt>
      <trkpt lat="46.65438" lon="6.05915">
        <ele>885.4</ele>
        <time>2022-10-18T11:39:45Z</time>
      </trkpt>
      <trkpt lat="46.65434" lon="6.05911">
        <ele>885.6</ele>
        <time>2022-10-18T11:39:51Z</time>
      </trkpt>
      <trkpt lat="46.6543" lon="6.05905">
        <ele>885.1</ele>
        <time>2022-10-18T11:39:56Z</time>
      </trkpt>
      <trkpt lat="46.65426" lon="6.059">
        <ele>884</ele>
        <time>2022-10-18T11:40:01Z</time>
      </trkpt>
      <trkpt lat="46.65423" lon="6.05896">
        <ele>882.5</ele>
        <time>2022-10-18T11:40:06Z</time>
      </trkpt>
      <trkpt lat="46.65419" lon="6.05892">
        <ele>880.7</ele>
        <time>2022-10-18T11:40:12Z</time>
      </trkpt>
      <trkpt lat="46.65415" lon="6.05887">
        <ele>879.2</ele>
        <time>2022-10-18T11:40:18Z</time>
      </trkpt>
      <trkpt lat="46.65411" lon="6.05882">
        <ele>879</ele>
        <time>2022-10-18T11:40:23Z</time>
      </trkpt>
      <trkpt lat="46.65407" lon="6.05878">
        <ele>879.4</ele>
        <time>2022-10-18T11:40:31Z</time>
      </trkpt>
      <trkpt lat="46.65403" lon="6.05875">
        <ele>879.6</ele>
        <time>2022-10-18T11:40:37Z</time>
      </trkpt>
      <trkpt lat="46.65399" lon="6.05871">
        <ele>879.1</ele>
        <time>2022-10-18T11:40:42Z</time>
      </trkpt>
      <trkpt lat="46.65395" lon="6.05865">
        <ele>878.4</ele>
        <time>2022-10-18T11:40:49Z</time>
      </trkpt>
      <trkpt lat="46.65392" lon="6.0586">
        <ele>877.5</ele>
        <time>2022-10-18T11:40:55Z</time>
      </trkpt>
      <trkpt lat="46.65388" lon="6.05855">
        <ele>876.7</ele>
        <time>2022-10-18T11:41:00Z</time>
      </trkpt>
      <trkpt lat="46.65385" lon="6.0585">
        <ele>875.3</ele>
        <time>2022-10-18T11:41:06Z</time>
      </trkpt>
      <trkpt lat="46.65381" lon="6.05844">
        <ele>874.3</ele>
        <time>2022-10-18T11:41:11Z</time>
      </trkpt>
      <trkpt lat="46.65378" lon="6.05838">
        <ele>874</ele>
        <time>2022-10-18T11:41:16Z</time>
      </trkpt>
      <trkpt lat="46.65374" lon="6.05834">
        <ele>873.5</ele>
        <time>2022-10-18T11:41:22Z</time>
      </trkpt>
      <trkpt lat="46.65371" lon="6.05829">
        <ele>873.1</ele>
        <time>2022-10-18T11:41:27Z</time>
      </trkpt>
      <trkpt lat="46.65367" lon="6.05824">
        <ele>872.7</ele>
        <time>2022-10-18T11:41:32Z</time>
      </trkpt>
      <trkpt lat="46.65364" lon="6.05818">
        <ele>872.7</ele>
        <time>2022-10-18T11:41:37Z</time>
      </trkpt>
      <trkpt lat="46.6536" lon="6.05815">
        <ele>873.5</ele>
        <time>2022-10-18T11:41:41Z</time>
      </trkpt>
      <trkpt lat="46.65354" lon="6.05812">
        <ele>874.5</ele>
        <time>2022-10-18T11:41:46Z</time>
      </trkpt>
      <trkpt lat="46.65349" lon="6.05811">
        <ele>874.7</ele>
        <time>2022-10-18T11:41:52Z</time>
      </trkpt>
      <trkpt lat="46.65344" lon="6.05809">
        <ele>874.1</ele>
        <time>2022-10-18T11:41:58Z</time>
      </trkpt>
      <trkpt lat="46.6534" lon="6.05809">
        <ele>873.2</ele>
        <time>2022-10-18T11:42:03Z</time>
      </trkpt>
      <trkpt lat="46.65335" lon="6.0581">
        <ele>871.9</ele>
        <time>2022-10-18T11:42:08Z</time>
      </trkpt>
      <trkpt lat="46.6533" lon="6.05813">
        <ele>871.1</ele>
        <time>2022-10-18T11:42:12Z</time>
      </trkpt>
      <trkpt lat="46.65326" lon="6.05817">
        <ele>870.8</ele>
        <time>2022-10-18T11:42:16Z</time>
      </trkpt>
      <trkpt lat="46.65323" lon="6.05822">
        <ele>871.2</ele>
        <time>2022-10-18T11:42:21Z</time>
      </trkpt>
      <trkpt lat="46.65319" lon="6.05827">
        <ele>872</ele>
        <time>2022-10-18T11:42:25Z</time>
      </trkpt>
      <trkpt lat="46.65315" lon="6.05834">
        <ele>873.5</ele>
        <time>2022-10-18T11:42:30Z</time>
      </trkpt>
      <trkpt lat="46.65312" lon="6.05839">
        <ele>874.9</ele>
        <time>2022-10-18T11:42:35Z</time>
      </trkpt>
      <trkpt lat="46.65308" lon="6.05844">
        <ele>876.2</ele>
        <time>2022-10-18T11:42:40Z</time>
      </trkpt>
      <trkpt lat="46.65304" lon="6.05847">
        <ele>877</ele>
        <time>2022-10-18T11:42:45Z</time>
      </trkpt>
      <trkpt lat="46.653" lon="6.05851">
        <ele>876.9</ele>
        <time>2022-10-18T11:42:51Z</time>
      </trkpt>
      <trkpt lat="46.65296" lon="6.05855">
        <ele>876.5</ele>
        <time>2022-10-18T11:42:56Z</time>
      </trkpt>
      <trkpt lat="46.65292" lon="6.05859">
        <ele>876.2</ele>
        <time>2022-10-18T11:43:01Z</time>
      </trkpt>
      <trkpt lat="46.65287" lon="6.05862">
        <ele>876.3</ele>
        <time>2022-10-18T11:43:06Z</time>
      </trkpt>
      <trkpt lat="46.65284" lon="6.05866">
        <ele>876.5</ele>
        <time>2022-10-18T11:43:11Z</time>
      </trkpt>
      <trkpt lat="46.6528" lon="6.05871">
        <ele>876.7</ele>
        <time>2022-10-18T11:43:16Z</time>
      </trkpt>
      <trkpt lat="46.65276" lon="6.05875">
        <ele>877.1</ele>
        <time>2022-10-18T11:43:21Z</time>
      </trkpt>
      <trkpt lat="46.65273" lon="6.0588">
        <ele>877.7</ele>
        <time>2022-10-18T11:43:26Z</time>
      </trkpt>
      <trkpt lat="46.6527" lon="6.05884">
        <ele>879</ele>
        <time>2022-10-18T11:43:32Z</time>
      </trkpt>
      <trkpt lat="46.65266" lon="6.05888">
        <ele>880.5</ele>
        <time>2022-10-18T11:43:40Z</time>
      </trkpt>
      <trkpt lat="46.65262" lon="6.05893">
        <ele>881.8</ele>
        <time>2022-10-18T11:43:47Z</time>
      </trkpt>
      <trkpt lat="46.65258" lon="6.05897">
        <ele>883.6</ele>
        <time>2022-10-18T11:43:54Z</time>
      </trkpt>
      <trkpt lat="46.65255" lon="6.05903">
        <ele>884.3</ele>
        <time>2022-10-18T11:44:02Z</time>
      </trkpt>
      <trkpt lat="46.65251" lon="6.05907">
        <ele>884.4</ele>
        <time>2022-10-18T11:44:08Z</time>
      </trkpt>
      <trkpt lat="46.65247" lon="6.05912">
        <ele>885</ele>
        <time>2022-10-18T11:44:14Z</time>
      </trkpt>
      <trkpt lat="46.65244" lon="6.05916">
        <ele>885.9</ele>
        <time>2022-10-18T11:44:19Z</time>
      </trkpt>
      <trkpt lat="46.6524" lon="6.0592">
        <ele>886.5</ele>
        <time>2022-10-18T11:44:25Z</time>
      </trkpt>
      <trkpt lat="46.65236" lon="6.05924">
        <ele>887.4</ele>
        <time>2022-10-18T11:44:33Z</time>
      </trkpt>
      <trkpt lat="46.65231" lon="6.05927">
        <ele>887.9</ele>
        <time>2022-10-18T11:44:39Z</time>
      </trkpt>
      <trkpt lat="46.65227" lon="6.0593">
        <ele>887.8</ele>
        <time>2022-10-18T11:44:46Z</time>
      </trkpt>
      <trkpt lat="46.65223" lon="6.05933">
        <ele>889</ele>
        <time>2022-10-18T11:44:56Z</time>
      </trkpt>
      <trkpt lat="46.65218" lon="6.05937">
        <ele>890.4</ele>
        <time>2022-10-18T11:45:03Z</time>
      </trkpt>
      <trkpt lat="46.65214" lon="6.05941">
        <ele>890.7</ele>
        <time>2022-10-18T11:45:08Z</time>
      </trkpt>
      <trkpt lat="46.6521" lon="6.05945">
        <ele>891</ele>
        <time>2022-10-18T11:45:12Z</time>
      </trkpt>
      <trkpt lat="46.65207" lon="6.0595">
        <ele>891</ele>
        <time>2022-10-18T11:45:18Z</time>
      </trkpt>
      <trkpt lat="46.65203" lon="6.05955">
        <ele>889.9</ele>
        <time>2022-10-18T11:45:25Z</time>
      </trkpt>
      <trkpt lat="46.65199" lon="6.05959">
        <ele>888.1</ele>
        <time>2022-10-18T11:45:32Z</time>
      </trkpt>
      <trkpt lat="46.65194" lon="6.05962">
        <ele>886.4</ele>
        <time>2022-10-18T11:45:38Z</time>
      </trkpt>
      <trkpt lat="46.6519" lon="6.05963">
        <ele>885.4</ele>
        <time>2022-10-18T11:45:43Z</time>
      </trkpt>
      <trkpt lat="46.65186" lon="6.05967">
        <ele>885</ele>
        <time>2022-10-18T11:45:52Z</time>
      </trkpt>
      <trkpt lat="46.65181" lon="6.05969">
        <ele>885</ele>
        <time>2022-10-18T11:46:02Z</time>
      </trkpt>
      <trkpt lat="46.65177" lon="6.0597">
        <ele>885.8</ele>
        <time>2022-10-18T11:46:09Z</time>
      </trkpt>
      <trkpt lat="46.65172" lon="6.05968">
        <ele>886.8</ele>
        <time>2022-10-18T11:46:15Z</time>
      </trkpt>
      <trkpt lat="46.65168" lon="6.05964">
        <ele>888</ele>
        <time>2022-10-18T11:46:22Z</time>
      </trkpt>
      <trkpt lat="46.65164" lon="6.05959">
        <ele>889</ele>
        <time>2022-10-18T11:46:30Z</time>
      </trkpt>
      <trkpt lat="46.6516" lon="6.05957">
        <ele>890.3</ele>
        <time>2022-10-18T11:46:36Z</time>
      </trkpt>
      <trkpt lat="46.65156" lon="6.05954">
        <ele>891</ele>
        <time>2022-10-18T11:46:41Z</time>
      </trkpt>
      <trkpt lat="46.65153" lon="6.05949">
        <ele>891.3</ele>
        <time>2022-10-18T11:46:48Z</time>
      </trkpt>
      <trkpt lat="46.65149" lon="6.05944">
        <ele>891.8</ele>
        <time>2022-10-18T11:46:54Z</time>
      </trkpt>
      <trkpt lat="46.65145" lon="6.05941">
        <ele>892.9</ele>
        <time>2022-10-18T11:47:00Z</time>
      </trkpt>
      <trkpt lat="46.6514" lon="6.05936">
        <ele>894.1</ele>
        <time>2022-10-18T11:47:06Z</time>
      </trkpt>
      <trkpt lat="46.65136" lon="6.05932">
        <ele>895</ele>
        <time>2022-10-18T11:47:11Z</time>
      </trkpt>
      <trkpt lat="46.65132" lon="6.05929">
        <ele>896.2</ele>
        <time>2022-10-18T11:47:17Z</time>
      </trkpt>
      <trkpt lat="46.65128" lon="6.05925">
        <ele>897.6</ele>
        <time>2022-10-18T11:47:22Z</time>
      </trkpt>
      <trkpt lat="46.65124" lon="6.05921">
        <ele>899.5</ele>
        <time>2022-10-18T11:47:28Z</time>
      </trkpt>
      <trkpt lat="46.6512" lon="6.05918">
        <ele>901.3</ele>
        <time>2022-10-18T11:47:34Z</time>
      </trkpt>
      <trkpt lat="46.65116" lon="6.05912">
        <ele>902.4</ele>
        <time>2022-10-18T11:47:40Z</time>
      </trkpt>
      <trkpt lat="46.65113" lon="6.05907">
        <ele>902.7</ele>
        <time>2022-10-18T11:47:45Z</time>
      </trkpt>
      <trkpt lat="46.6511" lon="6.05902">
        <ele>902.5</ele>
        <time>2022-10-18T11:47:49Z</time>
      </trkpt>
      <trkpt lat="46.65107" lon="6.05896">
        <ele>901.9</ele>
        <time>2022-10-18T11:47:53Z</time>
      </trkpt>
      <trkpt lat="46.65105" lon="6.05889">
        <ele>901.7</ele>
        <time>2022-10-18T11:47:59Z</time>
      </trkpt>
      <trkpt lat="46.65103" lon="6.05882">
        <ele>901.4</ele>
        <time>2022-10-18T11:48:05Z</time>
      </trkpt>
      <trkpt lat="46.651" lon="6.05876">
        <ele>901.4</ele>
        <time>2022-10-18T11:48:10Z</time>
      </trkpt>
      <trkpt lat="46.65099" lon="6.05869">
        <ele>901.9</ele>
        <time>2022-10-18T11:48:16Z</time>
      </trkpt>
      <trkpt lat="46.65096" lon="6.05862">
        <ele>902.2</ele>
        <time>2022-10-18T11:48:21Z</time>
      </trkpt>
      <trkpt lat="46.65093" lon="6.05856">
        <ele>902.7</ele>
        <time>2022-10-18T11:48:26Z</time>
      </trkpt>
      <trkpt lat="46.6509" lon="6.0585">
        <ele>902.7</ele>
        <time>2022-10-18T11:48:33Z</time>
      </trkpt>
      <trkpt lat="46.65087" lon="6.05845">
        <ele>902.4</ele>
        <time>2022-10-18T11:48:37Z</time>
      </trkpt>
      <trkpt lat="46.65084" lon="6.05839">
        <ele>901.9</ele>
        <time>2022-10-18T11:48:41Z</time>
      </trkpt>
      <trkpt lat="46.65081" lon="6.05833">
        <ele>900.9</ele>
        <time>2022-10-18T11:48:46Z</time>
      </trkpt>
      <trkpt lat="46.65078" lon="6.05826">
        <ele>900</ele>
        <time>2022-10-18T11:48:51Z</time>
      </trkpt>
      <trkpt lat="46.65076" lon="6.0582">
        <ele>899.3</ele>
        <time>2022-10-18T11:48:56Z</time>
      </trkpt>
      <trkpt lat="46.65074" lon="6.05814">
        <ele>899</ele>
        <time>2022-10-18T11:49:01Z</time>
      </trkpt>
      <trkpt lat="46.65071" lon="6.05807">
        <ele>898.7</ele>
        <time>2022-10-18T11:49:06Z</time>
      </trkpt>
      <trkpt lat="46.65069" lon="6.05801">
        <ele>898.4</ele>
        <time>2022-10-18T11:49:11Z</time>
      </trkpt>
      <trkpt lat="46.65067" lon="6.05795">
        <ele>898.1</ele>
        <time>2022-10-18T11:49:17Z</time>
      </trkpt>
      <trkpt lat="46.65064" lon="6.05788">
        <ele>897.7</ele>
        <time>2022-10-18T11:49:23Z</time>
      </trkpt>
      <trkpt lat="46.65063" lon="6.05781">
        <ele>897.4</ele>
        <time>2022-10-18T11:49:27Z</time>
      </trkpt>
      <trkpt lat="46.6506" lon="6.05775">
        <ele>897.1</ele>
        <time>2022-10-18T11:49:31Z</time>
      </trkpt>
      <trkpt lat="46.65059" lon="6.05768">
        <ele>897.1</ele>
        <time>2022-10-18T11:49:35Z</time>
      </trkpt>
      <trkpt lat="46.65057" lon="6.05762">
        <ele>897.5</ele>
        <time>2022-10-18T11:49:40Z</time>
      </trkpt>
      <trkpt lat="46.65055" lon="6.05755">
        <ele>898.2</ele>
        <time>2022-10-18T11:49:46Z</time>
      </trkpt>
      <trkpt lat="46.65053" lon="6.05749">
        <ele>898.5</ele>
        <time>2022-10-18T11:49:51Z</time>
      </trkpt>
      <trkpt lat="46.65052" lon="6.05741">
        <ele>898</ele>
        <time>2022-10-18T11:49:56Z</time>
      </trkpt>
      <trkpt lat="46.6505" lon="6.05735">
        <ele>897.2</ele>
        <time>2022-10-18T11:50:01Z</time>
      </trkpt>
      <trkpt lat="46.65048" lon="6.05728">
        <ele>896.7</ele>
        <time>2022-10-18T11:50:06Z</time>
      </trkpt>
      <trkpt lat="46.65046" lon="6.05722">
        <ele>896.7</ele>
        <time>2022-10-18T11:50:12Z</time>
      </trkpt>
      <trkpt lat="46.65044" lon="6.05715">
        <ele>897.4</ele>
        <time>2022-10-18T11:50:17Z</time>
      </trkpt>
      <trkpt lat="46.65041" lon="6.05708">
        <ele>898.1</ele>
        <time>2022-10-18T11:50:22Z</time>
      </trkpt>
      <trkpt lat="46.65038" lon="6.05703">
        <ele>898.3</ele>
        <time>2022-10-18T11:50:28Z</time>
      </trkpt>
      <trkpt lat="46.65036" lon="6.05696">
        <ele>899.3</ele>
        <time>2022-10-18T11:50:34Z</time>
      </trkpt>
      <trkpt lat="46.65033" lon="6.0569">
        <ele>900.5</ele>
        <time>2022-10-18T11:50:40Z</time>
      </trkpt>
      <trkpt lat="46.65031" lon="6.05684">
        <ele>901.6</ele>
        <time>2022-10-18T11:50:45Z</time>
      </trkpt>
      <trkpt lat="46.65028" lon="6.05678">
        <ele>903</ele>
        <time>2022-10-18T11:50:50Z</time>
      </trkpt>
      <trkpt lat="46.65026" lon="6.05671">
        <ele>904.9</ele>
        <time>2022-10-18T11:50:56Z</time>
      </trkpt>
      <trkpt lat="46.65024" lon="6.05665">
        <ele>905.7</ele>
        <time>2022-10-18T11:51:02Z</time>
      </trkpt>
      <trkpt lat="46.65023" lon="6.05659">
        <ele>905.3</ele>
        <time>2022-10-18T11:51:09Z</time>
      </trkpt>
      <trkpt lat="46.65021" lon="6.05651">
        <ele>905.6</ele>
        <time>2022-10-18T11:51:14Z</time>
      </trkpt>
      <trkpt lat="46.65019" lon="6.05645">
        <ele>906.1</ele>
        <time>2022-10-18T11:51:19Z</time>
      </trkpt>
      <trkpt lat="46.65017" lon="6.05638">
        <ele>905.5</ele>
        <time>2022-10-18T11:51:25Z</time>
      </trkpt>
      <trkpt lat="46.65016" lon="6.05631">
        <ele>904</ele>
        <time>2022-10-18T11:51:30Z</time>
      </trkpt>
      <trkpt lat="46.65013" lon="6.05625">
        <ele>903.1</ele>
        <time>2022-10-18T11:51:34Z</time>
      </trkpt>
      <trkpt lat="46.65011" lon="6.05618">
        <ele>902.2</ele>
        <time>2022-10-18T11:51:39Z</time>
      </trkpt>
      <trkpt lat="46.6501" lon="6.05612">
        <ele>901.2</ele>
        <time>2022-10-18T11:51:44Z</time>
      </trkpt>
      <trkpt lat="46.65007" lon="6.05606">
        <ele>900.5</ele>
        <time>2022-10-18T11:51:49Z</time>
      </trkpt>
      <trkpt lat="46.65005" lon="6.05599">
        <ele>899.8</ele>
        <time>2022-10-18T11:51:54Z</time>
      </trkpt>
      <trkpt lat="46.65002" lon="6.05593">
        <ele>899.6</ele>
        <time>2022-10-18T11:51:58Z</time>
      </trkpt>
      <trkpt lat="46.65" lon="6.05587">
        <ele>899.5</ele>
        <time>2022-10-18T11:52:05Z</time>
      </trkpt>
      <trkpt lat="46.64998" lon="6.0558">
        <ele>899.4</ele>
        <time>2022-10-18T11:52:10Z</time>
      </trkpt>
      <trkpt lat="46.64995" lon="6.05573">
        <ele>899.2</ele>
        <time>2022-10-18T11:52:15Z</time>
      </trkpt>
      <trkpt lat="46.64993" lon="6.05567">
        <ele>898.5</ele>
        <time>2022-10-18T11:52:20Z</time>
      </trkpt>
      <trkpt lat="46.6499" lon="6.05561">
        <ele>897.4</ele>
        <time>2022-10-18T11:52:26Z</time>
      </trkpt>
      <trkpt lat="46.64986" lon="6.05555">
        <ele>896.7</ele>
        <time>2022-10-18T11:52:31Z</time>
      </trkpt>
      <trkpt lat="46.64982" lon="6.0555">
        <ele>895.8</ele>
        <time>2022-10-18T11:52:36Z</time>
      </trkpt>
      <trkpt lat="46.6498" lon="6.05544">
        <ele>895.4</ele>
        <time>2022-10-18T11:52:40Z</time>
      </trkpt>
      <trkpt lat="46.64978" lon="6.05537">
        <ele>895.6</ele>
        <time>2022-10-18T11:52:44Z</time>
      </trkpt>
      <trkpt lat="46.64976" lon="6.05531">
        <ele>896.3</ele>
        <time>2022-10-18T11:52:50Z</time>
      </trkpt>
      <trkpt lat="46.64972" lon="6.05527">
        <ele>896.4</ele>
        <time>2022-10-18T11:52:57Z</time>
      </trkpt>
      <trkpt lat="46.64969" lon="6.0552">
        <ele>896.1</ele>
        <time>2022-10-18T11:53:02Z</time>
      </trkpt>
      <trkpt lat="46.64966" lon="6.05515">
        <ele>895.7</ele>
        <time>2022-10-18T11:53:06Z</time>
      </trkpt>
      <trkpt lat="46.64963" lon="6.05509">
        <ele>895.4</ele>
        <time>2022-10-18T11:53:11Z</time>
      </trkpt>
      <trkpt lat="46.64961" lon="6.05503">
        <ele>894.4</ele>
        <time>2022-10-18T11:53:17Z</time>
      </trkpt>
      <trkpt lat="46.64958" lon="6.05498">
        <ele>894.7</ele>
        <time>2022-10-18T11:53:29Z</time>
      </trkpt>
      <trkpt lat="46.64953" lon="6.05495">
        <ele>895.3</ele>
        <time>2022-10-18T11:53:49Z</time>
      </trkpt>
      <trkpt lat="46.64949" lon="6.05491">
        <ele>894.7</ele>
        <time>2022-10-18T11:53:53Z</time>
      </trkpt>
      <trkpt lat="46.64946" lon="6.05487">
        <ele>893.7</ele>
        <time>2022-10-18T11:53:57Z</time>
      </trkpt>
      <trkpt lat="46.64941" lon="6.05481">
        <ele>893.4</ele>
        <time>2022-10-18T11:54:01Z</time>
      </trkpt>
      <trkpt lat="46.64939" lon="6.05476">
        <ele>893</ele>
        <time>2022-10-18T11:54:05Z</time>
      </trkpt>
      <trkpt lat="46.64936" lon="6.0547">
        <ele>891.6</ele>
        <time>2022-10-18T11:54:10Z</time>
      </trkpt>
      <trkpt lat="46.64932" lon="6.05465">
        <ele>890.4</ele>
        <time>2022-10-18T11:54:15Z</time>
      </trkpt>
      <trkpt lat="46.64929" lon="6.05458">
        <ele>889.8</ele>
        <time>2022-10-18T11:54:20Z</time>
      </trkpt>
      <trkpt lat="46.64926" lon="6.05453">
        <ele>889.9</ele>
        <time>2022-10-18T11:54:24Z</time>
      </trkpt>
      <trkpt lat="46.64923" lon="6.05447">
        <ele>890.3</ele>
        <time>2022-10-18T11:54:28Z</time>
      </trkpt>
      <trkpt lat="46.64921" lon="6.05441">
        <ele>891</ele>
        <time>2022-10-18T11:54:32Z</time>
      </trkpt>
      <trkpt lat="46.64918" lon="6.05436">
        <ele>891.4</ele>
        <time>2022-10-18T11:54:36Z</time>
      </trkpt>
      <trkpt lat="46.64914" lon="6.05431">
        <ele>891.3</ele>
        <time>2022-10-18T11:54:41Z</time>
      </trkpt>
      <trkpt lat="46.64911" lon="6.05426">
        <ele>891</ele>
        <time>2022-10-18T11:54:48Z</time>
      </trkpt>
      <trkpt lat="46.64907" lon="6.05423">
        <ele>890.8</ele>
        <time>2022-10-18T11:54:54Z</time>
      </trkpt>
      <trkpt lat="46.64903" lon="6.05419">
        <ele>890.5</ele>
        <time>2022-10-18T11:55:00Z</time>
      </trkpt>
      <trkpt lat="46.64898" lon="6.05417">
        <ele>890.6</ele>
        <time>2022-10-18T11:55:06Z</time>
      </trkpt>
      <trkpt lat="46.64893" lon="6.05414">
        <ele>890.5</ele>
        <time>2022-10-18T11:55:12Z</time>
      </trkpt>
      <trkpt lat="46.64889" lon="6.05409">
        <ele>890.5</ele>
        <time>2022-10-18T11:55:18Z</time>
      </trkpt>
      <trkpt lat="46.64885" lon="6.05405">
        <ele>890.5</ele>
        <time>2022-10-18T11:55:23Z</time>
      </trkpt>
      <trkpt lat="46.64881" lon="6.05402">
        <ele>890.4</ele>
        <time>2022-10-18T11:55:27Z</time>
      </trkpt>
      <trkpt lat="46.64877" lon="6.05398">
        <ele>890.8</ele>
        <time>2022-10-18T11:55:32Z</time>
      </trkpt>
      <trkpt lat="46.64874" lon="6.05393">
        <ele>891.1</ele>
        <time>2022-10-18T11:55:38Z</time>
      </trkpt>
      <trkpt lat="46.64871" lon="6.05388">
        <ele>891.5</ele>
        <time>2022-10-18T11:55:43Z</time>
      </trkpt>
      <trkpt lat="46.64867" lon="6.05383">
        <ele>891.6</ele>
        <time>2022-10-18T11:55:48Z</time>
      </trkpt>
      <trkpt lat="46.64864" lon="6.05378">
        <ele>890.7</ele>
        <time>2022-10-18T11:55:55Z</time>
      </trkpt>
      <trkpt lat="46.64861" lon="6.05371">
        <ele>889.7</ele>
        <time>2022-10-18T11:56:01Z</time>
      </trkpt>
      <trkpt lat="46.64858" lon="6.05366">
        <ele>888.8</ele>
        <time>2022-10-18T11:56:06Z</time>
      </trkpt>
      <trkpt lat="46.64855" lon="6.0536">
        <ele>887.9</ele>
        <time>2022-10-18T11:56:12Z</time>
      </trkpt>
      <trkpt lat="46.64851" lon="6.05354">
        <ele>886.8</ele>
        <time>2022-10-18T11:56:18Z</time>
      </trkpt>
      <trkpt lat="46.64848" lon="6.05348">
        <ele>886</ele>
        <time>2022-10-18T11:56:23Z</time>
      </trkpt>
      <trkpt lat="46.64844" lon="6.05343">
        <ele>885</ele>
        <time>2022-10-18T11:56:28Z</time>
      </trkpt>
      <trkpt lat="46.64841" lon="6.05338">
        <ele>883.8</ele>
        <time>2022-10-18T11:56:33Z</time>
      </trkpt>
      <trkpt lat="46.64838" lon="6.05333">
        <ele>881.8</ele>
        <time>2022-10-18T11:56:40Z</time>
      </trkpt>
      <trkpt lat="46.64835" lon="6.05327">
        <ele>880.1</ele>
        <time>2022-10-18T11:56:47Z</time>
      </trkpt>
      <trkpt lat="46.64831" lon="6.05322">
        <ele>878.9</ele>
        <time>2022-10-18T11:56:52Z</time>
      </trkpt>
      <trkpt lat="46.64829" lon="6.05316">
        <ele>877.7</ele>
        <time>2022-10-18T11:56:57Z</time>
      </trkpt>
      <trkpt lat="46.64825" lon="6.05312">
        <ele>877.5</ele>
        <time>2022-10-18T11:57:01Z</time>
      </trkpt>
      <trkpt lat="46.64822" lon="6.05306">
        <ele>878</ele>
        <time>2022-10-18T11:57:06Z</time>
      </trkpt>
      <trkpt lat="46.64819" lon="6.05301">
        <ele>879</ele>
        <time>2022-10-18T11:57:10Z</time>
      </trkpt>
      <trkpt lat="46.64816" lon="6.05295">
        <ele>880.8</ele>
        <time>2022-10-18T11:57:16Z</time>
      </trkpt>
      <trkpt lat="46.64812" lon="6.0529">
        <ele>881.5</ele>
        <time>2022-10-18T11:57:21Z</time>
      </trkpt>
      <trkpt lat="46.64811" lon="6.05283">
        <ele>881.5</ele>
        <time>2022-10-18T11:57:28Z</time>
      </trkpt>
      <trkpt lat="46.64808" lon="6.05276">
        <ele>880.2</ele>
        <time>2022-10-18T11:57:34Z</time>
      </trkpt>
      <trkpt lat="46.64805" lon="6.05271">
        <ele>878.7</ele>
        <time>2022-10-18T11:57:40Z</time>
      </trkpt>
      <trkpt lat="46.64803" lon="6.05264">
        <ele>877.3</ele>
        <time>2022-10-18T11:57:47Z</time>
      </trkpt>
      <trkpt lat="46.648" lon="6.05257">
        <ele>876.2</ele>
        <time>2022-10-18T11:57:53Z</time>
      </trkpt>
      <trkpt lat="46.64798" lon="6.05251">
        <ele>875.6</ele>
        <time>2022-10-18T11:57:58Z</time>
      </trkpt>
      <trkpt lat="46.64798" lon="6.05244">
        <ele>874.6</ele>
        <time>2022-10-18T11:58:05Z</time>
      </trkpt>
      <trkpt lat="46.64795" lon="6.05238">
        <ele>873.5</ele>
        <time>2022-10-18T11:58:10Z</time>
      </trkpt>
      <trkpt lat="46.64792" lon="6.05232">
        <ele>872.3</ele>
        <time>2022-10-18T11:58:15Z</time>
      </trkpt>
      <trkpt lat="46.64789" lon="6.05226">
        <ele>871.5</ele>
        <time>2022-10-18T11:58:20Z</time>
      </trkpt>
      <trkpt lat="46.64784" lon="6.05222">
        <ele>870.7</ele>
        <time>2022-10-18T11:58:26Z</time>
      </trkpt>
      <trkpt lat="46.6478" lon="6.05218">
        <ele>870.4</ele>
        <time>2022-10-18T11:58:33Z</time>
      </trkpt>
      <trkpt lat="46.64776" lon="6.05212">
        <ele>869.9</ele>
        <time>2022-10-18T11:58:39Z</time>
      </trkpt>
      <trkpt lat="46.64773" lon="6.05207">
        <ele>869.6</ele>
        <time>2022-10-18T11:58:44Z</time>
      </trkpt>
      <trkpt lat="46.64769" lon="6.05203">
        <ele>868.4</ele>
        <time>2022-10-18T11:58:53Z</time>
      </trkpt>
      <trkpt lat="46.64775" lon="6.05202">
        <ele>867.1</ele>
        <time>2022-10-18T11:59:18Z</time>
      </trkpt>
      <trkpt lat="46.6477" lon="6.052">
        <ele>866.4</ele>
        <time>2022-10-18T11:59:21Z</time>
      </trkpt>
      <trkpt lat="46.64765" lon="6.05199">
        <ele>866.3</ele>
        <time>2022-10-18T11:59:24Z</time>
      </trkpt>
      <trkpt lat="46.6476" lon="6.05199">
        <ele>867</ele>
        <time>2022-10-18T11:59:32Z</time>
      </trkpt>
      <trkpt lat="46.64757" lon="6.05203">
        <ele>865.4</ele>
        <time>2022-10-18T11:59:57Z</time>
      </trkpt>
      <trkpt lat="46.64752" lon="6.05203">
        <ele>865</ele>
        <time>2022-10-18T12:00:04Z</time>
      </trkpt>
      <trkpt lat="46.64746" lon="6.05202">
        <ele>864.6</ele>
        <time>2022-10-18T12:00:12Z</time>
      </trkpt>
      <trkpt lat="46.64741" lon="6.052">
        <ele>864.7</ele>
        <time>2022-10-18T12:00:18Z</time>
      </trkpt>
      <trkpt lat="46.64736" lon="6.05201">
        <ele>864.7</ele>
        <time>2022-10-18T12:00:25Z</time>
      </trkpt>
      <trkpt lat="46.64731" lon="6.052">
        <ele>864.4</ele>
        <time>2022-10-18T12:00:31Z</time>
      </trkpt>
      <trkpt lat="46.64726" lon="6.05199">
        <ele>864.1</ele>
        <time>2022-10-18T12:00:35Z</time>
      </trkpt>
      <trkpt lat="46.64721" lon="6.05199">
        <ele>863.7</ele>
        <time>2022-10-18T12:00:41Z</time>
      </trkpt>
      <trkpt lat="46.64716" lon="6.05198">
        <ele>863.1</ele>
        <time>2022-10-18T12:00:47Z</time>
      </trkpt>
      <trkpt lat="46.64712" lon="6.05196">
        <ele>862</ele>
        <time>2022-10-18T12:00:53Z</time>
      </trkpt>
      <trkpt lat="46.64707" lon="6.05193">
        <ele>860.6</ele>
        <time>2022-10-18T12:00:59Z</time>
      </trkpt>
      <trkpt lat="46.64702" lon="6.05192">
        <ele>859.1</ele>
        <time>2022-10-18T12:01:05Z</time>
      </trkpt>
      <trkpt lat="46.64698" lon="6.0519">
        <ele>858</ele>
        <time>2022-10-18T12:01:10Z</time>
      </trkpt>
      <trkpt lat="46.64693" lon="6.05188">
        <ele>856.7</ele>
        <time>2022-10-18T12:01:16Z</time>
      </trkpt>
      <trkpt lat="46.64688" lon="6.05186">
        <ele>855.8</ele>
        <time>2022-10-18T12:01:21Z</time>
      </trkpt>
      <trkpt lat="46.64683" lon="6.05182">
        <ele>855</ele>
        <time>2022-10-18T12:01:26Z</time>
      </trkpt>
      <trkpt lat="46.64679" lon="6.0518">
        <ele>854.6</ele>
        <time>2022-10-18T12:01:33Z</time>
      </trkpt>
      <trkpt lat="46.64674" lon="6.05178">
        <ele>853.7</ele>
        <time>2022-10-18T12:01:39Z</time>
      </trkpt>
      <trkpt lat="46.64671" lon="6.05174">
        <ele>852.6</ele>
        <time>2022-10-18T12:01:44Z</time>
      </trkpt>
      <trkpt lat="46.64666" lon="6.05173">
        <ele>850.3</ele>
        <time>2022-10-18T12:01:55Z</time>
      </trkpt>
      <trkpt lat="46.64662" lon="6.05167">
        <ele>850.5</ele>
        <time>2022-10-18T12:02:03Z</time>
      </trkpt>
      <trkpt lat="46.64659" lon="6.0516">
        <ele>851.1</ele>
        <time>2022-10-18T12:02:07Z</time>
      </trkpt>
      <trkpt lat="46.64657" lon="6.05154">
        <ele>852</ele>
        <time>2022-10-18T12:02:11Z</time>
      </trkpt>
      <trkpt lat="46.64654" lon="6.05148">
        <ele>853.3</ele>
        <time>2022-10-18T12:02:16Z</time>
      </trkpt>
      <trkpt lat="46.64652" lon="6.05142">
        <ele>853.9</ele>
        <time>2022-10-18T12:02:20Z</time>
      </trkpt>
      <trkpt lat="46.6465" lon="6.05135">
        <ele>853.7</ele>
        <time>2022-10-18T12:02:24Z</time>
      </trkpt>
      <trkpt lat="46.64648" lon="6.0513">
        <ele>853.6</ele>
        <time>2022-10-18T12:02:28Z</time>
      </trkpt>
      <trkpt lat="46.64643" lon="6.05125">
        <ele>853.1</ele>
        <time>2022-10-18T12:02:35Z</time>
      </trkpt>
      <trkpt lat="46.64639" lon="6.05122">
        <ele>852.5</ele>
        <time>2022-10-18T12:02:40Z</time>
      </trkpt>
      <trkpt lat="46.64635" lon="6.0512">
        <ele>851.5</ele>
        <time>2022-10-18T12:02:46Z</time>
      </trkpt>
      <trkpt lat="46.6463" lon="6.05119">
        <ele>850.6</ele>
        <time>2022-10-18T12:02:51Z</time>
      </trkpt>
      <trkpt lat="46.64626" lon="6.0512">
        <ele>850</ele>
        <time>2022-10-18T12:02:55Z</time>
      </trkpt>
      <trkpt lat="46.64621" lon="6.05119">
        <ele>850.2</ele>
        <time>2022-10-18T12:03:00Z</time>
      </trkpt>
      <trkpt lat="46.64616" lon="6.05116">
        <ele>850.3</ele>
        <time>2022-10-18T12:03:06Z</time>
      </trkpt>
      <trkpt lat="46.64611" lon="6.05116">
        <ele>850.3</ele>
        <time>2022-10-18T12:03:11Z</time>
      </trkpt>
      <trkpt lat="46.64605" lon="6.05116">
        <ele>850.1</ele>
        <time>2022-10-18T12:03:16Z</time>
      </trkpt>
      <trkpt lat="46.64601" lon="6.05114">
        <ele>850.4</ele>
        <time>2022-10-18T12:03:22Z</time>
      </trkpt>
      <trkpt lat="46.64598" lon="6.05109">
        <ele>850.8</ele>
        <time>2022-10-18T12:03:26Z</time>
      </trkpt>
      <trkpt lat="46.64595" lon="6.05103">
        <ele>851.3</ele>
        <time>2022-10-18T12:03:30Z</time>
      </trkpt>
      <trkpt lat="46.64593" lon="6.05097">
        <ele>851.3</ele>
        <time>2022-10-18T12:03:34Z</time>
      </trkpt>
      <trkpt lat="46.64591" lon="6.05091">
        <ele>851.6</ele>
        <time>2022-10-18T12:03:39Z</time>
      </trkpt>
      <trkpt lat="46.64589" lon="6.05083">
        <ele>850.7</ele>
        <time>2022-10-18T12:03:47Z</time>
      </trkpt>
      <trkpt lat="46.64586" lon="6.05077">
        <ele>849.8</ele>
        <time>2022-10-18T12:03:52Z</time>
      </trkpt>
      <trkpt lat="46.64584" lon="6.0507">
        <ele>849.5</ele>
        <time>2022-10-18T12:03:56Z</time>
      </trkpt>
      <trkpt lat="46.64581" lon="6.05065">
        <ele>849.3</ele>
        <time>2022-10-18T12:04:00Z</time>
      </trkpt>
      <trkpt lat="46.64577" lon="6.0506">
        <ele>848.5</ele>
        <time>2022-10-18T12:04:04Z</time>
      </trkpt>
      <trkpt lat="46.64574" lon="6.05054">
        <ele>846.9</ele>
        <time>2022-10-18T12:04:10Z</time>
      </trkpt>
      <trkpt lat="46.6457" lon="6.05049">
        <ele>844.8</ele>
        <time>2022-10-18T12:04:17Z</time>
      </trkpt>
      <trkpt lat="46.64567" lon="6.05043">
        <ele>844</ele>
        <time>2022-10-18T12:04:22Z</time>
      </trkpt>
      <trkpt lat="46.64565" lon="6.05037">
        <ele>843.7</ele>
        <time>2022-10-18T12:04:26Z</time>
      </trkpt>
      <trkpt lat="46.64562" lon="6.0503">
        <ele>843.3</ele>
        <time>2022-10-18T12:04:33Z</time>
      </trkpt>
      <trkpt lat="46.64559" lon="6.05025">
        <ele>843.1</ele>
        <time>2022-10-18T12:04:38Z</time>
      </trkpt>
      <trkpt lat="46.64556" lon="6.05019">
        <ele>842.9</ele>
        <time>2022-10-18T12:04:42Z</time>
      </trkpt>
      <trkpt lat="46.64553" lon="6.05014">
        <ele>842.5</ele>
        <time>2022-10-18T12:04:46Z</time>
      </trkpt>
      <trkpt lat="46.64549" lon="6.05009">
        <ele>841.6</ele>
        <time>2022-10-18T12:04:51Z</time>
      </trkpt>
      <trkpt lat="46.64546" lon="6.05003">
        <ele>841.2</ele>
        <time>2022-10-18T12:04:56Z</time>
      </trkpt>
      <trkpt lat="46.64542" lon="6.04999">
        <ele>841.2</ele>
        <time>2022-10-18T12:05:01Z</time>
      </trkpt>
      <trkpt lat="46.64538" lon="6.04995">
        <ele>840.8</ele>
        <time>2022-10-18T12:05:06Z</time>
      </trkpt>
      <trkpt lat="46.64535" lon="6.04989">
        <ele>840.8</ele>
        <time>2022-10-18T12:05:11Z</time>
      </trkpt>
      <trkpt lat="46.64532" lon="6.04983">
        <ele>840.7</ele>
        <time>2022-10-18T12:05:15Z</time>
      </trkpt>
      <trkpt lat="46.64529" lon="6.04977">
        <ele>840.6</ele>
        <time>2022-10-18T12:05:20Z</time>
      </trkpt>
      <trkpt lat="46.64526" lon="6.04971">
        <ele>840.5</ele>
        <time>2022-10-18T12:05:25Z</time>
      </trkpt>
      <trkpt lat="46.64524" lon="6.04965">
        <ele>840.4</ele>
        <time>2022-10-18T12:05:30Z</time>
      </trkpt>
      <trkpt lat="46.64522" lon="6.04958">
        <ele>840.3</ele>
        <time>2022-10-18T12:05:37Z</time>
      </trkpt>
      <trkpt lat="46.64519" lon="6.04953">
        <ele>840.1</ele>
        <time>2022-10-18T12:05:43Z</time>
      </trkpt>
      <trkpt lat="46.64515" lon="6.04948">
        <ele>840.2</ele>
        <time>2022-10-18T12:05:49Z</time>
      </trkpt>
      <trkpt lat="46.64511" lon="6.04943">
        <ele>840.1</ele>
        <time>2022-10-18T12:05:53Z</time>
      </trkpt>
      <trkpt lat="46.64507" lon="6.04938">
        <ele>840.1</ele>
        <time>2022-10-18T12:05:57Z</time>
      </trkpt>
      <trkpt lat="46.64502" lon="6.04936">
        <ele>840.6</ele>
        <time>2022-10-18T12:06:01Z</time>
      </trkpt>
      <trkpt lat="46.64497" lon="6.04935">
        <ele>841.8</ele>
        <time>2022-10-18T12:06:07Z</time>
      </trkpt>
      <trkpt lat="46.64492" lon="6.04936">
        <ele>842</ele>
        <time>2022-10-18T12:06:11Z</time>
      </trkpt>
      <trkpt lat="46.64487" lon="6.04939">
        <ele>842.3</ele>
        <time>2022-10-18T12:06:16Z</time>
      </trkpt>
      <trkpt lat="46.64483" lon="6.04944">
        <ele>842.3</ele>
        <time>2022-10-18T12:06:21Z</time>
      </trkpt>
      <trkpt lat="46.6448" lon="6.0495">
        <ele>842.7</ele>
        <time>2022-10-18T12:06:26Z</time>
      </trkpt>
      <trkpt lat="46.64476" lon="6.04956">
        <ele>842.9</ele>
        <time>2022-10-18T12:06:31Z</time>
      </trkpt>
      <trkpt lat="46.64473" lon="6.0496">
        <ele>843</ele>
        <time>2022-10-18T12:06:36Z</time>
      </trkpt>
      <trkpt lat="46.64469" lon="6.04963">
        <ele>842.7</ele>
        <time>2022-10-18T12:06:41Z</time>
      </trkpt>
      <trkpt lat="46.64464" lon="6.04966">
        <ele>842.4</ele>
        <time>2022-10-18T12:06:46Z</time>
      </trkpt>
      <trkpt lat="46.64459" lon="6.04967">
        <ele>842.2</ele>
        <time>2022-10-18T12:06:51Z</time>
      </trkpt>
      <trkpt lat="46.64454" lon="6.04969">
        <ele>842.5</ele>
        <time>2022-10-18T12:06:55Z</time>
      </trkpt>
      <trkpt lat="46.6445" lon="6.0497">
        <ele>843.2</ele>
        <time>2022-10-18T12:06:59Z</time>
      </trkpt>
      <trkpt lat="46.64444" lon="6.0497">
        <ele>843.8</ele>
        <time>2022-10-18T12:07:03Z</time>
      </trkpt>
      <trkpt lat="46.64439" lon="6.04969">
        <ele>844.8</ele>
        <time>2022-10-18T12:07:07Z</time>
      </trkpt>
      <trkpt lat="46.64434" lon="6.04968">
        <ele>846.2</ele>
        <time>2022-10-18T12:07:11Z</time>
      </trkpt>
      <trkpt lat="46.6443" lon="6.04967">
        <ele>847.7</ele>
        <time>2022-10-18T12:07:16Z</time>
      </trkpt>
      <trkpt lat="46.64425" lon="6.04965">
        <ele>848.5</ele>
        <time>2022-10-18T12:07:21Z</time>
      </trkpt>
      <trkpt lat="46.6442" lon="6.04962">
        <ele>848.8</ele>
        <time>2022-10-18T12:07:26Z</time>
      </trkpt>
      <trkpt lat="46.64416" lon="6.04959">
        <ele>848.7</ele>
        <time>2022-10-18T12:07:32Z</time>
      </trkpt>
      <trkpt lat="46.64412" lon="6.04956">
        <ele>848.3</ele>
        <time>2022-10-18T12:07:37Z</time>
      </trkpt>
      <trkpt lat="46.64407" lon="6.04951">
        <ele>848</ele>
        <time>2022-10-18T12:07:42Z</time>
      </trkpt>
      <trkpt lat="46.64404" lon="6.04947">
        <ele>847.4</ele>
        <time>2022-10-18T12:07:46Z</time>
      </trkpt>
      <trkpt lat="46.64399" lon="6.04943">
        <ele>846.9</ele>
        <time>2022-10-18T12:07:50Z</time>
      </trkpt>
      <trkpt lat="46.64396" lon="6.04938">
        <ele>846.6</ele>
        <time>2022-10-18T12:07:54Z</time>
      </trkpt>
      <trkpt lat="46.64394" lon="6.04933">
        <ele>845.8</ele>
        <time>2022-10-18T12:07:59Z</time>
      </trkpt>
      <trkpt lat="46.64391" lon="6.04926">
        <ele>845.5</ele>
        <time>2022-10-18T12:08:04Z</time>
      </trkpt>
      <trkpt lat="46.64389" lon="6.04919">
        <ele>845.7</ele>
        <time>2022-10-18T12:08:08Z</time>
      </trkpt>
      <trkpt lat="46.64389" lon="6.04912">
        <ele>846.1</ele>
        <time>2022-10-18T12:08:12Z</time>
      </trkpt>
      <trkpt lat="46.64387" lon="6.04905">
        <ele>846.4</ele>
        <time>2022-10-18T12:08:16Z</time>
      </trkpt>
      <trkpt lat="46.64388" lon="6.04898">
        <ele>847.1</ele>
        <time>2022-10-18T12:08:22Z</time>
      </trkpt>
      <trkpt lat="46.64389" lon="6.0489">
        <ele>848.8</ele>
        <time>2022-10-18T12:08:27Z</time>
      </trkpt>
      <trkpt lat="46.64389" lon="6.04884">
        <ele>850.1</ele>
        <time>2022-10-18T12:08:33Z</time>
      </trkpt>
      <trkpt lat="46.64388" lon="6.04877">
        <ele>850.6</ele>
        <time>2022-10-18T12:08:37Z</time>
      </trkpt>
      <trkpt lat="46.64386" lon="6.04869">
        <ele>850.8</ele>
        <time>2022-10-18T12:08:42Z</time>
      </trkpt>
      <trkpt lat="46.64387" lon="6.04862">
        <ele>850.5</ele>
        <time>2022-10-18T12:08:47Z</time>
      </trkpt>
      <trkpt lat="46.64387" lon="6.04856">
        <ele>850.7</ele>
        <time>2022-10-18T12:09:07Z</time>
      </trkpt>
      <trkpt lat="46.64387" lon="6.04849">
        <ele>851.7</ele>
        <time>2022-10-18T12:09:13Z</time>
      </trkpt>
      <trkpt lat="46.64389" lon="6.04842">
        <ele>852.4</ele>
        <time>2022-10-18T12:09:18Z</time>
      </trkpt>
      <trkpt lat="46.64389" lon="6.04834">
        <ele>853</ele>
        <time>2022-10-18T12:09:22Z</time>
      </trkpt>
      <trkpt lat="46.64391" lon="6.04828">
        <ele>853.6</ele>
        <time>2022-10-18T12:09:27Z</time>
      </trkpt>
      <trkpt lat="46.64392" lon="6.0482">
        <ele>854</ele>
        <time>2022-10-18T12:09:32Z</time>
      </trkpt>
      <trkpt lat="46.64393" lon="6.04812">
        <ele>854.6</ele>
        <time>2022-10-18T12:09:37Z</time>
      </trkpt>
      <trkpt lat="46.64393" lon="6.04805">
        <ele>854.9</ele>
        <time>2022-10-18T12:09:42Z</time>
      </trkpt>
      <trkpt lat="46.64393" lon="6.04798">
        <ele>855.3</ele>
        <time>2022-10-18T12:09:46Z</time>
      </trkpt>
      <trkpt lat="46.64394" lon="6.0479">
        <ele>855.5</ele>
        <time>2022-10-18T12:09:52Z</time>
      </trkpt>
      <trkpt lat="46.64394" lon="6.04784">
        <ele>855.4</ele>
        <time>2022-10-18T12:09:56Z</time>
      </trkpt>
      <trkpt lat="46.64394" lon="6.04776">
        <ele>854.8</ele>
        <time>2022-10-18T12:10:01Z</time>
      </trkpt>
      <trkpt lat="46.64394" lon="6.04769">
        <ele>853.5</ele>
        <time>2022-10-18T12:10:06Z</time>
      </trkpt>
      <trkpt lat="46.64393" lon="6.04762">
        <ele>852</ele>
        <time>2022-10-18T12:10:12Z</time>
      </trkpt>
      <trkpt lat="46.64393" lon="6.04755">
        <ele>851.3</ele>
        <time>2022-10-18T12:10:18Z</time>
      </trkpt>
      <trkpt lat="46.64392" lon="6.04747">
        <ele>851.1</ele>
        <time>2022-10-18T12:10:23Z</time>
      </trkpt>
      <trkpt lat="46.64391" lon="6.04741">
        <ele>851.1</ele>
        <time>2022-10-18T12:10:27Z</time>
      </trkpt>
      <trkpt lat="46.64389" lon="6.04734">
        <ele>851.4</ele>
        <time>2022-10-18T12:10:31Z</time>
      </trkpt>
      <trkpt lat="46.64388" lon="6.04728">
        <ele>852.3</ele>
        <time>2022-10-18T12:10:35Z</time>
      </trkpt>
      <trkpt lat="46.64388" lon="6.04721">
        <ele>852.3</ele>
        <time>2022-10-18T12:10:39Z</time>
      </trkpt>
      <trkpt lat="46.64387" lon="6.04714">
        <ele>851.9</ele>
        <time>2022-10-18T12:10:43Z</time>
      </trkpt>
      <trkpt lat="46.64385" lon="6.04708">
        <ele>852</ele>
        <time>2022-10-18T12:10:47Z</time>
      </trkpt>
      <trkpt lat="46.64384" lon="6.04701">
        <ele>851.8</ele>
        <time>2022-10-18T12:10:51Z</time>
      </trkpt>
      <trkpt lat="46.64383" lon="6.04693">
        <ele>851.9</ele>
        <time>2022-10-18T12:10:56Z</time>
      </trkpt>
      <trkpt lat="46.64382" lon="6.04686">
        <ele>851.4</ele>
        <time>2022-10-18T12:11:02Z</time>
      </trkpt>
      <trkpt lat="46.64379" lon="6.0468">
        <ele>850.9</ele>
        <time>2022-10-18T12:11:07Z</time>
      </trkpt>
      <trkpt lat="46.64379" lon="6.04673">
        <ele>850.6</ele>
        <time>2022-10-18T12:11:12Z</time>
      </trkpt>
      <trkpt lat="46.64378" lon="6.04666">
        <ele>850.6</ele>
        <time>2022-10-18T12:11:17Z</time>
      </trkpt>
      <trkpt lat="46.64377" lon="6.04658">
        <ele>850.8</ele>
        <time>2022-10-18T12:11:22Z</time>
      </trkpt>
      <trkpt lat="46.64375" lon="6.04652">
        <ele>851</ele>
        <time>2022-10-18T12:11:27Z</time>
      </trkpt>
      <trkpt lat="46.64374" lon="6.04645">
        <ele>850.6</ele>
        <time>2022-10-18T12:11:33Z</time>
      </trkpt>
      <trkpt lat="46.64373" lon="6.04638">
        <ele>850.4</ele>
        <time>2022-10-18T12:11:38Z</time>
      </trkpt>
      <trkpt lat="46.6437" lon="6.04631">
        <ele>849.5</ele>
        <time>2022-10-18T12:11:45Z</time>
      </trkpt>
      <trkpt lat="46.64369" lon="6.04625">
        <ele>848.4</ele>
        <time>2022-10-18T12:11:50Z</time>
      </trkpt>
      <trkpt lat="46.64367" lon="6.04617">
        <ele>847.4</ele>
        <time>2022-10-18T12:11:55Z</time>
      </trkpt>
      <trkpt lat="46.64367" lon="6.04609">
        <ele>847.6</ele>
        <time>2022-10-18T12:11:59Z</time>
      </trkpt>
      <trkpt lat="46.64366" lon="6.04601">
        <ele>848.3</ele>
        <time>2022-10-18T12:12:03Z</time>
      </trkpt>
      <trkpt lat="46.64366" lon="6.04593">
        <ele>849.1</ele>
        <time>2022-10-18T12:12:08Z</time>
      </trkpt>
      <trkpt lat="46.64365" lon="6.04586">
        <ele>850</ele>
        <time>2022-10-18T12:12:13Z</time>
      </trkpt>
      <trkpt lat="46.64364" lon="6.04579">
        <ele>851.1</ele>
        <time>2022-10-18T12:12:19Z</time>
      </trkpt>
      <trkpt lat="46.64364" lon="6.04572">
        <ele>852</ele>
        <time>2022-10-18T12:12:24Z</time>
      </trkpt>
      <trkpt lat="46.64363" lon="6.04565">
        <ele>852.9</ele>
        <time>2022-10-18T12:12:29Z</time>
      </trkpt>
      <trkpt lat="46.64362" lon="6.04558">
        <ele>853.8</ele>
        <time>2022-10-18T12:12:35Z</time>
      </trkpt>
      <trkpt lat="46.6436" lon="6.04552">
        <ele>854.3</ele>
        <time>2022-10-18T12:12:41Z</time>
      </trkpt>
      <trkpt lat="46.64359" lon="6.04546">
        <ele>854.6</ele>
        <time>2022-10-18T12:12:48Z</time>
      </trkpt>
      <trkpt lat="46.64359" lon="6.04538">
        <ele>854.7</ele>
        <time>2022-10-18T12:12:57Z</time>
      </trkpt>
      <trkpt lat="46.64358" lon="6.04532">
        <ele>854.6</ele>
        <time>2022-10-18T12:13:02Z</time>
      </trkpt>
      <trkpt lat="46.64356" lon="6.04524">
        <ele>854.4</ele>
        <time>2022-10-18T12:13:07Z</time>
      </trkpt>
      <trkpt lat="46.64357" lon="6.04518">
        <ele>854.1</ele>
        <time>2022-10-18T12:13:19Z</time>
      </trkpt>
      <trkpt lat="46.64356" lon="6.04511">
        <ele>854.7</ele>
        <time>2022-10-18T12:13:24Z</time>
      </trkpt>
      <trkpt lat="46.64356" lon="6.04505">
        <ele>855.7</ele>
        <time>2022-10-18T12:13:30Z</time>
      </trkpt>
      <trkpt lat="46.64355" lon="6.04498">
        <ele>858.2</ele>
        <time>2022-10-18T12:13:39Z</time>
      </trkpt>
      <trkpt lat="46.64355" lon="6.0449">
        <ele>859.8</ele>
        <time>2022-10-18T12:14:12Z</time>
      </trkpt>
      <trkpt lat="46.64356" lon="6.04484">
        <ele>859.8</ele>
        <time>2022-10-18T12:14:17Z</time>
      </trkpt>
      <trkpt lat="46.6436" lon="6.04479">
        <ele>859.3</ele>
        <time>2022-10-18T12:14:22Z</time>
      </trkpt>
      <trkpt lat="46.64363" lon="6.04475">
        <ele>859.1</ele>
        <time>2022-10-18T12:14:27Z</time>
      </trkpt>
      <trkpt lat="46.64367" lon="6.0447">
        <ele>858.6</ele>
        <time>2022-10-18T12:14:34Z</time>
      </trkpt>
      <trkpt lat="46.6437" lon="6.04465">
        <ele>857.8</ele>
        <time>2022-10-18T12:14:41Z</time>
      </trkpt>
      <trkpt lat="46.64374" lon="6.04461">
        <ele>857.4</ele>
        <time>2022-10-18T12:14:47Z</time>
      </trkpt>
      <trkpt lat="46.64377" lon="6.04455">
        <ele>857.5</ele>
        <time>2022-10-18T12:14:52Z</time>
      </trkpt>
      <trkpt lat="46.64381" lon="6.04449">
        <ele>857.6</ele>
        <time>2022-10-18T12:14:57Z</time>
      </trkpt>
      <trkpt lat="46.64383" lon="6.04444">
        <ele>858.2</ele>
        <time>2022-10-18T12:15:01Z</time>
      </trkpt>
      <trkpt lat="46.64384" lon="6.04437">
        <ele>859.3</ele>
        <time>2022-10-18T12:15:05Z</time>
      </trkpt>
      <trkpt lat="46.64385" lon="6.0443">
        <ele>860.3</ele>
        <time>2022-10-18T12:15:12Z</time>
      </trkpt>
      <trkpt lat="46.64385" lon="6.04423">
        <ele>860.7</ele>
        <time>2022-10-18T12:15:18Z</time>
      </trkpt>
      <trkpt lat="46.64385" lon="6.04417">
        <ele>860.7</ele>
        <time>2022-10-18T12:15:24Z</time>
      </trkpt>
      <trkpt lat="46.64385" lon="6.0441">
        <ele>859.6</ele>
        <time>2022-10-18T12:15:31Z</time>
      </trkpt>
      <trkpt lat="46.64384" lon="6.04401">
        <ele>858.4</ele>
        <time>2022-10-18T12:15:37Z</time>
      </trkpt>
      <trkpt lat="46.64384" lon="6.04395">
        <ele>858.2</ele>
        <time>2022-10-18T12:15:41Z</time>
      </trkpt>
      <trkpt lat="46.64382" lon="6.04388">
        <ele>857.8</ele>
        <time>2022-10-18T12:15:49Z</time>
      </trkpt>
      <trkpt lat="46.64381" lon="6.04382">
        <ele>857.8</ele>
        <time>2022-10-18T12:15:53Z</time>
      </trkpt>
      <trkpt lat="46.64379" lon="6.04374">
        <ele>857.8</ele>
        <time>2022-10-18T12:15:58Z</time>
      </trkpt>
      <trkpt lat="46.64378" lon="6.04367">
        <ele>857.2</ele>
        <time>2022-10-18T12:16:03Z</time>
      </trkpt>
      <trkpt lat="46.64377" lon="6.04361">
        <ele>856.7</ele>
        <time>2022-10-18T12:16:08Z</time>
      </trkpt>
      <trkpt lat="46.64374" lon="6.04354">
        <ele>855.8</ele>
        <time>2022-10-18T12:16:14Z</time>
      </trkpt>
      <trkpt lat="46.64372" lon="6.04348">
        <ele>854.6</ele>
        <time>2022-10-18T12:16:19Z</time>
      </trkpt>
      <trkpt lat="46.64371" lon="6.0434">
        <ele>852.7</ele>
        <time>2022-10-18T12:16:25Z</time>
      </trkpt>
      <trkpt lat="46.64368" lon="6.04333">
        <ele>851.7</ele>
        <time>2022-10-18T12:16:30Z</time>
      </trkpt>
      <trkpt lat="46.64367" lon="6.04326">
        <ele>851.9</ele>
        <time>2022-10-18T12:16:36Z</time>
      </trkpt>
      <trkpt lat="46.64366" lon="6.04319">
        <ele>852.1</ele>
        <time>2022-10-18T12:16:42Z</time>
      </trkpt>
      <trkpt lat="46.64365" lon="6.04311">
        <ele>852.2</ele>
        <time>2022-10-18T12:16:47Z</time>
      </trkpt>
      <trkpt lat="46.64364" lon="6.04304">
        <ele>852.2</ele>
        <time>2022-10-18T12:16:52Z</time>
      </trkpt>
      <trkpt lat="46.64363" lon="6.04297">
        <ele>852.6</ele>
        <time>2022-10-18T12:16:58Z</time>
      </trkpt>
      <trkpt lat="46.64363" lon="6.0429">
        <ele>852.9</ele>
        <time>2022-10-18T12:17:03Z</time>
      </trkpt>
      <trkpt lat="46.64363" lon="6.04283">
        <ele>852.7</ele>
        <time>2022-10-18T12:17:09Z</time>
      </trkpt>
      <trkpt lat="46.64362" lon="6.04276">
        <ele>851.5</ele>
        <time>2022-10-18T12:17:15Z</time>
      </trkpt>
      <trkpt lat="46.64361" lon="6.0427">
        <ele>850.3</ele>
        <time>2022-10-18T12:17:21Z</time>
      </trkpt>
      <trkpt lat="46.6436" lon="6.04263">
        <ele>850</ele>
        <time>2022-10-18T12:17:26Z</time>
      </trkpt>
      <trkpt lat="46.64358" lon="6.04256">
        <ele>849.3</ele>
        <time>2022-10-18T12:17:32Z</time>
      </trkpt>
      <trkpt lat="46.64357" lon="6.04249">
        <ele>849</ele>
        <time>2022-10-18T12:17:37Z</time>
      </trkpt>
      <trkpt lat="46.64355" lon="6.04241">
        <ele>848.9</ele>
        <time>2022-10-18T12:17:42Z</time>
      </trkpt>
      <trkpt lat="46.64355" lon="6.04234">
        <ele>849.3</ele>
        <time>2022-10-18T12:17:46Z</time>
      </trkpt>
      <trkpt lat="46.64355" lon="6.04227">
        <ele>849.7</ele>
        <time>2022-10-18T12:17:52Z</time>
      </trkpt>
      <trkpt lat="46.64354" lon="6.0422">
        <ele>850.6</ele>
        <time>2022-10-18T12:17:58Z</time>
      </trkpt>
      <trkpt lat="46.64354" lon="6.04212">
        <ele>851.3</ele>
        <time>2022-10-18T12:18:04Z</time>
      </trkpt>
      <trkpt lat="46.64353" lon="6.04206">
        <ele>851.4</ele>
        <time>2022-10-18T12:18:10Z</time>
      </trkpt>
      <trkpt lat="46.64352" lon="6.04199">
        <ele>852.1</ele>
        <time>2022-10-18T12:18:16Z</time>
      </trkpt>
      <trkpt lat="46.64348" lon="6.04192">
        <ele>852.3</ele>
        <time>2022-10-18T12:18:21Z</time>
      </trkpt>
      <trkpt lat="46.64347" lon="6.04185">
        <ele>852.8</ele>
        <time>2022-10-18T12:18:27Z</time>
      </trkpt>
      <trkpt lat="46.64346" lon="6.04178">
        <ele>853.9</ele>
        <time>2022-10-18T12:18:32Z</time>
      </trkpt>
      <trkpt lat="46.64345" lon="6.04172">
        <ele>854.7</ele>
        <time>2022-10-18T12:18:37Z</time>
      </trkpt>
      <trkpt lat="46.64343" lon="6.04165">
        <ele>854.3</ele>
        <time>2022-10-18T12:18:41Z</time>
      </trkpt>
      <trkpt lat="46.64342" lon="6.04158">
        <ele>853.5</ele>
        <time>2022-10-18T12:18:46Z</time>
      </trkpt>
      <trkpt lat="46.64341" lon="6.04152">
        <ele>852.8</ele>
        <time>2022-10-18T12:18:51Z</time>
      </trkpt>
      <trkpt lat="46.6434" lon="6.04145">
        <ele>852.5</ele>
        <time>2022-10-18T12:18:57Z</time>
      </trkpt>
      <trkpt lat="46.64338" lon="6.04138">
        <ele>851.2</ele>
        <time>2022-10-18T12:19:03Z</time>
      </trkpt>
      <trkpt lat="46.64336" lon="6.04133">
        <ele>849.9</ele>
        <time>2022-10-18T12:19:08Z</time>
      </trkpt>
      <trkpt lat="46.64334" lon="6.04126">
        <ele>849</ele>
        <time>2022-10-18T12:19:14Z</time>
      </trkpt>
      <trkpt lat="46.64333" lon="6.04119">
        <ele>848.5</ele>
        <time>2022-10-18T12:19:20Z</time>
      </trkpt>
      <trkpt lat="46.64332" lon="6.04113">
        <ele>847.8</ele>
        <time>2022-10-18T12:19:26Z</time>
      </trkpt>
      <trkpt lat="46.6433" lon="6.04106">
        <ele>846.4</ele>
        <time>2022-10-18T12:19:32Z</time>
      </trkpt>
      <trkpt lat="46.64326" lon="6.041">
        <ele>845.1</ele>
        <time>2022-10-18T12:19:37Z</time>
      </trkpt>
      <trkpt lat="46.64323" lon="6.04095">
        <ele>844</ele>
        <time>2022-10-18T12:19:41Z</time>
      </trkpt>
      <trkpt lat="46.64322" lon="6.04088">
        <ele>843.6</ele>
        <time>2022-10-18T12:19:47Z</time>
      </trkpt>
      <trkpt lat="46.64321" lon="6.04081">
        <ele>843.8</ele>
        <time>2022-10-18T12:19:52Z</time>
      </trkpt>
      <trkpt lat="46.64319" lon="6.04074">
        <ele>844.5</ele>
        <time>2022-10-18T12:19:58Z</time>
      </trkpt>
      <trkpt lat="46.64316" lon="6.04068">
        <ele>845.4</ele>
        <time>2022-10-18T12:20:03Z</time>
      </trkpt>
      <trkpt lat="46.64315" lon="6.04061">
        <ele>846.1</ele>
        <time>2022-10-18T12:20:08Z</time>
      </trkpt>
      <trkpt lat="46.64315" lon="6.04054">
        <ele>846.3</ele>
        <time>2022-10-18T12:20:13Z</time>
      </trkpt>
      <trkpt lat="46.64314" lon="6.04048">
        <ele>846.3</ele>
        <time>2022-10-18T12:20:17Z</time>
      </trkpt>
      <trkpt lat="46.64312" lon="6.04042">
        <ele>845.6</ele>
        <time>2022-10-18T12:20:22Z</time>
      </trkpt>
      <trkpt lat="46.64309" lon="6.04035">
        <ele>844.5</ele>
        <time>2022-10-18T12:20:27Z</time>
      </trkpt>
      <trkpt lat="46.64307" lon="6.04029">
        <ele>843.3</ele>
        <time>2022-10-18T12:20:32Z</time>
      </trkpt>
      <trkpt lat="46.64306" lon="6.04023">
        <ele>842.3</ele>
        <time>2022-10-18T12:20:38Z</time>
      </trkpt>
      <trkpt lat="46.64306" lon="6.04016">
        <ele>841.7</ele>
        <time>2022-10-18T12:20:43Z</time>
      </trkpt>
      <trkpt lat="46.64306" lon="6.04007">
        <ele>840.4</ele>
        <time>2022-10-18T12:20:49Z</time>
      </trkpt>
      <trkpt lat="46.64304" lon="6.04">
        <ele>840.3</ele>
        <time>2022-10-18T12:20:53Z</time>
      </trkpt>
      <trkpt lat="46.64303" lon="6.03994">
        <ele>841.1</ele>
        <time>2022-10-18T12:20:57Z</time>
      </trkpt>
      <trkpt lat="46.64301" lon="6.03988">
        <ele>842.5</ele>
        <time>2022-10-18T12:21:01Z</time>
      </trkpt>
      <trkpt lat="46.64301" lon="6.0398">
        <ele>845</ele>
        <time>2022-10-18T12:21:07Z</time>
      </trkpt>
      <trkpt lat="46.643" lon="6.03974">
        <ele>845.8</ele>
        <time>2022-10-18T12:21:12Z</time>
      </trkpt>
      <trkpt lat="46.64298" lon="6.03968">
        <ele>846.1</ele>
        <time>2022-10-18T12:21:17Z</time>
      </trkpt>
      <trkpt lat="46.64297" lon="6.0396">
        <ele>846</ele>
        <time>2022-10-18T12:21:24Z</time>
      </trkpt>
      <trkpt lat="46.64297" lon="6.03952">
        <ele>846.3</ele>
        <time>2022-10-18T12:21:30Z</time>
      </trkpt>
      <trkpt lat="46.64296" lon="6.03946">
        <ele>845.7</ele>
        <time>2022-10-18T12:21:35Z</time>
      </trkpt>
      <trkpt lat="46.64293" lon="6.0394">
        <ele>844.2</ele>
        <time>2022-10-18T12:21:40Z</time>
      </trkpt>
      <trkpt lat="46.64291" lon="6.03933">
        <ele>842.3</ele>
        <time>2022-10-18T12:21:45Z</time>
      </trkpt>
      <trkpt lat="46.64289" lon="6.03926">
        <ele>840.4</ele>
        <time>2022-10-18T12:21:50Z</time>
      </trkpt>
      <trkpt lat="46.64287" lon="6.03919">
        <ele>838.2</ele>
        <time>2022-10-18T12:21:56Z</time>
      </trkpt>
      <trkpt lat="46.64288" lon="6.03911">
        <ele>837.2</ele>
        <time>2022-10-18T12:22:02Z</time>
      </trkpt>
      <trkpt lat="46.64287" lon="6.03904">
        <ele>836.9</ele>
        <time>2022-10-18T12:22:08Z</time>
      </trkpt>
      <trkpt lat="46.64286" lon="6.03897">
        <ele>836.6</ele>
        <time>2022-10-18T12:22:15Z</time>
      </trkpt>
      <trkpt lat="46.64284" lon="6.03891">
        <ele>836.7</ele>
        <time>2022-10-18T12:22:20Z</time>
      </trkpt>
      <trkpt lat="46.64282" lon="6.03885">
        <ele>837.4</ele>
        <time>2022-10-18T12:22:28Z</time>
      </trkpt>
      <trkpt lat="46.6428" lon="6.03878">
        <ele>837.6</ele>
        <time>2022-10-18T12:22:33Z</time>
      </trkpt>
      <trkpt lat="46.64277" lon="6.03873">
        <ele>837.6</ele>
        <time>2022-10-18T12:22:38Z</time>
      </trkpt>
      <trkpt lat="46.64274" lon="6.03868">
        <ele>837.7</ele>
        <time>2022-10-18T12:22:43Z</time>
      </trkpt>
      <trkpt lat="46.6427" lon="6.03863">
        <ele>837.7</ele>
        <time>2022-10-18T12:22:48Z</time>
      </trkpt>
      <trkpt lat="46.64266" lon="6.03858">
        <ele>837.5</ele>
        <time>2022-10-18T12:22:54Z</time>
      </trkpt>
      <trkpt lat="46.64263" lon="6.03852">
        <ele>837.5</ele>
        <time>2022-10-18T12:22:59Z</time>
      </trkpt>
      <trkpt lat="46.64259" lon="6.03848">
        <ele>837.9</ele>
        <time>2022-10-18T12:23:03Z</time>
      </trkpt>
      <trkpt lat="46.64255" lon="6.03844">
        <ele>838.2</ele>
        <time>2022-10-18T12:23:07Z</time>
      </trkpt>
      <trkpt lat="46.64251" lon="6.03839">
        <ele>838.2</ele>
        <time>2022-10-18T12:23:12Z</time>
      </trkpt>
      <trkpt lat="46.64248" lon="6.03835">
        <ele>838.2</ele>
        <time>2022-10-18T12:23:18Z</time>
      </trkpt>
      <trkpt lat="46.64244" lon="6.0383">
        <ele>838.3</ele>
        <time>2022-10-18T12:23:23Z</time>
      </trkpt>
      <trkpt lat="46.64239" lon="6.03827">
        <ele>838.6</ele>
        <time>2022-10-18T12:23:27Z</time>
      </trkpt>
      <trkpt lat="46.64235" lon="6.03825">
        <ele>839.8</ele>
        <time>2022-10-18T12:23:32Z</time>
      </trkpt>
      <trkpt lat="46.6423" lon="6.03825">
        <ele>840.9</ele>
        <time>2022-10-18T12:23:38Z</time>
      </trkpt>
      <trkpt lat="46.64225" lon="6.03823">
        <ele>841.2</ele>
        <time>2022-10-18T12:23:45Z</time>
      </trkpt>
      <trkpt lat="46.6422" lon="6.0382">
        <ele>841</ele>
        <time>2022-10-18T12:23:50Z</time>
      </trkpt>
      <trkpt lat="46.64216" lon="6.03818">
        <ele>840.7</ele>
        <time>2022-10-18T12:23:56Z</time>
      </trkpt>
      <trkpt lat="46.6421" lon="6.0382">
        <ele>840.9</ele>
        <time>2022-10-18T12:24:00Z</time>
      </trkpt>
      <trkpt lat="46.64205" lon="6.03823">
        <ele>841.4</ele>
        <time>2022-10-18T12:24:04Z</time>
      </trkpt>
      <trkpt lat="46.64201" lon="6.03827">
        <ele>841.9</ele>
        <time>2022-10-18T12:24:08Z</time>
      </trkpt>
      <trkpt lat="46.64197" lon="6.0383">
        <ele>842.5</ele>
        <time>2022-10-18T12:24:13Z</time>
      </trkpt>
      <trkpt lat="46.64193" lon="6.03834">
        <ele>843.2</ele>
        <time>2022-10-18T12:24:19Z</time>
      </trkpt>
      <trkpt lat="46.64188" lon="6.03839">
        <ele>844.1</ele>
        <time>2022-10-18T12:24:25Z</time>
      </trkpt>
      <trkpt lat="46.64184" lon="6.03841">
        <ele>844.5</ele>
        <time>2022-10-18T12:24:30Z</time>
      </trkpt>
      <trkpt lat="46.6418" lon="6.03845">
        <ele>844.4</ele>
        <time>2022-10-18T12:24:35Z</time>
      </trkpt>
      <trkpt lat="46.64176" lon="6.03849">
        <ele>843.9</ele>
        <time>2022-10-18T12:24:42Z</time>
      </trkpt>
      <trkpt lat="46.64171" lon="6.03852">
        <ele>843.2</ele>
        <time>2022-10-18T12:24:47Z</time>
      </trkpt>
      <trkpt lat="46.64167" lon="6.03854">
        <ele>841.9</ele>
        <time>2022-10-18T12:24:52Z</time>
      </trkpt>
      <trkpt lat="46.64162" lon="6.03854">
        <ele>840.6</ele>
        <time>2022-10-18T12:24:56Z</time>
      </trkpt>
      <trkpt lat="46.64156" lon="6.03852">
        <ele>838.7</ele>
        <time>2022-10-18T12:25:01Z</time>
      </trkpt>
      <trkpt lat="46.64152" lon="6.03848">
        <ele>837.5</ele>
        <time>2022-10-18T12:25:06Z</time>
      </trkpt>
      <trkpt lat="46.64148" lon="6.03845">
        <ele>836.6</ele>
        <time>2022-10-18T12:25:12Z</time>
      </trkpt>
      <trkpt lat="46.64143" lon="6.03845">
        <ele>835.9</ele>
        <time>2022-10-18T12:25:17Z</time>
      </trkpt>
      <trkpt lat="46.64138" lon="6.03845">
        <ele>835.2</ele>
        <time>2022-10-18T12:25:23Z</time>
      </trkpt>
      <trkpt lat="46.64134" lon="6.03842">
        <ele>835.4</ele>
        <time>2022-10-18T12:25:27Z</time>
      </trkpt>
      <trkpt lat="46.64129" lon="6.03839">
        <ele>836</ele>
        <time>2022-10-18T12:25:31Z</time>
      </trkpt>
      <trkpt lat="46.64125" lon="6.03835">
        <ele>836.6</ele>
        <time>2022-10-18T12:25:35Z</time>
      </trkpt>
      <trkpt lat="46.64121" lon="6.03832">
        <ele>837.4</ele>
        <time>2022-10-18T12:25:40Z</time>
      </trkpt>
      <trkpt lat="46.64116" lon="6.03829">
        <ele>837.8</ele>
        <time>2022-10-18T12:25:45Z</time>
      </trkpt>
      <trkpt lat="46.64111" lon="6.03826">
        <ele>838.1</ele>
        <time>2022-10-18T12:25:50Z</time>
      </trkpt>
      <trkpt lat="46.64106" lon="6.03823">
        <ele>838.8</ele>
        <time>2022-10-18T12:25:56Z</time>
      </trkpt>
      <trkpt lat="46.64103" lon="6.03818">
        <ele>839.7</ele>
        <time>2022-10-18T12:26:01Z</time>
      </trkpt>
      <trkpt lat="46.64098" lon="6.03815">
        <ele>840.8</ele>
        <time>2022-10-18T12:26:07Z</time>
      </trkpt>
      <trkpt lat="46.64094" lon="6.03812">
        <ele>841.2</ele>
        <time>2022-10-18T12:26:12Z</time>
      </trkpt>
      <trkpt lat="46.64091" lon="6.03807">
        <ele>841.3</ele>
        <time>2022-10-18T12:26:17Z</time>
      </trkpt>
      <trkpt lat="46.64088" lon="6.03801">
        <ele>841.6</ele>
        <time>2022-10-18T12:26:21Z</time>
      </trkpt>
      <trkpt lat="46.64085" lon="6.03796">
        <ele>841.9</ele>
        <time>2022-10-18T12:26:25Z</time>
      </trkpt>
      <trkpt lat="46.64083" lon="6.0379">
        <ele>842.1</ele>
        <time>2022-10-18T12:26:29Z</time>
      </trkpt>
      <trkpt lat="46.6408" lon="6.03783">
        <ele>841.8</ele>
        <time>2022-10-18T12:26:37Z</time>
      </trkpt>
      <trkpt lat="46.64078" lon="6.03777">
        <ele>840.9</ele>
        <time>2022-10-18T12:26:41Z</time>
      </trkpt>
      <trkpt lat="46.64077" lon="6.03771">
        <ele>839.7</ele>
        <time>2022-10-18T12:26:45Z</time>
      </trkpt>
      <trkpt lat="46.64077" lon="6.03763">
        <ele>838.3</ele>
        <time>2022-10-18T12:26:51Z</time>
      </trkpt>
      <trkpt lat="46.64077" lon="6.03756">
        <ele>836.6</ele>
        <time>2022-10-18T12:26:58Z</time>
      </trkpt>
      <trkpt lat="46.64078" lon="6.03749">
        <ele>835.5</ele>
        <time>2022-10-18T12:27:03Z</time>
      </trkpt>
      <trkpt lat="46.64078" lon="6.03742">
        <ele>834.7</ele>
        <time>2022-10-18T12:27:08Z</time>
      </trkpt>
      <trkpt lat="46.64077" lon="6.03735">
        <ele>834</ele>
        <time>2022-10-18T12:27:13Z</time>
      </trkpt>
      <trkpt lat="46.64076" lon="6.03728">
        <ele>833</ele>
        <time>2022-10-18T12:27:18Z</time>
      </trkpt>
      <trkpt lat="46.64074" lon="6.03721">
        <ele>831.9</ele>
        <time>2022-10-18T12:27:25Z</time>
      </trkpt>
      <trkpt lat="46.64071" lon="6.03715">
        <ele>829.8</ele>
        <time>2022-10-18T12:27:33Z</time>
      </trkpt>
      <trkpt lat="46.64069" lon="6.03709">
        <ele>828.4</ele>
        <time>2022-10-18T12:27:38Z</time>
      </trkpt>
      <trkpt lat="46.64065" lon="6.03703">
        <ele>827.1</ele>
        <time>2022-10-18T12:27:44Z</time>
      </trkpt>
      <trkpt lat="46.64062" lon="6.03697">
        <ele>826.3</ele>
        <time>2022-10-18T12:27:50Z</time>
      </trkpt>
      <trkpt lat="46.64058" lon="6.03693">
        <ele>827.3</ele>
        <time>2022-10-18T12:27:55Z</time>
      </trkpt>
      <trkpt lat="46.64055" lon="6.03688">
        <ele>828.4</ele>
        <time>2022-10-18T12:28:01Z</time>
      </trkpt>
      <trkpt lat="46.64052" lon="6.03683">
        <ele>828.7</ele>
        <time>2022-10-18T12:28:06Z</time>
      </trkpt>
      <trkpt lat="46.64048" lon="6.03678">
        <ele>828.6</ele>
        <time>2022-10-18T12:28:11Z</time>
      </trkpt>
      <trkpt lat="46.64045" lon="6.03672">
        <ele>827.8</ele>
        <time>2022-10-18T12:28:22Z</time>
      </trkpt>
      <trkpt lat="46.64043" lon="6.03666">
        <ele>824.6</ele>
        <time>2022-10-18T12:28:57Z</time>
      </trkpt>
      <trkpt lat="46.64039" lon="6.0367">
        <ele>824.8</ele>
        <time>2022-10-18T12:29:17Z</time>
      </trkpt>
      <trkpt lat="46.64042" lon="6.03664">
        <ele>827.3</ele>
        <time>2022-10-18T12:29:45Z</time>
      </trkpt>
      <trkpt lat="46.64047" lon="6.03662">
        <ele>832.9</ele>
        <time>2022-10-18T12:30:22Z</time>
      </trkpt>
      <trkpt lat="46.64044" lon="6.03656">
        <ele>833.8</ele>
        <time>2022-10-18T12:30:31Z</time>
      </trkpt>
      <trkpt lat="46.64039" lon="6.03656">
        <ele>835.5</ele>
        <time>2022-10-18T12:31:02Z</time>
      </trkpt>
      <trkpt lat="46.64035" lon="6.03653">
        <ele>833.8</ele>
        <time>2022-10-18T12:31:18Z</time>
      </trkpt>
      <trkpt lat="46.64031" lon="6.0365">
        <ele>830.3</ele>
        <time>2022-10-18T12:31:29Z</time>
      </trkpt>
      <trkpt lat="46.64026" lon="6.03648">
        <ele>828.2</ele>
        <time>2022-10-18T12:31:35Z</time>
      </trkpt>
      <trkpt lat="46.64022" lon="6.03648">
        <ele>826</ele>
        <time>2022-10-18T12:31:40Z</time>
      </trkpt>
      <trkpt lat="46.64017" lon="6.03646">
        <ele>823.6</ele>
        <time>2022-10-18T12:31:45Z</time>
      </trkpt>
      <trkpt lat="46.64013" lon="6.03645">
        <ele>820.6</ele>
        <time>2022-10-18T12:31:52Z</time>
      </trkpt>
      <trkpt lat="46.64008" lon="6.03641">
        <ele>818.5</ele>
        <time>2022-10-18T12:31:58Z</time>
      </trkpt>
      <trkpt lat="46.64004" lon="6.03638">
        <ele>817.2</ele>
        <time>2022-10-18T12:32:03Z</time>
      </trkpt>
      <trkpt lat="46.64" lon="6.03632">
        <ele>816</ele>
        <time>2022-10-18T12:32:10Z</time>
      </trkpt>
      <trkpt lat="46.63997" lon="6.03627">
        <ele>814.9</ele>
        <time>2022-10-18T12:32:16Z</time>
      </trkpt>
      <trkpt lat="46.63994" lon="6.03622">
        <ele>813.4</ele>
        <time>2022-10-18T12:32:25Z</time>
      </trkpt>
      <trkpt lat="46.63991" lon="6.03617">
        <ele>812.6</ele>
        <time>2022-10-18T12:32:30Z</time>
      </trkpt>
      <trkpt lat="46.63987" lon="6.03613">
        <ele>812.1</ele>
        <time>2022-10-18T12:32:34Z</time>
      </trkpt>
      <trkpt lat="46.63984" lon="6.03607">
        <ele>811.6</ele>
        <time>2022-10-18T12:32:40Z</time>
      </trkpt>
      <trkpt lat="46.63982" lon="6.036">
        <ele>811.5</ele>
        <time>2022-10-18T12:32:46Z</time>
      </trkpt>
      <trkpt lat="46.63979" lon="6.03594">
        <ele>811.4</ele>
        <time>2022-10-18T12:32:50Z</time>
      </trkpt>
      <trkpt lat="46.63976" lon="6.03588">
        <ele>811.8</ele>
        <time>2022-10-18T12:32:54Z</time>
      </trkpt>
      <trkpt lat="46.63973" lon="6.03582">
        <ele>812.3</ele>
        <time>2022-10-18T12:32:59Z</time>
      </trkpt>
      <trkpt lat="46.6397" lon="6.03576">
        <ele>812</ele>
        <time>2022-10-18T12:33:05Z</time>
      </trkpt>
      <trkpt lat="46.63967" lon="6.0357">
        <ele>811.3</ele>
        <time>2022-10-18T12:33:12Z</time>
      </trkpt>
      <trkpt lat="46.63962" lon="6.03567">
        <ele>810.6</ele>
        <time>2022-10-18T12:33:19Z</time>
      </trkpt>
      <trkpt lat="46.63957" lon="6.03564">
        <ele>810.8</ele>
        <time>2022-10-18T12:33:24Z</time>
      </trkpt>
      <trkpt lat="46.63952" lon="6.03562">
        <ele>811.1</ele>
        <time>2022-10-18T12:33:29Z</time>
      </trkpt>
      <trkpt lat="46.63948" lon="6.03562">
        <ele>811.2</ele>
        <time>2022-10-18T12:33:36Z</time>
      </trkpt>
      <trkpt lat="46.63943" lon="6.03561">
        <ele>809.9</ele>
        <time>2022-10-18T12:33:43Z</time>
      </trkpt>
      <trkpt lat="46.63938" lon="6.03561">
        <ele>808.4</ele>
        <time>2022-10-18T12:33:51Z</time>
      </trkpt>
      <trkpt lat="46.63934" lon="6.03561">
        <ele>807.5</ele>
        <time>2022-10-18T12:33:56Z</time>
      </trkpt>
      <trkpt lat="46.63928" lon="6.03561">
        <ele>805.5</ele>
        <time>2022-10-18T12:34:03Z</time>
      </trkpt>
      <trkpt lat="46.63924" lon="6.0356">
        <ele>802.5</ele>
        <time>2022-10-18T12:34:10Z</time>
      </trkpt>
      <trkpt lat="46.63919" lon="6.03559">
        <ele>800.6</ele>
        <time>2022-10-18T12:34:15Z</time>
      </trkpt>
      <trkpt lat="46.63915" lon="6.03562">
        <ele>799.4</ele>
        <time>2022-10-18T12:34:21Z</time>
      </trkpt>
      <trkpt lat="46.6391" lon="6.03563">
        <ele>798.1</ele>
        <time>2022-10-18T12:34:25Z</time>
      </trkpt>
      <trkpt lat="46.63904" lon="6.03563">
        <ele>796.3</ele>
        <time>2022-10-18T12:34:29Z</time>
      </trkpt>
      <trkpt lat="46.639" lon="6.0356">
        <ele>794.9</ele>
        <time>2022-10-18T12:34:33Z</time>
      </trkpt>
      <trkpt lat="46.63895" lon="6.03559">
        <ele>793.7</ele>
        <time>2022-10-18T12:34:38Z</time>
      </trkpt>
      <trkpt lat="46.63891" lon="6.03562">
        <ele>793.4</ele>
        <time>2022-10-18T12:34:42Z</time>
      </trkpt>
      <trkpt lat="46.63887" lon="6.03565">
        <ele>793.4</ele>
        <time>2022-10-18T12:34:45Z</time>
      </trkpt>
      <trkpt lat="46.63882" lon="6.03566">
        <ele>793.9</ele>
        <time>2022-10-18T12:34:49Z</time>
      </trkpt>
      <trkpt lat="46.63877" lon="6.03564">
        <ele>795</ele>
        <time>2022-10-18T12:34:53Z</time>
      </trkpt>
      <trkpt lat="46.63873" lon="6.03566">
        <ele>797</ele>
        <time>2022-10-18T12:35:04Z</time>
      </trkpt>
      <trkpt lat="46.63868" lon="6.03565">
        <ele>796.7</ele>
        <time>2022-10-18T12:35:09Z</time>
      </trkpt>
      <trkpt lat="46.63864" lon="6.03564">
        <ele>796.4</ele>
        <time>2022-10-18T12:35:13Z</time>
      </trkpt>
      <trkpt lat="46.63858" lon="6.03566">
        <ele>796.2</ele>
        <time>2022-10-18T12:35:18Z</time>
      </trkpt>
      <trkpt lat="46.63853" lon="6.03565">
        <ele>795.9</ele>
        <time>2022-10-18T12:35:23Z</time>
      </trkpt>
      <trkpt lat="46.63848" lon="6.03562">
        <ele>794.7</ele>
        <time>2022-10-18T12:35:28Z</time>
      </trkpt>
      <trkpt lat="46.63844" lon="6.03559">
        <ele>793.4</ele>
        <time>2022-10-18T12:35:32Z</time>
      </trkpt>
      <trkpt lat="46.6384" lon="6.03556">
        <ele>792.1</ele>
        <time>2022-10-18T12:35:36Z</time>
      </trkpt>
      <trkpt lat="46.63836" lon="6.03551">
        <ele>790.6</ele>
        <time>2022-10-18T12:35:41Z</time>
      </trkpt>
      <trkpt lat="46.63834" lon="6.03545">
        <ele>789.9</ele>
        <time>2022-10-18T12:35:46Z</time>
      </trkpt>
      <trkpt lat="46.63832" lon="6.03538">
        <ele>789.7</ele>
        <time>2022-10-18T12:35:52Z</time>
      </trkpt>
      <trkpt lat="46.63831" lon="6.03531">
        <ele>789.6</ele>
        <time>2022-10-18T12:35:57Z</time>
      </trkpt>
      <trkpt lat="46.6383" lon="6.03523">
        <ele>789.6</ele>
        <time>2022-10-18T12:36:02Z</time>
      </trkpt>
      <trkpt lat="46.6383" lon="6.03516">
        <ele>789.8</ele>
        <time>2022-10-18T12:36:06Z</time>
      </trkpt>
      <trkpt lat="46.6383" lon="6.03509">
        <ele>789.5</ele>
        <time>2022-10-18T12:36:12Z</time>
      </trkpt>
      <trkpt lat="46.6383" lon="6.03501">
        <ele>789</ele>
        <time>2022-10-18T12:36:19Z</time>
      </trkpt>
      <trkpt lat="46.6383" lon="6.03495">
        <ele>789.4</ele>
        <time>2022-10-18T12:36:31Z</time>
      </trkpt>
      <trkpt lat="46.63828" lon="6.03488">
        <ele>789</ele>
        <time>2022-10-18T12:36:37Z</time>
      </trkpt>
      <trkpt lat="46.63825" lon="6.03483">
        <ele>788.3</ele>
        <time>2022-10-18T12:36:48Z</time>
      </trkpt>
      <trkpt lat="46.63825" lon="6.03477">
        <ele>790.1</ele>
        <time>2022-10-18T12:37:08Z</time>
      </trkpt>
      <trkpt lat="46.63825" lon="6.03469">
        <ele>791.4</ele>
        <time>2022-10-18T12:37:13Z</time>
      </trkpt>
      <trkpt lat="46.63825" lon="6.03462">
        <ele>792.8</ele>
        <time>2022-10-18T12:37:18Z</time>
      </trkpt>
      <trkpt lat="46.63824" lon="6.03455">
        <ele>794.2</ele>
        <time>2022-10-18T12:37:22Z</time>
      </trkpt>
      <trkpt lat="46.63823" lon="6.03447">
        <ele>795.6</ele>
        <time>2022-10-18T12:37:27Z</time>
      </trkpt>
      <trkpt lat="46.63822" lon="6.0344">
        <ele>796.2</ele>
        <time>2022-10-18T12:37:32Z</time>
      </trkpt>
      <trkpt lat="46.63819" lon="6.03434">
        <ele>796.5</ele>
        <time>2022-10-18T12:37:37Z</time>
      </trkpt>
      <trkpt lat="46.63818" lon="6.03426">
        <ele>796.5</ele>
        <time>2022-10-18T12:37:44Z</time>
      </trkpt>
      <trkpt lat="46.63814" lon="6.03423">
        <ele>796.7</ele>
        <time>2022-10-18T12:37:48Z</time>
      </trkpt>
      <trkpt lat="46.63811" lon="6.03418">
        <ele>796.7</ele>
        <time>2022-10-18T12:37:52Z</time>
      </trkpt>
      <trkpt lat="46.63808" lon="6.03412">
        <ele>796.5</ele>
        <time>2022-10-18T12:37:56Z</time>
      </trkpt>
      <trkpt lat="46.63807" lon="6.03405">
        <ele>796.7</ele>
        <time>2022-10-18T12:38:01Z</time>
      </trkpt>
      <trkpt lat="46.63804" lon="6.03399">
        <ele>796.1</ele>
        <time>2022-10-18T12:38:07Z</time>
      </trkpt>
      <trkpt lat="46.63803" lon="6.03392">
        <ele>794.3</ele>
        <time>2022-10-18T12:38:16Z</time>
      </trkpt>
      <trkpt lat="46.63799" lon="6.03386">
        <ele>792.1</ele>
        <time>2022-10-18T12:38:24Z</time>
      </trkpt>
      <trkpt lat="46.63797" lon="6.03379">
        <ele>791.1</ele>
        <time>2022-10-18T12:38:28Z</time>
      </trkpt>
      <trkpt lat="46.63797" lon="6.03371">
        <ele>790.7</ele>
        <time>2022-10-18T12:38:33Z</time>
      </trkpt>
      <trkpt lat="46.63797" lon="6.03364">
        <ele>789.8</ele>
        <time>2022-10-18T12:38:39Z</time>
      </trkpt>
      <trkpt lat="46.63797" lon="6.03357">
        <ele>788.2</ele>
        <time>2022-10-18T12:38:46Z</time>
      </trkpt>
      <trkpt lat="46.63796" lon="6.0335">
        <ele>787</ele>
        <time>2022-10-18T12:38:51Z</time>
      </trkpt>
      <trkpt lat="46.63797" lon="6.03342">
        <ele>785.7</ele>
        <time>2022-10-18T12:38:57Z</time>
      </trkpt>
      <trkpt lat="46.63797" lon="6.03335">
        <ele>785.4</ele>
        <time>2022-10-18T12:39:01Z</time>
      </trkpt>
      <trkpt lat="46.63797" lon="6.03328">
        <ele>786</ele>
        <time>2022-10-18T12:39:06Z</time>
      </trkpt>
      <trkpt lat="46.63796" lon="6.03321">
        <ele>786.9</ele>
        <time>2022-10-18T12:39:12Z</time>
      </trkpt>
      <trkpt lat="46.63795" lon="6.03314">
        <ele>787.5</ele>
        <time>2022-10-18T12:39:17Z</time>
      </trkpt>
      <trkpt lat="46.63795" lon="6.03307">
        <ele>787.9</ele>
        <time>2022-10-18T12:39:22Z</time>
      </trkpt>
      <trkpt lat="46.63796" lon="6.033">
        <ele>788.1</ele>
        <time>2022-10-18T12:39:27Z</time>
      </trkpt>
      <trkpt lat="46.63796" lon="6.03291">
        <ele>788.3</ele>
        <time>2022-10-18T12:39:32Z</time>
      </trkpt>
      <trkpt lat="46.63797" lon="6.03285">
        <ele>788.5</ele>
        <time>2022-10-18T12:39:36Z</time>
      </trkpt>
      <trkpt lat="46.63799" lon="6.03279">
        <ele>788.7</ele>
        <time>2022-10-18T12:39:41Z</time>
      </trkpt>
      <trkpt lat="46.63801" lon="6.03272">
        <ele>789.1</ele>
        <time>2022-10-18T12:39:46Z</time>
      </trkpt>
      <trkpt lat="46.63806" lon="6.03269">
        <ele>788.5</ele>
        <time>2022-10-18T12:39:52Z</time>
      </trkpt>
      <trkpt lat="46.63811" lon="6.03266">
        <ele>787.2</ele>
        <time>2022-10-18T12:39:58Z</time>
      </trkpt>
      <trkpt lat="46.63814" lon="6.03261">
        <ele>786.1</ele>
        <time>2022-10-18T12:40:03Z</time>
      </trkpt>
      <trkpt lat="46.63818" lon="6.03256">
        <ele>785.5</ele>
        <time>2022-10-18T12:40:08Z</time>
      </trkpt>
      <trkpt lat="46.63822" lon="6.03252">
        <ele>784.4</ele>
        <time>2022-10-18T12:40:13Z</time>
      </trkpt>
      <trkpt lat="46.63827" lon="6.0325">
        <ele>783.1</ele>
        <time>2022-10-18T12:40:18Z</time>
      </trkpt>
      <trkpt lat="46.63831" lon="6.03247">
        <ele>781.4</ele>
        <time>2022-10-18T12:40:23Z</time>
      </trkpt>
      <trkpt lat="46.63836" lon="6.03244">
        <ele>780.5</ele>
        <time>2022-10-18T12:40:28Z</time>
      </trkpt>
      <trkpt lat="46.63839" lon="6.03239">
        <ele>780.2</ele>
        <time>2022-10-18T12:40:32Z</time>
      </trkpt>
      <trkpt lat="46.63842" lon="6.03233">
        <ele>779.8</ele>
        <time>2022-10-18T12:40:36Z</time>
      </trkpt>
      <trkpt lat="46.63845" lon="6.03228">
        <ele>779.3</ele>
        <time>2022-10-18T12:40:40Z</time>
      </trkpt>
      <trkpt lat="46.63847" lon="6.03221">
        <ele>779.4</ele>
        <time>2022-10-18T12:40:44Z</time>
      </trkpt>
      <trkpt lat="46.63848" lon="6.03214">
        <ele>780</ele>
        <time>2022-10-18T12:40:48Z</time>
      </trkpt>
      <trkpt lat="46.6385" lon="6.03207">
        <ele>780.5</ele>
        <time>2022-10-18T12:40:53Z</time>
      </trkpt>
      <trkpt lat="46.6385" lon="6.032">
        <ele>781</ele>
        <time>2022-10-18T12:40:57Z</time>
      </trkpt>
      <trkpt lat="46.6385" lon="6.03193">
        <ele>781.8</ele>
        <time>2022-10-18T12:41:02Z</time>
      </trkpt>
      <trkpt lat="46.63851" lon="6.03185">
        <ele>782.6</ele>
        <time>2022-10-18T12:41:07Z</time>
      </trkpt>
      <trkpt lat="46.63852" lon="6.03178">
        <ele>783</ele>
        <time>2022-10-18T12:41:11Z</time>
      </trkpt>
      <trkpt lat="46.63854" lon="6.03172">
        <ele>783.3</ele>
        <time>2022-10-18T12:41:15Z</time>
      </trkpt>
      <trkpt lat="46.63856" lon="6.03166">
        <ele>783.3</ele>
        <time>2022-10-18T12:41:20Z</time>
      </trkpt>
      <trkpt lat="46.6386" lon="6.03162">
        <ele>783.2</ele>
        <time>2022-10-18T12:41:25Z</time>
      </trkpt>
      <trkpt lat="46.63865" lon="6.03158">
        <ele>783.8</ele>
        <time>2022-10-18T12:41:29Z</time>
      </trkpt>
      <trkpt lat="46.63868" lon="6.03153">
        <ele>784.8</ele>
        <time>2022-10-18T12:41:35Z</time>
      </trkpt>
      <trkpt lat="46.63873" lon="6.03151">
        <ele>785.4</ele>
        <time>2022-10-18T12:41:40Z</time>
      </trkpt>
      <trkpt lat="46.63877" lon="6.0315">
        <ele>785.6</ele>
        <time>2022-10-18T12:41:45Z</time>
      </trkpt>
      <trkpt lat="46.63882" lon="6.03151">
        <ele>785.4</ele>
        <time>2022-10-18T12:41:51Z</time>
      </trkpt>
      <trkpt lat="46.63887" lon="6.03151">
        <ele>785.1</ele>
        <time>2022-10-18T12:41:57Z</time>
      </trkpt>
      <trkpt lat="46.63891" lon="6.03151">
        <ele>785.1</ele>
        <time>2022-10-18T12:42:01Z</time>
      </trkpt>
      <trkpt lat="46.63896" lon="6.03152">
        <ele>785.1</ele>
        <time>2022-10-18T12:42:05Z</time>
      </trkpt>
      <trkpt lat="46.63901" lon="6.03155">
        <ele>785.1</ele>
        <time>2022-10-18T12:42:09Z</time>
      </trkpt>
      <trkpt lat="46.63906" lon="6.03155">
        <ele>784.6</ele>
        <time>2022-10-18T12:42:14Z</time>
      </trkpt>
      <trkpt lat="46.63911" lon="6.03155">
        <ele>784.7</ele>
        <time>2022-10-18T12:42:20Z</time>
      </trkpt>
      <trkpt lat="46.63916" lon="6.03156">
        <ele>785.7</ele>
        <time>2022-10-18T12:42:25Z</time>
      </trkpt>
      <trkpt lat="46.63921" lon="6.03157">
        <ele>786.3</ele>
        <time>2022-10-18T12:42:29Z</time>
      </trkpt>
      <trkpt lat="46.63926" lon="6.03157">
        <ele>786.5</ele>
        <time>2022-10-18T12:42:35Z</time>
      </trkpt>
      <trkpt lat="46.63931" lon="6.03158">
        <ele>786.5</ele>
        <time>2022-10-18T12:42:41Z</time>
      </trkpt>
      <trkpt lat="46.63936" lon="6.0316">
        <ele>786.9</ele>
        <time>2022-10-18T12:42:47Z</time>
      </trkpt>
      <trkpt lat="46.63941" lon="6.03163">
        <ele>787.1</ele>
        <time>2022-10-18T12:42:51Z</time>
      </trkpt>
      <trkpt lat="46.63946" lon="6.03165">
        <ele>787.4</ele>
        <time>2022-10-18T12:42:55Z</time>
      </trkpt>
      <trkpt lat="46.6395" lon="6.03168">
        <ele>787.6</ele>
        <time>2022-10-18T12:42:59Z</time>
      </trkpt>
      <trkpt lat="46.63955" lon="6.03172">
        <ele>787.8</ele>
        <time>2022-10-18T12:43:04Z</time>
      </trkpt>
      <trkpt lat="46.63959" lon="6.03174">
        <ele>788</ele>
        <time>2022-10-18T12:43:08Z</time>
      </trkpt>
      <trkpt lat="46.63963" lon="6.03177">
        <ele>788.1</ele>
        <time>2022-10-18T12:43:12Z</time>
      </trkpt>
      <trkpt lat="46.63968" lon="6.03181">
        <ele>787.9</ele>
        <time>2022-10-18T12:43:17Z</time>
      </trkpt>
      <trkpt lat="46.63972" lon="6.03185">
        <ele>788</ele>
        <time>2022-10-18T12:43:22Z</time>
      </trkpt>
      <trkpt lat="46.63977" lon="6.03188">
        <ele>788</ele>
        <time>2022-10-18T12:43:28Z</time>
      </trkpt>
      <trkpt lat="46.63981" lon="6.0319">
        <ele>787.9</ele>
        <time>2022-10-18T12:43:34Z</time>
      </trkpt>
      <trkpt lat="46.63987" lon="6.03192">
        <ele>788</ele>
        <time>2022-10-18T12:43:39Z</time>
      </trkpt>
      <trkpt lat="46.63992" lon="6.03193">
        <ele>787.8</ele>
        <time>2022-10-18T12:43:44Z</time>
      </trkpt>
      <trkpt lat="46.63997" lon="6.03194">
        <ele>787.6</ele>
        <time>2022-10-18T12:43:51Z</time>
      </trkpt>
      <trkpt lat="46.64002" lon="6.03196">
        <ele>787.4</ele>
        <time>2022-10-18T12:43:57Z</time>
      </trkpt>
      <trkpt lat="46.64007" lon="6.03198">
        <ele>786.9</ele>
        <time>2022-10-18T12:44:02Z</time>
      </trkpt>
      <trkpt lat="46.64011" lon="6.03199">
        <ele>786.7</ele>
        <time>2022-10-18T12:44:06Z</time>
      </trkpt>
      <trkpt lat="46.64016" lon="6.03201">
        <ele>786.4</ele>
        <time>2022-10-18T12:44:12Z</time>
      </trkpt>
      <trkpt lat="46.64022" lon="6.03202">
        <ele>786.7</ele>
        <time>2022-10-18T12:44:16Z</time>
      </trkpt>
      <trkpt lat="46.64026" lon="6.032">
        <ele>787</ele>
        <time>2022-10-18T12:44:20Z</time>
      </trkpt>
      <trkpt lat="46.64031" lon="6.03197">
        <ele>787</ele>
        <time>2022-10-18T12:44:24Z</time>
      </trkpt>
      <trkpt lat="46.64034" lon="6.03191">
        <ele>787.1</ele>
        <time>2022-10-18T12:44:28Z</time>
      </trkpt>
      <trkpt lat="46.64033" lon="6.03184">
        <ele>786.4</ele>
        <time>2022-10-18T12:44:33Z</time>
      </trkpt>
      <trkpt lat="46.64032" lon="6.03177">
        <ele>785.4</ele>
        <time>2022-10-18T12:44:38Z</time>
      </trkpt>
      <trkpt lat="46.64031" lon="6.0317">
        <ele>784.4</ele>
        <time>2022-10-18T12:44:44Z</time>
      </trkpt>
      <trkpt lat="46.64032" lon="6.03163">
        <ele>784</ele>
        <time>2022-10-18T12:44:50Z</time>
      </trkpt>
      <trkpt lat="46.64034" lon="6.03156">
        <ele>784.4</ele>
        <time>2022-10-18T12:44:56Z</time>
      </trkpt>
      <trkpt lat="46.64039" lon="6.03152">
        <ele>785.2</ele>
        <time>2022-10-18T12:45:01Z</time>
      </trkpt>
      <trkpt lat="46.64042" lon="6.03148">
        <ele>786.2</ele>
        <time>2022-10-18T12:45:06Z</time>
      </trkpt>
      <trkpt lat="46.64048" lon="6.03147">
        <ele>787.4</ele>
        <time>2022-10-18T12:45:12Z</time>
      </trkpt>
      <trkpt lat="46.64053" lon="6.03149">
        <ele>788.2</ele>
        <time>2022-10-18T12:45:17Z</time>
      </trkpt>
      <trkpt lat="46.64058" lon="6.03153">
        <ele>788.5</ele>
        <time>2022-10-18T12:45:23Z</time>
      </trkpt>
      <trkpt lat="46.64061" lon="6.03157">
        <ele>788.6</ele>
        <time>2022-10-18T12:45:28Z</time>
      </trkpt>
      <trkpt lat="46.64064" lon="6.03162">
        <ele>788.2</ele>
        <time>2022-10-18T12:45:35Z</time>
      </trkpt>
      <trkpt lat="46.64067" lon="6.03169">
        <ele>787.7</ele>
        <time>2022-10-18T12:45:41Z</time>
      </trkpt>
      <trkpt lat="46.64069" lon="6.03175">
        <ele>787.6</ele>
        <time>2022-10-18T12:45:47Z</time>
      </trkpt>
      <trkpt lat="46.64071" lon="6.03182">
        <ele>787.1</ele>
        <time>2022-10-18T12:45:53Z</time>
      </trkpt>
      <trkpt lat="46.64075" lon="6.03186">
        <ele>787</ele>
        <time>2022-10-18T12:45:58Z</time>
      </trkpt>
      <trkpt lat="46.64079" lon="6.03189">
        <ele>788.2</ele>
        <time>2022-10-18T12:46:07Z</time>
      </trkpt>
      <trkpt lat="46.64081" lon="6.03195">
        <ele>789</ele>
        <time>2022-10-18T12:46:10Z</time>
      </trkpt>
      <trkpt lat="46.64085" lon="6.03199">
        <ele>789.1</ele>
        <time>2022-10-18T12:46:14Z</time>
      </trkpt>
      <trkpt lat="46.64087" lon="6.03205">
        <ele>788.8</ele>
        <time>2022-10-18T12:46:19Z</time>
      </trkpt>
      <trkpt lat="46.64088" lon="6.03212">
        <ele>788.1</ele>
        <time>2022-10-18T12:46:24Z</time>
      </trkpt>
      <trkpt lat="46.64091" lon="6.03218">
        <ele>787.5</ele>
        <time>2022-10-18T12:46:29Z</time>
      </trkpt>
      <trkpt lat="46.64096" lon="6.03218">
        <ele>786.7</ele>
        <time>2022-10-18T12:46:35Z</time>
      </trkpt>
      <trkpt lat="46.64101" lon="6.03215">
        <ele>787.9</ele>
        <time>2022-10-18T12:46:40Z</time>
      </trkpt>
      <trkpt lat="46.64106" lon="6.03214">
        <ele>789.8</ele>
        <time>2022-10-18T12:46:44Z</time>
      </trkpt>
      <trkpt lat="46.64111" lon="6.03218">
        <ele>793.5</ele>
        <time>2022-10-18T12:46:49Z</time>
      </trkpt>
      <trkpt lat="46.64116" lon="6.03218">
        <ele>795.3</ele>
        <time>2022-10-18T12:46:52Z</time>
      </trkpt>
      <trkpt lat="46.6412" lon="6.03217">
        <ele>796.6</ele>
        <time>2022-10-18T12:46:55Z</time>
      </trkpt>
      <trkpt lat="46.64126" lon="6.03214">
        <ele>797.9</ele>
        <time>2022-10-18T12:46:58Z</time>
      </trkpt>
      <trkpt lat="46.64131" lon="6.03212">
        <ele>799.1</ele>
        <time>2022-10-18T12:47:01Z</time>
      </trkpt>
      <trkpt lat="46.64133" lon="6.03207">
        <ele>799.4</ele>
        <time>2022-10-18T12:47:07Z</time>
      </trkpt>
      <trkpt lat="46.64137" lon="6.03202">
        <ele>799.4</ele>
        <time>2022-10-18T12:47:12Z</time>
      </trkpt>
      <trkpt lat="46.64141" lon="6.03198">
        <ele>799.5</ele>
        <time>2022-10-18T12:47:26Z</time>
      </trkpt>
      <trkpt lat="46.64146" lon="6.03195">
        <ele>799.3</ele>
        <time>2022-10-18T12:47:35Z</time>
      </trkpt>
      <trkpt lat="46.64151" lon="6.03193">
        <ele>799.1</ele>
        <time>2022-10-18T12:47:39Z</time>
      </trkpt>
      <trkpt lat="46.64156" lon="6.03191">
        <ele>798.8</ele>
        <time>2022-10-18T12:47:42Z</time>
      </trkpt>
      <trkpt lat="46.64159" lon="6.03185">
        <ele>798.3</ele>
        <time>2022-10-18T12:47:46Z</time>
      </trkpt>
      <trkpt lat="46.6416" lon="6.03177">
        <ele>797.4</ele>
        <time>2022-10-18T12:47:51Z</time>
      </trkpt>
      <trkpt lat="46.6416" lon="6.0317">
        <ele>796.5</ele>
        <time>2022-10-18T12:47:56Z</time>
      </trkpt>
      <trkpt lat="46.6416" lon="6.03162">
        <ele>795.2</ele>
        <time>2022-10-18T12:48:02Z</time>
      </trkpt>
      <trkpt lat="46.64161" lon="6.03155">
        <ele>794.1</ele>
        <time>2022-10-18T12:48:07Z</time>
      </trkpt>
      <trkpt lat="46.64161" lon="6.03149">
        <ele>793.7</ele>
        <time>2022-10-18T12:48:11Z</time>
      </trkpt>
      <trkpt lat="46.64161" lon="6.03141">
        <ele>793.4</ele>
        <time>2022-10-18T12:48:16Z</time>
      </trkpt>
      <trkpt lat="46.6416" lon="6.03134">
        <ele>793.5</ele>
        <time>2022-10-18T12:48:21Z</time>
      </trkpt>
      <trkpt lat="46.6416" lon="6.03126">
        <ele>793.5</ele>
        <time>2022-10-18T12:48:26Z</time>
      </trkpt>
      <trkpt lat="46.64159" lon="6.03118">
        <ele>794</ele>
        <time>2022-10-18T12:48:31Z</time>
      </trkpt>
      <trkpt lat="46.64157" lon="6.03112">
        <ele>794.6</ele>
        <time>2022-10-18T12:48:35Z</time>
      </trkpt>
      <trkpt lat="46.64154" lon="6.03106">
        <ele>794.8</ele>
        <time>2022-10-18T12:48:39Z</time>
      </trkpt>
      <trkpt lat="46.64153" lon="6.03099">
        <ele>795</ele>
        <time>2022-10-18T12:48:44Z</time>
      </trkpt>
      <trkpt lat="46.6415" lon="6.03093">
        <ele>794.6</ele>
        <time>2022-10-18T12:48:49Z</time>
      </trkpt>
      <trkpt lat="46.64147" lon="6.03087">
        <ele>794.3</ele>
        <time>2022-10-18T12:48:54Z</time>
      </trkpt>
      <trkpt lat="46.64144" lon="6.03081">
        <ele>794.1</ele>
        <time>2022-10-18T12:48:58Z</time>
      </trkpt>
      <trkpt lat="46.64141" lon="6.03077">
        <ele>794.2</ele>
        <time>2022-10-18T12:49:02Z</time>
      </trkpt>
      <trkpt lat="46.64137" lon="6.03072">
        <ele>794.1</ele>
        <time>2022-10-18T12:49:06Z</time>
      </trkpt>
      <trkpt lat="46.64134" lon="6.03067">
        <ele>794</ele>
        <time>2022-10-18T12:49:10Z</time>
      </trkpt>
      <trkpt lat="46.6413" lon="6.03061">
        <ele>793.8</ele>
        <time>2022-10-18T12:49:15Z</time>
      </trkpt>
      <trkpt lat="46.64126" lon="6.03056">
        <ele>793.6</ele>
        <time>2022-10-18T12:49:20Z</time>
      </trkpt>
      <trkpt lat="46.64121" lon="6.03052">
        <ele>793.8</ele>
        <time>2022-10-18T12:49:24Z</time>
      </trkpt>
      <trkpt lat="46.64117" lon="6.03047">
        <ele>794.3</ele>
        <time>2022-10-18T12:49:28Z</time>
      </trkpt>
      <trkpt lat="46.64113" lon="6.03042">
        <ele>795.6</ele>
        <time>2022-10-18T12:49:33Z</time>
      </trkpt>
      <trkpt lat="46.64109" lon="6.03037">
        <ele>796.7</ele>
        <time>2022-10-18T12:49:38Z</time>
      </trkpt>
      <trkpt lat="46.64106" lon="6.03032">
        <ele>796.5</ele>
        <time>2022-10-18T12:49:43Z</time>
      </trkpt>
      <trkpt lat="46.64101" lon="6.03028">
        <ele>796.2</ele>
        <time>2022-10-18T12:49:48Z</time>
      </trkpt>
      <trkpt lat="46.64097" lon="6.03024">
        <ele>796.1</ele>
        <time>2022-10-18T12:49:53Z</time>
      </trkpt>
      <trkpt lat="46.64092" lon="6.0302">
        <ele>796</ele>
        <time>2022-10-18T12:49:57Z</time>
      </trkpt>
      <trkpt lat="46.64089" lon="6.03016">
        <ele>795.8</ele>
        <time>2022-10-18T12:50:01Z</time>
      </trkpt>
      <trkpt lat="46.64084" lon="6.03012">
        <ele>795.7</ele>
        <time>2022-10-18T12:50:06Z</time>
      </trkpt>
      <trkpt lat="46.6408" lon="6.03008">
        <ele>795.5</ele>
        <time>2022-10-18T12:50:10Z</time>
      </trkpt>
      <trkpt lat="46.64076" lon="6.03003">
        <ele>795.5</ele>
        <time>2022-10-18T12:50:15Z</time>
      </trkpt>
      <trkpt lat="46.64071" lon="6.03001">
        <ele>795.9</ele>
        <time>2022-10-18T12:50:20Z</time>
      </trkpt>
      <trkpt lat="46.64065" lon="6.02999">
        <ele>796.2</ele>
        <time>2022-10-18T12:50:25Z</time>
      </trkpt>
      <trkpt lat="46.6406" lon="6.02997">
        <ele>796.4</ele>
        <time>2022-10-18T12:50:30Z</time>
      </trkpt>
      <trkpt lat="46.64056" lon="6.02995">
        <ele>796.3</ele>
        <time>2022-10-18T12:50:34Z</time>
      </trkpt>
      <trkpt lat="46.64051" lon="6.02992">
        <ele>796.4</ele>
        <time>2022-10-18T12:50:38Z</time>
      </trkpt>
      <trkpt lat="46.64046" lon="6.02991">
        <ele>796.3</ele>
        <time>2022-10-18T12:50:42Z</time>
      </trkpt>
      <trkpt lat="46.64041" lon="6.0299">
        <ele>795.9</ele>
        <time>2022-10-18T12:50:46Z</time>
      </trkpt>
      <trkpt lat="46.64036" lon="6.0299">
        <ele>795.2</ele>
        <time>2022-10-18T12:50:51Z</time>
      </trkpt>
      <trkpt lat="46.64031" lon="6.0299">
        <ele>794.3</ele>
        <time>2022-10-18T12:50:57Z</time>
      </trkpt>
      <trkpt lat="46.64026" lon="6.0299">
        <ele>793.9</ele>
        <time>2022-10-18T12:51:02Z</time>
      </trkpt>
      <trkpt lat="46.64021" lon="6.02989">
        <ele>793.7</ele>
        <time>2022-10-18T12:51:06Z</time>
      </trkpt>
      <trkpt lat="46.64016" lon="6.0299">
        <ele>793.6</ele>
        <time>2022-10-18T12:51:10Z</time>
      </trkpt>
      <trkpt lat="46.64011" lon="6.02992">
        <ele>793</ele>
        <time>2022-10-18T12:51:14Z</time>
      </trkpt>
      <trkpt lat="46.64007" lon="6.02993">
        <ele>792.2</ele>
        <time>2022-10-18T12:51:19Z</time>
      </trkpt>
      <trkpt lat="46.64002" lon="6.02995">
        <ele>790.9</ele>
        <time>2022-10-18T12:51:24Z</time>
      </trkpt>
      <trkpt lat="46.63996" lon="6.02997">
        <ele>789.7</ele>
        <time>2022-10-18T12:51:30Z</time>
      </trkpt>
      <trkpt lat="46.63992" lon="6.02997">
        <ele>789.3</ele>
        <time>2022-10-18T12:51:34Z</time>
      </trkpt>
      <trkpt lat="46.63986" lon="6.02999">
        <ele>789.1</ele>
        <time>2022-10-18T12:51:39Z</time>
      </trkpt>
      <trkpt lat="46.63981" lon="6.03001">
        <ele>788.7</ele>
        <time>2022-10-18T12:51:44Z</time>
      </trkpt>
      <trkpt lat="46.63976" lon="6.03002">
        <ele>788.2</ele>
        <time>2022-10-18T12:51:48Z</time>
      </trkpt>
      <trkpt lat="46.63971" lon="6.03003">
        <ele>787.5</ele>
        <time>2022-10-18T12:51:52Z</time>
      </trkpt>
      <trkpt lat="46.63966" lon="6.03005">
        <ele>786.9</ele>
        <time>2022-10-18T12:51:57Z</time>
      </trkpt>
      <trkpt lat="46.63961" lon="6.03006">
        <ele>786.4</ele>
        <time>2022-10-18T12:52:02Z</time>
      </trkpt>
      <trkpt lat="46.63956" lon="6.03007">
        <ele>786.1</ele>
        <time>2022-10-18T12:52:06Z</time>
      </trkpt>
      <trkpt lat="46.63952" lon="6.03009">
        <ele>785.9</ele>
        <time>2022-10-18T12:52:10Z</time>
      </trkpt>
      <trkpt lat="46.63947" lon="6.03011">
        <ele>785.7</ele>
        <time>2022-10-18T12:52:14Z</time>
      </trkpt>
      <trkpt lat="46.63942" lon="6.03011">
        <ele>785.8</ele>
        <time>2022-10-18T12:52:18Z</time>
      </trkpt>
      <trkpt lat="46.63936" lon="6.03012">
        <ele>785.8</ele>
        <time>2022-10-18T12:52:23Z</time>
      </trkpt>
      <trkpt lat="46.63931" lon="6.03013">
        <ele>786</ele>
        <time>2022-10-18T12:52:27Z</time>
      </trkpt>
      <trkpt lat="46.63927" lon="6.03013">
        <ele>786.2</ele>
        <time>2022-10-18T12:52:31Z</time>
      </trkpt>
      <trkpt lat="46.63922" lon="6.03014">
        <ele>786.4</ele>
        <time>2022-10-18T12:52:35Z</time>
      </trkpt>
      <trkpt lat="46.63917" lon="6.03015">
        <ele>786.8</ele>
        <time>2022-10-18T12:52:39Z</time>
      </trkpt>
      <trkpt lat="46.63912" lon="6.03016">
        <ele>787.3</ele>
        <time>2022-10-18T12:52:44Z</time>
      </trkpt>
      <trkpt lat="46.63907" lon="6.03017">
        <ele>787.6</ele>
        <time>2022-10-18T12:52:49Z</time>
      </trkpt>
      <trkpt lat="46.63901" lon="6.03018">
        <ele>787.8</ele>
        <time>2022-10-18T12:52:54Z</time>
      </trkpt>
      <trkpt lat="46.63897" lon="6.03019">
        <ele>787.5</ele>
        <time>2022-10-18T12:52:58Z</time>
      </trkpt>
      <trkpt lat="46.63892" lon="6.03021">
        <ele>787.5</ele>
        <time>2022-10-18T12:53:02Z</time>
      </trkpt>
      <trkpt lat="46.63886" lon="6.03022">
        <ele>787.9</ele>
        <time>2022-10-18T12:53:06Z</time>
      </trkpt>
      <trkpt lat="46.63881" lon="6.03023">
        <ele>788.4</ele>
        <time>2022-10-18T12:53:10Z</time>
      </trkpt>
      <trkpt lat="46.63876" lon="6.03024">
        <ele>788.6</ele>
        <time>2022-10-18T12:53:14Z</time>
      </trkpt>
      <trkpt lat="46.63871" lon="6.03025">
        <ele>788.8</ele>
        <time>2022-10-18T12:53:19Z</time>
      </trkpt>
      <trkpt lat="46.63866" lon="6.03026">
        <ele>788.6</ele>
        <time>2022-10-18T12:53:24Z</time>
      </trkpt>
      <trkpt lat="46.63861" lon="6.03026">
        <ele>788.5</ele>
        <time>2022-10-18T12:53:29Z</time>
      </trkpt>
      <trkpt lat="46.63856" lon="6.03026">
        <ele>788.6</ele>
        <time>2022-10-18T12:53:34Z</time>
      </trkpt>
      <trkpt lat="46.63852" lon="6.03026">
        <ele>789</ele>
        <time>2022-10-18T12:53:38Z</time>
      </trkpt>
      <trkpt lat="46.63847" lon="6.03026">
        <ele>789.5</ele>
        <time>2022-10-18T12:53:43Z</time>
      </trkpt>
      <trkpt lat="46.63842" lon="6.03028">
        <ele>789.9</ele>
        <time>2022-10-18T12:53:47Z</time>
      </trkpt>
      <trkpt lat="46.63837" lon="6.03028">
        <ele>790.3</ele>
        <time>2022-10-18T12:53:51Z</time>
      </trkpt>
      <trkpt lat="46.63832" lon="6.03029">
        <ele>790.6</ele>
        <time>2022-10-18T12:53:55Z</time>
      </trkpt>
      <trkpt lat="46.63827" lon="6.0303">
        <ele>790.7</ele>
        <time>2022-10-18T12:53:59Z</time>
      </trkpt>
      <trkpt lat="46.63822" lon="6.03029">
        <ele>790.8</ele>
        <time>2022-10-18T12:54:04Z</time>
      </trkpt>
      <trkpt lat="46.63818" lon="6.03028">
        <ele>790.7</ele>
        <time>2022-10-18T12:54:09Z</time>
      </trkpt>
      <trkpt lat="46.63813" lon="6.03026">
        <ele>790.9</ele>
        <time>2022-10-18T12:54:15Z</time>
      </trkpt>
      <trkpt lat="46.63808" lon="6.03026">
        <ele>791.2</ele>
        <time>2022-10-18T12:54:19Z</time>
      </trkpt>
      <trkpt lat="46.63803" lon="6.03027">
        <ele>791.4</ele>
        <time>2022-10-18T12:54:23Z</time>
      </trkpt>
      <trkpt lat="46.63798" lon="6.03028">
        <ele>791.2</ele>
        <time>2022-10-18T12:54:27Z</time>
      </trkpt>
      <trkpt lat="46.63793" lon="6.03029">
        <ele>791</ele>
        <time>2022-10-18T12:54:31Z</time>
      </trkpt>
      <trkpt lat="46.63789" lon="6.03032">
        <ele>791</ele>
        <time>2022-10-18T12:54:35Z</time>
      </trkpt>
      <trkpt lat="46.63784" lon="6.03033">
        <ele>790.9</ele>
        <time>2022-10-18T12:54:39Z</time>
      </trkpt>
      <trkpt lat="46.63779" lon="6.03034">
        <ele>790.9</ele>
        <time>2022-10-18T12:54:44Z</time>
      </trkpt>
      <trkpt lat="46.63774" lon="6.03033">
        <ele>791</ele>
        <time>2022-10-18T12:54:49Z</time>
      </trkpt>
      <trkpt lat="46.6377" lon="6.03037">
        <ele>791</ele>
        <time>2022-10-18T12:54:54Z</time>
      </trkpt>
      <trkpt lat="46.63765" lon="6.03039">
        <ele>790.6</ele>
        <time>2022-10-18T12:54:59Z</time>
      </trkpt>
      <trkpt lat="46.63761" lon="6.03043">
        <ele>789.8</ele>
        <time>2022-10-18T12:55:07Z</time>
      </trkpt>
      <trkpt lat="46.63757" lon="6.03047">
        <ele>789.4</ele>
        <time>2022-10-18T12:55:13Z</time>
      </trkpt>
      <trkpt lat="46.63752" lon="6.03042">
        <ele>790</ele>
        <time>2022-10-18T12:55:18Z</time>
      </trkpt>
      <trkpt lat="46.63749" lon="6.03046">
        <ele>793.1</ele>
        <time>2022-10-18T12:55:27Z</time>
      </trkpt>
      <trkpt lat="46.63745" lon="6.0305">
        <ele>794.4</ele>
        <time>2022-10-18T12:55:36Z</time>
      </trkpt>
      <trkpt lat="46.6374" lon="6.03053">
        <ele>794.2</ele>
        <time>2022-10-18T12:55:44Z</time>
      </trkpt>
      <trkpt lat="46.63736" lon="6.03055">
        <ele>794.5</ele>
        <time>2022-10-18T12:55:50Z</time>
      </trkpt>
    </trkseg>
  </trk>
</gpx>